<?xml version="1.0" encoding="UTF-8" standalone="no" ?>
<gpx xmlns="http://www.topografix.com/GPX/1/1" xmlns:xsi="http://www.w3.org/2001/XMLSchema-instance" xsi:schemaLocation="http://www.topografix.com/GPX/1/1 http://www.topografix.com/GPX/1/1/gpx.xsd" version="1.1" creator="VisuGPX - https://www.visugpx.com">
  <metadata>
    <name>Paradiski J1-2016 (JLo)</name>
    <desc><![CDATA[La Plagne - premier jour]]></desc>
  </metadata>
  <trk>
    <name><![CDATA[2016-03-20 09:20]]></name>
    <desc><![CDATA[<p>Temps de départ: 03/20/2016 09:20</p><p>Temps d'arrivée: 03/20/2016 16:45</p><p>Distance: 94,5 km (07:24)</p><p>Temps déplacement: 05:57</p><p>Vitesse moyenne: 12,7 km/h</p><p>Vitesse moyenne mouvement: 15,9 km/h</p><p>Vitess Max.: 65,7km/h</p><p>Altitude minimale: 1216 m</p><p>Altitude maximale: 2716 m</p><p>Vitesse d'élévation: 3466,6 m/h</p><p>Vitesse de descente: -2945 m/h</p><p>Gain Altitude: 10403 m</p><p>Perte Altitude: -10367 m</p><p>Temps d'élévation: 03:00</p><p>Temps de descente: 03:31</p><hr align="center" width="480" style="height: 2px; width: 517px"/>]]></desc>
    <trkseg>
      <trkpt lat="45.51042" lon="6.66552">
        <ele>2110.33</ele>
        <time>2016-03-20T08:20:42Z</time>
      </trkpt>
      <trkpt lat="45.51028" lon="6.66568">
        <ele>2106.94</ele>
        <time>2016-03-20T08:21:49Z</time>
      </trkpt>
      <trkpt lat="45.51009" lon="6.66578">
        <ele>2106.73</ele>
        <time>2016-03-20T08:21:54Z</time>
      </trkpt>
      <trkpt lat="45.50995" lon="6.66594">
        <ele>2108.5</ele>
        <time>2016-03-20T08:21:58Z</time>
      </trkpt>
      <trkpt lat="45.50982" lon="6.66614">
        <ele>2108.53</ele>
        <time>2016-03-20T08:22:01Z</time>
      </trkpt>
      <trkpt lat="45.50963" lon="6.66632">
        <ele>2108.72</ele>
        <time>2016-03-20T08:22:05Z</time>
      </trkpt>
      <trkpt lat="45.50952" lon="6.66653">
        <ele>2097.73</ele>
        <time>2016-03-20T08:22:10Z</time>
      </trkpt>
      <trkpt lat="45.50936" lon="6.66672">
        <ele>2094.75</ele>
        <time>2016-03-20T08:22:15Z</time>
      </trkpt>
      <trkpt lat="45.50921" lon="6.66694">
        <ele>2091.94</ele>
        <time>2016-03-20T08:22:19Z</time>
      </trkpt>
      <trkpt lat="45.50907" lon="6.66717">
        <ele>2092.33</ele>
        <time>2016-03-20T08:22:22Z</time>
      </trkpt>
      <trkpt lat="45.50899" lon="6.66747">
        <ele>2091.57</ele>
        <time>2016-03-20T08:22:25Z</time>
      </trkpt>
      <trkpt lat="45.5089" lon="6.66781">
        <ele>2089.54</ele>
        <time>2016-03-20T08:22:29Z</time>
      </trkpt>
      <trkpt lat="45.50878" lon="6.66803">
        <ele>2088.7</ele>
        <time>2016-03-20T08:22:32Z</time>
      </trkpt>
      <trkpt lat="45.50868" lon="6.6683">
        <ele>2083.78</ele>
        <time>2016-03-20T08:22:36Z</time>
      </trkpt>
      <trkpt lat="45.50856" lon="6.66851">
        <ele>2082.76</ele>
        <time>2016-03-20T08:22:40Z</time>
      </trkpt>
      <trkpt lat="45.50837" lon="6.66854">
        <ele>2075.78</ele>
        <time>2016-03-20T08:22:46Z</time>
      </trkpt>
      <trkpt lat="45.50818" lon="6.66865">
        <ele>2074.73</ele>
        <time>2016-03-20T08:22:50Z</time>
      </trkpt>
      <trkpt lat="45.50801" lon="6.66884">
        <ele>2074.46</ele>
        <time>2016-03-20T08:22:54Z</time>
      </trkpt>
      <trkpt lat="45.50785" lon="6.66906">
        <ele>2072.77</ele>
        <time>2016-03-20T08:22:58Z</time>
      </trkpt>
      <trkpt lat="45.50771" lon="6.66925">
        <ele>2070.62</ele>
        <time>2016-03-20T08:23:00Z</time>
      </trkpt>
      <trkpt lat="45.50758" lon="6.66947">
        <ele>2069.73</ele>
        <time>2016-03-20T08:23:02Z</time>
      </trkpt>
      <trkpt lat="45.50736" lon="6.66966">
        <ele>2068.54</ele>
        <time>2016-03-20T08:23:05Z</time>
      </trkpt>
      <trkpt lat="45.50718" lon="6.66973">
        <ele>2066.77</ele>
        <time>2016-03-20T08:23:07Z</time>
      </trkpt>
      <trkpt lat="45.50697" lon="6.66969">
        <ele>2065.42</ele>
        <time>2016-03-20T08:23:09Z</time>
      </trkpt>
      <trkpt lat="45.50678" lon="6.66966">
        <ele>2064.73</ele>
        <time>2016-03-20T08:23:11Z</time>
      </trkpt>
      <trkpt lat="45.50652" lon="6.66967">
        <ele>2063.57</ele>
        <time>2016-03-20T08:23:14Z</time>
      </trkpt>
      <trkpt lat="45.5063" lon="6.66986">
        <ele>2058.83</ele>
        <time>2016-03-20T08:23:17Z</time>
      </trkpt>
      <trkpt lat="45.50612" lon="6.66993">
        <ele>2057.54</ele>
        <time>2016-03-20T08:23:20Z</time>
      </trkpt>
      <trkpt lat="45.50593" lon="6.66995">
        <ele>2056.54</ele>
        <time>2016-03-20T08:23:23Z</time>
      </trkpt>
      <trkpt lat="45.50576" lon="6.67017">
        <ele>2051.83</ele>
        <time>2016-03-20T08:23:27Z</time>
      </trkpt>
      <trkpt lat="45.50568" lon="6.67042">
        <ele>2050.58</ele>
        <time>2016-03-20T08:23:29Z</time>
      </trkpt>
      <trkpt lat="45.50563" lon="6.67067">
        <ele>2046.21</ele>
        <time>2016-03-20T08:23:31Z</time>
      </trkpt>
      <trkpt lat="45.50558" lon="6.67093">
        <ele>2043.96</ele>
        <time>2016-03-20T08:23:33Z</time>
      </trkpt>
      <trkpt lat="45.50555" lon="6.67119">
        <ele>2041.79</ele>
        <time>2016-03-20T08:23:35Z</time>
      </trkpt>
      <trkpt lat="45.50544" lon="6.67148">
        <ele>2036.58</ele>
        <time>2016-03-20T08:23:37Z</time>
      </trkpt>
      <trkpt lat="45.5054" lon="6.67177">
        <ele>2032.85</ele>
        <time>2016-03-20T08:23:39Z</time>
      </trkpt>
      <trkpt lat="45.50528" lon="6.67198">
        <ele>2030.62</ele>
        <time>2016-03-20T08:23:41Z</time>
      </trkpt>
      <trkpt lat="45.50516" lon="6.67222">
        <ele>2025.25</ele>
        <time>2016-03-20T08:23:43Z</time>
      </trkpt>
      <trkpt lat="45.50511" lon="6.67247">
        <ele>2020.08</ele>
        <time>2016-03-20T08:23:45Z</time>
      </trkpt>
      <trkpt lat="45.50508" lon="6.67274">
        <ele>2016.83</ele>
        <time>2016-03-20T08:23:47Z</time>
      </trkpt>
      <trkpt lat="45.50502" lon="6.67304">
        <ele>2013.82</ele>
        <time>2016-03-20T08:23:49Z</time>
      </trkpt>
      <trkpt lat="45.50495" lon="6.67336">
        <ele>2010.82</ele>
        <time>2016-03-20T08:23:51Z</time>
      </trkpt>
      <trkpt lat="45.50487" lon="6.67365">
        <ele>2009.58</ele>
        <time>2016-03-20T08:23:53Z</time>
      </trkpt>
      <trkpt lat="45.50481" lon="6.67399">
        <ele>2005.79</ele>
        <time>2016-03-20T08:23:56Z</time>
      </trkpt>
      <trkpt lat="45.50484" lon="6.67429">
        <ele>1999.02</ele>
        <time>2016-03-20T08:24:00Z</time>
      </trkpt>
      <trkpt lat="45.50485" lon="6.67459">
        <ele>1995.77</ele>
        <time>2016-03-20T08:24:05Z</time>
      </trkpt>
      <trkpt lat="45.50489" lon="6.67486">
        <ele>1995.68</ele>
        <time>2016-03-20T08:24:09Z</time>
      </trkpt>
      <trkpt lat="45.50494" lon="6.67513">
        <ele>1992.37</ele>
        <time>2016-03-20T08:24:15Z</time>
      </trkpt>
      <trkpt lat="45.50498" lon="6.67544">
        <ele>1989.75</ele>
        <time>2016-03-20T08:24:20Z</time>
      </trkpt>
      <trkpt lat="45.50501" lon="6.67572">
        <ele>1985.34</ele>
        <time>2016-03-20T08:24:25Z</time>
      </trkpt>
      <trkpt lat="45.50508" lon="6.67596">
        <ele>1984.58</ele>
        <time>2016-03-20T08:24:31Z</time>
      </trkpt>
      <trkpt lat="45.50511" lon="6.67624">
        <ele>1984.34</ele>
        <time>2016-03-20T08:24:37Z</time>
      </trkpt>
      <trkpt lat="45.50516" lon="6.6765">
        <ele>1983.13</ele>
        <time>2016-03-20T08:24:44Z</time>
      </trkpt>
      <trkpt lat="45.50521" lon="6.67676">
        <ele>1985.3</ele>
        <time>2016-03-20T08:24:52Z</time>
      </trkpt>
      <trkpt lat="45.50533" lon="6.67695">
        <ele>1986.74</ele>
        <time>2016-03-20T08:25:17Z</time>
      </trkpt>
      <trkpt lat="45.5054" lon="6.6772">
        <ele>1985.69</ele>
        <time>2016-03-20T08:25:29Z</time>
      </trkpt>
      <trkpt lat="45.50525" lon="6.67734">
        <ele>1978.67</ele>
        <time>2016-03-20T08:25:48Z</time>
      </trkpt>
      <trkpt lat="45.50541" lon="6.67721">
        <ele>1989.53</ele>
        <time>2016-03-20T08:26:56Z</time>
      </trkpt>
      <trkpt lat="45.50516" lon="6.67724">
        <ele>1978.61</ele>
        <time>2016-03-20T08:28:13Z</time>
      </trkpt>
      <trkpt lat="45.50498" lon="6.6773">
        <ele>1988.61</ele>
        <time>2016-03-20T08:28:15Z</time>
      </trkpt>
      <trkpt lat="45.50475" lon="6.67746">
        <ele>1982.24</ele>
        <time>2016-03-20T08:28:19Z</time>
      </trkpt>
      <trkpt lat="45.50456" lon="6.67755">
        <ele>1980.7</ele>
        <time>2016-03-20T08:28:22Z</time>
      </trkpt>
      <trkpt lat="45.50439" lon="6.67763">
        <ele>1983.57</ele>
        <time>2016-03-20T08:28:25Z</time>
      </trkpt>
      <trkpt lat="45.50421" lon="6.6777">
        <ele>1986.25</ele>
        <time>2016-03-20T08:28:28Z</time>
      </trkpt>
      <trkpt lat="45.50397" lon="6.6778">
        <ele>1993.47</ele>
        <time>2016-03-20T08:28:32Z</time>
      </trkpt>
      <trkpt lat="45.50377" lon="6.67791">
        <ele>1995.52</ele>
        <time>2016-03-20T08:28:36Z</time>
      </trkpt>
      <trkpt lat="45.50359" lon="6.67809">
        <ele>2002.21</ele>
        <time>2016-03-20T08:28:41Z</time>
      </trkpt>
      <trkpt lat="45.50339" lon="6.67819">
        <ele>2008.07</ele>
        <time>2016-03-20T08:28:45Z</time>
      </trkpt>
      <trkpt lat="45.50318" lon="6.6783">
        <ele>2011.36</ele>
        <time>2016-03-20T08:28:49Z</time>
      </trkpt>
      <trkpt lat="45.50297" lon="6.67837">
        <ele>2017.87</ele>
        <time>2016-03-20T08:28:53Z</time>
      </trkpt>
      <trkpt lat="45.50276" lon="6.67842">
        <ele>2022.51</ele>
        <time>2016-03-20T08:28:57Z</time>
      </trkpt>
      <trkpt lat="45.50259" lon="6.67856">
        <ele>2034.81</ele>
        <time>2016-03-20T08:29:01Z</time>
      </trkpt>
      <trkpt lat="45.50239" lon="6.67869">
        <ele>2039.51</ele>
        <time>2016-03-20T08:29:05Z</time>
      </trkpt>
      <trkpt lat="45.50222" lon="6.67878">
        <ele>2048.18</ele>
        <time>2016-03-20T08:29:09Z</time>
      </trkpt>
      <trkpt lat="45.502" lon="6.67888">
        <ele>2056.26</ele>
        <time>2016-03-20T08:29:13Z</time>
      </trkpt>
      <trkpt lat="45.50184" lon="6.67899">
        <ele>2060.24</ele>
        <time>2016-03-20T08:29:16Z</time>
      </trkpt>
      <trkpt lat="45.50167" lon="6.67909">
        <ele>2061.52</ele>
        <time>2016-03-20T08:29:19Z</time>
      </trkpt>
      <trkpt lat="45.50149" lon="6.67922">
        <ele>2067.46</ele>
        <time>2016-03-20T08:29:23Z</time>
      </trkpt>
      <trkpt lat="45.50131" lon="6.67934">
        <ele>2070.32</ele>
        <time>2016-03-20T08:29:27Z</time>
      </trkpt>
      <trkpt lat="45.50112" lon="6.67938">
        <ele>2074.31</ele>
        <time>2016-03-20T08:29:30Z</time>
      </trkpt>
      <trkpt lat="45.50095" lon="6.67948">
        <ele>2095.48</ele>
        <time>2016-03-20T08:29:36Z</time>
      </trkpt>
      <trkpt lat="45.50075" lon="6.67959">
        <ele>2100.08</ele>
        <time>2016-03-20T08:29:40Z</time>
      </trkpt>
      <trkpt lat="45.50053" lon="6.67969">
        <ele>2104.28</ele>
        <time>2016-03-20T08:29:44Z</time>
      </trkpt>
      <trkpt lat="45.50033" lon="6.67979">
        <ele>2109.24</ele>
        <time>2016-03-20T08:29:48Z</time>
      </trkpt>
      <trkpt lat="45.50013" lon="6.67992">
        <ele>2115.04</ele>
        <time>2016-03-20T08:29:52Z</time>
      </trkpt>
      <trkpt lat="45.49994" lon="6.68002">
        <ele>2122.03</ele>
        <time>2016-03-20T08:29:56Z</time>
      </trkpt>
      <trkpt lat="45.49975" lon="6.68011">
        <ele>2128.07</ele>
        <time>2016-03-20T08:30:00Z</time>
      </trkpt>
      <trkpt lat="45.49954" lon="6.6802">
        <ele>2134.21</ele>
        <time>2016-03-20T08:30:04Z</time>
      </trkpt>
      <trkpt lat="45.49934" lon="6.68031">
        <ele>2139.08</ele>
        <time>2016-03-20T08:30:08Z</time>
      </trkpt>
      <trkpt lat="45.49913" lon="6.68042">
        <ele>2147.06</ele>
        <time>2016-03-20T08:30:12Z</time>
      </trkpt>
      <trkpt lat="45.49894" lon="6.68051">
        <ele>2152.4</ele>
        <time>2016-03-20T08:30:16Z</time>
      </trkpt>
      <trkpt lat="45.49874" lon="6.68061">
        <ele>2160.22</ele>
        <time>2016-03-20T08:30:20Z</time>
      </trkpt>
      <trkpt lat="45.49854" lon="6.68075">
        <ele>2167.07</ele>
        <time>2016-03-20T08:30:24Z</time>
      </trkpt>
      <trkpt lat="45.49833" lon="6.68085">
        <ele>2172.09</ele>
        <time>2016-03-20T08:30:28Z</time>
      </trkpt>
      <trkpt lat="45.49816" lon="6.68095">
        <ele>2180.87</ele>
        <time>2016-03-20T08:30:32Z</time>
      </trkpt>
      <trkpt lat="45.49796" lon="6.68104">
        <ele>2188.08</ele>
        <time>2016-03-20T08:30:36Z</time>
      </trkpt>
      <trkpt lat="45.49777" lon="6.68113">
        <ele>2195.19</ele>
        <time>2016-03-20T08:30:40Z</time>
      </trkpt>
      <trkpt lat="45.49759" lon="6.68124">
        <ele>2203.18</ele>
        <time>2016-03-20T08:30:44Z</time>
      </trkpt>
      <trkpt lat="45.4974" lon="6.68132">
        <ele>2208.28</ele>
        <time>2016-03-20T08:30:48Z</time>
      </trkpt>
      <trkpt lat="45.49718" lon="6.68141">
        <ele>2210.29</ele>
        <time>2016-03-20T08:30:52Z</time>
      </trkpt>
      <trkpt lat="45.49695" lon="6.68154">
        <ele>2213.28</ele>
        <time>2016-03-20T08:30:56Z</time>
      </trkpt>
      <trkpt lat="45.49671" lon="6.68166">
        <ele>2217.29</ele>
        <time>2016-03-20T08:31:00Z</time>
      </trkpt>
      <trkpt lat="45.49649" lon="6.68182">
        <ele>2225.03</ele>
        <time>2016-03-20T08:31:05Z</time>
      </trkpt>
      <trkpt lat="45.49631" lon="6.68191">
        <ele>2230.31</ele>
        <time>2016-03-20T08:31:09Z</time>
      </trkpt>
      <trkpt lat="45.49613" lon="6.68199">
        <ele>2234.24</ele>
        <time>2016-03-20T08:31:12Z</time>
      </trkpt>
      <trkpt lat="45.49595" lon="6.68209">
        <ele>2238.45</ele>
        <time>2016-03-20T08:31:16Z</time>
      </trkpt>
      <trkpt lat="45.49579" lon="6.68221">
        <ele>2255.47</ele>
        <time>2016-03-20T08:31:22Z</time>
      </trkpt>
      <trkpt lat="45.49561" lon="6.68229">
        <ele>2282.88</ele>
        <time>2016-03-20T08:31:27Z</time>
      </trkpt>
      <trkpt lat="45.4954" lon="6.6824">
        <ele>2289.08</ele>
        <time>2016-03-20T08:31:31Z</time>
      </trkpt>
      <trkpt lat="45.49521" lon="6.68252">
        <ele>2296.66</ele>
        <time>2016-03-20T08:31:35Z</time>
      </trkpt>
      <trkpt lat="45.49499" lon="6.68261">
        <ele>2301.29</ele>
        <time>2016-03-20T08:31:39Z</time>
      </trkpt>
      <trkpt lat="45.49481" lon="6.6827">
        <ele>2317.47</ele>
        <time>2016-03-20T08:31:44Z</time>
      </trkpt>
      <trkpt lat="45.49463" lon="6.6828">
        <ele>2328.23</ele>
        <time>2016-03-20T08:31:48Z</time>
      </trkpt>
      <trkpt lat="45.49445" lon="6.68292">
        <ele>2332.44</ele>
        <time>2016-03-20T08:31:52Z</time>
      </trkpt>
      <trkpt lat="45.49424" lon="6.683">
        <ele>2338.25</ele>
        <time>2016-03-20T08:31:56Z</time>
      </trkpt>
      <trkpt lat="45.49409" lon="6.68316">
        <ele>2344.23</ele>
        <time>2016-03-20T08:32:00Z</time>
      </trkpt>
      <trkpt lat="45.49392" lon="6.68327">
        <ele>2359.06</ele>
        <time>2016-03-20T08:32:05Z</time>
      </trkpt>
      <trkpt lat="45.49373" lon="6.68335">
        <ele>2365.09</ele>
        <time>2016-03-20T08:32:09Z</time>
      </trkpt>
      <trkpt lat="45.49355" lon="6.68339">
        <ele>2383.73</ele>
        <time>2016-03-20T08:32:13Z</time>
      </trkpt>
      <trkpt lat="45.49337" lon="6.6835">
        <ele>2390.88</ele>
        <time>2016-03-20T08:32:17Z</time>
      </trkpt>
      <trkpt lat="45.49316" lon="6.68358">
        <ele>2412.2</ele>
        <time>2016-03-20T08:32:22Z</time>
      </trkpt>
      <trkpt lat="45.49296" lon="6.68365">
        <ele>2425.61</ele>
        <time>2016-03-20T08:32:26Z</time>
      </trkpt>
      <trkpt lat="45.49277" lon="6.68375">
        <ele>2435.96</ele>
        <time>2016-03-20T08:32:30Z</time>
      </trkpt>
      <trkpt lat="45.49255" lon="6.68387">
        <ele>2443.22</ele>
        <time>2016-03-20T08:32:34Z</time>
      </trkpt>
      <trkpt lat="45.49237" lon="6.68397">
        <ele>2452.76</ele>
        <time>2016-03-20T08:32:38Z</time>
      </trkpt>
      <trkpt lat="45.4922" lon="6.68405">
        <ele>2459.47</ele>
        <time>2016-03-20T08:32:42Z</time>
      </trkpt>
      <trkpt lat="45.49199" lon="6.68412">
        <ele>2469.02</ele>
        <time>2016-03-20T08:32:47Z</time>
      </trkpt>
      <trkpt lat="45.49181" lon="6.68419">
        <ele>2477.2</ele>
        <time>2016-03-20T08:32:51Z</time>
      </trkpt>
      <trkpt lat="45.49163" lon="6.68418">
        <ele>2484.74</ele>
        <time>2016-03-20T08:33:22Z</time>
      </trkpt>
      <trkpt lat="45.49146" lon="6.68424">
        <ele>2493.52</ele>
        <time>2016-03-20T08:33:58Z</time>
      </trkpt>
      <trkpt lat="45.4913" lon="6.68409">
        <ele>2505.69</ele>
        <time>2016-03-20T08:37:16Z</time>
      </trkpt>
      <trkpt lat="45.49123" lon="6.68381">
        <ele>2506.73</ele>
        <time>2016-03-20T08:37:25Z</time>
      </trkpt>
      <trkpt lat="45.49116" lon="6.68354">
        <ele>2503.55</ele>
        <time>2016-03-20T08:37:31Z</time>
      </trkpt>
      <trkpt lat="45.49108" lon="6.68324">
        <ele>2498.01</ele>
        <time>2016-03-20T08:37:36Z</time>
      </trkpt>
      <trkpt lat="45.49102" lon="6.68295">
        <ele>2493.01</ele>
        <time>2016-03-20T08:37:40Z</time>
      </trkpt>
      <trkpt lat="45.49093" lon="6.68269">
        <ele>2488.82</ele>
        <time>2016-03-20T08:37:43Z</time>
      </trkpt>
      <trkpt lat="45.49087" lon="6.68243">
        <ele>2487.7</ele>
        <time>2016-03-20T08:37:46Z</time>
      </trkpt>
      <trkpt lat="45.49088" lon="6.68213">
        <ele>2484.59</ele>
        <time>2016-03-20T08:37:49Z</time>
      </trkpt>
      <trkpt lat="45.49075" lon="6.68188">
        <ele>2478</ele>
        <time>2016-03-20T08:37:52Z</time>
      </trkpt>
      <trkpt lat="45.49068" lon="6.68151">
        <ele>2474.75</ele>
        <time>2016-03-20T08:37:55Z</time>
      </trkpt>
      <trkpt lat="45.4906" lon="6.68123">
        <ele>2471.82</ele>
        <time>2016-03-20T08:37:57Z</time>
      </trkpt>
      <trkpt lat="45.49051" lon="6.68095">
        <ele>2468.18</ele>
        <time>2016-03-20T08:37:59Z</time>
      </trkpt>
      <trkpt lat="45.49048" lon="6.68066">
        <ele>2463.24</ele>
        <time>2016-03-20T08:38:01Z</time>
      </trkpt>
      <trkpt lat="45.4904" lon="6.68038">
        <ele>2459.04</ele>
        <time>2016-03-20T08:38:03Z</time>
      </trkpt>
      <trkpt lat="45.49022" lon="6.68042">
        <ele>2433.97</ele>
        <time>2016-03-20T08:38:27Z</time>
      </trkpt>
      <trkpt lat="45.49004" lon="6.68043">
        <ele>2414.84</ele>
        <time>2016-03-20T08:39:05Z</time>
      </trkpt>
      <trkpt lat="45.48985" lon="6.68045">
        <ele>2410.79</ele>
        <time>2016-03-20T08:39:08Z</time>
      </trkpt>
      <trkpt lat="45.48963" lon="6.6806">
        <ele>2406.15</ele>
        <time>2016-03-20T08:39:11Z</time>
      </trkpt>
      <trkpt lat="45.48953" lon="6.68083">
        <ele>2400.28</ele>
        <time>2016-03-20T08:39:13Z</time>
      </trkpt>
      <trkpt lat="45.48934" lon="6.68107">
        <ele>2396.78</ele>
        <time>2016-03-20T08:39:16Z</time>
      </trkpt>
      <trkpt lat="45.4891" lon="6.68115">
        <ele>2393.02</ele>
        <time>2016-03-20T08:39:18Z</time>
      </trkpt>
      <trkpt lat="45.48893" lon="6.68133">
        <ele>2389.03</ele>
        <time>2016-03-20T08:39:20Z</time>
      </trkpt>
      <trkpt lat="45.4888" lon="6.6816">
        <ele>2385.83</ele>
        <time>2016-03-20T08:39:22Z</time>
      </trkpt>
      <trkpt lat="45.48857" lon="6.68175">
        <ele>2381.06</ele>
        <time>2016-03-20T08:39:24Z</time>
      </trkpt>
      <trkpt lat="45.48837" lon="6.68192">
        <ele>2379.59</ele>
        <time>2016-03-20T08:39:26Z</time>
      </trkpt>
      <trkpt lat="45.48818" lon="6.68213">
        <ele>2377.77</ele>
        <time>2016-03-20T08:39:28Z</time>
      </trkpt>
      <trkpt lat="45.48802" lon="6.68238">
        <ele>2374.82</ele>
        <time>2016-03-20T08:39:30Z</time>
      </trkpt>
      <trkpt lat="45.48783" lon="6.68252">
        <ele>2373.74</ele>
        <time>2016-03-20T08:39:32Z</time>
      </trkpt>
      <trkpt lat="45.48762" lon="6.68262">
        <ele>2370.98</ele>
        <time>2016-03-20T08:39:34Z</time>
      </trkpt>
      <trkpt lat="45.48739" lon="6.68271">
        <ele>2367.99</ele>
        <time>2016-03-20T08:39:36Z</time>
      </trkpt>
      <trkpt lat="45.48716" lon="6.68289">
        <ele>2362.91</ele>
        <time>2016-03-20T08:39:38Z</time>
      </trkpt>
      <trkpt lat="45.48695" lon="6.68294">
        <ele>2360.63</ele>
        <time>2016-03-20T08:39:40Z</time>
      </trkpt>
      <trkpt lat="45.48678" lon="6.68276">
        <ele>2357.78</ele>
        <time>2016-03-20T08:39:43Z</time>
      </trkpt>
      <trkpt lat="45.48658" lon="6.6828">
        <ele>2326.46</ele>
        <time>2016-03-20T08:40:09Z</time>
      </trkpt>
      <trkpt lat="45.48639" lon="6.68272">
        <ele>2322.05</ele>
        <time>2016-03-20T08:40:11Z</time>
      </trkpt>
      <trkpt lat="45.48616" lon="6.68262">
        <ele>2313.09</ele>
        <time>2016-03-20T08:40:14Z</time>
      </trkpt>
      <trkpt lat="45.48594" lon="6.68264">
        <ele>2304.22</ele>
        <time>2016-03-20T08:40:17Z</time>
      </trkpt>
      <trkpt lat="45.48572" lon="6.68263">
        <ele>2298.99</ele>
        <time>2016-03-20T08:40:20Z</time>
      </trkpt>
      <trkpt lat="45.48543" lon="6.6827">
        <ele>2293.25</ele>
        <time>2016-03-20T08:40:23Z</time>
      </trkpt>
      <trkpt lat="45.48521" lon="6.68272">
        <ele>2288.08</ele>
        <time>2016-03-20T08:40:25Z</time>
      </trkpt>
      <trkpt lat="45.48498" lon="6.68274">
        <ele>2284.03</ele>
        <time>2016-03-20T08:40:27Z</time>
      </trkpt>
      <trkpt lat="45.48479" lon="6.68296">
        <ele>2279.07</ele>
        <time>2016-03-20T08:40:29Z</time>
      </trkpt>
      <trkpt lat="45.48455" lon="6.68294">
        <ele>2266.55</ele>
        <time>2016-03-20T08:40:31Z</time>
      </trkpt>
      <trkpt lat="45.4843" lon="6.68293">
        <ele>2259.33</ele>
        <time>2016-03-20T08:40:33Z</time>
      </trkpt>
      <trkpt lat="45.48402" lon="6.68304">
        <ele>2252.32</ele>
        <time>2016-03-20T08:40:35Z</time>
      </trkpt>
      <trkpt lat="45.48375" lon="6.68301">
        <ele>2241.64</ele>
        <time>2016-03-20T08:40:37Z</time>
      </trkpt>
      <trkpt lat="45.48349" lon="6.68303">
        <ele>2239.78</ele>
        <time>2016-03-20T08:40:39Z</time>
      </trkpt>
      <trkpt lat="45.4833" lon="6.68292">
        <ele>2227.7</ele>
        <time>2016-03-20T08:40:41Z</time>
      </trkpt>
      <trkpt lat="45.48311" lon="6.68288">
        <ele>2222.42</ele>
        <time>2016-03-20T08:40:43Z</time>
      </trkpt>
      <trkpt lat="45.48296" lon="6.68301">
        <ele>2214.05</ele>
        <time>2016-03-20T08:40:45Z</time>
      </trkpt>
      <trkpt lat="45.48277" lon="6.68323">
        <ele>2206.46</ele>
        <time>2016-03-20T08:40:48Z</time>
      </trkpt>
      <trkpt lat="45.48263" lon="6.6834">
        <ele>2196.64</ele>
        <time>2016-03-20T08:40:51Z</time>
      </trkpt>
      <trkpt lat="45.48251" lon="6.68367">
        <ele>2182.11</ele>
        <time>2016-03-20T08:40:55Z</time>
      </trkpt>
      <trkpt lat="45.48247" lon="6.68399">
        <ele>2168.06</ele>
        <time>2016-03-20T08:40:59Z</time>
      </trkpt>
      <trkpt lat="45.48239" lon="6.68437">
        <ele>2158.13</ele>
        <time>2016-03-20T08:41:02Z</time>
      </trkpt>
      <trkpt lat="45.48235" lon="6.68478">
        <ele>2147.25</ele>
        <time>2016-03-20T08:41:06Z</time>
      </trkpt>
      <trkpt lat="45.48222" lon="6.68513">
        <ele>2138.31</ele>
        <time>2016-03-20T08:41:09Z</time>
      </trkpt>
      <trkpt lat="45.48212" lon="6.68542">
        <ele>2131.64</ele>
        <time>2016-03-20T08:41:11Z</time>
      </trkpt>
      <trkpt lat="45.48204" lon="6.6857">
        <ele>2124.34</ele>
        <time>2016-03-20T08:41:13Z</time>
      </trkpt>
      <trkpt lat="45.48194" lon="6.68603">
        <ele>2113.08</ele>
        <time>2016-03-20T08:41:17Z</time>
      </trkpt>
      <trkpt lat="45.48179" lon="6.68632">
        <ele>2105.67</ele>
        <time>2016-03-20T08:41:19Z</time>
      </trkpt>
      <trkpt lat="45.48163" lon="6.68665">
        <ele>2096.28</ele>
        <time>2016-03-20T08:41:22Z</time>
      </trkpt>
      <trkpt lat="45.48146" lon="6.68692">
        <ele>2088.68</ele>
        <time>2016-03-20T08:41:24Z</time>
      </trkpt>
      <trkpt lat="45.48139" lon="6.68725">
        <ele>2077.66</ele>
        <time>2016-03-20T08:41:26Z</time>
      </trkpt>
      <trkpt lat="45.48145" lon="6.68757">
        <ele>2042.03</ele>
        <time>2016-03-20T08:41:51Z</time>
      </trkpt>
      <trkpt lat="45.48147" lon="6.68793">
        <ele>2034.05</ele>
        <time>2016-03-20T08:41:54Z</time>
      </trkpt>
      <trkpt lat="45.48146" lon="6.6883">
        <ele>2027.84</ele>
        <time>2016-03-20T08:41:57Z</time>
      </trkpt>
      <trkpt lat="45.48148" lon="6.68862">
        <ele>2021.04</ele>
        <time>2016-03-20T08:42:00Z</time>
      </trkpt>
      <trkpt lat="45.48146" lon="6.68895">
        <ele>2015.1</ele>
        <time>2016-03-20T08:42:03Z</time>
      </trkpt>
      <trkpt lat="45.48142" lon="6.68922">
        <ele>2007.11</ele>
        <time>2016-03-20T08:42:06Z</time>
      </trkpt>
      <trkpt lat="45.48128" lon="6.68937">
        <ele>2003.77</ele>
        <time>2016-03-20T08:44:05Z</time>
      </trkpt>
      <trkpt lat="45.4811" lon="6.68935">
        <ele>2000.38</ele>
        <time>2016-03-20T08:45:45Z</time>
      </trkpt>
      <trkpt lat="45.48091" lon="6.68941">
        <ele>1998.59</ele>
        <time>2016-03-20T08:45:49Z</time>
      </trkpt>
      <trkpt lat="45.48067" lon="6.68943">
        <ele>1990.03</ele>
        <time>2016-03-20T08:45:53Z</time>
      </trkpt>
      <trkpt lat="45.48048" lon="6.68944">
        <ele>1988.42</ele>
        <time>2016-03-20T08:45:56Z</time>
      </trkpt>
      <trkpt lat="45.48029" lon="6.68944">
        <ele>1983.78</ele>
        <time>2016-03-20T08:46:00Z</time>
      </trkpt>
      <trkpt lat="45.48011" lon="6.68951">
        <ele>1977.82</ele>
        <time>2016-03-20T08:46:04Z</time>
      </trkpt>
      <trkpt lat="45.47992" lon="6.68949">
        <ele>1971.83</ele>
        <time>2016-03-20T08:46:10Z</time>
      </trkpt>
      <trkpt lat="45.47972" lon="6.68947">
        <ele>1967.53</ele>
        <time>2016-03-20T08:46:17Z</time>
      </trkpt>
      <trkpt lat="45.47952" lon="6.68948">
        <ele>1955.82</ele>
        <time>2016-03-20T08:46:26Z</time>
      </trkpt>
      <trkpt lat="45.47934" lon="6.68948">
        <ele>1938.79</ele>
        <time>2016-03-20T08:46:37Z</time>
      </trkpt>
      <trkpt lat="45.47914" lon="6.68946">
        <ele>1927.73</ele>
        <time>2016-03-20T08:47:03Z</time>
      </trkpt>
      <trkpt lat="45.47896" lon="6.68934">
        <ele>1916.18</ele>
        <time>2016-03-20T08:47:10Z</time>
      </trkpt>
      <trkpt lat="45.47877" lon="6.68934">
        <ele>1909.58</ele>
        <time>2016-03-20T08:47:16Z</time>
      </trkpt>
      <trkpt lat="45.47857" lon="6.68937">
        <ele>1902.04</ele>
        <time>2016-03-20T08:47:21Z</time>
      </trkpt>
      <trkpt lat="45.47838" lon="6.68927">
        <ele>1892.78</ele>
        <time>2016-03-20T08:47:28Z</time>
      </trkpt>
      <trkpt lat="45.47821" lon="6.68919">
        <ele>1886.98</ele>
        <time>2016-03-20T08:47:32Z</time>
      </trkpt>
      <trkpt lat="45.47804" lon="6.6893">
        <ele>1880.87</ele>
        <time>2016-03-20T08:47:35Z</time>
      </trkpt>
      <trkpt lat="45.47775" lon="6.68935">
        <ele>1877.02</ele>
        <time>2016-03-20T08:47:37Z</time>
      </trkpt>
      <trkpt lat="45.47745" lon="6.68939">
        <ele>1870.31</ele>
        <time>2016-03-20T08:47:39Z</time>
      </trkpt>
      <trkpt lat="45.47715" lon="6.6894">
        <ele>1866.04</ele>
        <time>2016-03-20T08:47:41Z</time>
      </trkpt>
      <trkpt lat="45.4769" lon="6.6895">
        <ele>1862.99</ele>
        <time>2016-03-20T08:47:43Z</time>
      </trkpt>
      <trkpt lat="45.47665" lon="6.68954">
        <ele>1859.83</ele>
        <time>2016-03-20T08:47:45Z</time>
      </trkpt>
      <trkpt lat="45.47643" lon="6.68957">
        <ele>1857.78</ele>
        <time>2016-03-20T08:47:47Z</time>
      </trkpt>
      <trkpt lat="45.47619" lon="6.68966">
        <ele>1853.63</ele>
        <time>2016-03-20T08:47:50Z</time>
      </trkpt>
      <trkpt lat="45.47634" lon="6.68949">
        <ele>1844.53</ele>
        <time>2016-03-20T08:48:02Z</time>
      </trkpt>
      <trkpt lat="45.4765" lon="6.68936">
        <ele>1845.74</ele>
        <time>2016-03-20T08:48:49Z</time>
      </trkpt>
      <trkpt lat="45.47667" lon="6.68921">
        <ele>1841.2</ele>
        <time>2016-03-20T08:49:06Z</time>
      </trkpt>
      <trkpt lat="45.47685" lon="6.68905">
        <ele>1842.12</ele>
        <time>2016-03-20T08:49:11Z</time>
      </trkpt>
      <trkpt lat="45.47703" lon="6.68887">
        <ele>1845.13</ele>
        <time>2016-03-20T08:49:16Z</time>
      </trkpt>
      <trkpt lat="45.47717" lon="6.6887">
        <ele>1850.28</ele>
        <time>2016-03-20T08:49:20Z</time>
      </trkpt>
      <trkpt lat="45.47733" lon="6.68853">
        <ele>1857.11</ele>
        <time>2016-03-20T08:49:25Z</time>
      </trkpt>
      <trkpt lat="45.47748" lon="6.68834">
        <ele>1861.89</ele>
        <time>2016-03-20T08:49:30Z</time>
      </trkpt>
      <trkpt lat="45.47765" lon="6.68814">
        <ele>1870.84</ele>
        <time>2016-03-20T08:49:35Z</time>
      </trkpt>
      <trkpt lat="45.47781" lon="6.68799">
        <ele>1883.63</ele>
        <time>2016-03-20T08:49:40Z</time>
      </trkpt>
      <trkpt lat="45.47797" lon="6.68779">
        <ele>1896.01</ele>
        <time>2016-03-20T08:49:45Z</time>
      </trkpt>
      <trkpt lat="45.47811" lon="6.68764">
        <ele>1911.43</ele>
        <time>2016-03-20T08:49:51Z</time>
      </trkpt>
      <trkpt lat="45.47827" lon="6.68748">
        <ele>1922.99</ele>
        <time>2016-03-20T08:49:56Z</time>
      </trkpt>
      <trkpt lat="45.47842" lon="6.68725">
        <ele>1932.28</ele>
        <time>2016-03-20T08:50:03Z</time>
      </trkpt>
      <trkpt lat="45.47852" lon="6.68702">
        <ele>1939.08</ele>
        <time>2016-03-20T08:50:09Z</time>
      </trkpt>
      <trkpt lat="45.47868" lon="6.68688">
        <ele>1949.06</ele>
        <time>2016-03-20T08:50:14Z</time>
      </trkpt>
      <trkpt lat="45.47882" lon="6.68665">
        <ele>1958.07</ele>
        <time>2016-03-20T08:50:20Z</time>
      </trkpt>
      <trkpt lat="45.47897" lon="6.68645">
        <ele>1964.72</ele>
        <time>2016-03-20T08:50:26Z</time>
      </trkpt>
      <trkpt lat="45.47912" lon="6.68626">
        <ele>1970.28</ele>
        <time>2016-03-20T08:50:31Z</time>
      </trkpt>
      <trkpt lat="45.47929" lon="6.68612">
        <ele>1980.63</ele>
        <time>2016-03-20T08:50:35Z</time>
      </trkpt>
      <trkpt lat="45.47945" lon="6.68593">
        <ele>1989.04</ele>
        <time>2016-03-20T08:50:40Z</time>
      </trkpt>
      <trkpt lat="45.47961" lon="6.68578">
        <ele>2000.81</ele>
        <time>2016-03-20T08:50:44Z</time>
      </trkpt>
      <trkpt lat="45.47977" lon="6.68561">
        <ele>2010.38</ele>
        <time>2016-03-20T08:50:49Z</time>
      </trkpt>
      <trkpt lat="45.47994" lon="6.68542">
        <ele>2016.09</ele>
        <time>2016-03-20T08:50:54Z</time>
      </trkpt>
      <trkpt lat="45.48011" lon="6.68523">
        <ele>2023.88</ele>
        <time>2016-03-20T08:50:59Z</time>
      </trkpt>
      <trkpt lat="45.48027" lon="6.68506">
        <ele>2030.25</ele>
        <time>2016-03-20T08:51:04Z</time>
      </trkpt>
      <trkpt lat="45.48045" lon="6.68489">
        <ele>2038.83</ele>
        <time>2016-03-20T08:51:09Z</time>
      </trkpt>
      <trkpt lat="45.48062" lon="6.68471">
        <ele>2043.28</ele>
        <time>2016-03-20T08:51:13Z</time>
      </trkpt>
      <trkpt lat="45.48079" lon="6.68454">
        <ele>2048.12</ele>
        <time>2016-03-20T08:51:18Z</time>
      </trkpt>
      <trkpt lat="45.48096" lon="6.68435">
        <ele>2053.24</ele>
        <time>2016-03-20T08:51:22Z</time>
      </trkpt>
      <trkpt lat="45.4812" lon="6.6843">
        <ele>2067.76</ele>
        <time>2016-03-20T08:51:24Z</time>
      </trkpt>
      <trkpt lat="45.48136" lon="6.6841">
        <ele>2074.09</ele>
        <time>2016-03-20T08:51:29Z</time>
      </trkpt>
      <trkpt lat="45.48152" lon="6.6839">
        <ele>2079.12</ele>
        <time>2016-03-20T08:51:34Z</time>
      </trkpt>
      <trkpt lat="45.48166" lon="6.68372">
        <ele>2082.32</ele>
        <time>2016-03-20T08:51:39Z</time>
      </trkpt>
      <trkpt lat="45.48184" lon="6.68357">
        <ele>2092.21</ele>
        <time>2016-03-20T08:51:43Z</time>
      </trkpt>
      <trkpt lat="45.48198" lon="6.68339">
        <ele>2096.31</ele>
        <time>2016-03-20T08:51:48Z</time>
      </trkpt>
      <trkpt lat="45.48213" lon="6.68318">
        <ele>2100.28</ele>
        <time>2016-03-20T08:51:54Z</time>
      </trkpt>
      <trkpt lat="45.4823" lon="6.683">
        <ele>2107.27</ele>
        <time>2016-03-20T08:51:59Z</time>
      </trkpt>
      <trkpt lat="45.48247" lon="6.68282">
        <ele>2112.25</ele>
        <time>2016-03-20T08:52:04Z</time>
      </trkpt>
      <trkpt lat="45.48262" lon="6.68267">
        <ele>2120.03</ele>
        <time>2016-03-20T08:52:08Z</time>
      </trkpt>
      <trkpt lat="45.48278" lon="6.68249">
        <ele>2126.28</ele>
        <time>2016-03-20T08:52:13Z</time>
      </trkpt>
      <trkpt lat="45.48296" lon="6.68234">
        <ele>2132.39</ele>
        <time>2016-03-20T08:52:17Z</time>
      </trkpt>
      <trkpt lat="45.48313" lon="6.68215">
        <ele>2136.28</ele>
        <time>2016-03-20T08:52:22Z</time>
      </trkpt>
      <trkpt lat="45.48332" lon="6.68204">
        <ele>2145.84</ele>
        <time>2016-03-20T08:52:25Z</time>
      </trkpt>
      <trkpt lat="45.48349" lon="6.68189">
        <ele>2154.24</ele>
        <time>2016-03-20T08:52:29Z</time>
      </trkpt>
      <trkpt lat="45.48367" lon="6.6817">
        <ele>2159.24</ele>
        <time>2016-03-20T08:52:34Z</time>
      </trkpt>
      <trkpt lat="45.48384" lon="6.68153">
        <ele>2163.29</ele>
        <time>2016-03-20T08:52:39Z</time>
      </trkpt>
      <trkpt lat="45.48399" lon="6.68138">
        <ele>2167.93</ele>
        <time>2016-03-20T08:52:43Z</time>
      </trkpt>
      <trkpt lat="45.48416" lon="6.6812">
        <ele>2177</ele>
        <time>2016-03-20T08:52:48Z</time>
      </trkpt>
      <trkpt lat="45.48433" lon="6.68103">
        <ele>2182.41</ele>
        <time>2016-03-20T08:52:53Z</time>
      </trkpt>
      <trkpt lat="45.48448" lon="6.68085">
        <ele>2188.32</ele>
        <time>2016-03-20T08:52:58Z</time>
      </trkpt>
      <trkpt lat="45.48463" lon="6.68067">
        <ele>2195.08</ele>
        <time>2016-03-20T08:53:03Z</time>
      </trkpt>
      <trkpt lat="45.48478" lon="6.68051">
        <ele>2207.06</ele>
        <time>2016-03-20T08:53:08Z</time>
      </trkpt>
      <trkpt lat="45.48494" lon="6.68034">
        <ele>2215.88</ele>
        <time>2016-03-20T08:53:13Z</time>
      </trkpt>
      <trkpt lat="45.4851" lon="6.68016">
        <ele>2231.06</ele>
        <time>2016-03-20T08:53:18Z</time>
      </trkpt>
      <trkpt lat="45.48526" lon="6.68">
        <ele>2243.01</ele>
        <time>2016-03-20T08:53:23Z</time>
      </trkpt>
      <trkpt lat="45.48544" lon="6.67984">
        <ele>2253.83</ele>
        <time>2016-03-20T08:53:28Z</time>
      </trkpt>
      <trkpt lat="45.48559" lon="6.67967">
        <ele>2263.03</ele>
        <time>2016-03-20T08:53:33Z</time>
      </trkpt>
      <trkpt lat="45.48575" lon="6.6795">
        <ele>2277.82</ele>
        <time>2016-03-20T08:53:38Z</time>
      </trkpt>
      <trkpt lat="45.4859" lon="6.67933">
        <ele>2286.24</ele>
        <time>2016-03-20T08:53:43Z</time>
      </trkpt>
      <trkpt lat="45.48609" lon="6.67916">
        <ele>2298.82</ele>
        <time>2016-03-20T08:53:48Z</time>
      </trkpt>
      <trkpt lat="45.48627" lon="6.67898">
        <ele>2308.27</ele>
        <time>2016-03-20T08:53:53Z</time>
      </trkpt>
      <trkpt lat="45.48644" lon="6.6788">
        <ele>2318.22</ele>
        <time>2016-03-20T08:53:58Z</time>
      </trkpt>
      <trkpt lat="45.48658" lon="6.67864">
        <ele>2328.62</ele>
        <time>2016-03-20T08:54:02Z</time>
      </trkpt>
      <trkpt lat="45.48673" lon="6.6785">
        <ele>2341.89</ele>
        <time>2016-03-20T08:54:06Z</time>
      </trkpt>
      <trkpt lat="45.4869" lon="6.67833">
        <ele>2353.87</ele>
        <time>2016-03-20T08:54:11Z</time>
      </trkpt>
      <trkpt lat="45.48704" lon="6.67812">
        <ele>2368.03</ele>
        <time>2016-03-20T08:54:17Z</time>
      </trkpt>
      <trkpt lat="45.48718" lon="6.67795">
        <ele>2378.98</ele>
        <time>2016-03-20T08:54:22Z</time>
      </trkpt>
      <trkpt lat="45.48737" lon="6.6778">
        <ele>2393.89</ele>
        <time>2016-03-20T08:54:26Z</time>
      </trkpt>
      <trkpt lat="45.48753" lon="6.67762">
        <ele>2409.78</ele>
        <time>2016-03-20T08:54:31Z</time>
      </trkpt>
      <trkpt lat="45.48767" lon="6.67745">
        <ele>2420.4</ele>
        <time>2016-03-20T08:54:37Z</time>
      </trkpt>
      <trkpt lat="45.48783" lon="6.67728">
        <ele>2433.92</ele>
        <time>2016-03-20T08:54:43Z</time>
      </trkpt>
      <trkpt lat="45.48799" lon="6.67711">
        <ele>2444.95</ele>
        <time>2016-03-20T08:54:47Z</time>
      </trkpt>
      <trkpt lat="45.48816" lon="6.67693">
        <ele>2457.78</ele>
        <time>2016-03-20T08:54:52Z</time>
      </trkpt>
      <trkpt lat="45.4883" lon="6.67677">
        <ele>2468.79</ele>
        <time>2016-03-20T08:54:56Z</time>
      </trkpt>
      <trkpt lat="45.48847" lon="6.67659">
        <ele>2475.52</ele>
        <time>2016-03-20T08:55:02Z</time>
      </trkpt>
      <trkpt lat="45.48861" lon="6.6764">
        <ele>2477.34</ele>
        <time>2016-03-20T08:55:11Z</time>
      </trkpt>
      <trkpt lat="45.48871" lon="6.67617">
        <ele>2477.53</ele>
        <time>2016-03-20T08:55:19Z</time>
      </trkpt>
      <trkpt lat="45.4887" lon="6.67591">
        <ele>2483.54</ele>
        <time>2016-03-20T08:56:11Z</time>
      </trkpt>
      <trkpt lat="45.48865" lon="6.67566">
        <ele>2488.49</ele>
        <time>2016-03-20T08:57:32Z</time>
      </trkpt>
      <trkpt lat="45.48857" lon="6.67542">
        <ele>2485.58</ele>
        <time>2016-03-20T08:57:39Z</time>
      </trkpt>
      <trkpt lat="45.4885" lon="6.67516">
        <ele>2485.53</ele>
        <time>2016-03-20T08:57:45Z</time>
      </trkpt>
      <trkpt lat="45.48843" lon="6.67491">
        <ele>2484.5</ele>
        <time>2016-03-20T08:57:50Z</time>
      </trkpt>
      <trkpt lat="45.48831" lon="6.67465">
        <ele>2484.53</ele>
        <time>2016-03-20T08:57:56Z</time>
      </trkpt>
      <trkpt lat="45.48822" lon="6.67438">
        <ele>2485.52</ele>
        <time>2016-03-20T08:58:01Z</time>
      </trkpt>
      <trkpt lat="45.48812" lon="6.6741">
        <ele>2483.74</ele>
        <time>2016-03-20T08:58:05Z</time>
      </trkpt>
      <trkpt lat="45.48799" lon="6.67382">
        <ele>2481.61</ele>
        <time>2016-03-20T08:58:09Z</time>
      </trkpt>
      <trkpt lat="45.48784" lon="6.67358">
        <ele>2477.95</ele>
        <time>2016-03-20T08:58:12Z</time>
      </trkpt>
      <trkpt lat="45.48764" lon="6.67339">
        <ele>2472.03</ele>
        <time>2016-03-20T08:58:15Z</time>
      </trkpt>
      <trkpt lat="45.48744" lon="6.67325">
        <ele>2467.07</ele>
        <time>2016-03-20T08:58:17Z</time>
      </trkpt>
      <trkpt lat="45.48724" lon="6.67319">
        <ele>2462.23</ele>
        <time>2016-03-20T08:58:19Z</time>
      </trkpt>
      <trkpt lat="45.48701" lon="6.67335">
        <ele>2457.09</ele>
        <time>2016-03-20T08:58:22Z</time>
      </trkpt>
      <trkpt lat="45.4868" lon="6.6734">
        <ele>2446.73</ele>
        <time>2016-03-20T08:58:40Z</time>
      </trkpt>
      <trkpt lat="45.4866" lon="6.67347">
        <ele>2444.55</ele>
        <time>2016-03-20T08:58:44Z</time>
      </trkpt>
      <trkpt lat="45.48639" lon="6.67343">
        <ele>2442.55</ele>
        <time>2016-03-20T08:58:47Z</time>
      </trkpt>
      <trkpt lat="45.48619" lon="6.67337">
        <ele>2441.73</ele>
        <time>2016-03-20T08:58:50Z</time>
      </trkpt>
      <trkpt lat="45.48596" lon="6.67327">
        <ele>2439.58</ele>
        <time>2016-03-20T08:58:53Z</time>
      </trkpt>
      <trkpt lat="45.48569" lon="6.67318">
        <ele>2436.78</ele>
        <time>2016-03-20T08:58:56Z</time>
      </trkpt>
      <trkpt lat="45.48543" lon="6.67319">
        <ele>2430.84</ele>
        <time>2016-03-20T08:58:59Z</time>
      </trkpt>
      <trkpt lat="45.48517" lon="6.67318">
        <ele>2424.9</ele>
        <time>2016-03-20T08:59:02Z</time>
      </trkpt>
      <trkpt lat="45.48498" lon="6.6733">
        <ele>2421.97</ele>
        <time>2016-03-20T08:59:05Z</time>
      </trkpt>
      <trkpt lat="45.48501" lon="6.67357">
        <ele>2415.57</ele>
        <time>2016-03-20T08:59:38Z</time>
      </trkpt>
      <trkpt lat="45.48494" lon="6.67386">
        <ele>2413.77</ele>
        <time>2016-03-20T08:59:41Z</time>
      </trkpt>
      <trkpt lat="45.48476" lon="6.67416">
        <ele>2411.9</ele>
        <time>2016-03-20T08:59:44Z</time>
      </trkpt>
      <trkpt lat="45.48461" lon="6.67437">
        <ele>2410.75</ele>
        <time>2016-03-20T08:59:46Z</time>
      </trkpt>
      <trkpt lat="45.48437" lon="6.67448">
        <ele>2407.82</ele>
        <time>2016-03-20T08:59:48Z</time>
      </trkpt>
      <trkpt lat="45.48409" lon="6.67462">
        <ele>2404.82</ele>
        <time>2016-03-20T08:59:50Z</time>
      </trkpt>
      <trkpt lat="45.48387" lon="6.67456">
        <ele>2400.06</ele>
        <time>2016-03-20T08:59:52Z</time>
      </trkpt>
      <trkpt lat="45.48362" lon="6.67449">
        <ele>2398.59</ele>
        <time>2016-03-20T08:59:54Z</time>
      </trkpt>
      <trkpt lat="45.4834" lon="6.67455">
        <ele>2392.45</ele>
        <time>2016-03-20T08:59:56Z</time>
      </trkpt>
      <trkpt lat="45.48315" lon="6.67465">
        <ele>2382.55</ele>
        <time>2016-03-20T08:59:59Z</time>
      </trkpt>
      <trkpt lat="45.48295" lon="6.67468">
        <ele>2376.29</ele>
        <time>2016-03-20T09:00:01Z</time>
      </trkpt>
      <trkpt lat="45.48276" lon="6.67476">
        <ele>2372.68</ele>
        <time>2016-03-20T09:00:03Z</time>
      </trkpt>
      <trkpt lat="45.48257" lon="6.67485">
        <ele>2369.34</ele>
        <time>2016-03-20T09:00:05Z</time>
      </trkpt>
      <trkpt lat="45.48241" lon="6.67495">
        <ele>2363.28</ele>
        <time>2016-03-20T09:00:07Z</time>
      </trkpt>
      <trkpt lat="45.48224" lon="6.67507">
        <ele>2359.68</ele>
        <time>2016-03-20T09:00:09Z</time>
      </trkpt>
      <trkpt lat="45.48205" lon="6.67524">
        <ele>2355.37</ele>
        <time>2016-03-20T09:00:12Z</time>
      </trkpt>
      <trkpt lat="45.48184" lon="6.67541">
        <ele>2353.54</ele>
        <time>2016-03-20T09:00:16Z</time>
      </trkpt>
      <trkpt lat="45.48164" lon="6.67553">
        <ele>2348.8</ele>
        <time>2016-03-20T09:00:19Z</time>
      </trkpt>
      <trkpt lat="45.4814" lon="6.67571">
        <ele>2345.78</ele>
        <time>2016-03-20T09:00:22Z</time>
      </trkpt>
      <trkpt lat="45.48116" lon="6.67574">
        <ele>2341.76</ele>
        <time>2016-03-20T09:00:25Z</time>
      </trkpt>
      <trkpt lat="45.48099" lon="6.6758">
        <ele>2340.37</ele>
        <time>2016-03-20T09:00:40Z</time>
      </trkpt>
      <trkpt lat="45.48082" lon="6.67607">
        <ele>2329.41</ele>
        <time>2016-03-20T09:01:24Z</time>
      </trkpt>
      <trkpt lat="45.4807" lon="6.67632">
        <ele>2323.8</ele>
        <time>2016-03-20T09:01:27Z</time>
      </trkpt>
      <trkpt lat="45.48056" lon="6.67655">
        <ele>2320.78</ele>
        <time>2016-03-20T09:01:30Z</time>
      </trkpt>
      <trkpt lat="45.48041" lon="6.67675">
        <ele>2316.22</ele>
        <time>2016-03-20T09:01:32Z</time>
      </trkpt>
      <trkpt lat="45.48024" lon="6.67686">
        <ele>2312.2</ele>
        <time>2016-03-20T09:01:34Z</time>
      </trkpt>
      <trkpt lat="45.48012" lon="6.67711">
        <ele>2301.92</ele>
        <time>2016-03-20T09:01:38Z</time>
      </trkpt>
      <trkpt lat="45.47983" lon="6.67738">
        <ele>2293.44</ele>
        <time>2016-03-20T09:01:41Z</time>
      </trkpt>
      <trkpt lat="45.47963" lon="6.67763">
        <ele>2287.93</ele>
        <time>2016-03-20T09:01:43Z</time>
      </trkpt>
      <trkpt lat="45.47937" lon="6.67792">
        <ele>2286.59</ele>
        <time>2016-03-20T09:01:45Z</time>
      </trkpt>
      <trkpt lat="45.47915" lon="6.67818">
        <ele>2283.01</ele>
        <time>2016-03-20T09:01:47Z</time>
      </trkpt>
      <trkpt lat="45.47894" lon="6.67834">
        <ele>2281.75</ele>
        <time>2016-03-20T09:01:49Z</time>
      </trkpt>
      <trkpt lat="45.47879" lon="6.67857">
        <ele>2278.98</ele>
        <time>2016-03-20T09:01:51Z</time>
      </trkpt>
      <trkpt lat="45.47863" lon="6.67885">
        <ele>2268.2</ele>
        <time>2016-03-20T09:01:54Z</time>
      </trkpt>
      <trkpt lat="45.47847" lon="6.67921">
        <ele>2257.46</ele>
        <time>2016-03-20T09:01:57Z</time>
      </trkpt>
      <trkpt lat="45.47843" lon="6.67952">
        <ele>2248.25</ele>
        <time>2016-03-20T09:02:00Z</time>
      </trkpt>
      <trkpt lat="45.47852" lon="6.67981">
        <ele>2243.98</ele>
        <time>2016-03-20T09:02:03Z</time>
      </trkpt>
      <trkpt lat="45.47869" lon="6.67998">
        <ele>2233.23</ele>
        <time>2016-03-20T09:02:06Z</time>
      </trkpt>
      <trkpt lat="45.47886" lon="6.68018">
        <ele>2226.2</ele>
        <time>2016-03-20T09:02:09Z</time>
      </trkpt>
      <trkpt lat="45.47908" lon="6.68036">
        <ele>2220.99</ele>
        <time>2016-03-20T09:02:12Z</time>
      </trkpt>
      <trkpt lat="45.4793" lon="6.68054">
        <ele>2214.81</ele>
        <time>2016-03-20T09:02:15Z</time>
      </trkpt>
      <trkpt lat="45.47947" lon="6.68066">
        <ele>2212.78</ele>
        <time>2016-03-20T09:02:17Z</time>
      </trkpt>
      <trkpt lat="45.47966" lon="6.68084">
        <ele>2210.62</ele>
        <time>2016-03-20T09:02:19Z</time>
      </trkpt>
      <trkpt lat="45.47981" lon="6.68098">
        <ele>2207.01</ele>
        <time>2016-03-20T09:02:21Z</time>
      </trkpt>
      <trkpt lat="45.48006" lon="6.68111">
        <ele>2197.96</ele>
        <time>2016-03-20T09:02:24Z</time>
      </trkpt>
      <trkpt lat="45.48026" lon="6.68121">
        <ele>2194.83</ele>
        <time>2016-03-20T09:02:26Z</time>
      </trkpt>
      <trkpt lat="45.48043" lon="6.68134">
        <ele>2191.82</ele>
        <time>2016-03-20T09:02:28Z</time>
      </trkpt>
      <trkpt lat="45.48058" lon="6.68155">
        <ele>2188.82</ele>
        <time>2016-03-20T09:02:30Z</time>
      </trkpt>
      <trkpt lat="45.48074" lon="6.6819">
        <ele>2186.94</ele>
        <time>2016-03-20T09:02:32Z</time>
      </trkpt>
      <trkpt lat="45.4808" lon="6.68229">
        <ele>2183.99</ele>
        <time>2016-03-20T09:02:34Z</time>
      </trkpt>
      <trkpt lat="45.48083" lon="6.68265">
        <ele>2180.03</ele>
        <time>2016-03-20T09:02:36Z</time>
      </trkpt>
      <trkpt lat="45.48073" lon="6.68291">
        <ele>2175.87</ele>
        <time>2016-03-20T09:02:38Z</time>
      </trkpt>
      <trkpt lat="45.48081" lon="6.68323">
        <ele>2172.02</ele>
        <time>2016-03-20T09:02:40Z</time>
      </trkpt>
      <trkpt lat="45.48085" lon="6.6836">
        <ele>2161.55</ele>
        <time>2016-03-20T09:02:43Z</time>
      </trkpt>
      <trkpt lat="45.48086" lon="6.68388">
        <ele>2156.09</ele>
        <time>2016-03-20T09:02:45Z</time>
      </trkpt>
      <trkpt lat="45.48083" lon="6.68421">
        <ele>2133.18</ele>
        <time>2016-03-20T09:03:28Z</time>
      </trkpt>
      <trkpt lat="45.48094" lon="6.68448">
        <ele>2126.04</ele>
        <time>2016-03-20T09:03:31Z</time>
      </trkpt>
      <trkpt lat="45.48099" lon="6.68493">
        <ele>2120.86</ele>
        <time>2016-03-20T09:03:34Z</time>
      </trkpt>
      <trkpt lat="45.48106" lon="6.68526">
        <ele>2113.34</ele>
        <time>2016-03-20T09:03:36Z</time>
      </trkpt>
      <trkpt lat="45.48106" lon="6.68564">
        <ele>2108.72</ele>
        <time>2016-03-20T09:03:38Z</time>
      </trkpt>
      <trkpt lat="45.48109" lon="6.686">
        <ele>2103.26</ele>
        <time>2016-03-20T09:03:40Z</time>
      </trkpt>
      <trkpt lat="45.48119" lon="6.68642">
        <ele>2099.84</ele>
        <time>2016-03-20T09:03:42Z</time>
      </trkpt>
      <trkpt lat="45.48129" lon="6.68691">
        <ele>2097.78</ele>
        <time>2016-03-20T09:03:44Z</time>
      </trkpt>
      <trkpt lat="45.48138" lon="6.68735">
        <ele>2094.18</ele>
        <time>2016-03-20T09:03:46Z</time>
      </trkpt>
      <trkpt lat="45.48143" lon="6.68778">
        <ele>2090.04</ele>
        <time>2016-03-20T09:03:48Z</time>
      </trkpt>
      <trkpt lat="45.48143" lon="6.68818">
        <ele>2081.71</ele>
        <time>2016-03-20T09:03:50Z</time>
      </trkpt>
      <trkpt lat="45.48142" lon="6.68852">
        <ele>2077.7</ele>
        <time>2016-03-20T09:03:52Z</time>
      </trkpt>
      <trkpt lat="45.48143" lon="6.68889">
        <ele>2070.08</ele>
        <time>2016-03-20T09:03:55Z</time>
      </trkpt>
      <trkpt lat="45.48138" lon="6.68929">
        <ele>2062.08</ele>
        <time>2016-03-20T09:03:58Z</time>
      </trkpt>
      <trkpt lat="45.48124" lon="6.6896">
        <ele>2057.23</ele>
        <time>2016-03-20T09:04:00Z</time>
      </trkpt>
      <trkpt lat="45.48125" lon="6.6899">
        <ele>2047.6</ele>
        <time>2016-03-20T09:04:02Z</time>
      </trkpt>
      <trkpt lat="45.48126" lon="6.69018">
        <ele>2037.77</ele>
        <time>2016-03-20T09:04:04Z</time>
      </trkpt>
      <trkpt lat="45.48137" lon="6.69041">
        <ele>2029.85</ele>
        <time>2016-03-20T09:04:07Z</time>
      </trkpt>
      <trkpt lat="45.48159" lon="6.69057">
        <ele>2027.77</ele>
        <time>2016-03-20T09:04:10Z</time>
      </trkpt>
      <trkpt lat="45.48184" lon="6.69068">
        <ele>2022.06</ele>
        <time>2016-03-20T09:04:13Z</time>
      </trkpt>
      <trkpt lat="45.48204" lon="6.69074">
        <ele>2016.91</ele>
        <time>2016-03-20T09:04:15Z</time>
      </trkpt>
      <trkpt lat="45.48225" lon="6.69081">
        <ele>2010.04</ele>
        <time>2016-03-20T09:04:18Z</time>
      </trkpt>
      <trkpt lat="45.48247" lon="6.69091">
        <ele>1999.82</ele>
        <time>2016-03-20T09:04:22Z</time>
      </trkpt>
      <trkpt lat="45.48265" lon="6.69101">
        <ele>1994.78</ele>
        <time>2016-03-20T09:04:27Z</time>
      </trkpt>
      <trkpt lat="45.48275" lon="6.69122">
        <ele>1987.66</ele>
        <time>2016-03-20T09:04:33Z</time>
      </trkpt>
      <trkpt lat="45.48263" lon="6.69148">
        <ele>1984.02</ele>
        <time>2016-03-20T09:04:35Z</time>
      </trkpt>
      <trkpt lat="45.48235" lon="6.69163">
        <ele>1980.03</ele>
        <time>2016-03-20T09:04:37Z</time>
      </trkpt>
      <trkpt lat="45.48202" lon="6.69159">
        <ele>1977.95</ele>
        <time>2016-03-20T09:04:39Z</time>
      </trkpt>
      <trkpt lat="45.48171" lon="6.69159">
        <ele>1975.79</ele>
        <time>2016-03-20T09:04:41Z</time>
      </trkpt>
      <trkpt lat="45.48141" lon="6.69151">
        <ele>1972.18</ele>
        <time>2016-03-20T09:04:43Z</time>
      </trkpt>
      <trkpt lat="45.48112" lon="6.69149">
        <ele>1968.04</ele>
        <time>2016-03-20T09:04:45Z</time>
      </trkpt>
      <trkpt lat="45.48082" lon="6.69147">
        <ele>1963.07</ele>
        <time>2016-03-20T09:04:47Z</time>
      </trkpt>
      <trkpt lat="45.48057" lon="6.69147">
        <ele>1958.23</ele>
        <time>2016-03-20T09:04:49Z</time>
      </trkpt>
      <trkpt lat="45.48032" lon="6.69138">
        <ele>1954.84</ele>
        <time>2016-03-20T09:04:51Z</time>
      </trkpt>
      <trkpt lat="45.48009" lon="6.69129">
        <ele>1952.14</ele>
        <time>2016-03-20T09:04:53Z</time>
      </trkpt>
      <trkpt lat="45.47993" lon="6.69117">
        <ele>1951.65</ele>
        <time>2016-03-20T09:04:54Z</time>
      </trkpt>
      <trkpt lat="45.47965" lon="6.69103">
        <ele>1947.22</ele>
        <time>2016-03-20T09:04:56Z</time>
      </trkpt>
      <trkpt lat="45.47935" lon="6.69084">
        <ele>1941.28</ele>
        <time>2016-03-20T09:04:58Z</time>
      </trkpt>
      <trkpt lat="45.47905" lon="6.69068">
        <ele>1937.84</ele>
        <time>2016-03-20T09:05:00Z</time>
      </trkpt>
      <trkpt lat="45.47875" lon="6.69051">
        <ele>1932.26</ele>
        <time>2016-03-20T09:05:02Z</time>
      </trkpt>
      <trkpt lat="45.47846" lon="6.69042">
        <ele>1928.84</ele>
        <time>2016-03-20T09:05:04Z</time>
      </trkpt>
      <trkpt lat="45.47815" lon="6.69021">
        <ele>1924.06</ele>
        <time>2016-03-20T09:05:06Z</time>
      </trkpt>
      <trkpt lat="45.47789" lon="6.68998">
        <ele>1920.83</ele>
        <time>2016-03-20T09:05:08Z</time>
      </trkpt>
      <trkpt lat="45.47758" lon="6.68978">
        <ele>1917.02</ele>
        <time>2016-03-20T09:05:10Z</time>
      </trkpt>
      <trkpt lat="45.47727" lon="6.6897">
        <ele>1911.43</ele>
        <time>2016-03-20T09:05:12Z</time>
      </trkpt>
      <trkpt lat="45.47695" lon="6.68962">
        <ele>1908.01</ele>
        <time>2016-03-20T09:05:14Z</time>
      </trkpt>
      <trkpt lat="45.47661" lon="6.68954">
        <ele>1904.03</ele>
        <time>2016-03-20T09:05:16Z</time>
      </trkpt>
      <trkpt lat="45.4764" lon="6.6896">
        <ele>1896.67</ele>
        <time>2016-03-20T09:05:18Z</time>
      </trkpt>
      <trkpt lat="45.47621" lon="6.6896">
        <ele>1892.86</ele>
        <time>2016-03-20T09:05:20Z</time>
      </trkpt>
      <trkpt lat="45.47603" lon="6.68952">
        <ele>1888.06</ele>
        <time>2016-03-20T09:05:22Z</time>
      </trkpt>
      <trkpt lat="45.47585" lon="6.68953">
        <ele>1884.03</ele>
        <time>2016-03-20T09:05:24Z</time>
      </trkpt>
      <trkpt lat="45.47561" lon="6.68952">
        <ele>1876.21</ele>
        <time>2016-03-20T09:05:27Z</time>
      </trkpt>
      <trkpt lat="45.47538" lon="6.6894">
        <ele>1869.42</ele>
        <time>2016-03-20T09:05:30Z</time>
      </trkpt>
      <trkpt lat="45.47514" lon="6.68924">
        <ele>1864.22</ele>
        <time>2016-03-20T09:05:33Z</time>
      </trkpt>
      <trkpt lat="45.4749" lon="6.68922">
        <ele>1857.58</ele>
        <time>2016-03-20T09:05:36Z</time>
      </trkpt>
      <trkpt lat="45.47469" lon="6.68922">
        <ele>1851</ele>
        <time>2016-03-20T09:05:39Z</time>
      </trkpt>
      <trkpt lat="45.47449" lon="6.68906">
        <ele>1844.02</ele>
        <time>2016-03-20T09:05:43Z</time>
      </trkpt>
      <trkpt lat="45.47432" lon="6.68895">
        <ele>1839.81</ele>
        <time>2016-03-20T09:05:47Z</time>
      </trkpt>
      <trkpt lat="45.47412" lon="6.68895">
        <ele>1835.58</ele>
        <time>2016-03-20T09:05:53Z</time>
      </trkpt>
      <trkpt lat="45.47393" lon="6.68894">
        <ele>1833.57</ele>
        <time>2016-03-20T09:05:59Z</time>
      </trkpt>
      <trkpt lat="45.47373" lon="6.68901">
        <ele>1832.53</ele>
        <time>2016-03-20T09:06:05Z</time>
      </trkpt>
      <trkpt lat="45.47354" lon="6.68903">
        <ele>1828.82</ele>
        <time>2016-03-20T09:06:11Z</time>
      </trkpt>
      <trkpt lat="45.47335" lon="6.6891">
        <ele>1822.57</ele>
        <time>2016-03-20T09:06:20Z</time>
      </trkpt>
      <trkpt lat="45.47318" lon="6.68919">
        <ele>1817.77</ele>
        <time>2016-03-20T09:06:31Z</time>
      </trkpt>
      <trkpt lat="45.47303" lon="6.68935">
        <ele>1819.49</ele>
        <time>2016-03-20T09:07:18Z</time>
      </trkpt>
      <trkpt lat="45.47301" lon="6.68962">
        <ele>1814.58</ele>
        <time>2016-03-20T09:07:50Z</time>
      </trkpt>
      <trkpt lat="45.47306" lon="6.68987">
        <ele>1816.89</ele>
        <time>2016-03-20T09:07:54Z</time>
      </trkpt>
      <trkpt lat="45.47311" lon="6.69015">
        <ele>1823.27</ele>
        <time>2016-03-20T09:07:59Z</time>
      </trkpt>
      <trkpt lat="45.47314" lon="6.69042">
        <ele>1834.99</ele>
        <time>2016-03-20T09:08:05Z</time>
      </trkpt>
      <trkpt lat="45.47319" lon="6.69069">
        <ele>1842.08</ele>
        <time>2016-03-20T09:08:11Z</time>
      </trkpt>
      <trkpt lat="45.47325" lon="6.69097">
        <ele>1851.03</ele>
        <time>2016-03-20T09:08:17Z</time>
      </trkpt>
      <trkpt lat="45.47331" lon="6.69127">
        <ele>1854.53</ele>
        <time>2016-03-20T09:08:23Z</time>
      </trkpt>
      <trkpt lat="45.47335" lon="6.69155">
        <ele>1861.28</ele>
        <time>2016-03-20T09:08:29Z</time>
      </trkpt>
      <trkpt lat="45.47339" lon="6.6918">
        <ele>1866.32</ele>
        <time>2016-03-20T09:08:34Z</time>
      </trkpt>
      <trkpt lat="45.47342" lon="6.69205">
        <ele>1871.24</ele>
        <time>2016-03-20T09:08:39Z</time>
      </trkpt>
      <trkpt lat="45.47343" lon="6.69231">
        <ele>1878.41</ele>
        <time>2016-03-20T09:08:44Z</time>
      </trkpt>
      <trkpt lat="45.47346" lon="6.69257">
        <ele>1883.29</ele>
        <time>2016-03-20T09:08:49Z</time>
      </trkpt>
      <trkpt lat="45.47351" lon="6.69286">
        <ele>1889.27</ele>
        <time>2016-03-20T09:08:55Z</time>
      </trkpt>
      <trkpt lat="45.47354" lon="6.69313">
        <ele>1890.51</ele>
        <time>2016-03-20T09:09:01Z</time>
      </trkpt>
      <trkpt lat="45.47359" lon="6.69338">
        <ele>1896.45</ele>
        <time>2016-03-20T09:09:08Z</time>
      </trkpt>
      <trkpt lat="45.47365" lon="6.69366">
        <ele>1898.5</ele>
        <time>2016-03-20T09:09:14Z</time>
      </trkpt>
      <trkpt lat="45.47368" lon="6.69392">
        <ele>1902.24</ele>
        <time>2016-03-20T09:09:19Z</time>
      </trkpt>
      <trkpt lat="45.47374" lon="6.69421">
        <ele>1906.13</ele>
        <time>2016-03-20T09:09:25Z</time>
      </trkpt>
      <trkpt lat="45.47376" lon="6.69451">
        <ele>1917.24</ele>
        <time>2016-03-20T09:09:31Z</time>
      </trkpt>
      <trkpt lat="45.47381" lon="6.69476">
        <ele>1927.2</ele>
        <time>2016-03-20T09:09:36Z</time>
      </trkpt>
      <trkpt lat="45.47386" lon="6.69503">
        <ele>1935.32</ele>
        <time>2016-03-20T09:09:42Z</time>
      </trkpt>
      <trkpt lat="45.47393" lon="6.69529">
        <ele>1945.38</ele>
        <time>2016-03-20T09:09:48Z</time>
      </trkpt>
      <trkpt lat="45.47397" lon="6.6956">
        <ele>1955.23</ele>
        <time>2016-03-20T09:09:54Z</time>
      </trkpt>
      <trkpt lat="45.47405" lon="6.69585">
        <ele>1963.46</ele>
        <time>2016-03-20T09:10:00Z</time>
      </trkpt>
      <trkpt lat="45.47406" lon="6.69611">
        <ele>1967.48</ele>
        <time>2016-03-20T09:10:05Z</time>
      </trkpt>
      <trkpt lat="45.47411" lon="6.69637">
        <ele>1971.32</ele>
        <time>2016-03-20T09:10:10Z</time>
      </trkpt>
      <trkpt lat="45.47416" lon="6.69664">
        <ele>1980.3</ele>
        <time>2016-03-20T09:10:16Z</time>
      </trkpt>
      <trkpt lat="45.47421" lon="6.69693">
        <ele>1985.32</ele>
        <time>2016-03-20T09:10:22Z</time>
      </trkpt>
      <trkpt lat="45.47423" lon="6.69719">
        <ele>1988.51</ele>
        <time>2016-03-20T09:10:27Z</time>
      </trkpt>
      <trkpt lat="45.47426" lon="6.6975">
        <ele>1998.84</ele>
        <time>2016-03-20T09:10:33Z</time>
      </trkpt>
      <trkpt lat="45.47429" lon="6.69779">
        <ele>2007.11</ele>
        <time>2016-03-20T09:10:39Z</time>
      </trkpt>
      <trkpt lat="45.47434" lon="6.69805">
        <ele>2016.19</ele>
        <time>2016-03-20T09:10:45Z</time>
      </trkpt>
      <trkpt lat="45.47439" lon="6.69829">
        <ele>2026.07</ele>
        <time>2016-03-20T09:10:51Z</time>
      </trkpt>
      <trkpt lat="45.47444" lon="6.69857">
        <ele>2035.26</ele>
        <time>2016-03-20T09:10:57Z</time>
      </trkpt>
      <trkpt lat="45.47449" lon="6.69887">
        <ele>2042.24</ele>
        <time>2016-03-20T09:11:03Z</time>
      </trkpt>
      <trkpt lat="45.47453" lon="6.69913">
        <ele>2052.07</ele>
        <time>2016-03-20T09:11:09Z</time>
      </trkpt>
      <trkpt lat="45.47458" lon="6.69939">
        <ele>2060.07</ele>
        <time>2016-03-20T09:11:15Z</time>
      </trkpt>
      <trkpt lat="45.47463" lon="6.69965">
        <ele>2069.27</ele>
        <time>2016-03-20T09:11:21Z</time>
      </trkpt>
      <trkpt lat="45.47468" lon="6.69992">
        <ele>2079.08</ele>
        <time>2016-03-20T09:11:27Z</time>
      </trkpt>
      <trkpt lat="45.47472" lon="6.70021">
        <ele>2088.08</ele>
        <time>2016-03-20T09:11:33Z</time>
      </trkpt>
      <trkpt lat="45.47479" lon="6.70045">
        <ele>2093.49</ele>
        <time>2016-03-20T09:11:40Z</time>
      </trkpt>
      <trkpt lat="45.47479" lon="6.70074">
        <ele>2098.52</ele>
        <time>2016-03-20T09:11:45Z</time>
      </trkpt>
      <trkpt lat="45.47477" lon="6.70101">
        <ele>2099.52</ele>
        <time>2016-03-20T09:11:52Z</time>
      </trkpt>
      <trkpt lat="45.47464" lon="6.7012">
        <ele>2101.74</ele>
        <time>2016-03-20T09:13:08Z</time>
      </trkpt>
      <trkpt lat="45.47456" lon="6.70147">
        <ele>2101.34</ele>
        <time>2016-03-20T09:13:13Z</time>
      </trkpt>
      <trkpt lat="45.47437" lon="6.70151">
        <ele>2097.62</ele>
        <time>2016-03-20T09:13:17Z</time>
      </trkpt>
      <trkpt lat="45.47407" lon="6.70135">
        <ele>2092.25</ele>
        <time>2016-03-20T09:13:19Z</time>
      </trkpt>
      <trkpt lat="45.47379" lon="6.70123">
        <ele>2088.04</ele>
        <time>2016-03-20T09:13:21Z</time>
      </trkpt>
      <trkpt lat="45.47357" lon="6.7013">
        <ele>2077.63</ele>
        <time>2016-03-20T09:13:23Z</time>
      </trkpt>
      <trkpt lat="45.47341" lon="6.70118">
        <ele>2073.85</ele>
        <time>2016-03-20T09:13:25Z</time>
      </trkpt>
      <trkpt lat="45.4732" lon="6.70109">
        <ele>2071.78</ele>
        <time>2016-03-20T09:13:29Z</time>
      </trkpt>
      <trkpt lat="45.47314" lon="6.70135">
        <ele>2059.96</ele>
        <time>2016-03-20T09:14:19Z</time>
      </trkpt>
      <trkpt lat="45.47332" lon="6.7015">
        <ele>2061.93</ele>
        <time>2016-03-20T09:14:25Z</time>
      </trkpt>
      <trkpt lat="45.4735" lon="6.70165">
        <ele>2064.68</ele>
        <time>2016-03-20T09:14:31Z</time>
      </trkpt>
      <trkpt lat="45.47366" lon="6.70181">
        <ele>2067.29</ele>
        <time>2016-03-20T09:14:37Z</time>
      </trkpt>
      <trkpt lat="45.47384" lon="6.70194">
        <ele>2070.32</ele>
        <time>2016-03-20T09:14:43Z</time>
      </trkpt>
      <trkpt lat="45.474" lon="6.70207">
        <ele>2075.41</ele>
        <time>2016-03-20T09:14:48Z</time>
      </trkpt>
      <trkpt lat="45.47417" lon="6.70223">
        <ele>2078.73</ele>
        <time>2016-03-20T09:14:54Z</time>
      </trkpt>
      <trkpt lat="45.47437" lon="6.70235">
        <ele>2087.89</ele>
        <time>2016-03-20T09:15:00Z</time>
      </trkpt>
      <trkpt lat="45.47455" lon="6.70249">
        <ele>2094.28</ele>
        <time>2016-03-20T09:15:06Z</time>
      </trkpt>
      <trkpt lat="45.47472" lon="6.70263">
        <ele>2097.29</ele>
        <time>2016-03-20T09:15:12Z</time>
      </trkpt>
      <trkpt lat="45.47489" lon="6.70279">
        <ele>2103.29</ele>
        <time>2016-03-20T09:15:18Z</time>
      </trkpt>
      <trkpt lat="45.47505" lon="6.70295">
        <ele>2108.28</ele>
        <time>2016-03-20T09:15:24Z</time>
      </trkpt>
      <trkpt lat="45.47524" lon="6.70308">
        <ele>2111.29</ele>
        <time>2016-03-20T09:15:30Z</time>
      </trkpt>
      <trkpt lat="45.4754" lon="6.7032">
        <ele>2118.93</ele>
        <time>2016-03-20T09:15:35Z</time>
      </trkpt>
      <trkpt lat="45.47555" lon="6.70334">
        <ele>2123.48</ele>
        <time>2016-03-20T09:15:41Z</time>
      </trkpt>
      <trkpt lat="45.47573" lon="6.70349">
        <ele>2131.89</ele>
        <time>2016-03-20T09:15:47Z</time>
      </trkpt>
      <trkpt lat="45.47588" lon="6.70364">
        <ele>2139.27</ele>
        <time>2016-03-20T09:15:52Z</time>
      </trkpt>
      <trkpt lat="45.47607" lon="6.70377">
        <ele>2141.49</ele>
        <time>2016-03-20T09:15:58Z</time>
      </trkpt>
      <trkpt lat="45.47624" lon="6.70393">
        <ele>2148.28</ele>
        <time>2016-03-20T09:16:04Z</time>
      </trkpt>
      <trkpt lat="45.4764" lon="6.70408">
        <ele>2154.28</ele>
        <time>2016-03-20T09:16:10Z</time>
      </trkpt>
      <trkpt lat="45.47656" lon="6.70425">
        <ele>2161.28</ele>
        <time>2016-03-20T09:16:16Z</time>
      </trkpt>
      <trkpt lat="45.47673" lon="6.70439">
        <ele>2169.48</ele>
        <time>2016-03-20T09:16:22Z</time>
      </trkpt>
      <trkpt lat="45.47692" lon="6.70451">
        <ele>2179.2</ele>
        <time>2016-03-20T09:16:28Z</time>
      </trkpt>
      <trkpt lat="45.47708" lon="6.70467">
        <ele>2182.32</ele>
        <time>2016-03-20T09:16:34Z</time>
      </trkpt>
      <trkpt lat="45.47727" lon="6.70481">
        <ele>2185.13</ele>
        <time>2016-03-20T09:16:40Z</time>
      </trkpt>
      <trkpt lat="45.47746" lon="6.70494">
        <ele>2187.68</ele>
        <time>2016-03-20T09:16:46Z</time>
      </trkpt>
      <trkpt lat="45.47763" lon="6.70509">
        <ele>2189.52</ele>
        <time>2016-03-20T09:16:52Z</time>
      </trkpt>
      <trkpt lat="45.47781" lon="6.70523">
        <ele>2193.51</ele>
        <time>2016-03-20T09:16:58Z</time>
      </trkpt>
      <trkpt lat="45.47799" lon="6.70538">
        <ele>2200.28</ele>
        <time>2016-03-20T09:17:04Z</time>
      </trkpt>
      <trkpt lat="45.47818" lon="6.70552">
        <ele>2205.17</ele>
        <time>2016-03-20T09:17:10Z</time>
      </trkpt>
      <trkpt lat="45.47836" lon="6.70568">
        <ele>2206.53</ele>
        <time>2016-03-20T09:17:16Z</time>
      </trkpt>
      <trkpt lat="45.47853" lon="6.70583">
        <ele>2206.73</ele>
        <time>2016-03-20T09:17:22Z</time>
      </trkpt>
      <trkpt lat="45.4787" lon="6.70597">
        <ele>2207.34</ele>
        <time>2016-03-20T09:17:28Z</time>
      </trkpt>
      <trkpt lat="45.47886" lon="6.70609">
        <ele>2210.44</ele>
        <time>2016-03-20T09:17:33Z</time>
      </trkpt>
      <trkpt lat="45.47903" lon="6.70621">
        <ele>2214.53</ele>
        <time>2016-03-20T09:17:38Z</time>
      </trkpt>
      <trkpt lat="45.47919" lon="6.70633">
        <ele>2222.17</ele>
        <time>2016-03-20T09:17:43Z</time>
      </trkpt>
      <trkpt lat="45.47936" lon="6.70648">
        <ele>2225.32</ele>
        <time>2016-03-20T09:17:49Z</time>
      </trkpt>
      <trkpt lat="45.47953" lon="6.70663">
        <ele>2229.12</ele>
        <time>2016-03-20T09:17:55Z</time>
      </trkpt>
      <trkpt lat="45.47971" lon="6.70678">
        <ele>2228.72</ele>
        <time>2016-03-20T09:18:01Z</time>
      </trkpt>
      <trkpt lat="45.47989" lon="6.70686">
        <ele>2240.02</ele>
        <time>2016-03-20T09:18:05Z</time>
      </trkpt>
      <trkpt lat="45.48006" lon="6.70698">
        <ele>2246.44</ele>
        <time>2016-03-20T09:18:10Z</time>
      </trkpt>
      <trkpt lat="45.48023" lon="6.70714">
        <ele>2249.49</ele>
        <time>2016-03-20T09:18:16Z</time>
      </trkpt>
      <trkpt lat="45.4804" lon="6.7073">
        <ele>2252.45</ele>
        <time>2016-03-20T09:18:22Z</time>
      </trkpt>
      <trkpt lat="45.48057" lon="6.70745">
        <ele>2258.28</ele>
        <time>2016-03-20T09:18:28Z</time>
      </trkpt>
      <trkpt lat="45.48074" lon="6.7076">
        <ele>2260.53</ele>
        <time>2016-03-20T09:18:34Z</time>
      </trkpt>
      <trkpt lat="45.48092" lon="6.70775">
        <ele>2263.52</ele>
        <time>2016-03-20T09:18:40Z</time>
      </trkpt>
      <trkpt lat="45.48109" lon="6.7079">
        <ele>2267.13</ele>
        <time>2016-03-20T09:18:46Z</time>
      </trkpt>
      <trkpt lat="45.48127" lon="6.70806">
        <ele>2271.32</ele>
        <time>2016-03-20T09:18:52Z</time>
      </trkpt>
      <trkpt lat="45.48144" lon="6.70822">
        <ele>2280</ele>
        <time>2016-03-20T09:18:58Z</time>
      </trkpt>
      <trkpt lat="45.48164" lon="6.7083">
        <ele>2292.98</ele>
        <time>2016-03-20T09:19:03Z</time>
      </trkpt>
      <trkpt lat="45.48183" lon="6.70841">
        <ele>2302.02</ele>
        <time>2016-03-20T09:19:08Z</time>
      </trkpt>
      <trkpt lat="45.482" lon="6.70852">
        <ele>2309.27</ele>
        <time>2016-03-20T09:19:13Z</time>
      </trkpt>
      <trkpt lat="45.48217" lon="6.70864">
        <ele>2317.03</ele>
        <time>2016-03-20T09:19:18Z</time>
      </trkpt>
      <trkpt lat="45.48234" lon="6.70877">
        <ele>2322.33</ele>
        <time>2016-03-20T09:19:24Z</time>
      </trkpt>
      <trkpt lat="45.48251" lon="6.70894">
        <ele>2325.48</ele>
        <time>2016-03-20T09:19:30Z</time>
      </trkpt>
      <trkpt lat="45.48266" lon="6.70911">
        <ele>2326.53</ele>
        <time>2016-03-20T09:19:36Z</time>
      </trkpt>
      <trkpt lat="45.48284" lon="6.70926">
        <ele>2329.12</ele>
        <time>2016-03-20T09:19:42Z</time>
      </trkpt>
      <trkpt lat="45.48302" lon="6.7094">
        <ele>2331.49</ele>
        <time>2016-03-20T09:19:48Z</time>
      </trkpt>
      <trkpt lat="45.4832" lon="6.70954">
        <ele>2335.32</ele>
        <time>2016-03-20T09:19:54Z</time>
      </trkpt>
      <trkpt lat="45.48337" lon="6.70971">
        <ele>2337.52</ele>
        <time>2016-03-20T09:20:00Z</time>
      </trkpt>
      <trkpt lat="45.48354" lon="6.70987">
        <ele>2339.52</ele>
        <time>2016-03-20T09:20:06Z</time>
      </trkpt>
      <trkpt lat="45.48372" lon="6.71001">
        <ele>2341.29</ele>
        <time>2016-03-20T09:20:12Z</time>
      </trkpt>
      <trkpt lat="45.48388" lon="6.71014">
        <ele>2347.08</ele>
        <time>2016-03-20T09:20:17Z</time>
      </trkpt>
      <trkpt lat="45.48405" lon="6.71029">
        <ele>2350.48</ele>
        <time>2016-03-20T09:20:23Z</time>
      </trkpt>
      <trkpt lat="45.48422" lon="6.71044">
        <ele>2352.69</ele>
        <time>2016-03-20T09:20:29Z</time>
      </trkpt>
      <trkpt lat="45.4844" lon="6.71059">
        <ele>2352.37</ele>
        <time>2016-03-20T09:20:35Z</time>
      </trkpt>
      <trkpt lat="45.48458" lon="6.71069">
        <ele>2362.06</ele>
        <time>2016-03-20T09:20:40Z</time>
      </trkpt>
      <trkpt lat="45.48478" lon="6.71084">
        <ele>2365.49</ele>
        <time>2016-03-20T09:20:46Z</time>
      </trkpt>
      <trkpt lat="45.48493" lon="6.71096">
        <ele>2366.73</ele>
        <time>2016-03-20T09:20:52Z</time>
      </trkpt>
      <trkpt lat="45.48484" lon="6.7112">
        <ele>2377.3</ele>
        <time>2016-03-20T09:21:44Z</time>
      </trkpt>
      <trkpt lat="45.48465" lon="6.71131">
        <ele>2380.33</ele>
        <time>2016-03-20T09:21:48Z</time>
      </trkpt>
      <trkpt lat="45.48447" lon="6.71125">
        <ele>2378.54</ele>
        <time>2016-03-20T09:21:56Z</time>
      </trkpt>
      <trkpt lat="45.48433" lon="6.71107">
        <ele>2379.33</ele>
        <time>2016-03-20T09:22:16Z</time>
      </trkpt>
      <trkpt lat="45.48418" lon="6.71089">
        <ele>2379.53</ele>
        <time>2016-03-20T09:22:33Z</time>
      </trkpt>
      <trkpt lat="45.48397" lon="6.71081">
        <ele>2378.57</ele>
        <time>2016-03-20T09:22:37Z</time>
      </trkpt>
      <trkpt lat="45.48382" lon="6.71067">
        <ele>2376.93</ele>
        <time>2016-03-20T09:22:39Z</time>
      </trkpt>
      <trkpt lat="45.48354" lon="6.71049">
        <ele>2373.01</ele>
        <time>2016-03-20T09:22:42Z</time>
      </trkpt>
      <trkpt lat="45.48332" lon="6.71043">
        <ele>2370.79</ele>
        <time>2016-03-20T09:22:44Z</time>
      </trkpt>
      <trkpt lat="45.48313" lon="6.71042">
        <ele>2369.58</ele>
        <time>2016-03-20T09:22:46Z</time>
      </trkpt>
      <trkpt lat="45.48294" lon="6.71044">
        <ele>2366.01</ele>
        <time>2016-03-20T09:22:48Z</time>
      </trkpt>
      <trkpt lat="45.48269" lon="6.71046">
        <ele>2356</ele>
        <time>2016-03-20T09:22:51Z</time>
      </trkpt>
      <trkpt lat="45.48253" lon="6.71018">
        <ele>2348.05</ele>
        <time>2016-03-20T09:22:54Z</time>
      </trkpt>
      <trkpt lat="45.48249" lon="6.70993">
        <ele>2346.83</ele>
        <time>2016-03-20T09:22:55Z</time>
      </trkpt>
      <trkpt lat="45.48234" lon="6.70973">
        <ele>2344.78</ele>
        <time>2016-03-20T09:22:57Z</time>
      </trkpt>
      <trkpt lat="45.4822" lon="6.70955">
        <ele>2341.98</ele>
        <time>2016-03-20T09:22:59Z</time>
      </trkpt>
      <trkpt lat="45.48205" lon="6.70926">
        <ele>2333.05</ele>
        <time>2016-03-20T09:23:02Z</time>
      </trkpt>
      <trkpt lat="45.48197" lon="6.709">
        <ele>2329.03</ele>
        <time>2016-03-20T09:23:04Z</time>
      </trkpt>
      <trkpt lat="45.48186" lon="6.70875">
        <ele>2325.99</ele>
        <time>2016-03-20T09:23:06Z</time>
      </trkpt>
      <trkpt lat="45.48162" lon="6.70857">
        <ele>2321.23</ele>
        <time>2016-03-20T09:23:08Z</time>
      </trkpt>
      <trkpt lat="45.48147" lon="6.70834">
        <ele>2314.96</ele>
        <time>2016-03-20T09:23:10Z</time>
      </trkpt>
      <trkpt lat="45.48136" lon="6.70806">
        <ele>2311.03</ele>
        <time>2016-03-20T09:23:12Z</time>
      </trkpt>
      <trkpt lat="45.4812" lon="6.70786">
        <ele>2307.83</ele>
        <time>2016-03-20T09:23:14Z</time>
      </trkpt>
      <trkpt lat="45.48101" lon="6.70788">
        <ele>2301.3</ele>
        <time>2016-03-20T09:23:16Z</time>
      </trkpt>
      <trkpt lat="45.4808" lon="6.70766">
        <ele>2296.24</ele>
        <time>2016-03-20T09:23:18Z</time>
      </trkpt>
      <trkpt lat="45.4807" lon="6.70739">
        <ele>2292.04</ele>
        <time>2016-03-20T09:23:20Z</time>
      </trkpt>
      <trkpt lat="45.48052" lon="6.70717">
        <ele>2288.83</ele>
        <time>2016-03-20T09:23:22Z</time>
      </trkpt>
      <trkpt lat="45.48029" lon="6.70687">
        <ele>2284.06</ele>
        <time>2016-03-20T09:23:24Z</time>
      </trkpt>
      <trkpt lat="45.48009" lon="6.70679">
        <ele>2275.55</ele>
        <time>2016-03-20T09:23:26Z</time>
      </trkpt>
      <trkpt lat="45.47981" lon="6.7068">
        <ele>2271.85</ele>
        <time>2016-03-20T09:23:28Z</time>
      </trkpt>
      <trkpt lat="45.47953" lon="6.70686">
        <ele>2267.86</ele>
        <time>2016-03-20T09:23:30Z</time>
      </trkpt>
      <trkpt lat="45.47927" lon="6.70688">
        <ele>2260.82</ele>
        <time>2016-03-20T09:23:32Z</time>
      </trkpt>
      <trkpt lat="45.47905" lon="6.70689">
        <ele>2255.26</ele>
        <time>2016-03-20T09:23:34Z</time>
      </trkpt>
      <trkpt lat="45.47886" lon="6.70677">
        <ele>2246.88</ele>
        <time>2016-03-20T09:23:36Z</time>
      </trkpt>
      <trkpt lat="45.47867" lon="6.70662">
        <ele>2241.91</ele>
        <time>2016-03-20T09:23:38Z</time>
      </trkpt>
      <trkpt lat="45.47849" lon="6.70644">
        <ele>2240.75</ele>
        <time>2016-03-20T09:23:40Z</time>
      </trkpt>
      <trkpt lat="45.47827" lon="6.70633">
        <ele>2239.53</ele>
        <time>2016-03-20T09:23:44Z</time>
      </trkpt>
      <trkpt lat="45.47811" lon="6.70618">
        <ele>2231.78</ele>
        <time>2016-03-20T09:23:53Z</time>
      </trkpt>
      <trkpt lat="45.47789" lon="6.70618">
        <ele>2220.98</ele>
        <time>2016-03-20T09:24:58Z</time>
      </trkpt>
      <trkpt lat="45.47764" lon="6.70613">
        <ele>2214.83</ele>
        <time>2016-03-20T09:25:02Z</time>
      </trkpt>
      <trkpt lat="45.4774" lon="6.70617">
        <ele>2210.82</ele>
        <time>2016-03-20T09:25:05Z</time>
      </trkpt>
      <trkpt lat="45.47716" lon="6.70616">
        <ele>2206.98</ele>
        <time>2016-03-20T09:25:08Z</time>
      </trkpt>
      <trkpt lat="45.4769" lon="6.70613">
        <ele>2201.8</ele>
        <time>2016-03-20T09:25:11Z</time>
      </trkpt>
      <trkpt lat="45.47662" lon="6.70607">
        <ele>2197.82</ele>
        <time>2016-03-20T09:25:14Z</time>
      </trkpt>
      <trkpt lat="45.47643" lon="6.70609">
        <ele>2191.46</ele>
        <time>2016-03-20T09:25:16Z</time>
      </trkpt>
      <trkpt lat="45.47618" lon="6.70599">
        <ele>2183.85</ele>
        <time>2016-03-20T09:25:18Z</time>
      </trkpt>
      <trkpt lat="45.47595" lon="6.7059">
        <ele>2176.34</ele>
        <time>2016-03-20T09:25:20Z</time>
      </trkpt>
      <trkpt lat="45.47574" lon="6.70578">
        <ele>2169.48</ele>
        <time>2016-03-20T09:25:22Z</time>
      </trkpt>
      <trkpt lat="45.47553" lon="6.70564">
        <ele>2166.01</ele>
        <time>2016-03-20T09:25:24Z</time>
      </trkpt>
      <trkpt lat="45.47534" lon="6.7056">
        <ele>2162.19</ele>
        <time>2016-03-20T09:25:26Z</time>
      </trkpt>
      <trkpt lat="45.47521" lon="6.70538">
        <ele>2155.48</ele>
        <time>2016-03-20T09:25:28Z</time>
      </trkpt>
      <trkpt lat="45.47505" lon="6.70521">
        <ele>2150.41</ele>
        <time>2016-03-20T09:25:30Z</time>
      </trkpt>
      <trkpt lat="45.47487" lon="6.70497">
        <ele>2144.45</ele>
        <time>2016-03-20T09:25:32Z</time>
      </trkpt>
      <trkpt lat="45.47466" lon="6.70469">
        <ele>2134.45</ele>
        <time>2016-03-20T09:25:34Z</time>
      </trkpt>
      <trkpt lat="45.47447" lon="6.7044">
        <ele>2129.89</ele>
        <time>2016-03-20T09:25:36Z</time>
      </trkpt>
      <trkpt lat="45.47432" lon="6.70402">
        <ele>2126.19</ele>
        <time>2016-03-20T09:25:38Z</time>
      </trkpt>
      <trkpt lat="45.47425" lon="6.70368">
        <ele>2121.88</ele>
        <time>2016-03-20T09:25:40Z</time>
      </trkpt>
      <trkpt lat="45.47418" lon="6.70324">
        <ele>2118.98</ele>
        <time>2016-03-20T09:25:42Z</time>
      </trkpt>
      <trkpt lat="45.47412" lon="6.70287">
        <ele>2115.03</ele>
        <time>2016-03-20T09:25:44Z</time>
      </trkpt>
      <trkpt lat="45.47399" lon="6.70259">
        <ele>2113.75</ele>
        <time>2016-03-20T09:25:46Z</time>
      </trkpt>
      <trkpt lat="45.47388" lon="6.7023">
        <ele>2111.94</ele>
        <time>2016-03-20T09:25:48Z</time>
      </trkpt>
      <trkpt lat="45.47383" lon="6.7019">
        <ele>2104.24</ele>
        <time>2016-03-20T09:25:51Z</time>
      </trkpt>
      <trkpt lat="45.47375" lon="6.70157">
        <ele>2100.04</ele>
        <time>2016-03-20T09:25:53Z</time>
      </trkpt>
      <trkpt lat="45.47367" lon="6.70124">
        <ele>2096.83</ele>
        <time>2016-03-20T09:25:55Z</time>
      </trkpt>
      <trkpt lat="45.47349" lon="6.7011">
        <ele>2092.86</ele>
        <time>2016-03-20T09:25:57Z</time>
      </trkpt>
      <trkpt lat="45.47325" lon="6.70101">
        <ele>2079.93</ele>
        <time>2016-03-20T09:26:00Z</time>
      </trkpt>
      <trkpt lat="45.47307" lon="6.70102">
        <ele>2074.8</ele>
        <time>2016-03-20T09:26:03Z</time>
      </trkpt>
      <trkpt lat="45.47318" lon="6.70129">
        <ele>2056.79</ele>
        <time>2016-03-20T09:26:59Z</time>
      </trkpt>
      <trkpt lat="45.47335" lon="6.70144">
        <ele>2059.66</ele>
        <time>2016-03-20T09:27:05Z</time>
      </trkpt>
      <trkpt lat="45.47355" lon="6.70157">
        <ele>2065.2</ele>
        <time>2016-03-20T09:27:11Z</time>
      </trkpt>
      <trkpt lat="45.47372" lon="6.70172">
        <ele>2068.33</ele>
        <time>2016-03-20T09:27:18Z</time>
      </trkpt>
      <trkpt lat="45.47387" lon="6.70187">
        <ele>2076.27</ele>
        <time>2016-03-20T09:27:23Z</time>
      </trkpt>
      <trkpt lat="45.47404" lon="6.70204">
        <ele>2079.69</ele>
        <time>2016-03-20T09:27:29Z</time>
      </trkpt>
      <trkpt lat="45.47422" lon="6.70219">
        <ele>2086.41</ele>
        <time>2016-03-20T09:27:35Z</time>
      </trkpt>
      <trkpt lat="45.47442" lon="6.70228">
        <ele>2088.72</ele>
        <time>2016-03-20T09:27:42Z</time>
      </trkpt>
      <trkpt lat="45.47457" lon="6.70243">
        <ele>2098.25</ele>
        <time>2016-03-20T09:27:49Z</time>
      </trkpt>
      <trkpt lat="45.47477" lon="6.70256">
        <ele>2099.52</ele>
        <time>2016-03-20T09:27:55Z</time>
      </trkpt>
      <trkpt lat="45.47493" lon="6.70269">
        <ele>2101.52</ele>
        <time>2016-03-20T09:28:00Z</time>
      </trkpt>
      <trkpt lat="45.47509" lon="6.70282">
        <ele>2103.5</ele>
        <time>2016-03-20T09:28:06Z</time>
      </trkpt>
      <trkpt lat="45.47527" lon="6.70294">
        <ele>2107.29</ele>
        <time>2016-03-20T09:28:12Z</time>
      </trkpt>
      <trkpt lat="45.47544" lon="6.70308">
        <ele>2112.48</ele>
        <time>2016-03-20T09:28:18Z</time>
      </trkpt>
      <trkpt lat="45.47562" lon="6.7032">
        <ele>2117.48</ele>
        <time>2016-03-20T09:28:25Z</time>
      </trkpt>
      <trkpt lat="45.47581" lon="6.70333">
        <ele>2121.28</ele>
        <time>2016-03-20T09:28:31Z</time>
      </trkpt>
      <trkpt lat="45.47599" lon="6.70349">
        <ele>2127.24</ele>
        <time>2016-03-20T09:28:37Z</time>
      </trkpt>
      <trkpt lat="45.47616" lon="6.70365">
        <ele>2132.04</ele>
        <time>2016-03-20T09:28:43Z</time>
      </trkpt>
      <trkpt lat="45.47634" lon="6.70379">
        <ele>2141.04</ele>
        <time>2016-03-20T09:28:49Z</time>
      </trkpt>
      <trkpt lat="45.47651" lon="6.70392">
        <ele>2146.47</ele>
        <time>2016-03-20T09:28:55Z</time>
      </trkpt>
      <trkpt lat="45.47667" lon="6.70406">
        <ele>2154.12</ele>
        <time>2016-03-20T09:29:01Z</time>
      </trkpt>
      <trkpt lat="45.47686" lon="6.70419">
        <ele>2158.29</ele>
        <time>2016-03-20T09:29:07Z</time>
      </trkpt>
      <trkpt lat="45.47703" lon="6.70435">
        <ele>2164.32</ele>
        <time>2016-03-20T09:29:13Z</time>
      </trkpt>
      <trkpt lat="45.47719" lon="6.70449">
        <ele>2166.49</ele>
        <time>2016-03-20T09:29:18Z</time>
      </trkpt>
      <trkpt lat="45.47737" lon="6.70464">
        <ele>2167.49</ele>
        <time>2016-03-20T09:29:24Z</time>
      </trkpt>
      <trkpt lat="45.47755" lon="6.70476">
        <ele>2170.32</ele>
        <time>2016-03-20T09:29:30Z</time>
      </trkpt>
      <trkpt lat="45.47772" lon="6.7049">
        <ele>2172.33</ele>
        <time>2016-03-20T09:29:36Z</time>
      </trkpt>
      <trkpt lat="45.47788" lon="6.70504">
        <ele>2176.45</ele>
        <time>2016-03-20T09:29:41Z</time>
      </trkpt>
      <trkpt lat="45.47805" lon="6.70522">
        <ele>2179.52</ele>
        <time>2016-03-20T09:29:47Z</time>
      </trkpt>
      <trkpt lat="45.47821" lon="6.70533">
        <ele>2185.07</ele>
        <time>2016-03-20T09:29:52Z</time>
      </trkpt>
      <trkpt lat="45.4784" lon="6.70546">
        <ele>2186.33</ele>
        <time>2016-03-20T09:29:58Z</time>
      </trkpt>
      <trkpt lat="45.47858" lon="6.70558">
        <ele>2192.12</ele>
        <time>2016-03-20T09:30:04Z</time>
      </trkpt>
      <trkpt lat="45.47875" lon="6.70574">
        <ele>2194.32</ele>
        <time>2016-03-20T09:30:10Z</time>
      </trkpt>
      <trkpt lat="45.47891" lon="6.70593">
        <ele>2209.92</ele>
        <time>2016-03-20T09:30:13Z</time>
      </trkpt>
      <trkpt lat="45.47908" lon="6.70609">
        <ele>2219.52</ele>
        <time>2016-03-20T09:30:18Z</time>
      </trkpt>
      <trkpt lat="45.47923" lon="6.70625">
        <ele>2220.53</ele>
        <time>2016-03-20T09:30:23Z</time>
      </trkpt>
      <trkpt lat="45.47939" lon="6.70637">
        <ele>2229.66</ele>
        <time>2016-03-20T09:30:27Z</time>
      </trkpt>
      <trkpt lat="45.47958" lon="6.7065">
        <ele>2234.33</ele>
        <time>2016-03-20T09:30:33Z</time>
      </trkpt>
      <trkpt lat="45.47975" lon="6.70664">
        <ele>2241.85</ele>
        <time>2016-03-20T09:30:38Z</time>
      </trkpt>
      <trkpt lat="45.47991" lon="6.7068">
        <ele>2247.28</ele>
        <time>2016-03-20T09:30:43Z</time>
      </trkpt>
      <trkpt lat="45.48008" lon="6.70693">
        <ele>2252.31</ele>
        <time>2016-03-20T09:30:49Z</time>
      </trkpt>
      <trkpt lat="45.48024" lon="6.70707">
        <ele>2257.29</ele>
        <time>2016-03-20T09:30:54Z</time>
      </trkpt>
      <trkpt lat="45.48043" lon="6.7072">
        <ele>2264.08</ele>
        <time>2016-03-20T09:31:00Z</time>
      </trkpt>
      <trkpt lat="45.48059" lon="6.70736">
        <ele>2270.08</ele>
        <time>2016-03-20T09:31:06Z</time>
      </trkpt>
      <trkpt lat="45.48076" lon="6.70748">
        <ele>2273.51</ele>
        <time>2016-03-20T09:31:12Z</time>
      </trkpt>
      <trkpt lat="45.48093" lon="6.7076">
        <ele>2278.28</ele>
        <time>2016-03-20T09:31:17Z</time>
      </trkpt>
      <trkpt lat="45.48109" lon="6.70774">
        <ele>2283.28</ele>
        <time>2016-03-20T09:31:22Z</time>
      </trkpt>
      <trkpt lat="45.48127" lon="6.70788">
        <ele>2286.49</ele>
        <time>2016-03-20T09:31:28Z</time>
      </trkpt>
      <trkpt lat="45.48144" lon="6.70801">
        <ele>2289.32</ele>
        <time>2016-03-20T09:31:34Z</time>
      </trkpt>
      <trkpt lat="45.4816" lon="6.70816">
        <ele>2294.85</ele>
        <time>2016-03-20T09:31:39Z</time>
      </trkpt>
      <trkpt lat="45.48175" lon="6.70831">
        <ele>2302.27</ele>
        <time>2016-03-20T09:31:44Z</time>
      </trkpt>
      <trkpt lat="45.48193" lon="6.70848">
        <ele>2306.48</ele>
        <time>2016-03-20T09:31:50Z</time>
      </trkpt>
      <trkpt lat="45.48211" lon="6.70861">
        <ele>2309.49</ele>
        <time>2016-03-20T09:31:56Z</time>
      </trkpt>
      <trkpt lat="45.48229" lon="6.70872">
        <ele>2309.54</ele>
        <time>2016-03-20T09:32:02Z</time>
      </trkpt>
      <trkpt lat="45.48249" lon="6.70888">
        <ele>2318.57</ele>
        <time>2016-03-20T09:32:08Z</time>
      </trkpt>
      <trkpt lat="45.48265" lon="6.70901">
        <ele>2322.16</ele>
        <time>2016-03-20T09:32:13Z</time>
      </trkpt>
      <trkpt lat="45.48284" lon="6.70914">
        <ele>2325.32</ele>
        <time>2016-03-20T09:32:19Z</time>
      </trkpt>
      <trkpt lat="45.48302" lon="6.70927">
        <ele>2327.53</ele>
        <time>2016-03-20T09:32:25Z</time>
      </trkpt>
      <trkpt lat="45.4832" lon="6.70941">
        <ele>2332.52</ele>
        <time>2016-03-20T09:32:30Z</time>
      </trkpt>
      <trkpt lat="45.48337" lon="6.70956">
        <ele>2333.56</ele>
        <time>2016-03-20T09:32:37Z</time>
      </trkpt>
      <trkpt lat="45.48356" lon="6.70968">
        <ele>2337.49</ele>
        <time>2016-03-20T09:32:44Z</time>
      </trkpt>
      <trkpt lat="45.48372" lon="6.70986">
        <ele>2341.49</ele>
        <time>2016-03-20T09:32:50Z</time>
      </trkpt>
      <trkpt lat="45.48388" lon="6.71">
        <ele>2343.48</ele>
        <time>2016-03-20T09:32:57Z</time>
      </trkpt>
      <trkpt lat="45.48404" lon="6.71012">
        <ele>2345.33</ele>
        <time>2016-03-20T09:33:04Z</time>
      </trkpt>
      <trkpt lat="45.48424" lon="6.7103">
        <ele>2358.68</ele>
        <time>2016-03-20T09:33:10Z</time>
      </trkpt>
      <trkpt lat="45.48442" lon="6.71045">
        <ele>2358.73</ele>
        <time>2016-03-20T09:33:17Z</time>
      </trkpt>
      <trkpt lat="45.48459" lon="6.71057">
        <ele>2360.33</ele>
        <time>2016-03-20T09:33:22Z</time>
      </trkpt>
      <trkpt lat="45.48475" lon="6.71069">
        <ele>2364.56</ele>
        <time>2016-03-20T09:33:27Z</time>
      </trkpt>
      <trkpt lat="45.48493" lon="6.71082">
        <ele>2368.52</ele>
        <time>2016-03-20T09:33:32Z</time>
      </trkpt>
      <trkpt lat="45.4851" lon="6.71099">
        <ele>2371.53</ele>
        <time>2016-03-20T09:33:39Z</time>
      </trkpt>
      <trkpt lat="45.48528" lon="6.71106">
        <ele>2370.33</ele>
        <time>2016-03-20T09:33:56Z</time>
      </trkpt>
      <trkpt lat="45.48548" lon="6.71109">
        <ele>2371.5</ele>
        <time>2016-03-20T09:34:07Z</time>
      </trkpt>
      <trkpt lat="45.48565" lon="6.71117">
        <ele>2370.73</ele>
        <time>2016-03-20T09:34:12Z</time>
      </trkpt>
      <trkpt lat="45.48584" lon="6.71125">
        <ele>2370.56</ele>
        <time>2016-03-20T09:34:16Z</time>
      </trkpt>
      <trkpt lat="45.486" lon="6.71139">
        <ele>2369.57</ele>
        <time>2016-03-20T09:34:19Z</time>
      </trkpt>
      <trkpt lat="45.48626" lon="6.7116">
        <ele>2369.53</ele>
        <time>2016-03-20T09:34:22Z</time>
      </trkpt>
      <trkpt lat="45.48648" lon="6.71166">
        <ele>2364.57</ele>
        <time>2016-03-20T09:34:24Z</time>
      </trkpt>
      <trkpt lat="45.48671" lon="6.71161">
        <ele>2356.69</ele>
        <time>2016-03-20T09:34:26Z</time>
      </trkpt>
      <trkpt lat="45.48694" lon="6.71162">
        <ele>2352.86</ele>
        <time>2016-03-20T09:34:28Z</time>
      </trkpt>
      <trkpt lat="45.48717" lon="6.7116">
        <ele>2351.74</ele>
        <time>2016-03-20T09:34:30Z</time>
      </trkpt>
      <trkpt lat="45.48739" lon="6.71146">
        <ele>2348.94</ele>
        <time>2016-03-20T09:34:33Z</time>
      </trkpt>
      <trkpt lat="45.48756" lon="6.71128">
        <ele>2345.58</ele>
        <time>2016-03-20T09:34:37Z</time>
      </trkpt>
      <trkpt lat="45.48775" lon="6.71105">
        <ele>2342.59</ele>
        <time>2016-03-20T09:35:02Z</time>
      </trkpt>
      <trkpt lat="45.48786" lon="6.71083">
        <ele>2338.21</ele>
        <time>2016-03-20T09:35:04Z</time>
      </trkpt>
      <trkpt lat="45.48796" lon="6.71059">
        <ele>2330.52</ele>
        <time>2016-03-20T09:35:06Z</time>
      </trkpt>
      <trkpt lat="45.48811" lon="6.71034">
        <ele>2324.93</ele>
        <time>2016-03-20T09:35:08Z</time>
      </trkpt>
      <trkpt lat="45.48833" lon="6.71011">
        <ele>2322.79</ele>
        <time>2016-03-20T09:35:10Z</time>
      </trkpt>
      <trkpt lat="45.48851" lon="6.70996">
        <ele>2318.06</ele>
        <time>2016-03-20T09:35:12Z</time>
      </trkpt>
      <trkpt lat="45.48872" lon="6.70977">
        <ele>2316.75</ele>
        <time>2016-03-20T09:35:14Z</time>
      </trkpt>
      <trkpt lat="45.48886" lon="6.70957">
        <ele>2313.98</ele>
        <time>2016-03-20T09:35:16Z</time>
      </trkpt>
      <trkpt lat="45.48907" lon="6.70933">
        <ele>2312.54</ele>
        <time>2016-03-20T09:35:19Z</time>
      </trkpt>
      <trkpt lat="45.48921" lon="6.70907">
        <ele>2308.98</ele>
        <time>2016-03-20T09:35:22Z</time>
      </trkpt>
      <trkpt lat="45.48935" lon="6.70891">
        <ele>2304.01</ele>
        <time>2016-03-20T09:35:26Z</time>
      </trkpt>
      <trkpt lat="45.48941" lon="6.70916">
        <ele>2299.41</ele>
        <time>2016-03-20T09:36:44Z</time>
      </trkpt>
      <trkpt lat="45.48952" lon="6.70943">
        <ele>2293.78</ele>
        <time>2016-03-20T09:36:48Z</time>
      </trkpt>
      <trkpt lat="45.48959" lon="6.70974">
        <ele>2294.52</ele>
        <time>2016-03-20T09:36:52Z</time>
      </trkpt>
      <trkpt lat="45.48965" lon="6.71003">
        <ele>2297.32</ele>
        <time>2016-03-20T09:36:57Z</time>
      </trkpt>
      <trkpt lat="45.48965" lon="6.71033">
        <ele>2299.76</ele>
        <time>2016-03-20T09:37:02Z</time>
      </trkpt>
      <trkpt lat="45.48962" lon="6.71062">
        <ele>2300.33</ele>
        <time>2016-03-20T09:37:06Z</time>
      </trkpt>
      <trkpt lat="45.48976" lon="6.71083">
        <ele>2303.96</ele>
        <time>2016-03-20T09:37:10Z</time>
      </trkpt>
      <trkpt lat="45.48984" lon="6.71107">
        <ele>2308.15</ele>
        <time>2016-03-20T09:37:14Z</time>
      </trkpt>
      <trkpt lat="45.48991" lon="6.71133">
        <ele>2313.27</ele>
        <time>2016-03-20T09:37:19Z</time>
      </trkpt>
      <trkpt lat="45.48996" lon="6.71159">
        <ele>2319.42</ele>
        <time>2016-03-20T09:37:23Z</time>
      </trkpt>
      <trkpt lat="45.49004" lon="6.71184">
        <ele>2322.61</ele>
        <time>2016-03-20T09:37:28Z</time>
      </trkpt>
      <trkpt lat="45.49009" lon="6.7121">
        <ele>2331.86</ele>
        <time>2016-03-20T09:37:33Z</time>
      </trkpt>
      <trkpt lat="45.49016" lon="6.71234">
        <ele>2340.87</ele>
        <time>2016-03-20T09:37:38Z</time>
      </trkpt>
      <trkpt lat="45.49018" lon="6.7126">
        <ele>2352.42</ele>
        <time>2016-03-20T09:37:42Z</time>
      </trkpt>
      <trkpt lat="45.49019" lon="6.71288">
        <ele>2365.87</ele>
        <time>2016-03-20T09:37:48Z</time>
      </trkpt>
      <trkpt lat="45.49018" lon="6.71323">
        <ele>2372.81</ele>
        <time>2016-03-20T09:37:54Z</time>
      </trkpt>
      <trkpt lat="45.4902" lon="6.71348">
        <ele>2380.03</ele>
        <time>2016-03-20T09:37:58Z</time>
      </trkpt>
      <trkpt lat="45.49023" lon="6.71374">
        <ele>2390.59</ele>
        <time>2016-03-20T09:38:02Z</time>
      </trkpt>
      <trkpt lat="45.49027" lon="6.714">
        <ele>2400.03</ele>
        <time>2016-03-20T09:38:07Z</time>
      </trkpt>
      <trkpt lat="45.49032" lon="6.71426">
        <ele>2411.03</ele>
        <time>2016-03-20T09:38:13Z</time>
      </trkpt>
      <trkpt lat="45.49037" lon="6.71457">
        <ele>2412.53</ele>
        <time>2016-03-20T09:38:19Z</time>
      </trkpt>
      <trkpt lat="45.49049" lon="6.7148">
        <ele>2412.66</ele>
        <time>2016-03-20T09:38:23Z</time>
      </trkpt>
      <trkpt lat="45.49058" lon="6.71502">
        <ele>2412.85</ele>
        <time>2016-03-20T09:38:27Z</time>
      </trkpt>
      <trkpt lat="45.49056" lon="6.7153">
        <ele>2413.33</ele>
        <time>2016-03-20T09:38:31Z</time>
      </trkpt>
      <trkpt lat="45.4906" lon="6.7156">
        <ele>2412.57</ele>
        <time>2016-03-20T09:38:36Z</time>
      </trkpt>
      <trkpt lat="45.49065" lon="6.7159">
        <ele>2411.53</ele>
        <time>2016-03-20T09:38:41Z</time>
      </trkpt>
      <trkpt lat="45.4907" lon="6.7162">
        <ele>2411.3</ele>
        <time>2016-03-20T09:38:45Z</time>
      </trkpt>
      <trkpt lat="45.49068" lon="6.7165">
        <ele>2404.78</ele>
        <time>2016-03-20T09:38:50Z</time>
      </trkpt>
      <trkpt lat="45.49072" lon="6.71679">
        <ele>2406.36</ele>
        <time>2016-03-20T09:38:55Z</time>
      </trkpt>
      <trkpt lat="45.49085" lon="6.71703">
        <ele>2407.73</ele>
        <time>2016-03-20T09:39:00Z</time>
      </trkpt>
      <trkpt lat="45.49097" lon="6.71723">
        <ele>2406.54</ele>
        <time>2016-03-20T09:39:04Z</time>
      </trkpt>
      <trkpt lat="45.49101" lon="6.71752">
        <ele>2406.49</ele>
        <time>2016-03-20T09:39:09Z</time>
      </trkpt>
      <trkpt lat="45.491" lon="6.71778">
        <ele>2409.33</ele>
        <time>2016-03-20T09:39:13Z</time>
      </trkpt>
      <trkpt lat="45.49098" lon="6.71805">
        <ele>2411.53</ele>
        <time>2016-03-20T09:39:18Z</time>
      </trkpt>
      <trkpt lat="45.49101" lon="6.71831">
        <ele>2414.29</ele>
        <time>2016-03-20T09:39:22Z</time>
      </trkpt>
      <trkpt lat="45.49105" lon="6.71862">
        <ele>2416.48</ele>
        <time>2016-03-20T09:39:27Z</time>
      </trkpt>
      <trkpt lat="45.49114" lon="6.7189">
        <ele>2423.07</ele>
        <time>2016-03-20T09:39:32Z</time>
      </trkpt>
      <trkpt lat="45.49117" lon="6.71919">
        <ele>2430.85</ele>
        <time>2016-03-20T09:39:37Z</time>
      </trkpt>
      <trkpt lat="45.49124" lon="6.71946">
        <ele>2441.03</ele>
        <time>2016-03-20T09:39:42Z</time>
      </trkpt>
      <trkpt lat="45.49126" lon="6.71974">
        <ele>2447.48</ele>
        <time>2016-03-20T09:39:48Z</time>
      </trkpt>
      <trkpt lat="45.49134" lon="6.71998">
        <ele>2449.49</ele>
        <time>2016-03-20T09:39:52Z</time>
      </trkpt>
      <trkpt lat="45.4914" lon="6.72026">
        <ele>2450.68</ele>
        <time>2016-03-20T09:39:57Z</time>
      </trkpt>
      <trkpt lat="45.49144" lon="6.72055">
        <ele>2456.11</ele>
        <time>2016-03-20T09:40:02Z</time>
      </trkpt>
      <trkpt lat="45.49145" lon="6.72086">
        <ele>2462.09</ele>
        <time>2016-03-20T09:40:07Z</time>
      </trkpt>
      <trkpt lat="45.49154" lon="6.7211">
        <ele>2463.36</ele>
        <time>2016-03-20T09:40:11Z</time>
      </trkpt>
      <trkpt lat="45.4916" lon="6.72134">
        <ele>2464.36</ele>
        <time>2016-03-20T09:40:15Z</time>
      </trkpt>
      <trkpt lat="45.49162" lon="6.72164">
        <ele>2464.57</ele>
        <time>2016-03-20T09:40:20Z</time>
      </trkpt>
      <trkpt lat="45.49164" lon="6.72194">
        <ele>2466.7</ele>
        <time>2016-03-20T09:40:25Z</time>
      </trkpt>
      <trkpt lat="45.49172" lon="6.72223">
        <ele>2471.5</ele>
        <time>2016-03-20T09:40:30Z</time>
      </trkpt>
      <trkpt lat="45.4918" lon="6.72251">
        <ele>2468.9</ele>
        <time>2016-03-20T09:40:35Z</time>
      </trkpt>
      <trkpt lat="45.49188" lon="6.7228">
        <ele>2467.53</ele>
        <time>2016-03-20T09:40:40Z</time>
      </trkpt>
      <trkpt lat="45.49193" lon="6.72308">
        <ele>2466.76</ele>
        <time>2016-03-20T09:40:45Z</time>
      </trkpt>
      <trkpt lat="45.49192" lon="6.72337">
        <ele>2468.76</ele>
        <time>2016-03-20T09:40:50Z</time>
      </trkpt>
      <trkpt lat="45.49196" lon="6.72367">
        <ele>2473.27</ele>
        <time>2016-03-20T09:40:55Z</time>
      </trkpt>
      <trkpt lat="45.49205" lon="6.72396">
        <ele>2473.61</ele>
        <time>2016-03-20T09:41:00Z</time>
      </trkpt>
      <trkpt lat="45.49209" lon="6.72427">
        <ele>2482.79</ele>
        <time>2016-03-20T09:41:05Z</time>
      </trkpt>
      <trkpt lat="45.49212" lon="6.72456">
        <ele>2486.09</ele>
        <time>2016-03-20T09:41:10Z</time>
      </trkpt>
      <trkpt lat="45.49214" lon="6.72482">
        <ele>2494.48</ele>
        <time>2016-03-20T09:41:15Z</time>
      </trkpt>
      <trkpt lat="45.49223" lon="6.72506">
        <ele>2495.72</ele>
        <time>2016-03-20T09:41:19Z</time>
      </trkpt>
      <trkpt lat="45.49226" lon="6.72536">
        <ele>2496.36</ele>
        <time>2016-03-20T09:41:24Z</time>
      </trkpt>
      <trkpt lat="45.49232" lon="6.72566">
        <ele>2498.68</ele>
        <time>2016-03-20T09:41:29Z</time>
      </trkpt>
      <trkpt lat="45.49236" lon="6.72596">
        <ele>2500.32</ele>
        <time>2016-03-20T09:41:34Z</time>
      </trkpt>
      <trkpt lat="45.49241" lon="6.72625">
        <ele>2503.51</ele>
        <time>2016-03-20T09:41:39Z</time>
      </trkpt>
      <trkpt lat="45.49244" lon="6.72656">
        <ele>2509.23</ele>
        <time>2016-03-20T09:41:44Z</time>
      </trkpt>
      <trkpt lat="45.49248" lon="6.72685">
        <ele>2514.28</ele>
        <time>2016-03-20T09:41:49Z</time>
      </trkpt>
      <trkpt lat="45.49253" lon="6.72715">
        <ele>2517.93</ele>
        <time>2016-03-20T09:41:54Z</time>
      </trkpt>
      <trkpt lat="45.49258" lon="6.72744">
        <ele>2524.28</ele>
        <time>2016-03-20T09:41:59Z</time>
      </trkpt>
      <trkpt lat="45.49264" lon="6.72771">
        <ele>2526.72</ele>
        <time>2016-03-20T09:42:04Z</time>
      </trkpt>
      <trkpt lat="45.49268" lon="6.728">
        <ele>2526.52</ele>
        <time>2016-03-20T09:42:09Z</time>
      </trkpt>
      <trkpt lat="45.49274" lon="6.72829">
        <ele>2528.33</ele>
        <time>2016-03-20T09:42:14Z</time>
      </trkpt>
      <trkpt lat="45.4928" lon="6.7286">
        <ele>2530.53</ele>
        <time>2016-03-20T09:42:19Z</time>
      </trkpt>
      <trkpt lat="45.49284" lon="6.72889">
        <ele>2535.44</ele>
        <time>2016-03-20T09:42:24Z</time>
      </trkpt>
      <trkpt lat="45.49289" lon="6.72918">
        <ele>2539.48</ele>
        <time>2016-03-20T09:42:29Z</time>
      </trkpt>
      <trkpt lat="45.49287" lon="6.72945">
        <ele>2546.52</ele>
        <time>2016-03-20T09:42:34Z</time>
      </trkpt>
      <trkpt lat="45.49295" lon="6.72975">
        <ele>2547.73</ele>
        <time>2016-03-20T09:42:39Z</time>
      </trkpt>
      <trkpt lat="45.49301" lon="6.73005">
        <ele>2547.52</ele>
        <time>2016-03-20T09:42:44Z</time>
      </trkpt>
      <trkpt lat="45.49306" lon="6.73035">
        <ele>2550.45</ele>
        <time>2016-03-20T09:42:49Z</time>
      </trkpt>
      <trkpt lat="45.4931" lon="6.73065">
        <ele>2554.12</ele>
        <time>2016-03-20T09:42:54Z</time>
      </trkpt>
      <trkpt lat="45.49312" lon="6.73092">
        <ele>2560.48</ele>
        <time>2016-03-20T09:42:59Z</time>
      </trkpt>
      <trkpt lat="45.49316" lon="6.73121">
        <ele>2567.08</ele>
        <time>2016-03-20T09:43:04Z</time>
      </trkpt>
      <trkpt lat="45.49326" lon="6.73149">
        <ele>2571.05</ele>
        <time>2016-03-20T09:43:09Z</time>
      </trkpt>
      <trkpt lat="45.49332" lon="6.73176">
        <ele>2580.26</ele>
        <time>2016-03-20T09:43:14Z</time>
      </trkpt>
      <trkpt lat="45.49339" lon="6.73203">
        <ele>2587.28</ele>
        <time>2016-03-20T09:43:19Z</time>
      </trkpt>
      <trkpt lat="45.49344" lon="6.7323">
        <ele>2596.03</ele>
        <time>2016-03-20T09:43:24Z</time>
      </trkpt>
      <trkpt lat="45.49348" lon="6.73255">
        <ele>2606.22</ele>
        <time>2016-03-20T09:43:29Z</time>
      </trkpt>
      <trkpt lat="45.49351" lon="6.73282">
        <ele>2621.62</ele>
        <time>2016-03-20T09:43:34Z</time>
      </trkpt>
      <trkpt lat="45.49352" lon="6.7331">
        <ele>2642.78</ele>
        <time>2016-03-20T09:43:39Z</time>
      </trkpt>
      <trkpt lat="45.49356" lon="6.73335">
        <ele>2656.99</ele>
        <time>2016-03-20T09:43:44Z</time>
      </trkpt>
      <trkpt lat="45.49363" lon="6.73359">
        <ele>2667.03</ele>
        <time>2016-03-20T09:43:49Z</time>
      </trkpt>
      <trkpt lat="45.4937" lon="6.73387">
        <ele>2683.38</ele>
        <time>2016-03-20T09:43:55Z</time>
      </trkpt>
      <trkpt lat="45.49372" lon="6.73417">
        <ele>2698.53</ele>
        <time>2016-03-20T09:44:09Z</time>
      </trkpt>
      <trkpt lat="45.49376" lon="6.73442">
        <ele>2706.03</ele>
        <time>2016-03-20T09:44:14Z</time>
      </trkpt>
      <trkpt lat="45.49374" lon="6.73469">
        <ele>2712.56</ele>
        <time>2016-03-20T09:44:22Z</time>
      </trkpt>
      <trkpt lat="45.4936" lon="6.73486">
        <ele>2715.73</ele>
        <time>2016-03-20T09:45:12Z</time>
      </trkpt>
      <trkpt lat="45.49342" lon="6.7349">
        <ele>2716.74</ele>
        <time>2016-03-20T09:45:21Z</time>
      </trkpt>
      <trkpt lat="45.49324" lon="6.73485">
        <ele>2714.36</ele>
        <time>2016-03-20T09:45:41Z</time>
      </trkpt>
      <trkpt lat="45.49301" lon="6.73474">
        <ele>2710.94</ele>
        <time>2016-03-20T09:45:46Z</time>
      </trkpt>
      <trkpt lat="45.4928" lon="6.73464">
        <ele>2708.58</ele>
        <time>2016-03-20T09:45:49Z</time>
      </trkpt>
      <trkpt lat="45.49263" lon="6.7345">
        <ele>2705.94</ele>
        <time>2016-03-20T09:45:52Z</time>
      </trkpt>
      <trkpt lat="45.49244" lon="6.73435">
        <ele>2701.78</ele>
        <time>2016-03-20T09:45:56Z</time>
      </trkpt>
      <trkpt lat="45.49239" lon="6.73407">
        <ele>2696.73</ele>
        <time>2016-03-20T09:46:22Z</time>
      </trkpt>
      <trkpt lat="45.49246" lon="6.7338">
        <ele>2687.54</ele>
        <time>2016-03-20T09:47:10Z</time>
      </trkpt>
      <trkpt lat="45.4923" lon="6.7336">
        <ele>2679.89</ele>
        <time>2016-03-20T09:47:16Z</time>
      </trkpt>
      <trkpt lat="45.49247" lon="6.73347">
        <ele>2674.99</ele>
        <time>2016-03-20T09:47:19Z</time>
      </trkpt>
      <trkpt lat="45.49239" lon="6.73322">
        <ele>2664.06</ele>
        <time>2016-03-20T09:47:25Z</time>
      </trkpt>
      <trkpt lat="45.49253" lon="6.73304">
        <ele>2658.38</ele>
        <time>2016-03-20T09:47:28Z</time>
      </trkpt>
      <trkpt lat="45.49255" lon="6.73276">
        <ele>2637.93</ele>
        <time>2016-03-20T09:47:43Z</time>
      </trkpt>
      <trkpt lat="45.49245" lon="6.73253">
        <ele>2629.99</ele>
        <time>2016-03-20T09:47:48Z</time>
      </trkpt>
      <trkpt lat="45.49259" lon="6.73233">
        <ele>2623.04</ele>
        <time>2016-03-20T09:47:51Z</time>
      </trkpt>
      <trkpt lat="45.49242" lon="6.73217">
        <ele>2616</ele>
        <time>2016-03-20T09:47:56Z</time>
      </trkpt>
      <trkpt lat="45.49242" lon="6.73185">
        <ele>2610.82</ele>
        <time>2016-03-20T09:48:00Z</time>
      </trkpt>
      <trkpt lat="45.49238" lon="6.73158">
        <ele>2606.59</ele>
        <time>2016-03-20T09:48:01Z</time>
      </trkpt>
      <trkpt lat="45.49231" lon="6.73124">
        <ele>2601.73</ele>
        <time>2016-03-20T09:48:03Z</time>
      </trkpt>
      <trkpt lat="45.49226" lon="6.73091">
        <ele>2600.74</ele>
        <time>2016-03-20T09:48:05Z</time>
      </trkpt>
      <trkpt lat="45.49229" lon="6.73052">
        <ele>2599.74</ele>
        <time>2016-03-20T09:48:07Z</time>
      </trkpt>
      <trkpt lat="45.49225" lon="6.73019">
        <ele>2596.82</ele>
        <time>2016-03-20T09:48:09Z</time>
      </trkpt>
      <trkpt lat="45.49224" lon="6.72989">
        <ele>2594.78</ele>
        <time>2016-03-20T09:48:11Z</time>
      </trkpt>
      <trkpt lat="45.49221" lon="6.72956">
        <ele>2591.74</ele>
        <time>2016-03-20T09:48:15Z</time>
      </trkpt>
      <trkpt lat="45.49219" lon="6.7293">
        <ele>2588.78</ele>
        <time>2016-03-20T09:48:18Z</time>
      </trkpt>
      <trkpt lat="45.49219" lon="6.72898">
        <ele>2580.13</ele>
        <time>2016-03-20T09:48:52Z</time>
      </trkpt>
      <trkpt lat="45.49221" lon="6.72871">
        <ele>2574.98</ele>
        <time>2016-03-20T09:48:57Z</time>
      </trkpt>
      <trkpt lat="45.49222" lon="6.7284">
        <ele>2567.07</ele>
        <time>2016-03-20T09:49:01Z</time>
      </trkpt>
      <trkpt lat="45.49211" lon="6.72815">
        <ele>2559.58</ele>
        <time>2016-03-20T09:49:07Z</time>
      </trkpt>
      <trkpt lat="45.49207" lon="6.72781">
        <ele>2558.54</ele>
        <time>2016-03-20T09:49:10Z</time>
      </trkpt>
      <trkpt lat="45.49211" lon="6.72748">
        <ele>2555.01</ele>
        <time>2016-03-20T09:49:12Z</time>
      </trkpt>
      <trkpt lat="45.49224" lon="6.72729">
        <ele>2543.99</ele>
        <time>2016-03-20T09:49:19Z</time>
      </trkpt>
      <trkpt lat="45.49235" lon="6.72704">
        <ele>2542.54</ele>
        <time>2016-03-20T09:49:24Z</time>
      </trkpt>
      <trkpt lat="45.49231" lon="6.7267">
        <ele>2538.85</ele>
        <time>2016-03-20T09:49:26Z</time>
      </trkpt>
      <trkpt lat="45.49233" lon="6.72633">
        <ele>2537.74</ele>
        <time>2016-03-20T09:49:28Z</time>
      </trkpt>
      <trkpt lat="45.49229" lon="6.72597">
        <ele>2535.78</ele>
        <time>2016-03-20T09:49:30Z</time>
      </trkpt>
      <trkpt lat="45.4923" lon="6.72561">
        <ele>2534.74</ele>
        <time>2016-03-20T09:49:32Z</time>
      </trkpt>
      <trkpt lat="45.49234" lon="6.72532">
        <ele>2536.14</ele>
        <time>2016-03-20T09:49:34Z</time>
      </trkpt>
      <trkpt lat="45.49235" lon="6.72505">
        <ele>2536.52</ele>
        <time>2016-03-20T09:49:36Z</time>
      </trkpt>
      <trkpt lat="45.49238" lon="6.7247">
        <ele>2534.74</ele>
        <time>2016-03-20T09:49:39Z</time>
      </trkpt>
      <trkpt lat="45.49226" lon="6.72443">
        <ele>2524.26</ele>
        <time>2016-03-20T09:49:42Z</time>
      </trkpt>
      <trkpt lat="45.49226" lon="6.72411">
        <ele>2523.72</ele>
        <time>2016-03-20T09:49:44Z</time>
      </trkpt>
      <trkpt lat="45.49225" lon="6.72382">
        <ele>2521.78</ele>
        <time>2016-03-20T09:49:46Z</time>
      </trkpt>
      <trkpt lat="45.49222" lon="6.72354">
        <ele>2520.74</ele>
        <time>2016-03-20T09:49:48Z</time>
      </trkpt>
      <trkpt lat="45.49222" lon="6.72329">
        <ele>2521.5</ele>
        <time>2016-03-20T09:49:50Z</time>
      </trkpt>
      <trkpt lat="45.49222" lon="6.72302">
        <ele>2520.57</ele>
        <time>2016-03-20T09:49:52Z</time>
      </trkpt>
      <trkpt lat="45.49223" lon="6.72265">
        <ele>2518.74</ele>
        <time>2016-03-20T09:49:55Z</time>
      </trkpt>
      <trkpt lat="45.49224" lon="6.72235">
        <ele>2517.58</ele>
        <time>2016-03-20T09:49:57Z</time>
      </trkpt>
      <trkpt lat="45.49227" lon="6.72207">
        <ele>2516.73</ele>
        <time>2016-03-20T09:49:59Z</time>
      </trkpt>
      <trkpt lat="45.49228" lon="6.72167">
        <ele>2512.38</ele>
        <time>2016-03-20T09:50:01Z</time>
      </trkpt>
      <trkpt lat="45.49229" lon="6.72137">
        <ele>2511.72</ele>
        <time>2016-03-20T09:50:03Z</time>
      </trkpt>
      <trkpt lat="45.49224" lon="6.72105">
        <ele>2502.06</ele>
        <time>2016-03-20T09:50:06Z</time>
      </trkpt>
      <trkpt lat="45.49227" lon="6.72071">
        <ele>2501.55</ele>
        <time>2016-03-20T09:50:08Z</time>
      </trkpt>
      <trkpt lat="45.49227" lon="6.72045">
        <ele>2501.53</ele>
        <time>2016-03-20T09:50:10Z</time>
      </trkpt>
      <trkpt lat="45.49228" lon="6.72014">
        <ele>2499.58</ele>
        <time>2016-03-20T09:50:13Z</time>
      </trkpt>
      <trkpt lat="45.49228" lon="6.71979">
        <ele>2495.02</ele>
        <time>2016-03-20T09:50:16Z</time>
      </trkpt>
      <trkpt lat="45.49221" lon="6.71954">
        <ele>2490.87</ele>
        <time>2016-03-20T09:50:18Z</time>
      </trkpt>
      <trkpt lat="45.49207" lon="6.7193">
        <ele>2487.98</ele>
        <time>2016-03-20T09:50:20Z</time>
      </trkpt>
      <trkpt lat="45.49195" lon="6.7191">
        <ele>2484.83</ele>
        <time>2016-03-20T09:50:22Z</time>
      </trkpt>
      <trkpt lat="45.4918" lon="6.7189">
        <ele>2475.58</ele>
        <time>2016-03-20T09:50:24Z</time>
      </trkpt>
      <trkpt lat="45.4917" lon="6.71865">
        <ele>2452.79</ele>
        <time>2016-03-20T09:51:13Z</time>
      </trkpt>
      <trkpt lat="45.49155" lon="6.71848">
        <ele>2448.72</ele>
        <time>2016-03-20T09:51:17Z</time>
      </trkpt>
      <trkpt lat="45.49139" lon="6.71825">
        <ele>2441.63</ele>
        <time>2016-03-20T09:51:21Z</time>
      </trkpt>
      <trkpt lat="45.49125" lon="6.71806">
        <ele>2438.97</ele>
        <time>2016-03-20T09:51:23Z</time>
      </trkpt>
      <trkpt lat="45.4911" lon="6.7177">
        <ele>2437.75</ele>
        <time>2016-03-20T09:51:25Z</time>
      </trkpt>
      <trkpt lat="45.49095" lon="6.71739">
        <ele>2434.82</ele>
        <time>2016-03-20T09:51:27Z</time>
      </trkpt>
      <trkpt lat="45.49083" lon="6.71706">
        <ele>2427.18</ele>
        <time>2016-03-20T09:51:29Z</time>
      </trkpt>
      <trkpt lat="45.4907" lon="6.71676">
        <ele>2423.68</ele>
        <time>2016-03-20T09:51:31Z</time>
      </trkpt>
      <trkpt lat="45.49059" lon="6.71645">
        <ele>2422.74</ele>
        <time>2016-03-20T09:51:33Z</time>
      </trkpt>
      <trkpt lat="45.49047" lon="6.71618">
        <ele>2424.94</ele>
        <time>2016-03-20T09:51:35Z</time>
      </trkpt>
      <trkpt lat="45.49036" lon="6.71585">
        <ele>2423.77</ele>
        <time>2016-03-20T09:51:38Z</time>
      </trkpt>
      <trkpt lat="45.4902" lon="6.71554">
        <ele>2423.88</ele>
        <time>2016-03-20T09:51:41Z</time>
      </trkpt>
      <trkpt lat="45.4901" lon="6.7153">
        <ele>2420.56</ele>
        <time>2016-03-20T09:51:44Z</time>
      </trkpt>
      <trkpt lat="45.48997" lon="6.7151">
        <ele>2419.53</ele>
        <time>2016-03-20T09:51:49Z</time>
      </trkpt>
      <trkpt lat="45.48987" lon="6.71483">
        <ele>2414.58</ele>
        <time>2016-03-20T09:51:55Z</time>
      </trkpt>
      <trkpt lat="45.48977" lon="6.71459">
        <ele>2413.53</ele>
        <time>2016-03-20T09:52:01Z</time>
      </trkpt>
      <trkpt lat="45.48966" lon="6.71438">
        <ele>2413.57</ele>
        <time>2016-03-20T09:52:08Z</time>
      </trkpt>
      <trkpt lat="45.48953" lon="6.71419">
        <ele>2406.53</ele>
        <time>2016-03-20T09:52:26Z</time>
      </trkpt>
      <trkpt lat="45.48935" lon="6.71407">
        <ele>2400</ele>
        <time>2016-03-20T09:53:03Z</time>
      </trkpt>
      <trkpt lat="45.48922" lon="6.71386">
        <ele>2397.05</ele>
        <time>2016-03-20T09:53:08Z</time>
      </trkpt>
      <trkpt lat="45.48904" lon="6.71365">
        <ele>2393.4</ele>
        <time>2016-03-20T09:53:11Z</time>
      </trkpt>
      <trkpt lat="45.48887" lon="6.71348">
        <ele>2390.97</ele>
        <time>2016-03-20T09:53:13Z</time>
      </trkpt>
      <trkpt lat="45.48867" lon="6.71329">
        <ele>2388.47</ele>
        <time>2016-03-20T09:53:15Z</time>
      </trkpt>
      <trkpt lat="45.48844" lon="6.71313">
        <ele>2386.77</ele>
        <time>2016-03-20T09:53:17Z</time>
      </trkpt>
      <trkpt lat="45.48829" lon="6.71291">
        <ele>2380.46</ele>
        <time>2016-03-20T09:53:19Z</time>
      </trkpt>
      <trkpt lat="45.48815" lon="6.71272">
        <ele>2377.97</ele>
        <time>2016-03-20T09:53:21Z</time>
      </trkpt>
      <trkpt lat="45.48811" lon="6.71245">
        <ele>2374.03</ele>
        <time>2016-03-20T09:53:23Z</time>
      </trkpt>
      <trkpt lat="45.4882" lon="6.71211">
        <ele>2370.58</ele>
        <time>2016-03-20T09:53:27Z</time>
      </trkpt>
      <trkpt lat="45.48832" lon="6.7118">
        <ele>2364.39</ele>
        <time>2016-03-20T09:53:30Z</time>
      </trkpt>
      <trkpt lat="45.48847" lon="6.71152">
        <ele>2358.8</ele>
        <time>2016-03-20T09:53:33Z</time>
      </trkpt>
      <trkpt lat="45.48856" lon="6.71129">
        <ele>2355.97</ele>
        <time>2016-03-20T09:53:36Z</time>
      </trkpt>
      <trkpt lat="45.48868" lon="6.71102">
        <ele>2351.98</ele>
        <time>2016-03-20T09:53:39Z</time>
      </trkpt>
      <trkpt lat="45.48879" lon="6.7108">
        <ele>2348.14</ele>
        <time>2016-03-20T09:53:42Z</time>
      </trkpt>
      <trkpt lat="45.48889" lon="6.71058">
        <ele>2342.83</ele>
        <time>2016-03-20T09:53:45Z</time>
      </trkpt>
      <trkpt lat="45.48894" lon="6.71027">
        <ele>2341.57</ele>
        <time>2016-03-20T09:53:48Z</time>
      </trkpt>
      <trkpt lat="45.48896" lon="6.70998">
        <ele>2338.78</ele>
        <time>2016-03-20T09:53:51Z</time>
      </trkpt>
      <trkpt lat="45.48898" lon="6.70972">
        <ele>2330.8</ele>
        <time>2016-03-20T09:53:55Z</time>
      </trkpt>
      <trkpt lat="45.48902" lon="6.70946">
        <ele>2323.53</ele>
        <time>2016-03-20T09:54:04Z</time>
      </trkpt>
      <trkpt lat="45.48915" lon="6.70926">
        <ele>2311.76</ele>
        <time>2016-03-20T09:54:19Z</time>
      </trkpt>
      <trkpt lat="45.48927" lon="6.70906">
        <ele>2304.58</ele>
        <time>2016-03-20T09:54:36Z</time>
      </trkpt>
      <trkpt lat="45.48943" lon="6.7089">
        <ele>2304.33</ele>
        <time>2016-03-20T09:54:45Z</time>
      </trkpt>
      <trkpt lat="45.48952" lon="6.7092">
        <ele>2299.57</ele>
        <time>2016-03-20T09:56:38Z</time>
      </trkpt>
      <trkpt lat="45.48958" lon="6.70949">
        <ele>2297.76</ele>
        <time>2016-03-20T09:56:42Z</time>
      </trkpt>
      <trkpt lat="45.48963" lon="6.70977">
        <ele>2301.33</ele>
        <time>2016-03-20T09:56:46Z</time>
      </trkpt>
      <trkpt lat="45.48966" lon="6.71003">
        <ele>2306.69</ele>
        <time>2016-03-20T09:56:50Z</time>
      </trkpt>
      <trkpt lat="45.4897" lon="6.71031">
        <ele>2309.69</ele>
        <time>2016-03-20T09:56:55Z</time>
      </trkpt>
      <trkpt lat="45.48974" lon="6.71059">
        <ele>2312.51</ele>
        <time>2016-03-20T09:57:00Z</time>
      </trkpt>
      <trkpt lat="45.48978" lon="6.71087">
        <ele>2319.01</ele>
        <time>2016-03-20T09:57:04Z</time>
      </trkpt>
      <trkpt lat="45.48981" lon="6.71118">
        <ele>2325.44</ele>
        <time>2016-03-20T09:57:09Z</time>
      </trkpt>
      <trkpt lat="45.48987" lon="6.71144">
        <ele>2332.07</ele>
        <time>2016-03-20T09:57:13Z</time>
      </trkpt>
      <trkpt lat="45.48994" lon="6.71171">
        <ele>2339.23</ele>
        <time>2016-03-20T09:57:18Z</time>
      </trkpt>
      <trkpt lat="45.49001" lon="6.71197">
        <ele>2344.31</ele>
        <time>2016-03-20T09:57:23Z</time>
      </trkpt>
      <trkpt lat="45.49002" lon="6.71227">
        <ele>2356.67</ele>
        <time>2016-03-20T09:57:28Z</time>
      </trkpt>
      <trkpt lat="45.49007" lon="6.71253">
        <ele>2369.06</ele>
        <time>2016-03-20T09:57:33Z</time>
      </trkpt>
      <trkpt lat="45.49011" lon="6.71279">
        <ele>2378.03</ele>
        <time>2016-03-20T09:57:38Z</time>
      </trkpt>
      <trkpt lat="45.49015" lon="6.71306">
        <ele>2388.27</ele>
        <time>2016-03-20T09:57:43Z</time>
      </trkpt>
      <trkpt lat="45.49021" lon="6.71334">
        <ele>2395.05</ele>
        <time>2016-03-20T09:57:48Z</time>
      </trkpt>
      <trkpt lat="45.49026" lon="6.71361">
        <ele>2401.2</ele>
        <time>2016-03-20T09:57:53Z</time>
      </trkpt>
      <trkpt lat="45.49031" lon="6.7139">
        <ele>2409.43</ele>
        <time>2016-03-20T09:57:58Z</time>
      </trkpt>
      <trkpt lat="45.49034" lon="6.71416">
        <ele>2420.19</ele>
        <time>2016-03-20T09:58:03Z</time>
      </trkpt>
      <trkpt lat="45.49041" lon="6.71443">
        <ele>2422.56</ele>
        <time>2016-03-20T09:58:09Z</time>
      </trkpt>
      <trkpt lat="45.49044" lon="6.71468">
        <ele>2420.73</ele>
        <time>2016-03-20T09:58:13Z</time>
      </trkpt>
      <trkpt lat="45.49049" lon="6.71498">
        <ele>2417.74</ele>
        <time>2016-03-20T09:58:18Z</time>
      </trkpt>
      <trkpt lat="45.49053" lon="6.71529">
        <ele>2413.58</ele>
        <time>2016-03-20T09:58:23Z</time>
      </trkpt>
      <trkpt lat="45.49057" lon="6.71558">
        <ele>2412.53</ele>
        <time>2016-03-20T09:58:28Z</time>
      </trkpt>
      <trkpt lat="45.49063" lon="6.71588">
        <ele>2412.53</ele>
        <time>2016-03-20T09:58:33Z</time>
      </trkpt>
      <trkpt lat="45.49067" lon="6.71618">
        <ele>2411.34</ele>
        <time>2016-03-20T09:58:38Z</time>
      </trkpt>
      <trkpt lat="45.4907" lon="6.71648">
        <ele>2410.54</ele>
        <time>2016-03-20T09:58:43Z</time>
      </trkpt>
      <trkpt lat="45.49075" lon="6.71674">
        <ele>2411.48</ele>
        <time>2016-03-20T09:58:47Z</time>
      </trkpt>
      <trkpt lat="45.49078" lon="6.71704">
        <ele>2413.29</ele>
        <time>2016-03-20T09:58:52Z</time>
      </trkpt>
      <trkpt lat="45.49085" lon="6.71733">
        <ele>2411.74</ele>
        <time>2016-03-20T09:58:57Z</time>
      </trkpt>
      <trkpt lat="45.49091" lon="6.71761">
        <ele>2413.68</ele>
        <time>2016-03-20T09:59:02Z</time>
      </trkpt>
      <trkpt lat="45.49096" lon="6.7179">
        <ele>2416.49</ele>
        <time>2016-03-20T09:59:07Z</time>
      </trkpt>
      <trkpt lat="45.49099" lon="6.7182">
        <ele>2420.51</ele>
        <time>2016-03-20T09:59:12Z</time>
      </trkpt>
      <trkpt lat="45.49105" lon="6.71847">
        <ele>2424.28</ele>
        <time>2016-03-20T09:59:17Z</time>
      </trkpt>
      <trkpt lat="45.4911" lon="6.71878">
        <ele>2432.24</ele>
        <time>2016-03-20T09:59:22Z</time>
      </trkpt>
      <trkpt lat="45.49117" lon="6.71905">
        <ele>2438.27</ele>
        <time>2016-03-20T09:59:27Z</time>
      </trkpt>
      <trkpt lat="45.49121" lon="6.71932">
        <ele>2447.24</ele>
        <time>2016-03-20T09:59:32Z</time>
      </trkpt>
      <trkpt lat="45.49123" lon="6.7196">
        <ele>2460.62</ele>
        <time>2016-03-20T09:59:37Z</time>
      </trkpt>
      <trkpt lat="45.49128" lon="6.71988">
        <ele>2464.33</ele>
        <time>2016-03-20T09:59:42Z</time>
      </trkpt>
      <trkpt lat="45.49135" lon="6.72016">
        <ele>2467.29</ele>
        <time>2016-03-20T09:59:47Z</time>
      </trkpt>
      <trkpt lat="45.49138" lon="6.72046">
        <ele>2471.52</ele>
        <time>2016-03-20T09:59:52Z</time>
      </trkpt>
      <trkpt lat="45.49142" lon="6.72072">
        <ele>2471.57</ele>
        <time>2016-03-20T09:59:57Z</time>
      </trkpt>
      <trkpt lat="45.49149" lon="6.72097">
        <ele>2470.37</ele>
        <time>2016-03-20T10:00:01Z</time>
      </trkpt>
      <trkpt lat="45.49152" lon="6.72127">
        <ele>2469.56</ele>
        <time>2016-03-20T10:00:06Z</time>
      </trkpt>
      <trkpt lat="45.49157" lon="6.72157">
        <ele>2470.33</ele>
        <time>2016-03-20T10:00:11Z</time>
      </trkpt>
      <trkpt lat="45.49162" lon="6.72188">
        <ele>2472.33</ele>
        <time>2016-03-20T10:00:16Z</time>
      </trkpt>
      <trkpt lat="45.49167" lon="6.72217">
        <ele>2473.34</ele>
        <time>2016-03-20T10:00:21Z</time>
      </trkpt>
      <trkpt lat="45.49174" lon="6.72244">
        <ele>2474.49</ele>
        <time>2016-03-20T10:00:26Z</time>
      </trkpt>
      <trkpt lat="45.4918" lon="6.72274">
        <ele>2476.32</ele>
        <time>2016-03-20T10:00:31Z</time>
      </trkpt>
      <trkpt lat="45.49184" lon="6.72304">
        <ele>2480.52</ele>
        <time>2016-03-20T10:00:36Z</time>
      </trkpt>
      <trkpt lat="45.49189" lon="6.72333">
        <ele>2484.31</ele>
        <time>2016-03-20T10:00:41Z</time>
      </trkpt>
      <trkpt lat="45.49195" lon="6.7236">
        <ele>2484.72</ele>
        <time>2016-03-20T10:00:46Z</time>
      </trkpt>
      <trkpt lat="45.49201" lon="6.72389">
        <ele>2483.54</ele>
        <time>2016-03-20T10:00:51Z</time>
      </trkpt>
      <trkpt lat="45.49208" lon="6.72418">
        <ele>2482.56</ele>
        <time>2016-03-20T10:00:56Z</time>
      </trkpt>
      <trkpt lat="45.4921" lon="6.72449">
        <ele>2483.52</ele>
        <time>2016-03-20T10:01:01Z</time>
      </trkpt>
      <trkpt lat="45.49211" lon="6.72476">
        <ele>2488.32</ele>
        <time>2016-03-20T10:01:06Z</time>
      </trkpt>
      <trkpt lat="45.49217" lon="6.72507">
        <ele>2488.53</ele>
        <time>2016-03-20T10:01:11Z</time>
      </trkpt>
      <trkpt lat="45.49223" lon="6.72537">
        <ele>2489.53</ele>
        <time>2016-03-20T10:01:16Z</time>
      </trkpt>
      <trkpt lat="45.49229" lon="6.72567">
        <ele>2489.73</ele>
        <time>2016-03-20T10:01:21Z</time>
      </trkpt>
      <trkpt lat="45.49234" lon="6.72597">
        <ele>2491.48</ele>
        <time>2016-03-20T10:01:26Z</time>
      </trkpt>
      <trkpt lat="45.49237" lon="6.72626">
        <ele>2498.81</ele>
        <time>2016-03-20T10:01:31Z</time>
      </trkpt>
      <trkpt lat="45.49239" lon="6.72657">
        <ele>2503.12</ele>
        <time>2016-03-20T10:01:36Z</time>
      </trkpt>
      <trkpt lat="45.49243" lon="6.72686">
        <ele>2509.27</ele>
        <time>2016-03-20T10:01:41Z</time>
      </trkpt>
      <trkpt lat="45.49249" lon="6.72714">
        <ele>2516.08</ele>
        <time>2016-03-20T10:01:46Z</time>
      </trkpt>
      <trkpt lat="45.49256" lon="6.72741">
        <ele>2523.04</ele>
        <time>2016-03-20T10:01:51Z</time>
      </trkpt>
      <trkpt lat="45.4926" lon="6.72771">
        <ele>2526.33</ele>
        <time>2016-03-20T10:01:56Z</time>
      </trkpt>
      <trkpt lat="45.49264" lon="6.72801">
        <ele>2529.17</ele>
        <time>2016-03-20T10:02:01Z</time>
      </trkpt>
      <trkpt lat="45.49268" lon="6.72831">
        <ele>2532.3</ele>
        <time>2016-03-20T10:02:06Z</time>
      </trkpt>
      <trkpt lat="45.49275" lon="6.72859">
        <ele>2532.72</ele>
        <time>2016-03-20T10:02:11Z</time>
      </trkpt>
      <trkpt lat="45.49278" lon="6.72889">
        <ele>2537.16</ele>
        <time>2016-03-20T10:02:16Z</time>
      </trkpt>
      <trkpt lat="45.49282" lon="6.72919">
        <ele>2543.05</ele>
        <time>2016-03-20T10:02:21Z</time>
      </trkpt>
      <trkpt lat="45.49287" lon="6.72947">
        <ele>2546.52</ele>
        <time>2016-03-20T10:02:26Z</time>
      </trkpt>
      <trkpt lat="45.49294" lon="6.72975">
        <ele>2544.38</ele>
        <time>2016-03-20T10:02:31Z</time>
      </trkpt>
      <trkpt lat="45.49298" lon="6.73005">
        <ele>2547.32</ele>
        <time>2016-03-20T10:02:36Z</time>
      </trkpt>
      <trkpt lat="45.493" lon="6.73036">
        <ele>2557.22</ele>
        <time>2016-03-20T10:02:41Z</time>
      </trkpt>
      <trkpt lat="45.49306" lon="6.73066">
        <ele>2559.57</ele>
        <time>2016-03-20T10:02:46Z</time>
      </trkpt>
      <trkpt lat="45.49312" lon="6.73095">
        <ele>2562.13</ele>
        <time>2016-03-20T10:02:51Z</time>
      </trkpt>
      <trkpt lat="45.49316" lon="6.73122">
        <ele>2565.31</ele>
        <time>2016-03-20T10:02:55Z</time>
      </trkpt>
      <trkpt lat="45.49321" lon="6.7315">
        <ele>2574.97</ele>
        <time>2016-03-20T10:03:00Z</time>
      </trkpt>
      <trkpt lat="45.49324" lon="6.73175">
        <ele>2589.78</ele>
        <time>2016-03-20T10:03:05Z</time>
      </trkpt>
      <trkpt lat="45.4933" lon="6.732">
        <ele>2602.15</ele>
        <time>2016-03-20T10:03:10Z</time>
      </trkpt>
      <trkpt lat="45.49334" lon="6.73227">
        <ele>2610.2</ele>
        <time>2016-03-20T10:03:15Z</time>
      </trkpt>
      <trkpt lat="45.49338" lon="6.73255">
        <ele>2617.24</ele>
        <time>2016-03-20T10:03:20Z</time>
      </trkpt>
      <trkpt lat="45.49347" lon="6.73283">
        <ele>2626.47</ele>
        <time>2016-03-20T10:03:26Z</time>
      </trkpt>
      <trkpt lat="45.49352" lon="6.73313">
        <ele>2634.31</ele>
        <time>2016-03-20T10:03:31Z</time>
      </trkpt>
      <trkpt lat="45.49357" lon="6.73338">
        <ele>2649.97</ele>
        <time>2016-03-20T10:03:36Z</time>
      </trkpt>
      <trkpt lat="45.49362" lon="6.73365">
        <ele>2660.24</ele>
        <time>2016-03-20T10:03:41Z</time>
      </trkpt>
      <trkpt lat="45.49367" lon="6.73393">
        <ele>2671.18</ele>
        <time>2016-03-20T10:03:47Z</time>
      </trkpt>
      <trkpt lat="45.49371" lon="6.73419">
        <ele>2687.86</ele>
        <time>2016-03-20T10:03:54Z</time>
      </trkpt>
      <trkpt lat="45.49369" lon="6.73446">
        <ele>2691.57</ele>
        <time>2016-03-20T10:04:03Z</time>
      </trkpt>
      <trkpt lat="45.49375" lon="6.73472">
        <ele>2707.31</ele>
        <time>2016-03-20T10:04:12Z</time>
      </trkpt>
      <trkpt lat="45.49389" lon="6.73488">
        <ele>2710.49</ele>
        <time>2016-03-20T10:04:34Z</time>
      </trkpt>
      <trkpt lat="45.49407" lon="6.73498">
        <ele>2710.74</ele>
        <time>2016-03-20T10:04:52Z</time>
      </trkpt>
      <trkpt lat="45.49425" lon="6.73495">
        <ele>2711.48</ele>
        <time>2016-03-20T10:05:00Z</time>
      </trkpt>
      <trkpt lat="45.49443" lon="6.73483">
        <ele>2710.93</ele>
        <time>2016-03-20T10:05:09Z</time>
      </trkpt>
      <trkpt lat="45.4946" lon="6.73462">
        <ele>2707.75</ele>
        <time>2016-03-20T10:05:15Z</time>
      </trkpt>
      <trkpt lat="45.49471" lon="6.73441">
        <ele>2705.74</ele>
        <time>2016-03-20T10:05:19Z</time>
      </trkpt>
      <trkpt lat="45.49484" lon="6.73422">
        <ele>2703.77</ele>
        <time>2016-03-20T10:05:22Z</time>
      </trkpt>
      <trkpt lat="45.495" lon="6.73396">
        <ele>2701.57</ele>
        <time>2016-03-20T10:05:26Z</time>
      </trkpt>
      <trkpt lat="45.4952" lon="6.73391">
        <ele>2699.74</ele>
        <time>2016-03-20T10:05:29Z</time>
      </trkpt>
      <trkpt lat="45.49538" lon="6.73388">
        <ele>2695.82</ele>
        <time>2016-03-20T10:05:32Z</time>
      </trkpt>
      <trkpt lat="45.49559" lon="6.73385">
        <ele>2691.79</ele>
        <time>2016-03-20T10:05:35Z</time>
      </trkpt>
      <trkpt lat="45.49581" lon="6.73386">
        <ele>2688.78</ele>
        <time>2016-03-20T10:05:38Z</time>
      </trkpt>
      <trkpt lat="45.49603" lon="6.73383">
        <ele>2684.21</ele>
        <time>2016-03-20T10:05:41Z</time>
      </trkpt>
      <trkpt lat="45.49626" lon="6.7337">
        <ele>2680.98</ele>
        <time>2016-03-20T10:05:44Z</time>
      </trkpt>
      <trkpt lat="45.49643" lon="6.73358">
        <ele>2679.59</ele>
        <time>2016-03-20T10:05:46Z</time>
      </trkpt>
      <trkpt lat="45.49662" lon="6.73337">
        <ele>2675.6</ele>
        <time>2016-03-20T10:05:49Z</time>
      </trkpt>
      <trkpt lat="45.49678" lon="6.7332">
        <ele>2674.57</ele>
        <time>2016-03-20T10:05:51Z</time>
      </trkpt>
      <trkpt lat="45.49686" lon="6.73285">
        <ele>2669.86</ele>
        <time>2016-03-20T10:05:54Z</time>
      </trkpt>
      <trkpt lat="45.49693" lon="6.7326">
        <ele>2668.74</ele>
        <time>2016-03-20T10:05:56Z</time>
      </trkpt>
      <trkpt lat="45.49699" lon="6.73233">
        <ele>2665.98</ele>
        <time>2016-03-20T10:05:58Z</time>
      </trkpt>
      <trkpt lat="45.49705" lon="6.73206">
        <ele>2663.79</ele>
        <time>2016-03-20T10:06:00Z</time>
      </trkpt>
      <trkpt lat="45.49708" lon="6.73165">
        <ele>2659.98</ele>
        <time>2016-03-20T10:06:03Z</time>
      </trkpt>
      <trkpt lat="45.49707" lon="6.73137">
        <ele>2656.19</ele>
        <time>2016-03-20T10:06:05Z</time>
      </trkpt>
      <trkpt lat="45.49716" lon="6.73111">
        <ele>2639.59</ele>
        <time>2016-03-20T10:06:25Z</time>
      </trkpt>
      <trkpt lat="45.49726" lon="6.73086">
        <ele>2636</ele>
        <time>2016-03-20T10:06:30Z</time>
      </trkpt>
      <trkpt lat="45.49741" lon="6.73064">
        <ele>2625.91</ele>
        <time>2016-03-20T10:06:46Z</time>
      </trkpt>
      <trkpt lat="45.49757" lon="6.73043">
        <ele>2620.86</ele>
        <time>2016-03-20T10:06:49Z</time>
      </trkpt>
      <trkpt lat="45.49779" lon="6.7303">
        <ele>2612.28</ele>
        <time>2016-03-20T10:06:52Z</time>
      </trkpt>
      <trkpt lat="45.49802" lon="6.73014">
        <ele>2600.53</ele>
        <time>2016-03-20T10:06:55Z</time>
      </trkpt>
      <trkpt lat="45.49822" lon="6.73003">
        <ele>2593.81</ele>
        <time>2016-03-20T10:06:57Z</time>
      </trkpt>
      <trkpt lat="45.49839" lon="6.72986">
        <ele>2585.54</ele>
        <time>2016-03-20T10:06:59Z</time>
      </trkpt>
      <trkpt lat="45.49859" lon="6.72973">
        <ele>2578.49</ele>
        <time>2016-03-20T10:07:01Z</time>
      </trkpt>
      <trkpt lat="45.49885" lon="6.72962">
        <ele>2575.17</ele>
        <time>2016-03-20T10:07:03Z</time>
      </trkpt>
      <trkpt lat="45.49906" lon="6.72944">
        <ele>2570.08</ele>
        <time>2016-03-20T10:07:05Z</time>
      </trkpt>
      <trkpt lat="45.49931" lon="6.72933">
        <ele>2565.07</ele>
        <time>2016-03-20T10:07:07Z</time>
      </trkpt>
      <trkpt lat="45.49952" lon="6.72926">
        <ele>2559.11</ele>
        <time>2016-03-20T10:07:09Z</time>
      </trkpt>
      <trkpt lat="45.49958" lon="6.72899">
        <ele>2550.63</ele>
        <time>2016-03-20T10:07:12Z</time>
      </trkpt>
      <trkpt lat="45.49972" lon="6.72875">
        <ele>2545.64</ele>
        <time>2016-03-20T10:07:15Z</time>
      </trkpt>
      <trkpt lat="45.49999" lon="6.72854">
        <ele>2538.43</ele>
        <time>2016-03-20T10:07:18Z</time>
      </trkpt>
      <trkpt lat="45.50019" lon="6.72832">
        <ele>2533.09</ele>
        <time>2016-03-20T10:07:20Z</time>
      </trkpt>
      <trkpt lat="45.50048" lon="6.72824">
        <ele>2530.79</ele>
        <time>2016-03-20T10:07:22Z</time>
      </trkpt>
      <trkpt lat="45.50065" lon="6.72815">
        <ele>2526.58</ele>
        <time>2016-03-20T10:07:23Z</time>
      </trkpt>
      <trkpt lat="45.50095" lon="6.72807">
        <ele>2523.65</ele>
        <time>2016-03-20T10:07:25Z</time>
      </trkpt>
      <trkpt lat="45.50123" lon="6.72805">
        <ele>2520.02</ele>
        <time>2016-03-20T10:07:27Z</time>
      </trkpt>
      <trkpt lat="45.50144" lon="6.72795">
        <ele>2515.07</ele>
        <time>2016-03-20T10:07:29Z</time>
      </trkpt>
      <trkpt lat="45.50163" lon="6.72787">
        <ele>2511.83</ele>
        <time>2016-03-20T10:07:31Z</time>
      </trkpt>
      <trkpt lat="45.50186" lon="6.72784">
        <ele>2504.27</ele>
        <time>2016-03-20T10:07:34Z</time>
      </trkpt>
      <trkpt lat="45.50207" lon="6.72774">
        <ele>2499.86</ele>
        <time>2016-03-20T10:07:37Z</time>
      </trkpt>
      <trkpt lat="45.50219" lon="6.72793">
        <ele>2489.9</ele>
        <time>2016-03-20T10:07:52Z</time>
      </trkpt>
      <trkpt lat="45.50236" lon="6.72779">
        <ele>2472.03</ele>
        <time>2016-03-20T10:08:12Z</time>
      </trkpt>
      <trkpt lat="45.50255" lon="6.72769">
        <ele>2466.03</ele>
        <time>2016-03-20T10:08:15Z</time>
      </trkpt>
      <trkpt lat="45.50277" lon="6.72759">
        <ele>2455.17</ele>
        <time>2016-03-20T10:08:18Z</time>
      </trkpt>
      <trkpt lat="45.50294" lon="6.72744">
        <ele>2450.88</ele>
        <time>2016-03-20T10:08:20Z</time>
      </trkpt>
      <trkpt lat="45.50312" lon="6.72718">
        <ele>2445.35</ele>
        <time>2016-03-20T10:08:23Z</time>
      </trkpt>
      <trkpt lat="45.50325" lon="6.72698">
        <ele>2442.96</ele>
        <time>2016-03-20T10:08:25Z</time>
      </trkpt>
      <trkpt lat="45.50345" lon="6.72668">
        <ele>2440.74</ele>
        <time>2016-03-20T10:08:28Z</time>
      </trkpt>
      <trkpt lat="45.50362" lon="6.7265">
        <ele>2437.5</ele>
        <time>2016-03-20T10:08:30Z</time>
      </trkpt>
      <trkpt lat="45.5038" lon="6.72634">
        <ele>2433.85</ele>
        <time>2016-03-20T10:08:32Z</time>
      </trkpt>
      <trkpt lat="45.504" lon="6.72626">
        <ele>2430.98</ele>
        <time>2016-03-20T10:08:34Z</time>
      </trkpt>
      <trkpt lat="45.5042" lon="6.72623">
        <ele>2427.83</ele>
        <time>2016-03-20T10:08:36Z</time>
      </trkpt>
      <trkpt lat="45.50442" lon="6.72623">
        <ele>2424.02</ele>
        <time>2016-03-20T10:08:38Z</time>
      </trkpt>
      <trkpt lat="45.50464" lon="6.72619">
        <ele>2418.27</ele>
        <time>2016-03-20T10:08:40Z</time>
      </trkpt>
      <trkpt lat="45.50484" lon="6.72613">
        <ele>2412.6</ele>
        <time>2016-03-20T10:08:42Z</time>
      </trkpt>
      <trkpt lat="45.50511" lon="6.72617">
        <ele>2408.95</ele>
        <time>2016-03-20T10:08:45Z</time>
      </trkpt>
      <trkpt lat="45.50529" lon="6.72601">
        <ele>2400.23</ele>
        <time>2016-03-20T10:08:47Z</time>
      </trkpt>
      <trkpt lat="45.5055" lon="6.72592">
        <ele>2394.44</ele>
        <time>2016-03-20T10:08:49Z</time>
      </trkpt>
      <trkpt lat="45.50575" lon="6.72579">
        <ele>2389.41</ele>
        <time>2016-03-20T10:08:51Z</time>
      </trkpt>
      <trkpt lat="45.50598" lon="6.72558">
        <ele>2382.33</ele>
        <time>2016-03-20T10:08:53Z</time>
      </trkpt>
      <trkpt lat="45.50619" lon="6.72547">
        <ele>2377.24</ele>
        <time>2016-03-20T10:08:55Z</time>
      </trkpt>
      <trkpt lat="45.50642" lon="6.72541">
        <ele>2372.08</ele>
        <time>2016-03-20T10:08:57Z</time>
      </trkpt>
      <trkpt lat="45.50664" lon="6.72539">
        <ele>2368.99</ele>
        <time>2016-03-20T10:08:59Z</time>
      </trkpt>
      <trkpt lat="45.50688" lon="6.72539">
        <ele>2361.03</ele>
        <time>2016-03-20T10:09:01Z</time>
      </trkpt>
      <trkpt lat="45.50711" lon="6.72545">
        <ele>2358.79</ele>
        <time>2016-03-20T10:09:03Z</time>
      </trkpt>
      <trkpt lat="45.50731" lon="6.72547">
        <ele>2351.02</ele>
        <time>2016-03-20T10:09:05Z</time>
      </trkpt>
      <trkpt lat="45.50752" lon="6.72554">
        <ele>2346.07</ele>
        <time>2016-03-20T10:09:07Z</time>
      </trkpt>
      <trkpt lat="45.50777" lon="6.72567">
        <ele>2342.03</ele>
        <time>2016-03-20T10:09:09Z</time>
      </trkpt>
      <trkpt lat="45.50803" lon="6.72573">
        <ele>2338.83</ele>
        <time>2016-03-20T10:09:11Z</time>
      </trkpt>
      <trkpt lat="45.50828" lon="6.72578">
        <ele>2330.22</ele>
        <time>2016-03-20T10:09:13Z</time>
      </trkpt>
      <trkpt lat="45.50851" lon="6.72567">
        <ele>2325.79</ele>
        <time>2016-03-20T10:09:16Z</time>
      </trkpt>
      <trkpt lat="45.50871" lon="6.72557">
        <ele>2296.72</ele>
        <time>2016-03-20T10:09:53Z</time>
      </trkpt>
      <trkpt lat="45.50891" lon="6.72548">
        <ele>2286.13</ele>
        <time>2016-03-20T10:09:56Z</time>
      </trkpt>
      <trkpt lat="45.50913" lon="6.72542">
        <ele>2278.88</ele>
        <time>2016-03-20T10:09:59Z</time>
      </trkpt>
      <trkpt lat="45.50934" lon="6.7253">
        <ele>2274.82</ele>
        <time>2016-03-20T10:10:02Z</time>
      </trkpt>
      <trkpt lat="45.50949" lon="6.72516">
        <ele>2273.74</ele>
        <time>2016-03-20T10:10:04Z</time>
      </trkpt>
      <trkpt lat="45.50972" lon="6.72509">
        <ele>2268.19</ele>
        <time>2016-03-20T10:10:07Z</time>
      </trkpt>
      <trkpt lat="45.50989" lon="6.725">
        <ele>2265</ele>
        <time>2016-03-20T10:10:09Z</time>
      </trkpt>
      <trkpt lat="45.51011" lon="6.72499">
        <ele>2261.03</ele>
        <time>2016-03-20T10:10:11Z</time>
      </trkpt>
      <trkpt lat="45.51032" lon="6.72487">
        <ele>2257.59</ele>
        <time>2016-03-20T10:10:14Z</time>
      </trkpt>
      <trkpt lat="45.51051" lon="6.72477">
        <ele>2245.25</ele>
        <time>2016-03-20T10:10:18Z</time>
      </trkpt>
      <trkpt lat="45.51069" lon="6.72487">
        <ele>2238.78</ele>
        <time>2016-03-20T10:10:23Z</time>
      </trkpt>
      <trkpt lat="45.51057" lon="6.72509">
        <ele>2204.53</ele>
        <time>2016-03-20T10:12:52Z</time>
      </trkpt>
      <trkpt lat="45.51039" lon="6.72518">
        <ele>2205.53</ele>
        <time>2016-03-20T10:13:04Z</time>
      </trkpt>
      <trkpt lat="45.5102" lon="6.72527">
        <ele>2211.09</ele>
        <time>2016-03-20T10:13:15Z</time>
      </trkpt>
      <trkpt lat="45.51002" lon="6.72538">
        <ele>2219.1</ele>
        <time>2016-03-20T10:13:26Z</time>
      </trkpt>
      <trkpt lat="45.50984" lon="6.72548">
        <ele>2227.52</ele>
        <time>2016-03-20T10:13:36Z</time>
      </trkpt>
      <trkpt lat="45.50968" lon="6.72563">
        <ele>2233.53</ele>
        <time>2016-03-20T10:13:46Z</time>
      </trkpt>
      <trkpt lat="45.5095" lon="6.72574">
        <ele>2238.28</ele>
        <time>2016-03-20T10:13:57Z</time>
      </trkpt>
      <trkpt lat="45.50932" lon="6.72584">
        <ele>2238.73</ele>
        <time>2016-03-20T10:14:07Z</time>
      </trkpt>
      <trkpt lat="45.50914" lon="6.72594">
        <ele>2247.24</ele>
        <time>2016-03-20T10:14:16Z</time>
      </trkpt>
      <trkpt lat="45.50895" lon="6.72602">
        <ele>2257.28</ele>
        <time>2016-03-20T10:14:25Z</time>
      </trkpt>
      <trkpt lat="45.50879" lon="6.72613">
        <ele>2266.04</ele>
        <time>2016-03-20T10:14:34Z</time>
      </trkpt>
      <trkpt lat="45.5086" lon="6.72623">
        <ele>2276.25</ele>
        <time>2016-03-20T10:14:44Z</time>
      </trkpt>
      <trkpt lat="45.50842" lon="6.72635">
        <ele>2278.5</ele>
        <time>2016-03-20T10:14:54Z</time>
      </trkpt>
      <trkpt lat="45.50824" lon="6.72645">
        <ele>2280.5</ele>
        <time>2016-03-20T10:15:04Z</time>
      </trkpt>
      <trkpt lat="45.50806" lon="6.72654">
        <ele>2289.27</ele>
        <time>2016-03-20T10:15:12Z</time>
      </trkpt>
      <trkpt lat="45.50788" lon="6.72665">
        <ele>2294.3</ele>
        <time>2016-03-20T10:15:22Z</time>
      </trkpt>
      <trkpt lat="45.50771" lon="6.72678">
        <ele>2304.07</ele>
        <time>2016-03-20T10:15:30Z</time>
      </trkpt>
      <trkpt lat="45.50753" lon="6.72684">
        <ele>2306.66</ele>
        <time>2016-03-20T10:15:39Z</time>
      </trkpt>
      <trkpt lat="45.50736" lon="6.72695">
        <ele>2310.18</ele>
        <time>2016-03-20T10:15:47Z</time>
      </trkpt>
      <trkpt lat="45.50718" lon="6.72701">
        <ele>2309.51</ele>
        <time>2016-03-20T10:15:57Z</time>
      </trkpt>
      <trkpt lat="45.50701" lon="6.72711">
        <ele>2312.33</ele>
        <time>2016-03-20T10:16:07Z</time>
      </trkpt>
      <trkpt lat="45.50683" lon="6.72723">
        <ele>2316.53</ele>
        <time>2016-03-20T10:16:16Z</time>
      </trkpt>
      <trkpt lat="45.50667" lon="6.72735">
        <ele>2319.32</ele>
        <time>2016-03-20T10:16:25Z</time>
      </trkpt>
      <trkpt lat="45.50648" lon="6.72742">
        <ele>2321.5</ele>
        <time>2016-03-20T10:16:37Z</time>
      </trkpt>
      <trkpt lat="45.50631" lon="6.72755">
        <ele>2326.32</ele>
        <time>2016-03-20T10:16:47Z</time>
      </trkpt>
      <trkpt lat="45.50614" lon="6.72763">
        <ele>2332.53</ele>
        <time>2016-03-20T10:16:56Z</time>
      </trkpt>
      <trkpt lat="45.50596" lon="6.72772">
        <ele>2338.44</ele>
        <time>2016-03-20T10:17:06Z</time>
      </trkpt>
      <trkpt lat="45.50578" lon="6.72781">
        <ele>2348.12</ele>
        <time>2016-03-20T10:17:17Z</time>
      </trkpt>
      <trkpt lat="45.50562" lon="6.72792">
        <ele>2362.27</ele>
        <time>2016-03-20T10:17:26Z</time>
      </trkpt>
      <trkpt lat="45.50545" lon="6.72804">
        <ele>2370.31</ele>
        <time>2016-03-20T10:17:36Z</time>
      </trkpt>
      <trkpt lat="45.50529" lon="6.72816">
        <ele>2373.73</ele>
        <time>2016-03-20T10:17:47Z</time>
      </trkpt>
      <trkpt lat="45.5051" lon="6.72824">
        <ele>2382.08</ele>
        <time>2016-03-20T10:17:57Z</time>
      </trkpt>
      <trkpt lat="45.50496" lon="6.72841">
        <ele>2382.54</ele>
        <time>2016-03-20T10:18:09Z</time>
      </trkpt>
      <trkpt lat="45.50478" lon="6.72853">
        <ele>2390.49</ele>
        <time>2016-03-20T10:18:22Z</time>
      </trkpt>
      <trkpt lat="45.50459" lon="6.72861">
        <ele>2402.34</ele>
        <time>2016-03-20T10:18:33Z</time>
      </trkpt>
      <trkpt lat="45.50442" lon="6.72871">
        <ele>2414.26</ele>
        <time>2016-03-20T10:18:43Z</time>
      </trkpt>
      <trkpt lat="45.50425" lon="6.7288">
        <ele>2421.73</ele>
        <time>2016-03-20T10:18:52Z</time>
      </trkpt>
      <trkpt lat="45.50409" lon="6.72893">
        <ele>2426.72</ele>
        <time>2016-03-20T10:19:02Z</time>
      </trkpt>
      <trkpt lat="45.5039" lon="6.72898">
        <ele>2436.31</ele>
        <time>2016-03-20T10:19:09Z</time>
      </trkpt>
      <trkpt lat="45.5037" lon="6.72905">
        <ele>2441.44</ele>
        <time>2016-03-20T10:19:17Z</time>
      </trkpt>
      <trkpt lat="45.50353" lon="6.72913">
        <ele>2450.31</ele>
        <time>2016-03-20T10:19:26Z</time>
      </trkpt>
      <trkpt lat="45.50335" lon="6.72924">
        <ele>2457.47</ele>
        <time>2016-03-20T10:19:36Z</time>
      </trkpt>
      <trkpt lat="45.50317" lon="6.72934">
        <ele>2473.68</ele>
        <time>2016-03-20T10:19:47Z</time>
      </trkpt>
      <trkpt lat="45.50297" lon="6.72943">
        <ele>2471.69</ele>
        <time>2016-03-20T10:19:55Z</time>
      </trkpt>
      <trkpt lat="45.5028" lon="6.72953">
        <ele>2480.49</ele>
        <time>2016-03-20T10:20:04Z</time>
      </trkpt>
      <trkpt lat="45.50262" lon="6.72965">
        <ele>2482.53</ele>
        <time>2016-03-20T10:20:13Z</time>
      </trkpt>
      <trkpt lat="45.50246" lon="6.72975">
        <ele>2491.27</ele>
        <time>2016-03-20T10:20:24Z</time>
      </trkpt>
      <trkpt lat="45.50229" lon="6.72987">
        <ele>2490.5</ele>
        <time>2016-03-20T10:20:33Z</time>
      </trkpt>
      <trkpt lat="45.5021" lon="6.72995">
        <ele>2491.53</ele>
        <time>2016-03-20T10:20:41Z</time>
      </trkpt>
      <trkpt lat="45.50191" lon="6.73006">
        <ele>2497.45</ele>
        <time>2016-03-20T10:20:50Z</time>
      </trkpt>
      <trkpt lat="45.50172" lon="6.73014">
        <ele>2500.49</ele>
        <time>2016-03-20T10:20:59Z</time>
      </trkpt>
      <trkpt lat="45.50157" lon="6.7303">
        <ele>2509.47</ele>
        <time>2016-03-20T10:21:14Z</time>
      </trkpt>
      <trkpt lat="45.50141" lon="6.73042">
        <ele>2513.06</ele>
        <time>2016-03-20T10:21:25Z</time>
      </trkpt>
      <trkpt lat="45.50123" lon="6.73048">
        <ele>2519.44</ele>
        <time>2016-03-20T10:21:32Z</time>
      </trkpt>
      <trkpt lat="45.50107" lon="6.73062">
        <ele>2520.32</ele>
        <time>2016-03-20T10:21:44Z</time>
      </trkpt>
      <trkpt lat="45.50089" lon="6.73075">
        <ele>2520.3</ele>
        <time>2016-03-20T10:21:54Z</time>
      </trkpt>
      <trkpt lat="45.5007" lon="6.73084">
        <ele>2535.42</ele>
        <time>2016-03-20T10:22:03Z</time>
      </trkpt>
      <trkpt lat="45.50053" lon="6.73094">
        <ele>2537.36</ele>
        <time>2016-03-20T10:22:12Z</time>
      </trkpt>
      <trkpt lat="45.50034" lon="6.73104">
        <ele>2540.06</ele>
        <time>2016-03-20T10:22:23Z</time>
      </trkpt>
      <trkpt lat="45.50018" lon="6.73114">
        <ele>2542.36</ele>
        <time>2016-03-20T10:22:31Z</time>
      </trkpt>
      <trkpt lat="45.5" lon="6.73122">
        <ele>2553.52</ele>
        <time>2016-03-20T10:22:40Z</time>
      </trkpt>
      <trkpt lat="45.49983" lon="6.73133">
        <ele>2566.93</ele>
        <time>2016-03-20T10:22:52Z</time>
      </trkpt>
      <trkpt lat="45.49967" lon="6.73145">
        <ele>2570.71</ele>
        <time>2016-03-20T10:23:02Z</time>
      </trkpt>
      <trkpt lat="45.4995" lon="6.73152">
        <ele>2571.57</ele>
        <time>2016-03-20T10:23:09Z</time>
      </trkpt>
      <trkpt lat="45.49936" lon="6.73171">
        <ele>2582.57</ele>
        <time>2016-03-20T10:23:24Z</time>
      </trkpt>
      <trkpt lat="45.49918" lon="6.73179">
        <ele>2589.07</ele>
        <time>2016-03-20T10:23:33Z</time>
      </trkpt>
      <trkpt lat="45.499" lon="6.73188">
        <ele>2598.74</ele>
        <time>2016-03-20T10:23:43Z</time>
      </trkpt>
      <trkpt lat="45.49882" lon="6.73199">
        <ele>2603.12</ele>
        <time>2016-03-20T10:23:53Z</time>
      </trkpt>
      <trkpt lat="45.49865" lon="6.73211">
        <ele>2607.97</ele>
        <time>2016-03-20T10:24:04Z</time>
      </trkpt>
      <trkpt lat="45.49846" lon="6.73216">
        <ele>2627.25</ele>
        <time>2016-03-20T10:24:13Z</time>
      </trkpt>
      <trkpt lat="45.49828" lon="6.73224">
        <ele>2636.68</ele>
        <time>2016-03-20T10:24:22Z</time>
      </trkpt>
      <trkpt lat="45.49811" lon="6.73234">
        <ele>2645.13</ele>
        <time>2016-03-20T10:24:32Z</time>
      </trkpt>
      <trkpt lat="45.49791" lon="6.73238">
        <ele>2658.4</ele>
        <time>2016-03-20T10:24:40Z</time>
      </trkpt>
      <trkpt lat="45.49774" lon="6.73248">
        <ele>2664.47</ele>
        <time>2016-03-20T10:24:49Z</time>
      </trkpt>
      <trkpt lat="45.49757" lon="6.73255">
        <ele>2675.27</ele>
        <time>2016-03-20T10:24:57Z</time>
      </trkpt>
      <trkpt lat="45.49739" lon="6.73264">
        <ele>2677.32</ele>
        <time>2016-03-20T10:25:05Z</time>
      </trkpt>
      <trkpt lat="45.49722" lon="6.73273">
        <ele>2678.33</ele>
        <time>2016-03-20T10:25:14Z</time>
      </trkpt>
      <trkpt lat="45.49704" lon="6.73284">
        <ele>2678.53</ele>
        <time>2016-03-20T10:25:24Z</time>
      </trkpt>
      <trkpt lat="45.49686" lon="6.73292">
        <ele>2678.33</ele>
        <time>2016-03-20T10:25:33Z</time>
      </trkpt>
      <trkpt lat="45.49668" lon="6.73301">
        <ele>2680.73</ele>
        <time>2016-03-20T10:25:42Z</time>
      </trkpt>
      <trkpt lat="45.49651" lon="6.73314">
        <ele>2681.52</ele>
        <time>2016-03-20T10:25:51Z</time>
      </trkpt>
      <trkpt lat="45.49633" lon="6.73324">
        <ele>2682.53</ele>
        <time>2016-03-20T10:26:00Z</time>
      </trkpt>
      <trkpt lat="45.49616" lon="6.73335">
        <ele>2684.57</ele>
        <time>2016-03-20T10:26:10Z</time>
      </trkpt>
      <trkpt lat="45.49598" lon="6.73346">
        <ele>2684.56</ele>
        <time>2016-03-20T10:26:20Z</time>
      </trkpt>
      <trkpt lat="45.49581" lon="6.73359">
        <ele>2684.34</ele>
        <time>2016-03-20T10:26:31Z</time>
      </trkpt>
      <trkpt lat="45.49562" lon="6.73369">
        <ele>2686.77</ele>
        <time>2016-03-20T10:26:41Z</time>
      </trkpt>
      <trkpt lat="45.49546" lon="6.73381">
        <ele>2685.57</ele>
        <time>2016-03-20T10:26:51Z</time>
      </trkpt>
      <trkpt lat="45.4953" lon="6.73394">
        <ele>2684.57</ele>
        <time>2016-03-20T10:27:01Z</time>
      </trkpt>
      <trkpt lat="45.49511" lon="6.73404">
        <ele>2689.32</ele>
        <time>2016-03-20T10:27:12Z</time>
      </trkpt>
      <trkpt lat="45.49494" lon="6.73412">
        <ele>2694.52</ele>
        <time>2016-03-20T10:27:21Z</time>
      </trkpt>
      <trkpt lat="45.49477" lon="6.73422">
        <ele>2696.33</ele>
        <time>2016-03-20T10:27:30Z</time>
      </trkpt>
      <trkpt lat="45.49457" lon="6.73432">
        <ele>2701.08</ele>
        <time>2016-03-20T10:27:39Z</time>
      </trkpt>
      <trkpt lat="45.49439" lon="6.73441">
        <ele>2706.48</ele>
        <time>2016-03-20T10:27:49Z</time>
      </trkpt>
      <trkpt lat="45.49425" lon="6.73459">
        <ele>2708.54</ele>
        <time>2016-03-20T10:28:03Z</time>
      </trkpt>
      <trkpt lat="45.4941" lon="6.73473">
        <ele>2712.32</ele>
        <time>2016-03-20T10:28:24Z</time>
      </trkpt>
      <trkpt lat="45.49429" lon="6.73483">
        <ele>2715.49</ele>
        <time>2016-03-20T10:31:19Z</time>
      </trkpt>
      <trkpt lat="45.49446" lon="6.7347">
        <ele>2712.74</ele>
        <time>2016-03-20T10:31:24Z</time>
      </trkpt>
      <trkpt lat="45.49456" lon="6.73448">
        <ele>2709.77</ele>
        <time>2016-03-20T10:31:28Z</time>
      </trkpt>
      <trkpt lat="45.49471" lon="6.73424">
        <ele>2706.77</ele>
        <time>2016-03-20T10:31:32Z</time>
      </trkpt>
      <trkpt lat="45.49484" lon="6.73405">
        <ele>2705.73</ele>
        <time>2016-03-20T10:31:35Z</time>
      </trkpt>
      <trkpt lat="45.49502" lon="6.7339">
        <ele>2704.92</ele>
        <time>2016-03-20T10:31:38Z</time>
      </trkpt>
      <trkpt lat="45.49528" lon="6.73385">
        <ele>2703.13</ele>
        <time>2016-03-20T10:31:41Z</time>
      </trkpt>
      <trkpt lat="45.49551" lon="6.73383">
        <ele>2698.18</ele>
        <time>2016-03-20T10:31:44Z</time>
      </trkpt>
      <trkpt lat="45.49576" lon="6.73381">
        <ele>2690.3</ele>
        <time>2016-03-20T10:31:47Z</time>
      </trkpt>
      <trkpt lat="45.49602" lon="6.73374">
        <ele>2688.19</ele>
        <time>2016-03-20T10:31:50Z</time>
      </trkpt>
      <trkpt lat="45.49619" lon="6.73359">
        <ele>2685</ele>
        <time>2016-03-20T10:31:52Z</time>
      </trkpt>
      <trkpt lat="45.49635" lon="6.73343">
        <ele>2681.35</ele>
        <time>2016-03-20T10:31:54Z</time>
      </trkpt>
      <trkpt lat="45.49656" lon="6.73319">
        <ele>2675.67</ele>
        <time>2016-03-20T10:31:57Z</time>
      </trkpt>
      <trkpt lat="45.49668" lon="6.73299">
        <ele>2671.06</ele>
        <time>2016-03-20T10:31:59Z</time>
      </trkpt>
      <trkpt lat="45.49678" lon="6.73276">
        <ele>2666.23</ele>
        <time>2016-03-20T10:32:01Z</time>
      </trkpt>
      <trkpt lat="45.49687" lon="6.73253">
        <ele>2662.04</ele>
        <time>2016-03-20T10:32:03Z</time>
      </trkpt>
      <trkpt lat="45.49692" lon="6.73224">
        <ele>2659.31</ele>
        <time>2016-03-20T10:32:05Z</time>
      </trkpt>
      <trkpt lat="45.49696" lon="6.73187">
        <ele>2653.64</ele>
        <time>2016-03-20T10:32:08Z</time>
      </trkpt>
      <trkpt lat="45.49696" lon="6.7316">
        <ele>2651.94</ele>
        <time>2016-03-20T10:32:10Z</time>
      </trkpt>
      <trkpt lat="45.49696" lon="6.73125">
        <ele>2647.18</ele>
        <time>2016-03-20T10:32:13Z</time>
      </trkpt>
      <trkpt lat="45.49703" lon="6.73093">
        <ele>2641.03</ele>
        <time>2016-03-20T10:32:16Z</time>
      </trkpt>
      <trkpt lat="45.49708" lon="6.73064">
        <ele>2636.87</ele>
        <time>2016-03-20T10:32:18Z</time>
      </trkpt>
      <trkpt lat="45.49702" lon="6.73037">
        <ele>2633.02</ele>
        <time>2016-03-20T10:32:20Z</time>
      </trkpt>
      <trkpt lat="45.49697" lon="6.72997">
        <ele>2626.07</ele>
        <time>2016-03-20T10:32:23Z</time>
      </trkpt>
      <trkpt lat="45.49692" lon="6.72964">
        <ele>2623.63</ele>
        <time>2016-03-20T10:32:25Z</time>
      </trkpt>
      <trkpt lat="45.49683" lon="6.7293">
        <ele>2619.79</ele>
        <time>2016-03-20T10:32:28Z</time>
      </trkpt>
      <trkpt lat="45.49672" lon="6.72901">
        <ele>2616.78</ele>
        <time>2016-03-20T10:32:31Z</time>
      </trkpt>
      <trkpt lat="45.49658" lon="6.72879">
        <ele>2613.78</ele>
        <time>2016-03-20T10:32:35Z</time>
      </trkpt>
      <trkpt lat="45.49647" lon="6.72853">
        <ele>2610.75</ele>
        <time>2016-03-20T10:32:39Z</time>
      </trkpt>
      <trkpt lat="45.49653" lon="6.72827">
        <ele>2598.25</ele>
        <time>2016-03-20T10:33:36Z</time>
      </trkpt>
      <trkpt lat="45.49668" lon="6.72801">
        <ele>2594.81</ele>
        <time>2016-03-20T10:33:40Z</time>
      </trkpt>
      <trkpt lat="45.49681" lon="6.72775">
        <ele>2589.8</ele>
        <time>2016-03-20T10:33:43Z</time>
      </trkpt>
      <trkpt lat="45.49699" lon="6.72748">
        <ele>2586.78</ele>
        <time>2016-03-20T10:33:46Z</time>
      </trkpt>
      <trkpt lat="45.49716" lon="6.72727">
        <ele>2585.73</ele>
        <time>2016-03-20T10:33:49Z</time>
      </trkpt>
      <trkpt lat="45.4973" lon="6.727">
        <ele>2580.83</ele>
        <time>2016-03-20T10:33:52Z</time>
      </trkpt>
      <trkpt lat="45.49741" lon="6.7267">
        <ele>2577.94</ele>
        <time>2016-03-20T10:33:55Z</time>
      </trkpt>
      <trkpt lat="45.49744" lon="6.72642">
        <ele>2573.82</ele>
        <time>2016-03-20T10:33:58Z</time>
      </trkpt>
      <trkpt lat="45.49739" lon="6.72604">
        <ele>2570.78</ele>
        <time>2016-03-20T10:34:01Z</time>
      </trkpt>
      <trkpt lat="45.49734" lon="6.72566">
        <ele>2567.02</ele>
        <time>2016-03-20T10:34:03Z</time>
      </trkpt>
      <trkpt lat="45.49722" lon="6.72529">
        <ele>2565.59</ele>
        <time>2016-03-20T10:34:05Z</time>
      </trkpt>
      <trkpt lat="45.49713" lon="6.72487">
        <ele>2561.05</ele>
        <time>2016-03-20T10:34:07Z</time>
      </trkpt>
      <trkpt lat="45.497" lon="6.72449">
        <ele>2557.83</ele>
        <time>2016-03-20T10:34:09Z</time>
      </trkpt>
      <trkpt lat="45.4969" lon="6.72421">
        <ele>2556.58</ele>
        <time>2016-03-20T10:34:11Z</time>
      </trkpt>
      <trkpt lat="45.49692" lon="6.72378">
        <ele>2554.77</ele>
        <time>2016-03-20T10:34:13Z</time>
      </trkpt>
      <trkpt lat="45.49689" lon="6.7234">
        <ele>2552.78</ele>
        <time>2016-03-20T10:34:15Z</time>
      </trkpt>
      <trkpt lat="45.49694" lon="6.72314">
        <ele>2548.85</ele>
        <time>2016-03-20T10:34:18Z</time>
      </trkpt>
      <trkpt lat="45.49689" lon="6.72277">
        <ele>2542</ele>
        <time>2016-03-20T10:34:22Z</time>
      </trkpt>
      <trkpt lat="45.49676" lon="6.72258">
        <ele>2536.11</ele>
        <time>2016-03-20T10:34:24Z</time>
      </trkpt>
      <trkpt lat="45.49664" lon="6.72236">
        <ele>2529.25</ele>
        <time>2016-03-20T10:34:25Z</time>
      </trkpt>
      <trkpt lat="45.49641" lon="6.722">
        <ele>2515.92</ele>
        <time>2016-03-20T10:34:27Z</time>
      </trkpt>
      <trkpt lat="45.49621" lon="6.72168">
        <ele>2507.39</ele>
        <time>2016-03-20T10:34:29Z</time>
      </trkpt>
      <trkpt lat="45.49603" lon="6.72138">
        <ele>2502.25</ele>
        <time>2016-03-20T10:34:31Z</time>
      </trkpt>
      <trkpt lat="45.49585" lon="6.72111">
        <ele>2500.44</ele>
        <time>2016-03-20T10:34:33Z</time>
      </trkpt>
      <trkpt lat="45.49575" lon="6.72086">
        <ele>2493.33</ele>
        <time>2016-03-20T10:34:35Z</time>
      </trkpt>
      <trkpt lat="45.49567" lon="6.7206">
        <ele>2489.84</ele>
        <time>2016-03-20T10:34:37Z</time>
      </trkpt>
      <trkpt lat="45.49563" lon="6.72022">
        <ele>2484.8</ele>
        <time>2016-03-20T10:34:40Z</time>
      </trkpt>
      <trkpt lat="45.49564" lon="6.7199">
        <ele>2479.83</ele>
        <time>2016-03-20T10:34:43Z</time>
      </trkpt>
      <trkpt lat="45.49568" lon="6.7196">
        <ele>2476.17</ele>
        <time>2016-03-20T10:34:46Z</time>
      </trkpt>
      <trkpt lat="45.49574" lon="6.71932">
        <ele>2470.99</ele>
        <time>2016-03-20T10:34:49Z</time>
      </trkpt>
      <trkpt lat="45.49583" lon="6.71901">
        <ele>2465.83</ele>
        <time>2016-03-20T10:34:52Z</time>
      </trkpt>
      <trkpt lat="45.49586" lon="6.71864">
        <ele>2462.78</ele>
        <time>2016-03-20T10:34:55Z</time>
      </trkpt>
      <trkpt lat="45.49587" lon="6.71831">
        <ele>2461.74</ele>
        <time>2016-03-20T10:34:57Z</time>
      </trkpt>
      <trkpt lat="45.49577" lon="6.71795">
        <ele>2458.98</ele>
        <time>2016-03-20T10:34:59Z</time>
      </trkpt>
      <trkpt lat="45.4957" lon="6.71757">
        <ele>2453.91</ele>
        <time>2016-03-20T10:35:01Z</time>
      </trkpt>
      <trkpt lat="45.49549" lon="6.71728">
        <ele>2443.45</ele>
        <time>2016-03-20T10:35:04Z</time>
      </trkpt>
      <trkpt lat="45.49536" lon="6.71709">
        <ele>2438.89</ele>
        <time>2016-03-20T10:35:06Z</time>
      </trkpt>
      <trkpt lat="45.49523" lon="6.71687">
        <ele>2433.11</ele>
        <time>2016-03-20T10:35:08Z</time>
      </trkpt>
      <trkpt lat="45.4951" lon="6.71662">
        <ele>2429.83</ele>
        <time>2016-03-20T10:35:10Z</time>
      </trkpt>
      <trkpt lat="45.49502" lon="6.71637">
        <ele>2426.82</ele>
        <time>2016-03-20T10:35:12Z</time>
      </trkpt>
      <trkpt lat="45.49492" lon="6.71614">
        <ele>2421.86</ele>
        <time>2016-03-20T10:35:15Z</time>
      </trkpt>
      <trkpt lat="45.4951" lon="6.7161">
        <ele>2416.54</ele>
        <time>2016-03-20T10:35:23Z</time>
      </trkpt>
      <trkpt lat="45.49501" lon="6.71584">
        <ele>2399.11</ele>
        <time>2016-03-20T10:35:48Z</time>
      </trkpt>
      <trkpt lat="45.49493" lon="6.71558">
        <ele>2393.42</ele>
        <time>2016-03-20T10:35:51Z</time>
      </trkpt>
      <trkpt lat="45.49495" lon="6.71522">
        <ele>2385.99</ele>
        <time>2016-03-20T10:35:55Z</time>
      </trkpt>
      <trkpt lat="45.495" lon="6.71485">
        <ele>2385.73</ele>
        <time>2016-03-20T10:35:58Z</time>
      </trkpt>
      <trkpt lat="45.49491" lon="6.71453">
        <ele>2382.18</ele>
        <time>2016-03-20T10:36:00Z</time>
      </trkpt>
      <trkpt lat="45.4949" lon="6.71417">
        <ele>2377.08</ele>
        <time>2016-03-20T10:36:02Z</time>
      </trkpt>
      <trkpt lat="45.4949" lon="6.7137">
        <ele>2372.07</ele>
        <time>2016-03-20T10:36:04Z</time>
      </trkpt>
      <trkpt lat="45.49488" lon="6.71332">
        <ele>2369.24</ele>
        <time>2016-03-20T10:36:05Z</time>
      </trkpt>
      <trkpt lat="45.49491" lon="6.71306">
        <ele>2366.27</ele>
        <time>2016-03-20T10:36:06Z</time>
      </trkpt>
      <trkpt lat="45.49506" lon="6.71258">
        <ele>2357.08</ele>
        <time>2016-03-20T10:36:08Z</time>
      </trkpt>
      <trkpt lat="45.49543" lon="6.71256">
        <ele>2346.63</ele>
        <time>2016-03-20T10:36:10Z</time>
      </trkpt>
      <trkpt lat="45.49573" lon="6.71244">
        <ele>2341.09</ele>
        <time>2016-03-20T10:36:12Z</time>
      </trkpt>
      <trkpt lat="45.496" lon="6.71233">
        <ele>2337.19</ele>
        <time>2016-03-20T10:36:14Z</time>
      </trkpt>
      <trkpt lat="45.49621" lon="6.71215">
        <ele>2332.88</ele>
        <time>2016-03-20T10:36:16Z</time>
      </trkpt>
      <trkpt lat="45.49623" lon="6.71188">
        <ele>2324.85</ele>
        <time>2016-03-20T10:36:19Z</time>
      </trkpt>
      <trkpt lat="45.4963" lon="6.71159">
        <ele>2298.83</ele>
        <time>2016-03-20T10:37:31Z</time>
      </trkpt>
      <trkpt lat="45.49652" lon="6.71132">
        <ele>2294.02</ele>
        <time>2016-03-20T10:37:34Z</time>
      </trkpt>
      <trkpt lat="45.49671" lon="6.71105">
        <ele>2287.07</ele>
        <time>2016-03-20T10:37:37Z</time>
      </trkpt>
      <trkpt lat="45.49685" lon="6.71078">
        <ele>2285.75</ele>
        <time>2016-03-20T10:37:39Z</time>
      </trkpt>
      <trkpt lat="45.49702" lon="6.71059">
        <ele>2276.42</ele>
        <time>2016-03-20T10:37:41Z</time>
      </trkpt>
      <trkpt lat="45.49715" lon="6.71039">
        <ele>2267.57</ele>
        <time>2016-03-20T10:37:43Z</time>
      </trkpt>
      <trkpt lat="45.49733" lon="6.71014">
        <ele>2262.09</ele>
        <time>2016-03-20T10:37:45Z</time>
      </trkpt>
      <trkpt lat="45.49749" lon="6.70992">
        <ele>2254.51</ele>
        <time>2016-03-20T10:37:47Z</time>
      </trkpt>
      <trkpt lat="45.49766" lon="6.70968">
        <ele>2247.49</ele>
        <time>2016-03-20T10:37:49Z</time>
      </trkpt>
      <trkpt lat="45.49786" lon="6.70945">
        <ele>2243.05</ele>
        <time>2016-03-20T10:37:51Z</time>
      </trkpt>
      <trkpt lat="45.49806" lon="6.7092">
        <ele>2239.99</ele>
        <time>2016-03-20T10:37:53Z</time>
      </trkpt>
      <trkpt lat="45.49826" lon="6.709">
        <ele>2232.99</ele>
        <time>2016-03-20T10:37:57Z</time>
      </trkpt>
      <trkpt lat="45.49841" lon="6.70873">
        <ele>2225.02</ele>
        <time>2016-03-20T10:38:01Z</time>
      </trkpt>
      <trkpt lat="45.49864" lon="6.70856">
        <ele>2221.99</ele>
        <time>2016-03-20T10:38:03Z</time>
      </trkpt>
      <trkpt lat="45.49892" lon="6.70841">
        <ele>2218.03</ele>
        <time>2016-03-20T10:38:05Z</time>
      </trkpt>
      <trkpt lat="45.49916" lon="6.7083">
        <ele>2214.83</ele>
        <time>2016-03-20T10:38:07Z</time>
      </trkpt>
      <trkpt lat="45.49945" lon="6.70834">
        <ele>2214.54</ele>
        <time>2016-03-20T10:38:09Z</time>
      </trkpt>
      <trkpt lat="45.49972" lon="6.70839">
        <ele>2212.93</ele>
        <time>2016-03-20T10:38:11Z</time>
      </trkpt>
      <trkpt lat="45.49996" lon="6.70845">
        <ele>2210.79</ele>
        <time>2016-03-20T10:38:13Z</time>
      </trkpt>
      <trkpt lat="45.50019" lon="6.70845">
        <ele>2205.86</ele>
        <time>2016-03-20T10:38:16Z</time>
      </trkpt>
      <trkpt lat="45.5004" lon="6.70841">
        <ele>2198.27</ele>
        <time>2016-03-20T10:38:19Z</time>
      </trkpt>
      <trkpt lat="45.50056" lon="6.70829">
        <ele>2188.99</ele>
        <time>2016-03-20T10:38:22Z</time>
      </trkpt>
      <trkpt lat="45.50074" lon="6.70823">
        <ele>2185.75</ele>
        <time>2016-03-20T10:38:25Z</time>
      </trkpt>
      <trkpt lat="45.50096" lon="6.70816">
        <ele>2174.76</ele>
        <time>2016-03-20T10:38:29Z</time>
      </trkpt>
      <trkpt lat="45.50113" lon="6.70805">
        <ele>2170.51</ele>
        <time>2016-03-20T10:38:35Z</time>
      </trkpt>
      <trkpt lat="45.50134" lon="6.70814">
        <ele>2162.97</ele>
        <time>2016-03-20T10:38:43Z</time>
      </trkpt>
      <trkpt lat="45.50151" lon="6.70833">
        <ele>2160.61</ele>
        <time>2016-03-20T10:38:47Z</time>
      </trkpt>
      <trkpt lat="45.50172" lon="6.70841">
        <ele>2156.79</ele>
        <time>2016-03-20T10:38:51Z</time>
      </trkpt>
      <trkpt lat="45.50194" lon="6.70842">
        <ele>2153.78</ele>
        <time>2016-03-20T10:38:54Z</time>
      </trkpt>
      <trkpt lat="45.50213" lon="6.70847">
        <ele>2151.78</ele>
        <time>2016-03-20T10:38:56Z</time>
      </trkpt>
      <trkpt lat="45.50231" lon="6.70838">
        <ele>2141</ele>
        <time>2016-03-20T10:39:00Z</time>
      </trkpt>
      <trkpt lat="45.50258" lon="6.70832">
        <ele>2133.11</ele>
        <time>2016-03-20T10:39:03Z</time>
      </trkpt>
      <trkpt lat="45.50276" lon="6.70834">
        <ele>2129.75</ele>
        <time>2016-03-20T10:39:06Z</time>
      </trkpt>
      <trkpt lat="45.50298" lon="6.70841">
        <ele>2128.74</ele>
        <time>2016-03-20T10:39:08Z</time>
      </trkpt>
      <trkpt lat="45.50323" lon="6.70837">
        <ele>2126.62</ele>
        <time>2016-03-20T10:39:10Z</time>
      </trkpt>
      <trkpt lat="45.50349" lon="6.70836">
        <ele>2126.53</ele>
        <time>2016-03-20T10:39:12Z</time>
      </trkpt>
      <trkpt lat="45.50383" lon="6.70842">
        <ele>2122.37</ele>
        <time>2016-03-20T10:39:14Z</time>
      </trkpt>
      <trkpt lat="45.50411" lon="6.70844">
        <ele>2118.84</ele>
        <time>2016-03-20T10:39:16Z</time>
      </trkpt>
      <trkpt lat="45.50432" lon="6.70845">
        <ele>2115.02</ele>
        <time>2016-03-20T10:39:18Z</time>
      </trkpt>
      <trkpt lat="45.50456" lon="6.70848">
        <ele>2110.39</ele>
        <time>2016-03-20T10:39:20Z</time>
      </trkpt>
      <trkpt lat="45.50483" lon="6.70855">
        <ele>2104.29</ele>
        <time>2016-03-20T10:39:22Z</time>
      </trkpt>
      <trkpt lat="45.50509" lon="6.70854">
        <ele>2098.26</ele>
        <time>2016-03-20T10:39:25Z</time>
      </trkpt>
      <trkpt lat="45.5053" lon="6.70857">
        <ele>2094.04</ele>
        <time>2016-03-20T10:39:27Z</time>
      </trkpt>
      <trkpt lat="45.50551" lon="6.70861">
        <ele>2091.79</ele>
        <time>2016-03-20T10:39:29Z</time>
      </trkpt>
      <trkpt lat="45.5057" lon="6.70858">
        <ele>2089.78</ele>
        <time>2016-03-20T10:39:31Z</time>
      </trkpt>
      <trkpt lat="45.5059" lon="6.70853">
        <ele>2086.94</ele>
        <time>2016-03-20T10:39:34Z</time>
      </trkpt>
      <trkpt lat="45.50609" lon="6.7084">
        <ele>2079.55</ele>
        <time>2016-03-20T10:39:39Z</time>
      </trkpt>
      <trkpt lat="45.50619" lon="6.70816">
        <ele>2077.78</ele>
        <time>2016-03-20T10:39:43Z</time>
      </trkpt>
      <trkpt lat="45.5061" lon="6.70785">
        <ele>2072.82</ele>
        <time>2016-03-20T10:39:47Z</time>
      </trkpt>
      <trkpt lat="45.50606" lon="6.70759">
        <ele>2072.57</ele>
        <time>2016-03-20T10:39:50Z</time>
      </trkpt>
      <trkpt lat="45.50602" lon="6.70732">
        <ele>2069.78</ele>
        <time>2016-03-20T10:39:53Z</time>
      </trkpt>
      <trkpt lat="45.50599" lon="6.70706">
        <ele>2067.77</ele>
        <time>2016-03-20T10:39:56Z</time>
      </trkpt>
      <trkpt lat="45.50599" lon="6.70676">
        <ele>2061.7</ele>
        <time>2016-03-20T10:40:01Z</time>
      </trkpt>
      <trkpt lat="45.50604" lon="6.70651">
        <ele>2060.7</ele>
        <time>2016-03-20T10:40:04Z</time>
      </trkpt>
      <trkpt lat="45.50614" lon="6.70626">
        <ele>2059.54</ele>
        <time>2016-03-20T10:40:07Z</time>
      </trkpt>
      <trkpt lat="45.50621" lon="6.70602">
        <ele>2058.89</ele>
        <time>2016-03-20T10:40:10Z</time>
      </trkpt>
      <trkpt lat="45.50628" lon="6.70573">
        <ele>2057.57</ele>
        <time>2016-03-20T10:40:14Z</time>
      </trkpt>
      <trkpt lat="45.50644" lon="6.70555">
        <ele>2055.58</ele>
        <time>2016-03-20T10:40:17Z</time>
      </trkpt>
      <trkpt lat="45.5066" lon="6.70542">
        <ele>2050.64</ele>
        <time>2016-03-20T10:40:20Z</time>
      </trkpt>
      <trkpt lat="45.50678" lon="6.70523">
        <ele>2049.57</ele>
        <time>2016-03-20T10:40:23Z</time>
      </trkpt>
      <trkpt lat="45.50699" lon="6.70511">
        <ele>2047.58</ele>
        <time>2016-03-20T10:40:26Z</time>
      </trkpt>
      <trkpt lat="45.50721" lon="6.70498">
        <ele>2043.74</ele>
        <time>2016-03-20T10:40:30Z</time>
      </trkpt>
      <trkpt lat="45.50743" lon="6.70497">
        <ele>2038.06</ele>
        <time>2016-03-20T10:40:35Z</time>
      </trkpt>
      <trkpt lat="45.50764" lon="6.70495">
        <ele>2035.78</ele>
        <time>2016-03-20T10:40:38Z</time>
      </trkpt>
      <trkpt lat="45.5079" lon="6.70488">
        <ele>2037.32</ele>
        <time>2016-03-20T10:40:41Z</time>
      </trkpt>
      <trkpt lat="45.50807" lon="6.70475">
        <ele>2034.17</ele>
        <time>2016-03-20T10:40:44Z</time>
      </trkpt>
      <trkpt lat="45.50823" lon="6.70464">
        <ele>2028.22</ele>
        <time>2016-03-20T10:40:47Z</time>
      </trkpt>
      <trkpt lat="45.50841" lon="6.70453">
        <ele>2022.79</ele>
        <time>2016-03-20T10:40:51Z</time>
      </trkpt>
      <trkpt lat="45.50858" lon="6.70445">
        <ele>2021.54</ele>
        <time>2016-03-20T10:40:54Z</time>
      </trkpt>
      <trkpt lat="45.5087" lon="6.70426">
        <ele>2018.01</ele>
        <time>2016-03-20T10:40:57Z</time>
      </trkpt>
      <trkpt lat="45.50889" lon="6.70403">
        <ele>2012</ele>
        <time>2016-03-20T10:41:00Z</time>
      </trkpt>
      <trkpt lat="45.50903" lon="6.70385">
        <ele>2010.75</ele>
        <time>2016-03-20T10:41:02Z</time>
      </trkpt>
      <trkpt lat="45.50923" lon="6.70363">
        <ele>2007.82</ele>
        <time>2016-03-20T10:41:04Z</time>
      </trkpt>
      <trkpt lat="45.50939" lon="6.70342">
        <ele>2002.1</ele>
        <time>2016-03-20T10:41:06Z</time>
      </trkpt>
      <trkpt lat="45.50951" lon="6.70321">
        <ele>1998.99</ele>
        <time>2016-03-20T10:41:08Z</time>
      </trkpt>
      <trkpt lat="45.50966" lon="6.70304">
        <ele>1995.83</ele>
        <time>2016-03-20T10:41:10Z</time>
      </trkpt>
      <trkpt lat="45.50983" lon="6.70287">
        <ele>1992.98</ele>
        <time>2016-03-20T10:41:12Z</time>
      </trkpt>
      <trkpt lat="45.50997" lon="6.7026">
        <ele>1986.07</ele>
        <time>2016-03-20T10:41:15Z</time>
      </trkpt>
      <trkpt lat="45.51013" lon="6.70237">
        <ele>1980.26</ele>
        <time>2016-03-20T10:41:18Z</time>
      </trkpt>
      <trkpt lat="45.51028" lon="6.7021">
        <ele>1976.78</ele>
        <time>2016-03-20T10:41:21Z</time>
      </trkpt>
      <trkpt lat="45.51041" lon="6.70185">
        <ele>1975.7</ele>
        <time>2016-03-20T10:41:24Z</time>
      </trkpt>
      <trkpt lat="45.51055" lon="6.70164">
        <ele>1973.77</ele>
        <time>2016-03-20T10:41:27Z</time>
      </trkpt>
      <trkpt lat="45.51071" lon="6.7014">
        <ele>1970.78</ele>
        <time>2016-03-20T10:41:30Z</time>
      </trkpt>
      <trkpt lat="45.51087" lon="6.70112">
        <ele>1965.86</ele>
        <time>2016-03-20T10:41:33Z</time>
      </trkpt>
      <trkpt lat="45.51099" lon="6.70083">
        <ele>1959.2</ele>
        <time>2016-03-20T10:41:36Z</time>
      </trkpt>
      <trkpt lat="45.51111" lon="6.70053">
        <ele>1953.86</ele>
        <time>2016-03-20T10:41:39Z</time>
      </trkpt>
      <trkpt lat="45.51124" lon="6.70024">
        <ele>1950.01</ele>
        <time>2016-03-20T10:41:42Z</time>
      </trkpt>
      <trkpt lat="45.51138" lon="6.7">
        <ele>1948.77</ele>
        <time>2016-03-20T10:41:45Z</time>
      </trkpt>
      <trkpt lat="45.51155" lon="6.69977">
        <ele>1946.58</ele>
        <time>2016-03-20T10:41:49Z</time>
      </trkpt>
      <trkpt lat="45.51169" lon="6.69961">
        <ele>1944.58</ele>
        <time>2016-03-20T10:41:52Z</time>
      </trkpt>
      <trkpt lat="45.51184" lon="6.69939">
        <ele>1941.62</ele>
        <time>2016-03-20T10:41:56Z</time>
      </trkpt>
      <trkpt lat="45.51194" lon="6.69917">
        <ele>1940.54</ele>
        <time>2016-03-20T10:42:01Z</time>
      </trkpt>
      <trkpt lat="45.51206" lon="6.69896">
        <ele>1936.78</ele>
        <time>2016-03-20T10:42:07Z</time>
      </trkpt>
      <trkpt lat="45.51221" lon="6.69879">
        <ele>1934.73</ele>
        <time>2016-03-20T10:42:13Z</time>
      </trkpt>
      <trkpt lat="45.51236" lon="6.69864">
        <ele>1936.71</ele>
        <time>2016-03-20T10:42:19Z</time>
      </trkpt>
      <trkpt lat="45.51244" lon="6.69888">
        <ele>1935.34</ele>
        <time>2016-03-20T10:44:32Z</time>
      </trkpt>
      <trkpt lat="45.51258" lon="6.69912">
        <ele>1926.6</ele>
        <time>2016-03-20T10:45:45Z</time>
      </trkpt>
      <trkpt lat="45.51269" lon="6.69934">
        <ele>1926.26</ele>
        <time>2016-03-20T10:45:50Z</time>
      </trkpt>
      <trkpt lat="45.51284" lon="6.69955">
        <ele>1928.32</ele>
        <time>2016-03-20T10:45:55Z</time>
      </trkpt>
      <trkpt lat="45.51296" lon="6.69977">
        <ele>1934.32</ele>
        <time>2016-03-20T10:46:00Z</time>
      </trkpt>
      <trkpt lat="45.5131" lon="6.69998">
        <ele>1940.28</ele>
        <time>2016-03-20T10:46:05Z</time>
      </trkpt>
      <trkpt lat="45.51324" lon="6.70021">
        <ele>1947.86</ele>
        <time>2016-03-20T10:46:10Z</time>
      </trkpt>
      <trkpt lat="45.51336" lon="6.70043">
        <ele>1955.08</ele>
        <time>2016-03-20T10:46:15Z</time>
      </trkpt>
      <trkpt lat="45.51348" lon="6.70066">
        <ele>1963.23</ele>
        <time>2016-03-20T10:46:20Z</time>
      </trkpt>
      <trkpt lat="45.51359" lon="6.70088">
        <ele>1972</ele>
        <time>2016-03-20T10:46:25Z</time>
      </trkpt>
      <trkpt lat="45.51372" lon="6.70109">
        <ele>1982.02</ele>
        <time>2016-03-20T10:46:30Z</time>
      </trkpt>
      <trkpt lat="45.51383" lon="6.7013">
        <ele>1990.27</ele>
        <time>2016-03-20T10:46:35Z</time>
      </trkpt>
      <trkpt lat="45.51395" lon="6.70151">
        <ele>2000</ele>
        <time>2016-03-20T10:46:40Z</time>
      </trkpt>
      <trkpt lat="45.51407" lon="6.70171">
        <ele>2011.86</ele>
        <time>2016-03-20T10:46:45Z</time>
      </trkpt>
      <trkpt lat="45.51419" lon="6.70192">
        <ele>2022.83</ele>
        <time>2016-03-20T10:46:50Z</time>
      </trkpt>
      <trkpt lat="45.51432" lon="6.70216">
        <ele>2035.83</ele>
        <time>2016-03-20T10:46:56Z</time>
      </trkpt>
      <trkpt lat="45.51445" lon="6.70239">
        <ele>2049.86</ele>
        <time>2016-03-20T10:47:02Z</time>
      </trkpt>
      <trkpt lat="45.51458" lon="6.70261">
        <ele>2064.82</ele>
        <time>2016-03-20T10:47:08Z</time>
      </trkpt>
      <trkpt lat="45.51471" lon="6.70283">
        <ele>2079.79</ele>
        <time>2016-03-20T10:47:14Z</time>
      </trkpt>
      <trkpt lat="45.51484" lon="6.70304">
        <ele>2090.21</ele>
        <time>2016-03-20T10:47:20Z</time>
      </trkpt>
      <trkpt lat="45.51497" lon="6.70327">
        <ele>2104.82</ele>
        <time>2016-03-20T10:47:26Z</time>
      </trkpt>
      <trkpt lat="45.51509" lon="6.70347">
        <ele>2110.88</ele>
        <time>2016-03-20T10:47:31Z</time>
      </trkpt>
      <trkpt lat="45.5152" lon="6.70368">
        <ele>2112.5</ele>
        <time>2016-03-20T10:47:36Z</time>
      </trkpt>
      <trkpt lat="45.51532" lon="6.70389">
        <ele>2117.31</ele>
        <time>2016-03-20T10:47:41Z</time>
      </trkpt>
      <trkpt lat="45.51545" lon="6.70411">
        <ele>2125.52</ele>
        <time>2016-03-20T10:47:47Z</time>
      </trkpt>
      <trkpt lat="45.51559" lon="6.70431">
        <ele>2130.48</ele>
        <time>2016-03-20T10:47:53Z</time>
      </trkpt>
      <trkpt lat="45.51571" lon="6.70453">
        <ele>2143.12</ele>
        <time>2016-03-20T10:48:05Z</time>
      </trkpt>
      <trkpt lat="45.51585" lon="6.70478">
        <ele>2147.31</ele>
        <time>2016-03-20T10:48:12Z</time>
      </trkpt>
      <trkpt lat="45.51597" lon="6.70498">
        <ele>2156.06</ele>
        <time>2016-03-20T10:48:17Z</time>
      </trkpt>
      <trkpt lat="45.51608" lon="6.70522">
        <ele>2159.28</ele>
        <time>2016-03-20T10:48:22Z</time>
      </trkpt>
      <trkpt lat="45.51623" lon="6.70543">
        <ele>2163.08</ele>
        <time>2016-03-20T10:48:28Z</time>
      </trkpt>
      <trkpt lat="45.51635" lon="6.70566">
        <ele>2165.52</ele>
        <time>2016-03-20T10:48:33Z</time>
      </trkpt>
      <trkpt lat="45.51645" lon="6.70589">
        <ele>2168.12</ele>
        <time>2016-03-20T10:48:38Z</time>
      </trkpt>
      <trkpt lat="45.51658" lon="6.70609">
        <ele>2170.36</ele>
        <time>2016-03-20T10:48:43Z</time>
      </trkpt>
      <trkpt lat="45.51672" lon="6.70631">
        <ele>2173.32</ele>
        <time>2016-03-20T10:48:48Z</time>
      </trkpt>
      <trkpt lat="45.51686" lon="6.70653">
        <ele>2171.56</ele>
        <time>2016-03-20T10:48:53Z</time>
      </trkpt>
      <trkpt lat="45.517" lon="6.70675">
        <ele>2173.49</ele>
        <time>2016-03-20T10:48:58Z</time>
      </trkpt>
      <trkpt lat="45.51713" lon="6.70698">
        <ele>2177.68</ele>
        <time>2016-03-20T10:49:03Z</time>
      </trkpt>
      <trkpt lat="45.51726" lon="6.70724">
        <ele>2176.93</ele>
        <time>2016-03-20T10:49:08Z</time>
      </trkpt>
      <trkpt lat="45.51739" lon="6.70749">
        <ele>2177.29</ele>
        <time>2016-03-20T10:49:13Z</time>
      </trkpt>
      <trkpt lat="45.5175" lon="6.7077">
        <ele>2185.83</ele>
        <time>2016-03-20T10:49:18Z</time>
      </trkpt>
      <trkpt lat="45.51761" lon="6.70792">
        <ele>2187.86</ele>
        <time>2016-03-20T10:49:23Z</time>
      </trkpt>
      <trkpt lat="45.51775" lon="6.70809">
        <ele>2190.1</ele>
        <time>2016-03-20T10:49:28Z</time>
      </trkpt>
      <trkpt lat="45.51787" lon="6.7083">
        <ele>2194.29</ele>
        <time>2016-03-20T10:49:33Z</time>
      </trkpt>
      <trkpt lat="45.51799" lon="6.70851">
        <ele>2200.23</ele>
        <time>2016-03-20T10:49:37Z</time>
      </trkpt>
      <trkpt lat="45.51812" lon="6.70874">
        <ele>2204.28</ele>
        <time>2016-03-20T10:49:42Z</time>
      </trkpt>
      <trkpt lat="45.51824" lon="6.70895">
        <ele>2207.29</ele>
        <time>2016-03-20T10:49:47Z</time>
      </trkpt>
      <trkpt lat="45.51836" lon="6.70919">
        <ele>2212.32</ele>
        <time>2016-03-20T10:49:52Z</time>
      </trkpt>
      <trkpt lat="45.51848" lon="6.70942">
        <ele>2215.32</ele>
        <time>2016-03-20T10:49:57Z</time>
      </trkpt>
      <trkpt lat="45.51861" lon="6.70964">
        <ele>2216.34</ele>
        <time>2016-03-20T10:50:02Z</time>
      </trkpt>
      <trkpt lat="45.51873" lon="6.70988">
        <ele>2222.28</ele>
        <time>2016-03-20T10:50:07Z</time>
      </trkpt>
      <trkpt lat="45.51885" lon="6.71008">
        <ele>2226.32</ele>
        <time>2016-03-20T10:50:12Z</time>
      </trkpt>
      <trkpt lat="45.51897" lon="6.7103">
        <ele>2232.27</ele>
        <time>2016-03-20T10:50:17Z</time>
      </trkpt>
      <trkpt lat="45.51909" lon="6.71052">
        <ele>2239.08</ele>
        <time>2016-03-20T10:50:22Z</time>
      </trkpt>
      <trkpt lat="45.51922" lon="6.71072">
        <ele>2247.23</ele>
        <time>2016-03-20T10:50:27Z</time>
      </trkpt>
      <trkpt lat="45.51934" lon="6.71094">
        <ele>2254.27</ele>
        <time>2016-03-20T10:50:32Z</time>
      </trkpt>
      <trkpt lat="45.51946" lon="6.71115">
        <ele>2262.07</ele>
        <time>2016-03-20T10:50:37Z</time>
      </trkpt>
      <trkpt lat="45.5196" lon="6.71138">
        <ele>2268.08</ele>
        <time>2016-03-20T10:50:43Z</time>
      </trkpt>
      <trkpt lat="45.51973" lon="6.71158">
        <ele>2274.25</ele>
        <time>2016-03-20T10:50:48Z</time>
      </trkpt>
      <trkpt lat="45.51985" lon="6.7118">
        <ele>2282.07</ele>
        <time>2016-03-20T10:50:53Z</time>
      </trkpt>
      <trkpt lat="45.51997" lon="6.71202">
        <ele>2287.52</ele>
        <time>2016-03-20T10:50:58Z</time>
      </trkpt>
      <trkpt lat="45.52009" lon="6.71223">
        <ele>2293.24</ele>
        <time>2016-03-20T10:51:03Z</time>
      </trkpt>
      <trkpt lat="45.52023" lon="6.71245">
        <ele>2297.48</ele>
        <time>2016-03-20T10:51:08Z</time>
      </trkpt>
      <trkpt lat="45.52035" lon="6.71268">
        <ele>2300.32</ele>
        <time>2016-03-20T10:51:13Z</time>
      </trkpt>
      <trkpt lat="45.52047" lon="6.7129">
        <ele>2304.28</ele>
        <time>2016-03-20T10:51:18Z</time>
      </trkpt>
      <trkpt lat="45.52061" lon="6.71312">
        <ele>2309.12</ele>
        <time>2016-03-20T10:51:23Z</time>
      </trkpt>
      <trkpt lat="45.52073" lon="6.71333">
        <ele>2314.27</ele>
        <time>2016-03-20T10:51:28Z</time>
      </trkpt>
      <trkpt lat="45.52086" lon="6.71355">
        <ele>2317.49</ele>
        <time>2016-03-20T10:51:33Z</time>
      </trkpt>
      <trkpt lat="45.52099" lon="6.71379">
        <ele>2322.15</ele>
        <time>2016-03-20T10:51:38Z</time>
      </trkpt>
      <trkpt lat="45.52111" lon="6.71402">
        <ele>2325.48</ele>
        <time>2016-03-20T10:51:43Z</time>
      </trkpt>
      <trkpt lat="45.52123" lon="6.71424">
        <ele>2325.76</ele>
        <time>2016-03-20T10:51:48Z</time>
      </trkpt>
      <trkpt lat="45.52137" lon="6.71446">
        <ele>2324.74</ele>
        <time>2016-03-20T10:51:53Z</time>
      </trkpt>
      <trkpt lat="45.52149" lon="6.71468">
        <ele>2324.53</ele>
        <time>2016-03-20T10:51:58Z</time>
      </trkpt>
      <trkpt lat="45.52161" lon="6.71488">
        <ele>2325.4</ele>
        <time>2016-03-20T10:52:03Z</time>
      </trkpt>
      <trkpt lat="45.52176" lon="6.71511">
        <ele>2325.5</ele>
        <time>2016-03-20T10:52:08Z</time>
      </trkpt>
      <trkpt lat="45.52188" lon="6.71534">
        <ele>2327.32</ele>
        <time>2016-03-20T10:52:13Z</time>
      </trkpt>
      <trkpt lat="45.52199" lon="6.71556">
        <ele>2329.29</ele>
        <time>2016-03-20T10:52:18Z</time>
      </trkpt>
      <trkpt lat="45.52211" lon="6.71579">
        <ele>2332.48</ele>
        <time>2016-03-20T10:52:23Z</time>
      </trkpt>
      <trkpt lat="45.52225" lon="6.71602">
        <ele>2336.29</ele>
        <time>2016-03-20T10:52:28Z</time>
      </trkpt>
      <trkpt lat="45.52238" lon="6.71624">
        <ele>2341.28</ele>
        <time>2016-03-20T10:52:33Z</time>
      </trkpt>
      <trkpt lat="45.52252" lon="6.71648">
        <ele>2344.32</ele>
        <time>2016-03-20T10:52:38Z</time>
      </trkpt>
      <trkpt lat="45.52264" lon="6.71672">
        <ele>2344.53</ele>
        <time>2016-03-20T10:52:43Z</time>
      </trkpt>
      <trkpt lat="45.52275" lon="6.71692">
        <ele>2343.68</ele>
        <time>2016-03-20T10:53:01Z</time>
      </trkpt>
      <trkpt lat="45.52294" lon="6.71691">
        <ele>2344.56</ele>
        <time>2016-03-20T10:53:34Z</time>
      </trkpt>
      <trkpt lat="45.52313" lon="6.71701">
        <ele>2338.75</ele>
        <time>2016-03-20T10:53:40Z</time>
      </trkpt>
      <trkpt lat="45.52329" lon="6.71715">
        <ele>2337.54</ele>
        <time>2016-03-20T10:53:43Z</time>
      </trkpt>
      <trkpt lat="45.52344" lon="6.7174">
        <ele>2332.89</ele>
        <time>2016-03-20T10:53:45Z</time>
      </trkpt>
      <trkpt lat="45.52358" lon="6.71767">
        <ele>2331.75</ele>
        <time>2016-03-20T10:53:47Z</time>
      </trkpt>
      <trkpt lat="45.52366" lon="6.71799">
        <ele>2328.02</ele>
        <time>2016-03-20T10:53:49Z</time>
      </trkpt>
      <trkpt lat="45.52373" lon="6.71834">
        <ele>2324.03</ele>
        <time>2016-03-20T10:53:51Z</time>
      </trkpt>
      <trkpt lat="45.52385" lon="6.71863">
        <ele>2320.03</ele>
        <time>2016-03-20T10:53:53Z</time>
      </trkpt>
      <trkpt lat="45.52397" lon="6.71892">
        <ele>2316.03</ele>
        <time>2016-03-20T10:53:55Z</time>
      </trkpt>
      <trkpt lat="45.52414" lon="6.71906">
        <ele>2307.39</ele>
        <time>2016-03-20T10:53:57Z</time>
      </trkpt>
      <trkpt lat="45.52432" lon="6.71927">
        <ele>2304.81</ele>
        <time>2016-03-20T10:53:59Z</time>
      </trkpt>
      <trkpt lat="45.52454" lon="6.71946">
        <ele>2299.99</ele>
        <time>2016-03-20T10:54:02Z</time>
      </trkpt>
      <trkpt lat="45.52475" lon="6.71963">
        <ele>2298.57</ele>
        <time>2016-03-20T10:54:05Z</time>
      </trkpt>
      <trkpt lat="45.52494" lon="6.71977">
        <ele>2297.73</ele>
        <time>2016-03-20T10:54:08Z</time>
      </trkpt>
      <trkpt lat="45.52515" lon="6.71988">
        <ele>2296.54</ele>
        <time>2016-03-20T10:54:12Z</time>
      </trkpt>
      <trkpt lat="45.52533" lon="6.71998">
        <ele>2294.35</ele>
        <time>2016-03-20T10:54:17Z</time>
      </trkpt>
      <trkpt lat="45.5255" lon="6.72009">
        <ele>2293.53</ele>
        <time>2016-03-20T10:54:26Z</time>
      </trkpt>
      <trkpt lat="45.52566" lon="6.72025">
        <ele>2294.53</ele>
        <time>2016-03-20T10:54:34Z</time>
      </trkpt>
      <trkpt lat="45.5258" lon="6.72041">
        <ele>2293.52</ele>
        <time>2016-03-20T10:54:41Z</time>
      </trkpt>
      <trkpt lat="45.52592" lon="6.7206">
        <ele>2290.54</ele>
        <time>2016-03-20T10:54:54Z</time>
      </trkpt>
      <trkpt lat="45.52603" lon="6.72081">
        <ele>2293.32</ele>
        <time>2016-03-20T10:55:05Z</time>
      </trkpt>
      <trkpt lat="45.52617" lon="6.721">
        <ele>2294.52</ele>
        <time>2016-03-20T10:55:17Z</time>
      </trkpt>
      <trkpt lat="45.52631" lon="6.72118">
        <ele>2295.37</ele>
        <time>2016-03-20T10:55:30Z</time>
      </trkpt>
      <trkpt lat="45.52643" lon="6.7214">
        <ele>2298.37</ele>
        <time>2016-03-20T10:55:40Z</time>
      </trkpt>
      <trkpt lat="45.52655" lon="6.7216">
        <ele>2299.54</ele>
        <time>2016-03-20T10:55:50Z</time>
      </trkpt>
      <trkpt lat="45.5267" lon="6.72174">
        <ele>2296.5</ele>
        <time>2016-03-20T10:56:03Z</time>
      </trkpt>
      <trkpt lat="45.52683" lon="6.72193">
        <ele>2295.53</ele>
        <time>2016-03-20T10:56:15Z</time>
      </trkpt>
      <trkpt lat="45.52695" lon="6.72215">
        <ele>2297.5</ele>
        <time>2016-03-20T10:56:26Z</time>
      </trkpt>
      <trkpt lat="45.5271" lon="6.72229">
        <ele>2294.54</ele>
        <time>2016-03-20T10:56:40Z</time>
      </trkpt>
      <trkpt lat="45.52723" lon="6.72249">
        <ele>2295.34</ele>
        <time>2016-03-20T10:56:51Z</time>
      </trkpt>
      <trkpt lat="45.52737" lon="6.72266">
        <ele>2297.31</ele>
        <time>2016-03-20T10:56:58Z</time>
      </trkpt>
      <trkpt lat="45.52757" lon="6.72277">
        <ele>2295.56</ele>
        <time>2016-03-20T10:57:05Z</time>
      </trkpt>
      <trkpt lat="45.52773" lon="6.7229">
        <ele>2294.53</ele>
        <time>2016-03-20T10:57:11Z</time>
      </trkpt>
      <trkpt lat="45.52791" lon="6.72297">
        <ele>2293.53</ele>
        <time>2016-03-20T10:57:21Z</time>
      </trkpt>
      <trkpt lat="45.52808" lon="6.72306">
        <ele>2290.57</ele>
        <time>2016-03-20T10:57:51Z</time>
      </trkpt>
      <trkpt lat="45.52825" lon="6.72319">
        <ele>2286.94</ele>
        <time>2016-03-20T10:57:59Z</time>
      </trkpt>
      <trkpt lat="45.52842" lon="6.72339">
        <ele>2284.57</ele>
        <time>2016-03-20T10:58:03Z</time>
      </trkpt>
      <trkpt lat="45.52853" lon="6.72369">
        <ele>2283.34</ele>
        <time>2016-03-20T10:58:07Z</time>
      </trkpt>
      <trkpt lat="45.52866" lon="6.72397">
        <ele>2283.56</ele>
        <time>2016-03-20T10:58:10Z</time>
      </trkpt>
      <trkpt lat="45.52875" lon="6.72425">
        <ele>2280.75</ele>
        <time>2016-03-20T10:58:13Z</time>
      </trkpt>
      <trkpt lat="45.52892" lon="6.72451">
        <ele>2272.86</ele>
        <time>2016-03-20T10:58:17Z</time>
      </trkpt>
      <trkpt lat="45.52911" lon="6.72477">
        <ele>2265.14</ele>
        <time>2016-03-20T10:58:20Z</time>
      </trkpt>
      <trkpt lat="45.52921" lon="6.72502">
        <ele>2260.24</ele>
        <time>2016-03-20T10:58:22Z</time>
      </trkpt>
      <trkpt lat="45.52936" lon="6.72523">
        <ele>2255.88</ele>
        <time>2016-03-20T10:58:24Z</time>
      </trkpt>
      <trkpt lat="45.5295" lon="6.72553">
        <ele>2253.94</ele>
        <time>2016-03-20T10:58:26Z</time>
      </trkpt>
      <trkpt lat="45.5296" lon="6.72583">
        <ele>2251.95</ele>
        <time>2016-03-20T10:58:28Z</time>
      </trkpt>
      <trkpt lat="45.52977" lon="6.72612">
        <ele>2248.99</ele>
        <time>2016-03-20T10:58:30Z</time>
      </trkpt>
      <trkpt lat="45.52994" lon="6.72637">
        <ele>2244.87</ele>
        <time>2016-03-20T10:58:32Z</time>
      </trkpt>
      <trkpt lat="45.53009" lon="6.72659">
        <ele>2236.38</ele>
        <time>2016-03-20T10:58:34Z</time>
      </trkpt>
      <trkpt lat="45.53026" lon="6.72685">
        <ele>2232.85</ele>
        <time>2016-03-20T10:58:36Z</time>
      </trkpt>
      <trkpt lat="45.53037" lon="6.72711">
        <ele>2228.38</ele>
        <time>2016-03-20T10:58:38Z</time>
      </trkpt>
      <trkpt lat="45.53052" lon="6.72732">
        <ele>2223.09</ele>
        <time>2016-03-20T10:58:40Z</time>
      </trkpt>
      <trkpt lat="45.5307" lon="6.72756">
        <ele>2219.03</ele>
        <time>2016-03-20T10:58:42Z</time>
      </trkpt>
      <trkpt lat="45.53086" lon="6.72782">
        <ele>2214.07</ele>
        <time>2016-03-20T10:58:44Z</time>
      </trkpt>
      <trkpt lat="45.53101" lon="6.72801">
        <ele>2211.79</ele>
        <time>2016-03-20T10:58:46Z</time>
      </trkpt>
      <trkpt lat="45.53114" lon="6.72823">
        <ele>2207.86</ele>
        <time>2016-03-20T10:58:48Z</time>
      </trkpt>
      <trkpt lat="45.53129" lon="6.72852">
        <ele>2202.42</ele>
        <time>2016-03-20T10:58:50Z</time>
      </trkpt>
      <trkpt lat="45.53146" lon="6.72876">
        <ele>2198.05</ele>
        <time>2016-03-20T10:58:52Z</time>
      </trkpt>
      <trkpt lat="45.53164" lon="6.72894">
        <ele>2194.03</ele>
        <time>2016-03-20T10:58:54Z</time>
      </trkpt>
      <trkpt lat="45.53182" lon="6.72914">
        <ele>2189.71</ele>
        <time>2016-03-20T10:58:56Z</time>
      </trkpt>
      <trkpt lat="45.53196" lon="6.72933">
        <ele>2185.22</ele>
        <time>2016-03-20T10:58:58Z</time>
      </trkpt>
      <trkpt lat="45.53214" lon="6.72957">
        <ele>2181.78</ele>
        <time>2016-03-20T10:59:01Z</time>
      </trkpt>
      <trkpt lat="45.53229" lon="6.72974">
        <ele>2181.41</ele>
        <time>2016-03-20T10:59:06Z</time>
      </trkpt>
      <trkpt lat="45.53241" lon="6.72997">
        <ele>2172.27</ele>
        <time>2016-03-20T10:59:11Z</time>
      </trkpt>
      <trkpt lat="45.53263" lon="6.73001">
        <ele>2167.79</ele>
        <time>2016-03-20T10:59:14Z</time>
      </trkpt>
      <trkpt lat="45.53281" lon="6.73">
        <ele>2159.85</ele>
        <time>2016-03-20T10:59:17Z</time>
      </trkpt>
      <trkpt lat="45.53308" lon="6.72986">
        <ele>2157.77</ele>
        <time>2016-03-20T10:59:20Z</time>
      </trkpt>
      <trkpt lat="45.53326" lon="6.72975">
        <ele>2154.02</ele>
        <time>2016-03-20T10:59:22Z</time>
      </trkpt>
      <trkpt lat="45.53347" lon="6.72976">
        <ele>2150.99</ele>
        <time>2016-03-20T10:59:24Z</time>
      </trkpt>
      <trkpt lat="45.53366" lon="6.72971">
        <ele>2146.87</ele>
        <time>2016-03-20T10:59:26Z</time>
      </trkpt>
      <trkpt lat="45.53392" lon="6.72972">
        <ele>2141.83</ele>
        <time>2016-03-20T10:59:29Z</time>
      </trkpt>
      <trkpt lat="45.53415" lon="6.72982">
        <ele>2135.04</ele>
        <time>2016-03-20T10:59:32Z</time>
      </trkpt>
      <trkpt lat="45.53437" lon="6.72986">
        <ele>2131.78</ele>
        <time>2016-03-20T10:59:35Z</time>
      </trkpt>
      <trkpt lat="45.53443" lon="6.73011">
        <ele>2124.77</ele>
        <time>2016-03-20T10:59:41Z</time>
      </trkpt>
      <trkpt lat="45.53456" lon="6.73029">
        <ele>2119.74</ele>
        <time>2016-03-20T11:00:13Z</time>
      </trkpt>
      <trkpt lat="45.53473" lon="6.73042">
        <ele>2118.57</ele>
        <time>2016-03-20T11:00:16Z</time>
      </trkpt>
      <trkpt lat="45.53489" lon="6.73063">
        <ele>2114.59</ele>
        <time>2016-03-20T11:00:20Z</time>
      </trkpt>
      <trkpt lat="45.53505" lon="6.73082">
        <ele>2111.77</ele>
        <time>2016-03-20T11:00:24Z</time>
      </trkpt>
      <trkpt lat="45.53521" lon="6.73096">
        <ele>2108.81</ele>
        <time>2016-03-20T11:00:28Z</time>
      </trkpt>
      <trkpt lat="45.53535" lon="6.73113">
        <ele>2106.77</ele>
        <time>2016-03-20T11:00:31Z</time>
      </trkpt>
      <trkpt lat="45.5355" lon="6.73136">
        <ele>2105.53</ele>
        <time>2016-03-20T11:00:35Z</time>
      </trkpt>
      <trkpt lat="45.5356" lon="6.73157">
        <ele>2105.72</ele>
        <time>2016-03-20T11:00:39Z</time>
      </trkpt>
      <trkpt lat="45.53577" lon="6.73178">
        <ele>2103.38</ele>
        <time>2016-03-20T11:00:44Z</time>
      </trkpt>
      <trkpt lat="45.53591" lon="6.73196">
        <ele>2099.74</ele>
        <time>2016-03-20T11:00:48Z</time>
      </trkpt>
      <trkpt lat="45.53609" lon="6.73215">
        <ele>2096.58</ele>
        <time>2016-03-20T11:00:52Z</time>
      </trkpt>
      <trkpt lat="45.53625" lon="6.73229">
        <ele>2095.57</ele>
        <time>2016-03-20T11:00:55Z</time>
      </trkpt>
      <trkpt lat="45.5364" lon="6.73248">
        <ele>2091.82</ele>
        <time>2016-03-20T11:00:58Z</time>
      </trkpt>
      <trkpt lat="45.53656" lon="6.73263">
        <ele>2091.73</ele>
        <time>2016-03-20T11:01:01Z</time>
      </trkpt>
      <trkpt lat="45.53669" lon="6.73287">
        <ele>2091.53</ele>
        <time>2016-03-20T11:01:04Z</time>
      </trkpt>
      <trkpt lat="45.53684" lon="6.73304">
        <ele>2088.01</ele>
        <time>2016-03-20T11:01:07Z</time>
      </trkpt>
      <trkpt lat="45.53698" lon="6.73326">
        <ele>2085.74</ele>
        <time>2016-03-20T11:01:10Z</time>
      </trkpt>
      <trkpt lat="45.53714" lon="6.7335">
        <ele>2083.74</ele>
        <time>2016-03-20T11:01:13Z</time>
      </trkpt>
      <trkpt lat="45.5372" lon="6.73376">
        <ele>2081.94</ele>
        <time>2016-03-20T11:01:15Z</time>
      </trkpt>
      <trkpt lat="45.53721" lon="6.73411">
        <ele>2080.7</ele>
        <time>2016-03-20T11:01:18Z</time>
      </trkpt>
      <trkpt lat="45.53716" lon="6.73444">
        <ele>2077.46</ele>
        <time>2016-03-20T11:01:21Z</time>
      </trkpt>
      <trkpt lat="45.53717" lon="6.7347">
        <ele>2074.65</ele>
        <time>2016-03-20T11:01:23Z</time>
      </trkpt>
      <trkpt lat="45.53716" lon="6.73499">
        <ele>2070.86</ele>
        <time>2016-03-20T11:01:25Z</time>
      </trkpt>
      <trkpt lat="45.53725" lon="6.73532">
        <ele>2067.18</ele>
        <time>2016-03-20T11:01:27Z</time>
      </trkpt>
      <trkpt lat="45.53724" lon="6.73565">
        <ele>2063.68</ele>
        <time>2016-03-20T11:01:29Z</time>
      </trkpt>
      <trkpt lat="45.53719" lon="6.73599">
        <ele>2061.55</ele>
        <time>2016-03-20T11:01:32Z</time>
      </trkpt>
      <trkpt lat="45.53707" lon="6.73627">
        <ele>2058.01</ele>
        <time>2016-03-20T11:01:34Z</time>
      </trkpt>
      <trkpt lat="45.53707" lon="6.73661">
        <ele>2052.59</ele>
        <time>2016-03-20T11:01:36Z</time>
      </trkpt>
      <trkpt lat="45.53724" lon="6.73678">
        <ele>2047.89</ele>
        <time>2016-03-20T11:01:38Z</time>
      </trkpt>
      <trkpt lat="45.53745" lon="6.73685">
        <ele>2044.59</ele>
        <time>2016-03-20T11:01:41Z</time>
      </trkpt>
      <trkpt lat="45.53764" lon="6.7368">
        <ele>2035.12</ele>
        <time>2016-03-20T11:01:44Z</time>
      </trkpt>
      <trkpt lat="45.53782" lon="6.73666">
        <ele>2024.82</ele>
        <time>2016-03-20T11:01:52Z</time>
      </trkpt>
      <trkpt lat="45.53801" lon="6.73672">
        <ele>2022.71</ele>
        <time>2016-03-20T11:01:55Z</time>
      </trkpt>
      <trkpt lat="45.53824" lon="6.73665">
        <ele>2018.98</ele>
        <time>2016-03-20T11:01:58Z</time>
      </trkpt>
      <trkpt lat="45.53849" lon="6.7365">
        <ele>2014.85</ele>
        <time>2016-03-20T11:02:01Z</time>
      </trkpt>
      <trkpt lat="45.53871" lon="6.73639">
        <ele>2011.18</ele>
        <time>2016-03-20T11:02:03Z</time>
      </trkpt>
      <trkpt lat="45.53892" lon="6.73629">
        <ele>2008.8</ele>
        <time>2016-03-20T11:02:05Z</time>
      </trkpt>
      <trkpt lat="45.53918" lon="6.73625">
        <ele>2003.03</ele>
        <time>2016-03-20T11:02:08Z</time>
      </trkpt>
      <trkpt lat="45.53939" lon="6.73638">
        <ele>1998.98</ele>
        <time>2016-03-20T11:02:11Z</time>
      </trkpt>
      <trkpt lat="45.53959" lon="6.73651">
        <ele>1995.94</ele>
        <time>2016-03-20T11:02:14Z</time>
      </trkpt>
      <trkpt lat="45.53982" lon="6.73665">
        <ele>1991.6</ele>
        <time>2016-03-20T11:02:17Z</time>
      </trkpt>
      <trkpt lat="45.53999" lon="6.73694">
        <ele>1987.18</ele>
        <time>2016-03-20T11:02:20Z</time>
      </trkpt>
      <trkpt lat="45.53997" lon="6.73722">
        <ele>1984.8</ele>
        <time>2016-03-20T11:02:22Z</time>
      </trkpt>
      <trkpt lat="45.54018" lon="6.73753">
        <ele>1965.57</ele>
        <time>2016-03-20T11:02:39Z</time>
      </trkpt>
      <trkpt lat="45.54035" lon="6.73761">
        <ele>1961.69</ele>
        <time>2016-03-20T11:02:41Z</time>
      </trkpt>
      <trkpt lat="45.54045" lon="6.73787">
        <ele>1959.77</ele>
        <time>2016-03-20T11:02:44Z</time>
      </trkpt>
      <trkpt lat="45.54033" lon="6.73812">
        <ele>1958.42</ele>
        <time>2016-03-20T11:02:46Z</time>
      </trkpt>
      <trkpt lat="45.54027" lon="6.73838">
        <ele>1953.25</ele>
        <time>2016-03-20T11:02:49Z</time>
      </trkpt>
      <trkpt lat="45.54028" lon="6.7387">
        <ele>1947.03</ele>
        <time>2016-03-20T11:02:52Z</time>
      </trkpt>
      <trkpt lat="45.54034" lon="6.73899">
        <ele>1944.63</ele>
        <time>2016-03-20T11:02:54Z</time>
      </trkpt>
      <trkpt lat="45.54035" lon="6.73931">
        <ele>1937.14</ele>
        <time>2016-03-20T11:02:57Z</time>
      </trkpt>
      <trkpt lat="45.54046" lon="6.73958">
        <ele>1933.04</ele>
        <time>2016-03-20T11:02:59Z</time>
      </trkpt>
      <trkpt lat="45.54052" lon="6.73992">
        <ele>1932.55</ele>
        <time>2016-03-20T11:03:01Z</time>
      </trkpt>
      <trkpt lat="45.5406" lon="6.74023">
        <ele>1931.73</ele>
        <time>2016-03-20T11:03:03Z</time>
      </trkpt>
      <trkpt lat="45.54064" lon="6.74056">
        <ele>1927.86</ele>
        <time>2016-03-20T11:03:05Z</time>
      </trkpt>
      <trkpt lat="45.54043" lon="6.74055">
        <ele>1910.83</ele>
        <time>2016-03-20T11:03:12Z</time>
      </trkpt>
      <trkpt lat="45.54029" lon="6.7408">
        <ele>1909.61</ele>
        <time>2016-03-20T11:03:15Z</time>
      </trkpt>
      <trkpt lat="45.54012" lon="6.74098">
        <ele>1894.59</ele>
        <time>2016-03-20T11:03:21Z</time>
      </trkpt>
      <trkpt lat="45.53988" lon="6.74094">
        <ele>1892.74</ele>
        <time>2016-03-20T11:03:24Z</time>
      </trkpt>
      <trkpt lat="45.53968" lon="6.741">
        <ele>1887.74</ele>
        <time>2016-03-20T11:03:26Z</time>
      </trkpt>
      <trkpt lat="45.53946" lon="6.74111">
        <ele>1879.22</ele>
        <time>2016-03-20T11:03:28Z</time>
      </trkpt>
      <trkpt lat="45.53927" lon="6.74116">
        <ele>1871.82</ele>
        <time>2016-03-20T11:03:31Z</time>
      </trkpt>
      <trkpt lat="45.53901" lon="6.74131">
        <ele>1863.22</ele>
        <time>2016-03-20T11:03:33Z</time>
      </trkpt>
      <trkpt lat="45.53885" lon="6.74151">
        <ele>1859.84</ele>
        <time>2016-03-20T11:03:35Z</time>
      </trkpt>
      <trkpt lat="45.5388" lon="6.74183">
        <ele>1858.58</ele>
        <time>2016-03-20T11:03:37Z</time>
      </trkpt>
      <trkpt lat="45.53888" lon="6.74207">
        <ele>1857.73</ele>
        <time>2016-03-20T11:03:39Z</time>
      </trkpt>
      <trkpt lat="45.53893" lon="6.74235">
        <ele>1859.3</ele>
        <time>2016-03-20T11:03:41Z</time>
      </trkpt>
      <trkpt lat="45.53893" lon="6.74263">
        <ele>1851.86</ele>
        <time>2016-03-20T11:03:53Z</time>
      </trkpt>
      <trkpt lat="45.53896" lon="6.74292">
        <ele>1847.79</ele>
        <time>2016-03-20T11:03:56Z</time>
      </trkpt>
      <trkpt lat="45.53901" lon="6.74333">
        <ele>1837.8</ele>
        <time>2016-03-20T11:04:01Z</time>
      </trkpt>
      <trkpt lat="45.53906" lon="6.74364">
        <ele>1822.98</ele>
        <time>2016-03-20T11:04:10Z</time>
      </trkpt>
      <trkpt lat="45.53917" lon="6.74387">
        <ele>1814.6</ele>
        <time>2016-03-20T11:04:14Z</time>
      </trkpt>
      <trkpt lat="45.5393" lon="6.74409">
        <ele>1805.56</ele>
        <time>2016-03-20T11:04:20Z</time>
      </trkpt>
      <trkpt lat="45.53916" lon="6.74429">
        <ele>1799.49</ele>
        <time>2016-03-20T11:04:37Z</time>
      </trkpt>
      <trkpt lat="45.53905" lon="6.74454">
        <ele>1798.41</ele>
        <time>2016-03-20T11:04:42Z</time>
      </trkpt>
      <trkpt lat="45.53904" lon="6.74485">
        <ele>1789.84</ele>
        <time>2016-03-20T11:04:48Z</time>
      </trkpt>
      <trkpt lat="45.53914" lon="6.74512">
        <ele>1781.39</ele>
        <time>2016-03-20T11:04:52Z</time>
      </trkpt>
      <trkpt lat="45.53932" lon="6.74533">
        <ele>1776.95</ele>
        <time>2016-03-20T11:04:55Z</time>
      </trkpt>
      <trkpt lat="45.5395" lon="6.74553">
        <ele>1769.51</ele>
        <time>2016-03-20T11:04:57Z</time>
      </trkpt>
      <trkpt lat="45.53968" lon="6.74556">
        <ele>1764.25</ele>
        <time>2016-03-20T11:04:59Z</time>
      </trkpt>
      <trkpt lat="45.53989" lon="6.74561">
        <ele>1754.32</ele>
        <time>2016-03-20T11:05:02Z</time>
      </trkpt>
      <trkpt lat="45.54013" lon="6.74561">
        <ele>1749.79</ele>
        <time>2016-03-20T11:05:05Z</time>
      </trkpt>
      <trkpt lat="45.5403" lon="6.74577">
        <ele>1746.78</ele>
        <time>2016-03-20T11:05:08Z</time>
      </trkpt>
      <trkpt lat="45.54037" lon="6.74604">
        <ele>1743.78</ele>
        <time>2016-03-20T11:05:11Z</time>
      </trkpt>
      <trkpt lat="45.54051" lon="6.74636">
        <ele>1736.4</ele>
        <time>2016-03-20T11:05:14Z</time>
      </trkpt>
      <trkpt lat="45.5407" lon="6.74644">
        <ele>1710.88</ele>
        <time>2016-03-20T11:05:36Z</time>
      </trkpt>
      <trkpt lat="45.54093" lon="6.74633">
        <ele>1701.07</ele>
        <time>2016-03-20T11:05:40Z</time>
      </trkpt>
      <trkpt lat="45.54115" lon="6.74626">
        <ele>1698.79</ele>
        <time>2016-03-20T11:05:42Z</time>
      </trkpt>
      <trkpt lat="45.54134" lon="6.74617">
        <ele>1695.82</ele>
        <time>2016-03-20T11:05:44Z</time>
      </trkpt>
      <trkpt lat="45.54155" lon="6.74606">
        <ele>1691.98</ele>
        <time>2016-03-20T11:05:47Z</time>
      </trkpt>
      <trkpt lat="45.54174" lon="6.74594">
        <ele>1690.38</ele>
        <time>2016-03-20T11:05:50Z</time>
      </trkpt>
      <trkpt lat="45.54191" lon="6.7458">
        <ele>1689.54</ele>
        <time>2016-03-20T11:05:53Z</time>
      </trkpt>
      <trkpt lat="45.54206" lon="6.74555">
        <ele>1688.8</ele>
        <time>2016-03-20T11:05:57Z</time>
      </trkpt>
      <trkpt lat="45.5422" lon="6.74531">
        <ele>1682.09</ele>
        <time>2016-03-20T11:06:02Z</time>
      </trkpt>
      <trkpt lat="45.54238" lon="6.74518">
        <ele>1670.53</ele>
        <time>2016-03-20T11:06:08Z</time>
      </trkpt>
      <trkpt lat="45.54254" lon="6.74504">
        <ele>1669.53</ele>
        <time>2016-03-20T11:06:12Z</time>
      </trkpt>
      <trkpt lat="45.54271" lon="6.7449">
        <ele>1660.01</ele>
        <time>2016-03-20T11:06:18Z</time>
      </trkpt>
      <trkpt lat="45.54288" lon="6.74478">
        <ele>1657.54</ele>
        <time>2016-03-20T11:06:22Z</time>
      </trkpt>
      <trkpt lat="45.54307" lon="6.74472">
        <ele>1655.58</ele>
        <time>2016-03-20T11:06:25Z</time>
      </trkpt>
      <trkpt lat="45.54328" lon="6.74466">
        <ele>1653.54</ele>
        <time>2016-03-20T11:06:29Z</time>
      </trkpt>
      <trkpt lat="45.54348" lon="6.74457">
        <ele>1653.56</ele>
        <time>2016-03-20T11:06:33Z</time>
      </trkpt>
      <trkpt lat="45.54363" lon="6.74444">
        <ele>1655.13</ele>
        <time>2016-03-20T11:06:36Z</time>
      </trkpt>
      <trkpt lat="45.54377" lon="6.74419">
        <ele>1652.65</ele>
        <time>2016-03-20T11:06:40Z</time>
      </trkpt>
      <trkpt lat="45.54384" lon="6.74393">
        <ele>1649.78</ele>
        <time>2016-03-20T11:06:43Z</time>
      </trkpt>
      <trkpt lat="45.5439" lon="6.74366">
        <ele>1648.51</ele>
        <time>2016-03-20T11:06:47Z</time>
      </trkpt>
      <trkpt lat="45.54401" lon="6.74339">
        <ele>1645.76</ele>
        <time>2016-03-20T11:06:52Z</time>
      </trkpt>
      <trkpt lat="45.54418" lon="6.74328">
        <ele>1648.67</ele>
        <time>2016-03-20T11:06:56Z</time>
      </trkpt>
      <trkpt lat="45.54437" lon="6.74315">
        <ele>1647.93</ele>
        <time>2016-03-20T11:07:01Z</time>
      </trkpt>
      <trkpt lat="45.54449" lon="6.7429">
        <ele>1645.73</ele>
        <time>2016-03-20T11:07:05Z</time>
      </trkpt>
      <trkpt lat="45.54457" lon="6.74259">
        <ele>1642.38</ele>
        <time>2016-03-20T11:07:10Z</time>
      </trkpt>
      <trkpt lat="45.54468" lon="6.74235">
        <ele>1641.72</ele>
        <time>2016-03-20T11:07:14Z</time>
      </trkpt>
      <trkpt lat="45.54484" lon="6.74215">
        <ele>1637.74</ele>
        <time>2016-03-20T11:07:18Z</time>
      </trkpt>
      <trkpt lat="45.54503" lon="6.74207">
        <ele>1638.3</ele>
        <time>2016-03-20T11:07:21Z</time>
      </trkpt>
      <trkpt lat="45.54522" lon="6.742">
        <ele>1639.49</ele>
        <time>2016-03-20T11:07:24Z</time>
      </trkpt>
      <trkpt lat="45.54541" lon="6.74187">
        <ele>1634.96</ele>
        <time>2016-03-20T11:07:28Z</time>
      </trkpt>
      <trkpt lat="45.54561" lon="6.74176">
        <ele>1631.78</ele>
        <time>2016-03-20T11:07:32Z</time>
      </trkpt>
      <trkpt lat="45.5458" lon="6.74155">
        <ele>1627.77</ele>
        <time>2016-03-20T11:07:36Z</time>
      </trkpt>
      <trkpt lat="45.54596" lon="6.74141">
        <ele>1628.3</ele>
        <time>2016-03-20T11:07:39Z</time>
      </trkpt>
      <trkpt lat="45.54614" lon="6.74124">
        <ele>1627.18</ele>
        <time>2016-03-20T11:07:43Z</time>
      </trkpt>
      <trkpt lat="45.54628" lon="6.74103">
        <ele>1626.53</ele>
        <time>2016-03-20T11:07:47Z</time>
      </trkpt>
      <trkpt lat="45.54647" lon="6.74086">
        <ele>1625.53</ele>
        <time>2016-03-20T11:07:51Z</time>
      </trkpt>
      <trkpt lat="45.54665" lon="6.74071">
        <ele>1622.55</ele>
        <time>2016-03-20T11:07:56Z</time>
      </trkpt>
      <trkpt lat="45.54686" lon="6.74055">
        <ele>1623.29</ele>
        <time>2016-03-20T11:08:01Z</time>
      </trkpt>
      <trkpt lat="45.54698" lon="6.74035">
        <ele>1621.61</ele>
        <time>2016-03-20T11:08:07Z</time>
      </trkpt>
      <trkpt lat="45.54714" lon="6.74017">
        <ele>1612.78</ele>
        <time>2016-03-20T11:08:13Z</time>
      </trkpt>
      <trkpt lat="45.54731" lon="6.74">
        <ele>1590.07</ele>
        <time>2016-03-20T11:08:20Z</time>
      </trkpt>
      <trkpt lat="45.54752" lon="6.73985">
        <ele>1586.74</ele>
        <time>2016-03-20T11:08:24Z</time>
      </trkpt>
      <trkpt lat="45.54772" lon="6.73973">
        <ele>1586.53</ele>
        <time>2016-03-20T11:08:27Z</time>
      </trkpt>
      <trkpt lat="45.54793" lon="6.73957">
        <ele>1591.04</ele>
        <time>2016-03-20T11:08:30Z</time>
      </trkpt>
      <trkpt lat="45.54808" lon="6.7393">
        <ele>1591.36</ele>
        <time>2016-03-20T11:08:34Z</time>
      </trkpt>
      <trkpt lat="45.54826" lon="6.73908">
        <ele>1592.49</ele>
        <time>2016-03-20T11:08:37Z</time>
      </trkpt>
      <trkpt lat="45.54839" lon="6.7389">
        <ele>1590.58</ele>
        <time>2016-03-20T11:08:40Z</time>
      </trkpt>
      <trkpt lat="45.54857" lon="6.73868">
        <ele>1588.57</ele>
        <time>2016-03-20T11:08:44Z</time>
      </trkpt>
      <trkpt lat="45.54857" lon="6.73896">
        <ele>1580.5</ele>
        <time>2016-03-20T11:09:16Z</time>
      </trkpt>
      <trkpt lat="45.5485" lon="6.73934">
        <ele>1579.57</ele>
        <time>2016-03-20T11:09:19Z</time>
      </trkpt>
      <trkpt lat="45.54854" lon="6.73961">
        <ele>1573.23</ele>
        <time>2016-03-20T11:09:22Z</time>
      </trkpt>
      <trkpt lat="45.54883" lon="6.7396">
        <ele>1568.4</ele>
        <time>2016-03-20T11:09:24Z</time>
      </trkpt>
      <trkpt lat="45.54903" lon="6.73949">
        <ele>1564.05</ele>
        <time>2016-03-20T11:09:26Z</time>
      </trkpt>
      <trkpt lat="45.54917" lon="6.7393">
        <ele>1561.79</ele>
        <time>2016-03-20T11:09:28Z</time>
      </trkpt>
      <trkpt lat="45.5492" lon="6.73904">
        <ele>1562.49</ele>
        <time>2016-03-20T11:09:31Z</time>
      </trkpt>
      <trkpt lat="45.54931" lon="6.73884">
        <ele>1558.58</ele>
        <time>2016-03-20T11:09:37Z</time>
      </trkpt>
      <trkpt lat="45.54951" lon="6.73879">
        <ele>1552.21</ele>
        <time>2016-03-20T11:55:05Z</time>
      </trkpt>
      <trkpt lat="45.54955" lon="6.73844">
        <ele>1543.76</ele>
        <time>2016-03-20T12:01:39Z</time>
      </trkpt>
      <trkpt lat="45.54961" lon="6.73814">
        <ele>1541.74</ele>
        <time>2016-03-20T12:01:42Z</time>
      </trkpt>
      <trkpt lat="45.54963" lon="6.73788">
        <ele>1540.58</ele>
        <time>2016-03-20T12:01:44Z</time>
      </trkpt>
      <trkpt lat="45.54971" lon="6.7376">
        <ele>1538.77</ele>
        <time>2016-03-20T12:01:46Z</time>
      </trkpt>
      <trkpt lat="45.54969" lon="6.7372">
        <ele>1534.15</ele>
        <time>2016-03-20T12:01:49Z</time>
      </trkpt>
      <trkpt lat="45.54976" lon="6.73684">
        <ele>1531.8</ele>
        <time>2016-03-20T12:01:51Z</time>
      </trkpt>
      <trkpt lat="45.54977" lon="6.73657">
        <ele>1529.78</ele>
        <time>2016-03-20T12:01:53Z</time>
      </trkpt>
      <trkpt lat="45.54987" lon="6.7363">
        <ele>1526.82</ele>
        <time>2016-03-20T12:01:55Z</time>
      </trkpt>
      <trkpt lat="45.55" lon="6.73604">
        <ele>1526.54</ele>
        <time>2016-03-20T12:01:57Z</time>
      </trkpt>
      <trkpt lat="45.55018" lon="6.73599">
        <ele>1523.97</ele>
        <time>2016-03-20T12:01:59Z</time>
      </trkpt>
      <trkpt lat="45.55044" lon="6.73589">
        <ele>1523.55</ele>
        <time>2016-03-20T12:02:01Z</time>
      </trkpt>
      <trkpt lat="45.55067" lon="6.73587">
        <ele>1522.57</ele>
        <time>2016-03-20T12:02:03Z</time>
      </trkpt>
      <trkpt lat="45.55089" lon="6.73598">
        <ele>1517.09</ele>
        <time>2016-03-20T12:02:05Z</time>
      </trkpt>
      <trkpt lat="45.55117" lon="6.73599">
        <ele>1513.99</ele>
        <time>2016-03-20T12:02:07Z</time>
      </trkpt>
      <trkpt lat="45.55139" lon="6.73603">
        <ele>1511.79</ele>
        <time>2016-03-20T12:02:09Z</time>
      </trkpt>
      <trkpt lat="45.55157" lon="6.73597">
        <ele>1504.98</ele>
        <time>2016-03-20T12:02:11Z</time>
      </trkpt>
      <trkpt lat="45.55174" lon="6.73578">
        <ele>1502.79</ele>
        <time>2016-03-20T12:02:13Z</time>
      </trkpt>
      <trkpt lat="45.55156" lon="6.73558">
        <ele>1498.58</ele>
        <time>2016-03-20T12:02:14Z</time>
      </trkpt>
      <trkpt lat="45.55153" lon="6.73528">
        <ele>1491.27</ele>
        <time>2016-03-20T12:02:17Z</time>
      </trkpt>
      <trkpt lat="45.55162" lon="6.73499">
        <ele>1487.74</ele>
        <time>2016-03-20T12:02:21Z</time>
      </trkpt>
      <trkpt lat="45.55175" lon="6.73476">
        <ele>1483.78</ele>
        <time>2016-03-20T12:02:25Z</time>
      </trkpt>
      <trkpt lat="45.55193" lon="6.73466">
        <ele>1483.56</ele>
        <time>2016-03-20T12:02:29Z</time>
      </trkpt>
      <trkpt lat="45.55215" lon="6.73463">
        <ele>1483.5</ele>
        <time>2016-03-20T12:02:33Z</time>
      </trkpt>
      <trkpt lat="45.55233" lon="6.73462">
        <ele>1484.49</ele>
        <time>2016-03-20T12:02:37Z</time>
      </trkpt>
      <trkpt lat="45.55239" lon="6.73493">
        <ele>1467.15</ele>
        <time>2016-03-20T12:02:45Z</time>
      </trkpt>
      <trkpt lat="45.55259" lon="6.73517">
        <ele>1462.39</ele>
        <time>2016-03-20T12:02:49Z</time>
      </trkpt>
      <trkpt lat="45.55275" lon="6.73533">
        <ele>1462.37</ele>
        <time>2016-03-20T12:02:52Z</time>
      </trkpt>
      <trkpt lat="45.55299" lon="6.73542">
        <ele>1460.76</ele>
        <time>2016-03-20T12:02:54Z</time>
      </trkpt>
      <trkpt lat="45.55322" lon="6.73549">
        <ele>1458.16</ele>
        <time>2016-03-20T12:02:57Z</time>
      </trkpt>
      <trkpt lat="45.5534" lon="6.73559">
        <ele>1456.6</ele>
        <time>2016-03-20T12:02:59Z</time>
      </trkpt>
      <trkpt lat="45.55366" lon="6.73563">
        <ele>1448.58</ele>
        <time>2016-03-20T12:03:03Z</time>
      </trkpt>
      <trkpt lat="45.55387" lon="6.73569">
        <ele>1442.93</ele>
        <time>2016-03-20T12:03:06Z</time>
      </trkpt>
      <trkpt lat="45.55412" lon="6.73574">
        <ele>1441.54</ele>
        <time>2016-03-20T12:03:09Z</time>
      </trkpt>
      <trkpt lat="45.55432" lon="6.73577">
        <ele>1438.62</ele>
        <time>2016-03-20T12:03:12Z</time>
      </trkpt>
      <trkpt lat="45.55457" lon="6.73579">
        <ele>1429.85</ele>
        <time>2016-03-20T12:03:16Z</time>
      </trkpt>
      <trkpt lat="45.55479" lon="6.73586">
        <ele>1418.88</ele>
        <time>2016-03-20T12:03:20Z</time>
      </trkpt>
      <trkpt lat="45.55505" lon="6.73582">
        <ele>1418.53</ele>
        <time>2016-03-20T12:03:23Z</time>
      </trkpt>
      <trkpt lat="45.55526" lon="6.73582">
        <ele>1412.93</ele>
        <time>2016-03-20T12:03:26Z</time>
      </trkpt>
      <trkpt lat="45.55551" lon="6.73576">
        <ele>1412.69</ele>
        <time>2016-03-20T12:03:29Z</time>
      </trkpt>
      <trkpt lat="45.55572" lon="6.73598">
        <ele>1402.03</ele>
        <time>2016-03-20T12:03:34Z</time>
      </trkpt>
      <trkpt lat="45.55592" lon="6.73589">
        <ele>1397.98</ele>
        <time>2016-03-20T12:03:37Z</time>
      </trkpt>
      <trkpt lat="45.55603" lon="6.73617">
        <ele>1375.18</ele>
        <time>2016-03-20T12:03:46Z</time>
      </trkpt>
      <trkpt lat="45.55621" lon="6.73623">
        <ele>1365.02</ele>
        <time>2016-03-20T12:03:51Z</time>
      </trkpt>
      <trkpt lat="45.5564" lon="6.7364">
        <ele>1349.78</ele>
        <time>2016-03-20T12:04:08Z</time>
      </trkpt>
      <trkpt lat="45.55657" lon="6.7365">
        <ele>1343.36</ele>
        <time>2016-03-20T12:04:11Z</time>
      </trkpt>
      <trkpt lat="45.55682" lon="6.73664">
        <ele>1339.79</ele>
        <time>2016-03-20T12:04:14Z</time>
      </trkpt>
      <trkpt lat="45.55704" lon="6.73684">
        <ele>1334.8</ele>
        <time>2016-03-20T12:04:17Z</time>
      </trkpt>
      <trkpt lat="45.55725" lon="6.73699">
        <ele>1329.7</ele>
        <time>2016-03-20T12:04:20Z</time>
      </trkpt>
      <trkpt lat="45.55751" lon="6.73706">
        <ele>1328.57</ele>
        <time>2016-03-20T12:04:23Z</time>
      </trkpt>
      <trkpt lat="45.55764" lon="6.73728">
        <ele>1320.3</ele>
        <time>2016-03-20T12:04:28Z</time>
      </trkpt>
      <trkpt lat="45.55789" lon="6.73747">
        <ele>1316.79</ele>
        <time>2016-03-20T12:04:31Z</time>
      </trkpt>
      <trkpt lat="45.55812" lon="6.73742">
        <ele>1314.78</ele>
        <time>2016-03-20T12:04:33Z</time>
      </trkpt>
      <trkpt lat="45.55835" lon="6.73747">
        <ele>1302.67</ele>
        <time>2016-03-20T12:04:37Z</time>
      </trkpt>
      <trkpt lat="45.55863" lon="6.73738">
        <ele>1300.74</ele>
        <time>2016-03-20T12:04:40Z</time>
      </trkpt>
      <trkpt lat="45.55886" lon="6.73734">
        <ele>1300.54</ele>
        <time>2016-03-20T12:04:42Z</time>
      </trkpt>
      <trkpt lat="45.55901" lon="6.73718">
        <ele>1299.73</ele>
        <time>2016-03-20T12:04:44Z</time>
      </trkpt>
      <trkpt lat="45.55926" lon="6.73708">
        <ele>1296.75</ele>
        <time>2016-03-20T12:04:47Z</time>
      </trkpt>
      <trkpt lat="45.55948" lon="6.73714">
        <ele>1267.69</ele>
        <time>2016-03-20T12:04:54Z</time>
      </trkpt>
      <trkpt lat="45.55942" lon="6.73739">
        <ele>1235.79</ele>
        <time>2016-03-20T12:05:11Z</time>
      </trkpt>
      <trkpt lat="45.5593" lon="6.73758">
        <ele>1216.77</ele>
        <time>2016-03-20T12:05:54Z</time>
      </trkpt>
      <trkpt lat="45.55912" lon="6.73751">
        <ele>1216.49</ele>
        <time>2016-03-20T12:05:58Z</time>
      </trkpt>
      <trkpt lat="45.55891" lon="6.73744">
        <ele>1221.27</ele>
        <time>2016-03-20T12:06:03Z</time>
      </trkpt>
      <trkpt lat="45.55873" lon="6.73738">
        <ele>1224.48</ele>
        <time>2016-03-20T12:06:08Z</time>
      </trkpt>
      <trkpt lat="45.55854" lon="6.73733">
        <ele>1228.29</ele>
        <time>2016-03-20T12:06:13Z</time>
      </trkpt>
      <trkpt lat="45.55833" lon="6.73727">
        <ele>1233.28</ele>
        <time>2016-03-20T12:06:19Z</time>
      </trkpt>
      <trkpt lat="45.55813" lon="6.73716">
        <ele>1243.29</ele>
        <time>2016-03-20T12:06:25Z</time>
      </trkpt>
      <trkpt lat="45.55793" lon="6.73709">
        <ele>1249.24</ele>
        <time>2016-03-20T12:06:30Z</time>
      </trkpt>
      <trkpt lat="45.55772" lon="6.73704">
        <ele>1252.49</ele>
        <time>2016-03-20T12:06:36Z</time>
      </trkpt>
      <trkpt lat="45.55753" lon="6.73694">
        <ele>1257.48</ele>
        <time>2016-03-20T12:06:41Z</time>
      </trkpt>
      <trkpt lat="45.55735" lon="6.73685">
        <ele>1263.43</ele>
        <time>2016-03-20T12:06:46Z</time>
      </trkpt>
      <trkpt lat="45.55717" lon="6.73673">
        <ele>1267.32</ele>
        <time>2016-03-20T12:06:51Z</time>
      </trkpt>
      <trkpt lat="45.55698" lon="6.73663">
        <ele>1270.52</ele>
        <time>2016-03-20T12:06:56Z</time>
      </trkpt>
      <trkpt lat="45.55677" lon="6.73656">
        <ele>1277.08</ele>
        <time>2016-03-20T12:07:02Z</time>
      </trkpt>
      <trkpt lat="45.55657" lon="6.73655">
        <ele>1285.22</ele>
        <time>2016-03-20T12:07:08Z</time>
      </trkpt>
      <trkpt lat="45.55639" lon="6.73643">
        <ele>1295.36</ele>
        <time>2016-03-20T12:07:13Z</time>
      </trkpt>
      <trkpt lat="45.55619" lon="6.73632">
        <ele>1298.45</ele>
        <time>2016-03-20T12:07:18Z</time>
      </trkpt>
      <trkpt lat="45.556" lon="6.73622">
        <ele>1300.32</ele>
        <time>2016-03-20T12:07:23Z</time>
      </trkpt>
      <trkpt lat="45.55581" lon="6.73614">
        <ele>1302.33</ele>
        <time>2016-03-20T12:07:28Z</time>
      </trkpt>
      <trkpt lat="45.55563" lon="6.73608">
        <ele>1312.31</ele>
        <time>2016-03-20T12:07:33Z</time>
      </trkpt>
      <trkpt lat="45.55544" lon="6.73603">
        <ele>1320.99</ele>
        <time>2016-03-20T12:07:39Z</time>
      </trkpt>
      <trkpt lat="45.55524" lon="6.73602">
        <ele>1334.23</ele>
        <time>2016-03-20T12:07:45Z</time>
      </trkpt>
      <trkpt lat="45.55505" lon="6.73592">
        <ele>1340.48</ele>
        <time>2016-03-20T12:07:50Z</time>
      </trkpt>
      <trkpt lat="45.55486" lon="6.73582">
        <ele>1344.32</ele>
        <time>2016-03-20T12:07:55Z</time>
      </trkpt>
      <trkpt lat="45.55468" lon="6.73578">
        <ele>1355.83</ele>
        <time>2016-03-20T12:08:00Z</time>
      </trkpt>
      <trkpt lat="45.5545" lon="6.73573">
        <ele>1366.28</ele>
        <time>2016-03-20T12:08:05Z</time>
      </trkpt>
      <trkpt lat="45.55431" lon="6.73562">
        <ele>1373.24</ele>
        <time>2016-03-20T12:08:10Z</time>
      </trkpt>
      <trkpt lat="45.55411" lon="6.73554">
        <ele>1386.82</ele>
        <time>2016-03-20T12:08:16Z</time>
      </trkpt>
      <trkpt lat="45.55393" lon="6.73549">
        <ele>1396.07</ele>
        <time>2016-03-20T12:08:21Z</time>
      </trkpt>
      <trkpt lat="45.55375" lon="6.73543">
        <ele>1402.28</ele>
        <time>2016-03-20T12:08:26Z</time>
      </trkpt>
      <trkpt lat="45.55354" lon="6.73534">
        <ele>1411.04</ele>
        <time>2016-03-20T12:08:31Z</time>
      </trkpt>
      <trkpt lat="45.55336" lon="6.73528">
        <ele>1418.07</ele>
        <time>2016-03-20T12:08:36Z</time>
      </trkpt>
      <trkpt lat="45.55317" lon="6.73521">
        <ele>1422.29</ele>
        <time>2016-03-20T12:08:41Z</time>
      </trkpt>
      <trkpt lat="45.55298" lon="6.73514">
        <ele>1425.45</ele>
        <time>2016-03-20T12:08:46Z</time>
      </trkpt>
      <trkpt lat="45.55279" lon="6.73504">
        <ele>1431.25</ele>
        <time>2016-03-20T12:08:51Z</time>
      </trkpt>
      <trkpt lat="45.55259" lon="6.73496">
        <ele>1435.28</ele>
        <time>2016-03-20T12:08:56Z</time>
      </trkpt>
      <trkpt lat="45.5524" lon="6.73491">
        <ele>1440.28</ele>
        <time>2016-03-20T12:09:01Z</time>
      </trkpt>
      <trkpt lat="45.55222" lon="6.73483">
        <ele>1445.28</ele>
        <time>2016-03-20T12:09:06Z</time>
      </trkpt>
      <trkpt lat="45.55203" lon="6.73474">
        <ele>1449.45</ele>
        <time>2016-03-20T12:09:11Z</time>
      </trkpt>
      <trkpt lat="45.55183" lon="6.73465">
        <ele>1454.28</ele>
        <time>2016-03-20T12:09:16Z</time>
      </trkpt>
      <trkpt lat="45.55164" lon="6.73454">
        <ele>1458.48</ele>
        <time>2016-03-20T12:09:21Z</time>
      </trkpt>
      <trkpt lat="45.55145" lon="6.73446">
        <ele>1464.27</ele>
        <time>2016-03-20T12:09:26Z</time>
      </trkpt>
      <trkpt lat="45.55127" lon="6.7344">
        <ele>1470.08</ele>
        <time>2016-03-20T12:09:31Z</time>
      </trkpt>
      <trkpt lat="45.55109" lon="6.73435">
        <ele>1474.29</ele>
        <time>2016-03-20T12:09:36Z</time>
      </trkpt>
      <trkpt lat="45.5509" lon="6.73429">
        <ele>1478.09</ele>
        <time>2016-03-20T12:09:41Z</time>
      </trkpt>
      <trkpt lat="45.55071" lon="6.73423">
        <ele>1481.32</ele>
        <time>2016-03-20T12:09:46Z</time>
      </trkpt>
      <trkpt lat="45.55052" lon="6.73415">
        <ele>1486.28</ele>
        <time>2016-03-20T12:09:51Z</time>
      </trkpt>
      <trkpt lat="45.55033" lon="6.73406">
        <ele>1492.11</ele>
        <time>2016-03-20T12:09:56Z</time>
      </trkpt>
      <trkpt lat="45.55012" lon="6.734">
        <ele>1497.32</ele>
        <time>2016-03-20T12:10:02Z</time>
      </trkpt>
      <trkpt lat="45.54992" lon="6.73388">
        <ele>1500.29</ele>
        <time>2016-03-20T12:10:07Z</time>
      </trkpt>
      <trkpt lat="45.54976" lon="6.73377">
        <ele>1512.94</ele>
        <time>2016-03-20T12:10:11Z</time>
      </trkpt>
      <trkpt lat="45.54956" lon="6.73365">
        <ele>1517.13</ele>
        <time>2016-03-20T12:10:16Z</time>
      </trkpt>
      <trkpt lat="45.54936" lon="6.73355">
        <ele>1518.36</ele>
        <time>2016-03-20T12:10:21Z</time>
      </trkpt>
      <trkpt lat="45.54917" lon="6.7335">
        <ele>1520.51</ele>
        <time>2016-03-20T12:10:27Z</time>
      </trkpt>
      <trkpt lat="45.549" lon="6.7334">
        <ele>1522.49</ele>
        <time>2016-03-20T12:10:32Z</time>
      </trkpt>
      <trkpt lat="45.54879" lon="6.73332">
        <ele>1531.81</ele>
        <time>2016-03-20T12:10:38Z</time>
      </trkpt>
      <trkpt lat="45.5486" lon="6.73323">
        <ele>1548.64</ele>
        <time>2016-03-20T12:10:44Z</time>
      </trkpt>
      <trkpt lat="45.54842" lon="6.73314">
        <ele>1557.72</ele>
        <time>2016-03-20T12:10:50Z</time>
      </trkpt>
      <trkpt lat="45.54823" lon="6.7331">
        <ele>1560.32</ele>
        <time>2016-03-20T12:10:55Z</time>
      </trkpt>
      <trkpt lat="45.54804" lon="6.73301">
        <ele>1566.2</ele>
        <time>2016-03-20T12:11:00Z</time>
      </trkpt>
      <trkpt lat="45.54785" lon="6.73292">
        <ele>1577.3</ele>
        <time>2016-03-20T12:11:05Z</time>
      </trkpt>
      <trkpt lat="45.54766" lon="6.73286">
        <ele>1583.17</ele>
        <time>2016-03-20T12:11:10Z</time>
      </trkpt>
      <trkpt lat="45.54749" lon="6.73282">
        <ele>1594.63</ele>
        <time>2016-03-20T12:11:15Z</time>
      </trkpt>
      <trkpt lat="45.54728" lon="6.73278">
        <ele>1610</ele>
        <time>2016-03-20T12:11:21Z</time>
      </trkpt>
      <trkpt lat="45.54709" lon="6.73271">
        <ele>1617.24</ele>
        <time>2016-03-20T12:11:26Z</time>
      </trkpt>
      <trkpt lat="45.54691" lon="6.73268">
        <ele>1627.15</ele>
        <time>2016-03-20T12:11:31Z</time>
      </trkpt>
      <trkpt lat="45.54673" lon="6.73263">
        <ele>1633.28</ele>
        <time>2016-03-20T12:11:36Z</time>
      </trkpt>
      <trkpt lat="45.54653" lon="6.73253">
        <ele>1644.07</ele>
        <time>2016-03-20T12:11:41Z</time>
      </trkpt>
      <trkpt lat="45.54635" lon="6.73247">
        <ele>1651.27</ele>
        <time>2016-03-20T12:11:46Z</time>
      </trkpt>
      <trkpt lat="45.54615" lon="6.73234">
        <ele>1659.11</ele>
        <time>2016-03-20T12:11:51Z</time>
      </trkpt>
      <trkpt lat="45.54597" lon="6.73225">
        <ele>1663.28</ele>
        <time>2016-03-20T12:11:57Z</time>
      </trkpt>
      <trkpt lat="45.54597" lon="6.73197">
        <ele>1667.32</ele>
        <time>2016-03-20T12:12:08Z</time>
      </trkpt>
      <trkpt lat="45.5461" lon="6.73175">
        <ele>1666.33</ele>
        <time>2016-03-20T12:12:12Z</time>
      </trkpt>
      <trkpt lat="45.54623" lon="6.73156">
        <ele>1666.53</ele>
        <time>2016-03-20T12:12:16Z</time>
      </trkpt>
      <trkpt lat="45.54607" lon="6.73142">
        <ele>1661.33</ele>
        <time>2016-03-20T12:12:55Z</time>
      </trkpt>
      <trkpt lat="45.54588" lon="6.73144">
        <ele>1657.38</ele>
        <time>2016-03-20T12:13:09Z</time>
      </trkpt>
      <trkpt lat="45.54566" lon="6.73141">
        <ele>1661.92</ele>
        <time>2016-03-20T12:13:16Z</time>
      </trkpt>
      <trkpt lat="45.54546" lon="6.73144">
        <ele>1675.27</ele>
        <time>2016-03-20T12:13:23Z</time>
      </trkpt>
      <trkpt lat="45.54525" lon="6.73138">
        <ele>1683.2</ele>
        <time>2016-03-20T12:13:30Z</time>
      </trkpt>
      <trkpt lat="45.54505" lon="6.7314">
        <ele>1697.04</ele>
        <time>2016-03-20T12:13:37Z</time>
      </trkpt>
      <trkpt lat="45.54486" lon="6.73142">
        <ele>1711.06</ele>
        <time>2016-03-20T12:13:44Z</time>
      </trkpt>
      <trkpt lat="45.54467" lon="6.73144">
        <ele>1722.07</ele>
        <time>2016-03-20T12:13:51Z</time>
      </trkpt>
      <trkpt lat="45.54446" lon="6.73145">
        <ele>1735.03</ele>
        <time>2016-03-20T12:13:59Z</time>
      </trkpt>
      <trkpt lat="45.54428" lon="6.73142">
        <ele>1742.31</ele>
        <time>2016-03-20T12:14:05Z</time>
      </trkpt>
      <trkpt lat="45.54408" lon="6.73147">
        <ele>1752.24</ele>
        <time>2016-03-20T12:14:13Z</time>
      </trkpt>
      <trkpt lat="45.5439" lon="6.73149">
        <ele>1764</ele>
        <time>2016-03-20T12:14:19Z</time>
      </trkpt>
      <trkpt lat="45.54371" lon="6.73151">
        <ele>1777.03</ele>
        <time>2016-03-20T12:14:26Z</time>
      </trkpt>
      <trkpt lat="45.54352" lon="6.73154">
        <ele>1789.07</ele>
        <time>2016-03-20T12:14:33Z</time>
      </trkpt>
      <trkpt lat="45.54334" lon="6.73151">
        <ele>1801.07</ele>
        <time>2016-03-20T12:14:40Z</time>
      </trkpt>
      <trkpt lat="45.54314" lon="6.73148">
        <ele>1809.88</ele>
        <time>2016-03-20T12:14:47Z</time>
      </trkpt>
      <trkpt lat="45.54294" lon="6.73147">
        <ele>1820.27</ele>
        <time>2016-03-20T12:14:55Z</time>
      </trkpt>
      <trkpt lat="45.54275" lon="6.73145">
        <ele>1830.28</ele>
        <time>2016-03-20T12:15:01Z</time>
      </trkpt>
      <trkpt lat="45.54255" lon="6.73148">
        <ele>1835.28</ele>
        <time>2016-03-20T12:15:08Z</time>
      </trkpt>
      <trkpt lat="45.54235" lon="6.73148">
        <ele>1843.31</ele>
        <time>2016-03-20T12:15:15Z</time>
      </trkpt>
      <trkpt lat="45.54215" lon="6.73149">
        <ele>1850.44</ele>
        <time>2016-03-20T12:15:22Z</time>
      </trkpt>
      <trkpt lat="45.54195" lon="6.73147">
        <ele>1862.06</ele>
        <time>2016-03-20T12:15:29Z</time>
      </trkpt>
      <trkpt lat="45.54176" lon="6.73149">
        <ele>1869.28</ele>
        <time>2016-03-20T12:15:36Z</time>
      </trkpt>
      <trkpt lat="45.54157" lon="6.73147">
        <ele>1878.08</ele>
        <time>2016-03-20T12:15:42Z</time>
      </trkpt>
      <trkpt lat="45.54137" lon="6.73146">
        <ele>1885.4</ele>
        <time>2016-03-20T12:15:49Z</time>
      </trkpt>
      <trkpt lat="45.54116" lon="6.73146">
        <ele>1893.13</ele>
        <time>2016-03-20T12:15:56Z</time>
      </trkpt>
      <trkpt lat="45.54097" lon="6.7315">
        <ele>1900.13</ele>
        <time>2016-03-20T12:16:03Z</time>
      </trkpt>
      <trkpt lat="45.54078" lon="6.73157">
        <ele>1905.29</ele>
        <time>2016-03-20T12:16:11Z</time>
      </trkpt>
      <trkpt lat="45.54059" lon="6.73152">
        <ele>1918.82</ele>
        <time>2016-03-20T12:16:17Z</time>
      </trkpt>
      <trkpt lat="45.54039" lon="6.73147">
        <ele>1932.22</ele>
        <time>2016-03-20T12:16:23Z</time>
      </trkpt>
      <trkpt lat="45.54019" lon="6.73146">
        <ele>1940.44</ele>
        <time>2016-03-20T12:16:30Z</time>
      </trkpt>
      <trkpt lat="45.53998" lon="6.73146">
        <ele>1950.28</ele>
        <time>2016-03-20T12:16:38Z</time>
      </trkpt>
      <trkpt lat="45.53979" lon="6.73142">
        <ele>1958.27</ele>
        <time>2016-03-20T12:16:44Z</time>
      </trkpt>
      <trkpt lat="45.53958" lon="6.73142">
        <ele>1965.23</ele>
        <time>2016-03-20T12:16:51Z</time>
      </trkpt>
      <trkpt lat="45.53939" lon="6.73146">
        <ele>1969.49</ele>
        <time>2016-03-20T12:16:58Z</time>
      </trkpt>
      <trkpt lat="45.5392" lon="6.73151">
        <ele>1972.48</ele>
        <time>2016-03-20T12:17:05Z</time>
      </trkpt>
      <trkpt lat="45.53899" lon="6.73152">
        <ele>1978.29</ele>
        <time>2016-03-20T12:17:12Z</time>
      </trkpt>
      <trkpt lat="45.53879" lon="6.73154">
        <ele>1984.28</ele>
        <time>2016-03-20T12:17:19Z</time>
      </trkpt>
      <trkpt lat="45.5386" lon="6.73158">
        <ele>1990.08</ele>
        <time>2016-03-20T12:17:26Z</time>
      </trkpt>
      <trkpt lat="45.5384" lon="6.7316">
        <ele>1998.28</ele>
        <time>2016-03-20T12:17:33Z</time>
      </trkpt>
      <trkpt lat="45.5382" lon="6.73158">
        <ele>2010.19</ele>
        <time>2016-03-20T12:17:40Z</time>
      </trkpt>
      <trkpt lat="45.53799" lon="6.73159">
        <ele>2018.27</ele>
        <time>2016-03-20T12:17:47Z</time>
      </trkpt>
      <trkpt lat="45.53779" lon="6.7316">
        <ele>2028.23</ele>
        <time>2016-03-20T12:17:54Z</time>
      </trkpt>
      <trkpt lat="45.53759" lon="6.73161">
        <ele>2037.08</ele>
        <time>2016-03-20T12:18:01Z</time>
      </trkpt>
      <trkpt lat="45.53739" lon="6.73151">
        <ele>2051.26</ele>
        <time>2016-03-20T12:18:07Z</time>
      </trkpt>
      <trkpt lat="45.53718" lon="6.73152">
        <ele>2058.09</ele>
        <time>2016-03-20T12:18:14Z</time>
      </trkpt>
      <trkpt lat="45.53698" lon="6.73154">
        <ele>2064.24</ele>
        <time>2016-03-20T12:18:21Z</time>
      </trkpt>
      <trkpt lat="45.53679" lon="6.73157">
        <ele>2071.27</ele>
        <time>2016-03-20T12:18:28Z</time>
      </trkpt>
      <trkpt lat="45.53659" lon="6.73154">
        <ele>2077.27</ele>
        <time>2016-03-20T12:18:34Z</time>
      </trkpt>
      <trkpt lat="45.5364" lon="6.73152">
        <ele>2081.33</ele>
        <time>2016-03-20T12:18:40Z</time>
      </trkpt>
      <trkpt lat="45.53622" lon="6.73151">
        <ele>2085.51</ele>
        <time>2016-03-20T12:18:46Z</time>
      </trkpt>
      <trkpt lat="45.53601" lon="6.73154">
        <ele>2086.52</ele>
        <time>2016-03-20T12:18:53Z</time>
      </trkpt>
      <trkpt lat="45.53583" lon="6.73153">
        <ele>2087.56</ele>
        <time>2016-03-20T12:18:59Z</time>
      </trkpt>
      <trkpt lat="45.53565" lon="6.73153">
        <ele>2093.51</ele>
        <time>2016-03-20T12:19:05Z</time>
      </trkpt>
      <trkpt lat="45.53546" lon="6.73154">
        <ele>2096.48</ele>
        <time>2016-03-20T12:19:11Z</time>
      </trkpt>
      <trkpt lat="45.53527" lon="6.73153">
        <ele>2099.12</ele>
        <time>2016-03-20T12:19:17Z</time>
      </trkpt>
      <trkpt lat="45.53508" lon="6.73157">
        <ele>2100.52</ele>
        <time>2016-03-20T12:19:24Z</time>
      </trkpt>
      <trkpt lat="45.53487" lon="6.73152">
        <ele>2106.29</ele>
        <time>2016-03-20T12:19:30Z</time>
      </trkpt>
      <trkpt lat="45.53469" lon="6.73147">
        <ele>2113.23</ele>
        <time>2016-03-20T12:19:36Z</time>
      </trkpt>
      <trkpt lat="45.53449" lon="6.73145">
        <ele>2114.53</ele>
        <time>2016-03-20T12:19:46Z</time>
      </trkpt>
      <trkpt lat="45.53433" lon="6.73132">
        <ele>2115.69</ele>
        <time>2016-03-20T12:19:58Z</time>
      </trkpt>
      <trkpt lat="45.53415" lon="6.73125">
        <ele>2113.7</ele>
        <time>2016-03-20T12:20:07Z</time>
      </trkpt>
      <trkpt lat="45.53395" lon="6.7311">
        <ele>2110.62</ele>
        <time>2016-03-20T12:20:11Z</time>
      </trkpt>
      <trkpt lat="45.53397" lon="6.73083">
        <ele>2114.52</ele>
        <time>2016-03-20T12:20:17Z</time>
      </trkpt>
      <trkpt lat="45.53389" lon="6.73059">
        <ele>2114.57</ele>
        <time>2016-03-20T12:20:49Z</time>
      </trkpt>
      <trkpt lat="45.53376" lon="6.73039">
        <ele>2121.24</ele>
        <time>2016-03-20T12:20:59Z</time>
      </trkpt>
      <trkpt lat="45.53362" lon="6.73017">
        <ele>2131.28</ele>
        <time>2016-03-20T12:21:09Z</time>
      </trkpt>
      <trkpt lat="45.5335" lon="6.72998">
        <ele>2132.52</ele>
        <time>2016-03-20T12:21:18Z</time>
      </trkpt>
      <trkpt lat="45.53336" lon="6.72978">
        <ele>2138.32</ele>
        <time>2016-03-20T12:21:27Z</time>
      </trkpt>
      <trkpt lat="45.53323" lon="6.7296">
        <ele>2142.32</ele>
        <time>2016-03-20T12:21:36Z</time>
      </trkpt>
      <trkpt lat="45.53311" lon="6.7294">
        <ele>2150.29</ele>
        <time>2016-03-20T12:21:46Z</time>
      </trkpt>
      <trkpt lat="45.53297" lon="6.72919">
        <ele>2158.28</ele>
        <time>2016-03-20T12:21:56Z</time>
      </trkpt>
      <trkpt lat="45.53285" lon="6.72898">
        <ele>2167.28</ele>
        <time>2016-03-20T12:22:06Z</time>
      </trkpt>
      <trkpt lat="45.53274" lon="6.72876">
        <ele>2175.32</ele>
        <time>2016-03-20T12:22:16Z</time>
      </trkpt>
      <trkpt lat="45.53261" lon="6.72858">
        <ele>2178.33</ele>
        <time>2016-03-20T12:22:26Z</time>
      </trkpt>
      <trkpt lat="45.53246" lon="6.72838">
        <ele>2181.32</ele>
        <time>2016-03-20T12:22:36Z</time>
      </trkpt>
      <trkpt lat="45.53235" lon="6.72818">
        <ele>2184.53</ele>
        <time>2016-03-20T12:22:45Z</time>
      </trkpt>
      <trkpt lat="45.53223" lon="6.72798">
        <ele>2188.49</ele>
        <time>2016-03-20T12:22:54Z</time>
      </trkpt>
      <trkpt lat="45.5321" lon="6.72777">
        <ele>2194.33</ele>
        <time>2016-03-20T12:23:04Z</time>
      </trkpt>
      <trkpt lat="45.53198" lon="6.72756">
        <ele>2198.29</ele>
        <time>2016-03-20T12:23:13Z</time>
      </trkpt>
      <trkpt lat="45.53186" lon="6.72735">
        <ele>2203.29</ele>
        <time>2016-03-20T12:23:23Z</time>
      </trkpt>
      <trkpt lat="45.53173" lon="6.72718">
        <ele>2208.48</ele>
        <time>2016-03-20T12:23:32Z</time>
      </trkpt>
      <trkpt lat="45.53161" lon="6.72698">
        <ele>2212.49</ele>
        <time>2016-03-20T12:23:41Z</time>
      </trkpt>
      <trkpt lat="45.53149" lon="6.72678">
        <ele>2215.29</ele>
        <time>2016-03-20T12:23:50Z</time>
      </trkpt>
      <trkpt lat="45.53137" lon="6.72657">
        <ele>2219.32</ele>
        <time>2016-03-20T12:24:00Z</time>
      </trkpt>
      <trkpt lat="45.53123" lon="6.72637">
        <ele>2223.33</ele>
        <time>2016-03-20T12:24:10Z</time>
      </trkpt>
      <trkpt lat="45.5311" lon="6.72618">
        <ele>2226.34</ele>
        <time>2016-03-20T12:24:20Z</time>
      </trkpt>
      <trkpt lat="45.53098" lon="6.72598">
        <ele>2227.49</ele>
        <time>2016-03-20T12:24:29Z</time>
      </trkpt>
      <trkpt lat="45.53086" lon="6.72578">
        <ele>2230.49</ele>
        <time>2016-03-20T12:24:38Z</time>
      </trkpt>
      <trkpt lat="45.53073" lon="6.72558">
        <ele>2233.49</ele>
        <time>2016-03-20T12:24:47Z</time>
      </trkpt>
      <trkpt lat="45.5306" lon="6.72538">
        <ele>2237.33</ele>
        <time>2016-03-20T12:24:57Z</time>
      </trkpt>
      <trkpt lat="45.53048" lon="6.72517">
        <ele>2240.49</ele>
        <time>2016-03-20T12:25:07Z</time>
      </trkpt>
      <trkpt lat="45.53035" lon="6.72497">
        <ele>2244.52</ele>
        <time>2016-03-20T12:25:16Z</time>
      </trkpt>
      <trkpt lat="45.53023" lon="6.72477">
        <ele>2247.53</ele>
        <time>2016-03-20T12:25:25Z</time>
      </trkpt>
      <trkpt lat="45.5301" lon="6.72458">
        <ele>2249.49</ele>
        <time>2016-03-20T12:25:34Z</time>
      </trkpt>
      <trkpt lat="45.52997" lon="6.72438">
        <ele>2250.69</ele>
        <time>2016-03-20T12:25:43Z</time>
      </trkpt>
      <trkpt lat="45.52984" lon="6.72418">
        <ele>2252.52</ele>
        <time>2016-03-20T12:25:53Z</time>
      </trkpt>
      <trkpt lat="45.52972" lon="6.72397">
        <ele>2256.48</ele>
        <time>2016-03-20T12:26:03Z</time>
      </trkpt>
      <trkpt lat="45.52959" lon="6.72378">
        <ele>2257.53</ele>
        <time>2016-03-20T12:26:12Z</time>
      </trkpt>
      <trkpt lat="45.52947" lon="6.72359">
        <ele>2260.32</ele>
        <time>2016-03-20T12:26:21Z</time>
      </trkpt>
      <trkpt lat="45.52935" lon="6.72339">
        <ele>2265.13</ele>
        <time>2016-03-20T12:26:30Z</time>
      </trkpt>
      <trkpt lat="45.52921" lon="6.72318">
        <ele>2270.49</ele>
        <time>2016-03-20T12:26:40Z</time>
      </trkpt>
      <trkpt lat="45.52909" lon="6.72297">
        <ele>2276.49</ele>
        <time>2016-03-20T12:26:50Z</time>
      </trkpt>
      <trkpt lat="45.52896" lon="6.72277">
        <ele>2282.49</ele>
        <time>2016-03-20T12:27:00Z</time>
      </trkpt>
      <trkpt lat="45.52883" lon="6.72257">
        <ele>2289.29</ele>
        <time>2016-03-20T12:27:09Z</time>
      </trkpt>
      <trkpt lat="45.52871" lon="6.72237">
        <ele>2298.32</ele>
        <time>2016-03-20T12:27:19Z</time>
      </trkpt>
      <trkpt lat="45.52859" lon="6.72218">
        <ele>2306.28</ele>
        <time>2016-03-20T12:27:29Z</time>
      </trkpt>
      <trkpt lat="45.52846" lon="6.722">
        <ele>2317.09</ele>
        <time>2016-03-20T12:27:39Z</time>
      </trkpt>
      <trkpt lat="45.52834" lon="6.7218">
        <ele>2324.32</ele>
        <time>2016-03-20T12:27:49Z</time>
      </trkpt>
      <trkpt lat="45.52821" lon="6.72159">
        <ele>2334.12</ele>
        <time>2016-03-20T12:27:59Z</time>
      </trkpt>
      <trkpt lat="45.52808" lon="6.7214">
        <ele>2336.53</ele>
        <time>2016-03-20T12:28:08Z</time>
      </trkpt>
      <trkpt lat="45.52795" lon="6.72118">
        <ele>2339.49</ele>
        <time>2016-03-20T12:28:17Z</time>
      </trkpt>
      <trkpt lat="45.52784" lon="6.72098">
        <ele>2340.73</ele>
        <time>2016-03-20T12:28:25Z</time>
      </trkpt>
      <trkpt lat="45.52771" lon="6.72079">
        <ele>2341.33</ele>
        <time>2016-03-20T12:28:32Z</time>
      </trkpt>
      <trkpt lat="45.52764" lon="6.72103">
        <ele>2340.54</ele>
        <time>2016-03-20T12:29:16Z</time>
      </trkpt>
      <trkpt lat="45.52742" lon="6.72105">
        <ele>2336.81</ele>
        <time>2016-03-20T12:29:43Z</time>
      </trkpt>
      <trkpt lat="45.52726" lon="6.72119">
        <ele>2334.53</ele>
        <time>2016-03-20T12:29:47Z</time>
      </trkpt>
      <trkpt lat="45.52735" lon="6.72147">
        <ele>2333.57</ele>
        <time>2016-03-20T12:29:50Z</time>
      </trkpt>
      <trkpt lat="45.5274" lon="6.72173">
        <ele>2329.85</ele>
        <time>2016-03-20T12:29:52Z</time>
      </trkpt>
      <trkpt lat="45.52754" lon="6.72205">
        <ele>2325.79</ele>
        <time>2016-03-20T12:29:55Z</time>
      </trkpt>
      <trkpt lat="45.52763" lon="6.72233">
        <ele>2322.98</ele>
        <time>2016-03-20T12:29:57Z</time>
      </trkpt>
      <trkpt lat="45.52783" lon="6.7226">
        <ele>2315.33</ele>
        <time>2016-03-20T12:30:00Z</time>
      </trkpt>
      <trkpt lat="45.52779" lon="6.72297">
        <ele>2313.58</ele>
        <time>2016-03-20T12:30:03Z</time>
      </trkpt>
      <trkpt lat="45.5276" lon="6.72299">
        <ele>2307.04</ele>
        <time>2016-03-20T12:30:06Z</time>
      </trkpt>
      <trkpt lat="45.52744" lon="6.72316">
        <ele>2286.58</ele>
        <time>2016-03-20T12:32:17Z</time>
      </trkpt>
      <trkpt lat="45.52729" lon="6.72335">
        <ele>2286.53</ele>
        <time>2016-03-20T12:32:20Z</time>
      </trkpt>
      <trkpt lat="45.52705" lon="6.72342">
        <ele>2278.96</ele>
        <time>2016-03-20T12:32:25Z</time>
      </trkpt>
      <trkpt lat="45.52687" lon="6.72334">
        <ele>2273.03</ele>
        <time>2016-03-20T12:32:28Z</time>
      </trkpt>
      <trkpt lat="45.52668" lon="6.72333">
        <ele>2269.94</ele>
        <time>2016-03-20T12:32:31Z</time>
      </trkpt>
      <trkpt lat="45.5265" lon="6.72327">
        <ele>2268.67</ele>
        <time>2016-03-20T12:32:34Z</time>
      </trkpt>
      <trkpt lat="45.52632" lon="6.72346">
        <ele>2263.86</ele>
        <time>2016-03-20T12:32:37Z</time>
      </trkpt>
      <trkpt lat="45.52608" lon="6.72342">
        <ele>2256.95</ele>
        <time>2016-03-20T12:32:41Z</time>
      </trkpt>
      <trkpt lat="45.52583" lon="6.72344">
        <ele>2248.79</ele>
        <time>2016-03-20T12:32:45Z</time>
      </trkpt>
      <trkpt lat="45.52566" lon="6.72354">
        <ele>2239.89</ele>
        <time>2016-03-20T12:32:48Z</time>
      </trkpt>
      <trkpt lat="45.52546" lon="6.7235">
        <ele>2234.11</ele>
        <time>2016-03-20T12:32:50Z</time>
      </trkpt>
      <trkpt lat="45.52526" lon="6.72342">
        <ele>2228.91</ele>
        <time>2016-03-20T12:32:52Z</time>
      </trkpt>
      <trkpt lat="45.52506" lon="6.72349">
        <ele>2225.19</ele>
        <time>2016-03-20T12:32:54Z</time>
      </trkpt>
      <trkpt lat="45.52489" lon="6.72331">
        <ele>2214.88</ele>
        <time>2016-03-20T12:32:58Z</time>
      </trkpt>
      <trkpt lat="45.52471" lon="6.7232">
        <ele>2200.99</ele>
        <time>2016-03-20T12:33:06Z</time>
      </trkpt>
      <trkpt lat="45.52469" lon="6.72294">
        <ele>2184.74</ele>
        <time>2016-03-20T12:34:45Z</time>
      </trkpt>
      <trkpt lat="45.52466" lon="6.72267">
        <ele>2182.52</ele>
        <time>2016-03-20T12:34:58Z</time>
      </trkpt>
      <trkpt lat="45.52459" lon="6.72241">
        <ele>2185.72</ele>
        <time>2016-03-20T12:35:09Z</time>
      </trkpt>
      <trkpt lat="45.52454" lon="6.72217">
        <ele>2184.32</ele>
        <time>2016-03-20T12:35:22Z</time>
      </trkpt>
      <trkpt lat="45.52448" lon="6.72192">
        <ele>2188.28</ele>
        <time>2016-03-20T12:35:33Z</time>
      </trkpt>
      <trkpt lat="45.52442" lon="6.72166">
        <ele>2196.07</ele>
        <time>2016-03-20T12:35:43Z</time>
      </trkpt>
      <trkpt lat="45.52435" lon="6.72138">
        <ele>2208.66</ele>
        <time>2016-03-20T12:35:53Z</time>
      </trkpt>
      <trkpt lat="45.52431" lon="6.72112">
        <ele>2214.33</ele>
        <time>2016-03-20T12:36:06Z</time>
      </trkpt>
      <trkpt lat="45.52425" lon="6.72087">
        <ele>2218.06</ele>
        <time>2016-03-20T12:36:19Z</time>
      </trkpt>
      <trkpt lat="45.52422" lon="6.72059">
        <ele>2219.53</ele>
        <time>2016-03-20T12:36:28Z</time>
      </trkpt>
      <trkpt lat="45.52415" lon="6.72035">
        <ele>2239.48</ele>
        <time>2016-03-20T12:36:44Z</time>
      </trkpt>
      <trkpt lat="45.52404" lon="6.72011">
        <ele>2261.87</ele>
        <time>2016-03-20T12:36:57Z</time>
      </trkpt>
      <trkpt lat="45.52396" lon="6.71985">
        <ele>2276.28</ele>
        <time>2016-03-20T12:37:12Z</time>
      </trkpt>
      <trkpt lat="45.5239" lon="6.7196">
        <ele>2282.48</ele>
        <time>2016-03-20T12:37:22Z</time>
      </trkpt>
      <trkpt lat="45.52384" lon="6.71934">
        <ele>2288.32</ele>
        <time>2016-03-20T12:37:32Z</time>
      </trkpt>
      <trkpt lat="45.52379" lon="6.71909">
        <ele>2295.48</ele>
        <time>2016-03-20T12:37:43Z</time>
      </trkpt>
      <trkpt lat="45.52371" lon="6.71885">
        <ele>2300.48</ele>
        <time>2016-03-20T12:37:57Z</time>
      </trkpt>
      <trkpt lat="45.52365" lon="6.7186">
        <ele>2306.32</ele>
        <time>2016-03-20T12:38:08Z</time>
      </trkpt>
      <trkpt lat="45.5236" lon="6.71833">
        <ele>2311.29</ele>
        <time>2016-03-20T12:38:19Z</time>
      </trkpt>
      <trkpt lat="45.52355" lon="6.71807">
        <ele>2316.32</ele>
        <time>2016-03-20T12:38:30Z</time>
      </trkpt>
      <trkpt lat="45.5235" lon="6.71783">
        <ele>2323.31</ele>
        <time>2016-03-20T12:38:41Z</time>
      </trkpt>
      <trkpt lat="45.52344" lon="6.71757">
        <ele>2326.32</ele>
        <time>2016-03-20T12:38:52Z</time>
      </trkpt>
      <trkpt lat="45.52336" lon="6.71732">
        <ele>2332.48</ele>
        <time>2016-03-20T12:39:04Z</time>
      </trkpt>
      <trkpt lat="45.52332" lon="6.71706">
        <ele>2338.52</ele>
        <time>2016-03-20T12:39:17Z</time>
      </trkpt>
      <trkpt lat="45.52326" lon="6.71681">
        <ele>2342.33</ele>
        <time>2016-03-20T12:39:27Z</time>
      </trkpt>
      <trkpt lat="45.52318" lon="6.71655">
        <ele>2344.53</ele>
        <time>2016-03-20T12:39:41Z</time>
      </trkpt>
      <trkpt lat="45.52308" lon="6.71632">
        <ele>2343.52</ele>
        <time>2016-03-20T12:39:55Z</time>
      </trkpt>
      <trkpt lat="45.52291" lon="6.71618">
        <ele>2338.78</ele>
        <time>2016-03-20T12:42:05Z</time>
      </trkpt>
      <trkpt lat="45.52278" lon="6.71597">
        <ele>2337.7</ele>
        <time>2016-03-20T12:42:08Z</time>
      </trkpt>
      <trkpt lat="45.52264" lon="6.71578">
        <ele>2332.1</ele>
        <time>2016-03-20T12:42:10Z</time>
      </trkpt>
      <trkpt lat="45.52246" lon="6.71555">
        <ele>2326.11</ele>
        <time>2016-03-20T12:42:12Z</time>
      </trkpt>
      <trkpt lat="45.52231" lon="6.71532">
        <ele>2324.59</ele>
        <time>2016-03-20T12:42:14Z</time>
      </trkpt>
      <trkpt lat="45.52213" lon="6.71507">
        <ele>2325.36</ele>
        <time>2016-03-20T12:42:17Z</time>
      </trkpt>
      <trkpt lat="45.52199" lon="6.71486">
        <ele>2324.54</ele>
        <time>2016-03-20T12:42:20Z</time>
      </trkpt>
      <trkpt lat="45.52186" lon="6.71465">
        <ele>2323.57</ele>
        <time>2016-03-20T12:42:23Z</time>
      </trkpt>
      <trkpt lat="45.52173" lon="6.71443">
        <ele>2323.72</ele>
        <time>2016-03-20T12:42:27Z</time>
      </trkpt>
      <trkpt lat="45.5216" lon="6.7142">
        <ele>2321.73</ele>
        <time>2016-03-20T12:42:32Z</time>
      </trkpt>
      <trkpt lat="45.52149" lon="6.71395">
        <ele>2316.57</ele>
        <time>2016-03-20T12:42:37Z</time>
      </trkpt>
      <trkpt lat="45.52146" lon="6.71369">
        <ele>2314.77</ele>
        <time>2016-03-20T12:42:39Z</time>
      </trkpt>
      <trkpt lat="45.52144" lon="6.71334">
        <ele>2306.08</ele>
        <time>2016-03-20T12:42:42Z</time>
      </trkpt>
      <trkpt lat="45.52145" lon="6.71304">
        <ele>2303.79</ele>
        <time>2016-03-20T12:42:44Z</time>
      </trkpt>
      <trkpt lat="45.52142" lon="6.71266">
        <ele>2299.98</ele>
        <time>2016-03-20T12:42:47Z</time>
      </trkpt>
      <trkpt lat="45.52137" lon="6.71237">
        <ele>2297.79</ele>
        <time>2016-03-20T12:42:49Z</time>
      </trkpt>
      <trkpt lat="45.52136" lon="6.71211">
        <ele>2294.98</ele>
        <time>2016-03-20T12:42:51Z</time>
      </trkpt>
      <trkpt lat="45.5213" lon="6.71185">
        <ele>2294.39</ele>
        <time>2016-03-20T12:42:53Z</time>
      </trkpt>
      <trkpt lat="45.52126" lon="6.71154">
        <ele>2291.97</ele>
        <time>2016-03-20T12:42:55Z</time>
      </trkpt>
      <trkpt lat="45.52116" lon="6.71133">
        <ele>2288.03</ele>
        <time>2016-03-20T12:42:57Z</time>
      </trkpt>
      <trkpt lat="45.52111" lon="6.71103">
        <ele>2285.79</ele>
        <time>2016-03-20T12:42:59Z</time>
      </trkpt>
      <trkpt lat="45.52093" lon="6.71076">
        <ele>2282.82</ele>
        <time>2016-03-20T12:43:01Z</time>
      </trkpt>
      <trkpt lat="45.52077" lon="6.7105">
        <ele>2281.74</ele>
        <time>2016-03-20T12:43:03Z</time>
      </trkpt>
      <trkpt lat="45.52058" lon="6.71039">
        <ele>2281.57</ele>
        <time>2016-03-20T12:43:04Z</time>
      </trkpt>
      <trkpt lat="45.5203" lon="6.71022">
        <ele>2274.49</ele>
        <time>2016-03-20T12:43:06Z</time>
      </trkpt>
      <trkpt lat="45.52001" lon="6.71009">
        <ele>2270.05</ele>
        <time>2016-03-20T12:43:08Z</time>
      </trkpt>
      <trkpt lat="45.51979" lon="6.70994">
        <ele>2265.07</ele>
        <time>2016-03-20T12:43:10Z</time>
      </trkpt>
      <trkpt lat="45.51953" lon="6.70978">
        <ele>2261.83</ele>
        <time>2016-03-20T12:43:12Z</time>
      </trkpt>
      <trkpt lat="45.51925" lon="6.70967">
        <ele>2255.3</ele>
        <time>2016-03-20T12:43:14Z</time>
      </trkpt>
      <trkpt lat="45.51899" lon="6.70945">
        <ele>2251.04</ele>
        <time>2016-03-20T12:43:16Z</time>
      </trkpt>
      <trkpt lat="45.51876" lon="6.70923">
        <ele>2244.63</ele>
        <time>2016-03-20T12:43:18Z</time>
      </trkpt>
      <trkpt lat="45.51848" lon="6.70907">
        <ele>2240.05</ele>
        <time>2016-03-20T12:43:20Z</time>
      </trkpt>
      <trkpt lat="45.51821" lon="6.70896">
        <ele>2235.23</ele>
        <time>2016-03-20T12:43:22Z</time>
      </trkpt>
      <trkpt lat="45.51797" lon="6.70876">
        <ele>2232</ele>
        <time>2016-03-20T12:43:24Z</time>
      </trkpt>
      <trkpt lat="45.51773" lon="6.70874">
        <ele>2223.98</ele>
        <time>2016-03-20T12:43:27Z</time>
      </trkpt>
      <trkpt lat="45.51752" lon="6.70864">
        <ele>2218.78</ele>
        <time>2016-03-20T12:43:31Z</time>
      </trkpt>
      <trkpt lat="45.51729" lon="6.70853">
        <ele>2215.77</ele>
        <time>2016-03-20T12:43:35Z</time>
      </trkpt>
      <trkpt lat="45.51702" lon="6.70849">
        <ele>2208.24</ele>
        <time>2016-03-20T12:43:38Z</time>
      </trkpt>
      <trkpt lat="45.51684" lon="6.70845">
        <ele>2204.2</ele>
        <time>2016-03-20T12:43:40Z</time>
      </trkpt>
      <trkpt lat="45.51664" lon="6.70838">
        <ele>2201.94</ele>
        <time>2016-03-20T12:43:43Z</time>
      </trkpt>
      <trkpt lat="45.51643" lon="6.70835">
        <ele>2197.54</ele>
        <time>2016-03-20T12:43:48Z</time>
      </trkpt>
      <trkpt lat="45.51622" lon="6.70832">
        <ele>2195.58</ele>
        <time>2016-03-20T12:43:53Z</time>
      </trkpt>
      <trkpt lat="45.51603" lon="6.70826">
        <ele>2188</ele>
        <time>2016-03-20T12:43:59Z</time>
      </trkpt>
      <trkpt lat="45.51585" lon="6.70821">
        <ele>2185.61</ele>
        <time>2016-03-20T12:44:27Z</time>
      </trkpt>
      <trkpt lat="45.51567" lon="6.7083">
        <ele>2184.57</ele>
        <time>2016-03-20T12:44:32Z</time>
      </trkpt>
      <trkpt lat="45.51542" lon="6.70832">
        <ele>2180.95</ele>
        <time>2016-03-20T12:44:35Z</time>
      </trkpt>
      <trkpt lat="45.51521" lon="6.70832">
        <ele>2177.35</ele>
        <time>2016-03-20T12:44:37Z</time>
      </trkpt>
      <trkpt lat="45.51499" lon="6.70832">
        <ele>2174</ele>
        <time>2016-03-20T12:44:39Z</time>
      </trkpt>
      <trkpt lat="45.51471" lon="6.70832">
        <ele>2168.43</ele>
        <time>2016-03-20T12:44:41Z</time>
      </trkpt>
      <trkpt lat="45.51446" lon="6.70825">
        <ele>2164.85</ele>
        <time>2016-03-20T12:44:43Z</time>
      </trkpt>
      <trkpt lat="45.51425" lon="6.70817">
        <ele>2161.98</ele>
        <time>2016-03-20T12:44:45Z</time>
      </trkpt>
      <trkpt lat="45.51404" lon="6.70801">
        <ele>2158.78</ele>
        <time>2016-03-20T12:44:48Z</time>
      </trkpt>
      <trkpt lat="45.51384" lon="6.70791">
        <ele>2158.54</ele>
        <time>2016-03-20T12:44:54Z</time>
      </trkpt>
      <trkpt lat="45.51362" lon="6.70788">
        <ele>2154.75</ele>
        <time>2016-03-20T12:44:59Z</time>
      </trkpt>
      <trkpt lat="45.51339" lon="6.70781">
        <ele>2153.76</ele>
        <time>2016-03-20T12:45:02Z</time>
      </trkpt>
      <trkpt lat="45.5132" lon="6.70773">
        <ele>2142</ele>
        <time>2016-03-20T12:45:07Z</time>
      </trkpt>
      <trkpt lat="45.51305" lon="6.70754">
        <ele>2138.77</ele>
        <time>2016-03-20T12:45:13Z</time>
      </trkpt>
      <trkpt lat="45.51298" lon="6.70727">
        <ele>2135.58</ele>
        <time>2016-03-20T12:45:17Z</time>
      </trkpt>
      <trkpt lat="45.51283" lon="6.70704">
        <ele>2130.8</ele>
        <time>2016-03-20T12:45:20Z</time>
      </trkpt>
      <trkpt lat="45.51261" lon="6.707">
        <ele>2126.79</ele>
        <time>2016-03-20T12:45:23Z</time>
      </trkpt>
      <trkpt lat="45.51239" lon="6.70709">
        <ele>2126.5</ele>
        <time>2016-03-20T12:45:26Z</time>
      </trkpt>
      <trkpt lat="45.51219" lon="6.70712">
        <ele>2124.93</ele>
        <time>2016-03-20T12:45:28Z</time>
      </trkpt>
      <trkpt lat="45.51197" lon="6.70714">
        <ele>2123.75</ele>
        <time>2016-03-20T12:45:30Z</time>
      </trkpt>
      <trkpt lat="45.51178" lon="6.70706">
        <ele>2120.98</ele>
        <time>2016-03-20T12:45:32Z</time>
      </trkpt>
      <trkpt lat="45.51158" lon="6.70702">
        <ele>2117.03</ele>
        <time>2016-03-20T12:45:34Z</time>
      </trkpt>
      <trkpt lat="45.5114" lon="6.70689">
        <ele>2115.75</ele>
        <time>2016-03-20T12:45:36Z</time>
      </trkpt>
      <trkpt lat="45.51118" lon="6.70674">
        <ele>2109.87</ele>
        <time>2016-03-20T12:45:39Z</time>
      </trkpt>
      <trkpt lat="45.51097" lon="6.70666">
        <ele>2102.46</ele>
        <time>2016-03-20T12:45:42Z</time>
      </trkpt>
      <trkpt lat="45.5109" lon="6.70635">
        <ele>2093.12</ele>
        <time>2016-03-20T12:45:46Z</time>
      </trkpt>
      <trkpt lat="45.51084" lon="6.70609">
        <ele>2088.23</ele>
        <time>2016-03-20T12:45:48Z</time>
      </trkpt>
      <trkpt lat="45.51074" lon="6.70583">
        <ele>2080.05</ele>
        <time>2016-03-20T12:45:51Z</time>
      </trkpt>
      <trkpt lat="45.51068" lon="6.70556">
        <ele>2076.03</ele>
        <time>2016-03-20T12:45:53Z</time>
      </trkpt>
      <trkpt lat="45.5107" lon="6.70522">
        <ele>2070.27</ele>
        <time>2016-03-20T12:45:55Z</time>
      </trkpt>
      <trkpt lat="45.51076" lon="6.70489">
        <ele>2067</ele>
        <time>2016-03-20T12:45:57Z</time>
      </trkpt>
      <trkpt lat="45.51085" lon="6.70454">
        <ele>2065.59</ele>
        <time>2016-03-20T12:45:59Z</time>
      </trkpt>
      <trkpt lat="45.51105" lon="6.7042">
        <ele>2062.97</ele>
        <time>2016-03-20T12:46:01Z</time>
      </trkpt>
      <trkpt lat="45.51113" lon="6.70387">
        <ele>2058.87</ele>
        <time>2016-03-20T12:46:03Z</time>
      </trkpt>
      <trkpt lat="45.51127" lon="6.70366">
        <ele>2055.02</ele>
        <time>2016-03-20T12:46:05Z</time>
      </trkpt>
      <trkpt lat="45.5114" lon="6.70336">
        <ele>2046.98</ele>
        <time>2016-03-20T12:46:08Z</time>
      </trkpt>
      <trkpt lat="45.51153" lon="6.70303">
        <ele>2037.86</ele>
        <time>2016-03-20T12:46:11Z</time>
      </trkpt>
      <trkpt lat="45.51166" lon="6.70284">
        <ele>2030.5</ele>
        <time>2016-03-20T12:46:13Z</time>
      </trkpt>
      <trkpt lat="45.51184" lon="6.70267">
        <ele>2023.33</ele>
        <time>2016-03-20T12:46:15Z</time>
      </trkpt>
      <trkpt lat="45.51196" lon="6.70242">
        <ele>2016.96</ele>
        <time>2016-03-20T12:46:17Z</time>
      </trkpt>
      <trkpt lat="45.51199" lon="6.70205">
        <ele>2010.26</ele>
        <time>2016-03-20T12:46:20Z</time>
      </trkpt>
      <trkpt lat="45.51209" lon="6.70178">
        <ele>2004.44</ele>
        <time>2016-03-20T12:46:22Z</time>
      </trkpt>
      <trkpt lat="45.51221" lon="6.70154">
        <ele>2000.05</ele>
        <time>2016-03-20T12:46:24Z</time>
      </trkpt>
      <trkpt lat="45.51221" lon="6.70128">
        <ele>1985.83</ele>
        <time>2016-03-20T12:46:42Z</time>
      </trkpt>
      <trkpt lat="45.51224" lon="6.70097">
        <ele>1981.82</ele>
        <time>2016-03-20T12:46:45Z</time>
      </trkpt>
      <trkpt lat="45.51225" lon="6.70066">
        <ele>1978.02</ele>
        <time>2016-03-20T12:46:47Z</time>
      </trkpt>
      <trkpt lat="45.51228" lon="6.70036">
        <ele>1973.23</ele>
        <time>2016-03-20T12:46:49Z</time>
      </trkpt>
      <trkpt lat="45.51223" lon="6.70007">
        <ele>1969.04</ele>
        <time>2016-03-20T12:46:51Z</time>
      </trkpt>
      <trkpt lat="45.51221" lon="6.69975">
        <ele>1964.07</ele>
        <time>2016-03-20T12:46:53Z</time>
      </trkpt>
      <trkpt lat="45.51216" lon="6.69944">
        <ele>1959.23</ele>
        <time>2016-03-20T12:46:55Z</time>
      </trkpt>
      <trkpt lat="45.51217" lon="6.69918">
        <ele>1956.8</ele>
        <time>2016-03-20T12:46:57Z</time>
      </trkpt>
      <trkpt lat="45.51213" lon="6.69886">
        <ele>1951</ele>
        <time>2016-03-20T12:47:00Z</time>
      </trkpt>
      <trkpt lat="45.51206" lon="6.69856">
        <ele>1945.18</ele>
        <time>2016-03-20T12:47:04Z</time>
      </trkpt>
      <trkpt lat="45.51202" lon="6.69831">
        <ele>1942.57</ele>
        <time>2016-03-20T12:47:18Z</time>
      </trkpt>
      <trkpt lat="45.51189" lon="6.69811">
        <ele>1939.57</ele>
        <time>2016-03-20T12:47:29Z</time>
      </trkpt>
      <trkpt lat="45.5118" lon="6.69788">
        <ele>1941.53</ele>
        <time>2016-03-20T12:47:44Z</time>
      </trkpt>
      <trkpt lat="45.51162" lon="6.69784">
        <ele>1930.53</ele>
        <time>2016-03-20T12:48:44Z</time>
      </trkpt>
      <trkpt lat="45.51142" lon="6.69776">
        <ele>1930.34</ele>
        <time>2016-03-20T12:48:52Z</time>
      </trkpt>
      <trkpt lat="45.5112" lon="6.69772">
        <ele>1940.07</ele>
        <time>2016-03-20T12:48:57Z</time>
      </trkpt>
      <trkpt lat="45.511" lon="6.69769">
        <ele>1942.28</ele>
        <time>2016-03-20T12:49:02Z</time>
      </trkpt>
      <trkpt lat="45.51079" lon="6.69764">
        <ele>1947.24</ele>
        <time>2016-03-20T12:49:07Z</time>
      </trkpt>
      <trkpt lat="45.51059" lon="6.6976">
        <ele>1954.71</ele>
        <time>2016-03-20T12:49:12Z</time>
      </trkpt>
      <trkpt lat="45.5104" lon="6.69751">
        <ele>1965.46</ele>
        <time>2016-03-20T12:49:17Z</time>
      </trkpt>
      <trkpt lat="45.51023" lon="6.69741">
        <ele>1976.79</ele>
        <time>2016-03-20T12:49:21Z</time>
      </trkpt>
      <trkpt lat="45.51004" lon="6.69733">
        <ele>1988.57</ele>
        <time>2016-03-20T12:49:27Z</time>
      </trkpt>
      <trkpt lat="45.50983" lon="6.69726">
        <ele>1999.75</ele>
        <time>2016-03-20T12:49:32Z</time>
      </trkpt>
      <trkpt lat="45.50965" lon="6.69721">
        <ele>2005.17</ele>
        <time>2016-03-20T12:49:37Z</time>
      </trkpt>
      <trkpt lat="45.50946" lon="6.69715">
        <ele>2011.43</ele>
        <time>2016-03-20T12:49:42Z</time>
      </trkpt>
      <trkpt lat="45.50928" lon="6.69709">
        <ele>2019.26</ele>
        <time>2016-03-20T12:49:47Z</time>
      </trkpt>
      <trkpt lat="45.50909" lon="6.69707">
        <ele>2023.95</ele>
        <time>2016-03-20T12:49:52Z</time>
      </trkpt>
      <trkpt lat="45.5089" lon="6.69702">
        <ele>2032.96</ele>
        <time>2016-03-20T12:49:57Z</time>
      </trkpt>
      <trkpt lat="45.50872" lon="6.69698">
        <ele>2051.23</ele>
        <time>2016-03-20T12:50:03Z</time>
      </trkpt>
      <trkpt lat="45.50851" lon="6.6969">
        <ele>2064.02</ele>
        <time>2016-03-20T12:50:09Z</time>
      </trkpt>
      <trkpt lat="45.50833" lon="6.69682">
        <ele>2074.67</ele>
        <time>2016-03-20T12:50:14Z</time>
      </trkpt>
      <trkpt lat="45.50815" lon="6.69679">
        <ele>2083.3</ele>
        <time>2016-03-20T12:50:19Z</time>
      </trkpt>
      <trkpt lat="45.50797" lon="6.69673">
        <ele>2086.32</ele>
        <time>2016-03-20T12:50:24Z</time>
      </trkpt>
      <trkpt lat="45.50777" lon="6.69667">
        <ele>2090.08</ele>
        <time>2016-03-20T12:50:29Z</time>
      </trkpt>
      <trkpt lat="45.50758" lon="6.69661">
        <ele>2095.28</ele>
        <time>2016-03-20T12:50:34Z</time>
      </trkpt>
      <trkpt lat="45.50739" lon="6.69655">
        <ele>2099.3</ele>
        <time>2016-03-20T12:50:39Z</time>
      </trkpt>
      <trkpt lat="45.50719" lon="6.69649">
        <ele>2102.29</ele>
        <time>2016-03-20T12:50:44Z</time>
      </trkpt>
      <trkpt lat="45.507" lon="6.69644">
        <ele>2105.29</ele>
        <time>2016-03-20T12:50:49Z</time>
      </trkpt>
      <trkpt lat="45.5068" lon="6.69637">
        <ele>2108.29</ele>
        <time>2016-03-20T12:50:54Z</time>
      </trkpt>
      <trkpt lat="45.5066" lon="6.69632">
        <ele>2111.28</ele>
        <time>2016-03-20T12:50:59Z</time>
      </trkpt>
      <trkpt lat="45.50641" lon="6.69625">
        <ele>2115.32</ele>
        <time>2016-03-20T12:51:04Z</time>
      </trkpt>
      <trkpt lat="45.50622" lon="6.69622">
        <ele>2115.72</ele>
        <time>2016-03-20T12:51:09Z</time>
      </trkpt>
      <trkpt lat="45.50601" lon="6.69614">
        <ele>2115.36</ele>
        <time>2016-03-20T12:51:14Z</time>
      </trkpt>
      <trkpt lat="45.50581" lon="6.69608">
        <ele>2116.49</ele>
        <time>2016-03-20T12:51:19Z</time>
      </trkpt>
      <trkpt lat="45.50561" lon="6.69601">
        <ele>2120.29</ele>
        <time>2016-03-20T12:51:24Z</time>
      </trkpt>
      <trkpt lat="45.50541" lon="6.69595">
        <ele>2119.57</ele>
        <time>2016-03-20T12:51:29Z</time>
      </trkpt>
      <trkpt lat="45.50523" lon="6.69591">
        <ele>2117.89</ele>
        <time>2016-03-20T12:51:34Z</time>
      </trkpt>
      <trkpt lat="45.50503" lon="6.69586">
        <ele>2120.29</ele>
        <time>2016-03-20T12:51:39Z</time>
      </trkpt>
      <trkpt lat="45.50483" lon="6.69577">
        <ele>2120.69</ele>
        <time>2016-03-20T12:51:44Z</time>
      </trkpt>
      <trkpt lat="45.50463" lon="6.6957">
        <ele>2122.49</ele>
        <time>2016-03-20T12:51:49Z</time>
      </trkpt>
      <trkpt lat="45.50444" lon="6.69563">
        <ele>2124.29</ele>
        <time>2016-03-20T12:51:54Z</time>
      </trkpt>
      <trkpt lat="45.50424" lon="6.69557">
        <ele>2130.08</ele>
        <time>2016-03-20T12:51:59Z</time>
      </trkpt>
      <trkpt lat="45.50404" lon="6.69552">
        <ele>2131.37</ele>
        <time>2016-03-20T12:52:04Z</time>
      </trkpt>
      <trkpt lat="45.50385" lon="6.69543">
        <ele>2137.24</ele>
        <time>2016-03-20T12:52:09Z</time>
      </trkpt>
      <trkpt lat="45.50366" lon="6.69538">
        <ele>2136.53</ele>
        <time>2016-03-20T12:52:14Z</time>
      </trkpt>
      <trkpt lat="45.50345" lon="6.69534">
        <ele>2136.5</ele>
        <time>2016-03-20T12:52:19Z</time>
      </trkpt>
      <trkpt lat="45.50327" lon="6.6953">
        <ele>2135.55</ele>
        <time>2016-03-20T12:52:24Z</time>
      </trkpt>
      <trkpt lat="45.50306" lon="6.69523">
        <ele>2139.28</ele>
        <time>2016-03-20T12:52:29Z</time>
      </trkpt>
      <trkpt lat="45.50286" lon="6.69517">
        <ele>2140.49</ele>
        <time>2016-03-20T12:52:34Z</time>
      </trkpt>
      <trkpt lat="45.50266" lon="6.69511">
        <ele>2141.54</ele>
        <time>2016-03-20T12:52:39Z</time>
      </trkpt>
      <trkpt lat="45.50246" lon="6.69503">
        <ele>2146.48</ele>
        <time>2016-03-20T12:52:44Z</time>
      </trkpt>
      <trkpt lat="45.50226" lon="6.69495">
        <ele>2152.04</ele>
        <time>2016-03-20T12:52:49Z</time>
      </trkpt>
      <trkpt lat="45.50206" lon="6.69489">
        <ele>2156.28</ele>
        <time>2016-03-20T12:52:54Z</time>
      </trkpt>
      <trkpt lat="45.50186" lon="6.69483">
        <ele>2161.29</ele>
        <time>2016-03-20T12:52:59Z</time>
      </trkpt>
      <trkpt lat="45.50168" lon="6.69477">
        <ele>2165.28</ele>
        <time>2016-03-20T12:53:04Z</time>
      </trkpt>
      <trkpt lat="45.50148" lon="6.69472">
        <ele>2171.24</ele>
        <time>2016-03-20T12:53:09Z</time>
      </trkpt>
      <trkpt lat="45.50128" lon="6.69467">
        <ele>2176.08</ele>
        <time>2016-03-20T12:53:14Z</time>
      </trkpt>
      <trkpt lat="45.50109" lon="6.69461">
        <ele>2179.31</ele>
        <time>2016-03-20T12:53:19Z</time>
      </trkpt>
      <trkpt lat="45.5009" lon="6.69455">
        <ele>2183.24</ele>
        <time>2016-03-20T12:53:24Z</time>
      </trkpt>
      <trkpt lat="45.50071" lon="6.69448">
        <ele>2189.28</ele>
        <time>2016-03-20T12:53:29Z</time>
      </trkpt>
      <trkpt lat="45.50053" lon="6.69442">
        <ele>2194.31</ele>
        <time>2016-03-20T12:53:34Z</time>
      </trkpt>
      <trkpt lat="45.50034" lon="6.69436">
        <ele>2197.52</ele>
        <time>2016-03-20T12:53:39Z</time>
      </trkpt>
      <trkpt lat="45.50015" lon="6.6943">
        <ele>2200.48</ele>
        <time>2016-03-20T12:53:44Z</time>
      </trkpt>
      <trkpt lat="45.49995" lon="6.69425">
        <ele>2203.32</ele>
        <time>2016-03-20T12:53:49Z</time>
      </trkpt>
      <trkpt lat="45.49975" lon="6.69419">
        <ele>2208.12</ele>
        <time>2016-03-20T12:53:54Z</time>
      </trkpt>
      <trkpt lat="45.49956" lon="6.69413">
        <ele>2215.07</ele>
        <time>2016-03-20T12:53:59Z</time>
      </trkpt>
      <trkpt lat="45.49937" lon="6.69408">
        <ele>2218.16</ele>
        <time>2016-03-20T12:54:04Z</time>
      </trkpt>
      <trkpt lat="45.49918" lon="6.69403">
        <ele>2224.24</ele>
        <time>2016-03-20T12:54:09Z</time>
      </trkpt>
      <trkpt lat="45.49899" lon="6.69397">
        <ele>2229.5</ele>
        <time>2016-03-20T12:54:14Z</time>
      </trkpt>
      <trkpt lat="45.49879" lon="6.69391">
        <ele>2233.28</ele>
        <time>2016-03-20T12:54:19Z</time>
      </trkpt>
      <trkpt lat="45.4986" lon="6.69386">
        <ele>2235.13</ele>
        <time>2016-03-20T12:54:24Z</time>
      </trkpt>
      <trkpt lat="45.4984" lon="6.69379">
        <ele>2238.48</ele>
        <time>2016-03-20T12:54:29Z</time>
      </trkpt>
      <trkpt lat="45.49821" lon="6.69377">
        <ele>2245.27</ele>
        <time>2016-03-20T12:54:34Z</time>
      </trkpt>
      <trkpt lat="45.49802" lon="6.69371">
        <ele>2243.73</ele>
        <time>2016-03-20T12:54:42Z</time>
      </trkpt>
      <trkpt lat="45.49786" lon="6.69361">
        <ele>2243.34</ele>
        <time>2016-03-20T12:54:51Z</time>
      </trkpt>
      <trkpt lat="45.49769" lon="6.6935">
        <ele>2246.57</ele>
        <time>2016-03-20T12:55:16Z</time>
      </trkpt>
      <trkpt lat="45.49754" lon="6.69332">
        <ele>2243.62</ele>
        <time>2016-03-20T12:55:21Z</time>
      </trkpt>
      <trkpt lat="45.49746" lon="6.69307">
        <ele>2239.98</ele>
        <time>2016-03-20T12:55:24Z</time>
      </trkpt>
      <trkpt lat="45.49748" lon="6.69274">
        <ele>2238.73</ele>
        <time>2016-03-20T12:55:27Z</time>
      </trkpt>
      <trkpt lat="45.49758" lon="6.69246">
        <ele>2237.73</ele>
        <time>2016-03-20T12:55:30Z</time>
      </trkpt>
      <trkpt lat="45.49774" lon="6.69222">
        <ele>2233.56</ele>
        <time>2016-03-20T12:55:34Z</time>
      </trkpt>
      <trkpt lat="45.4979" lon="6.69206">
        <ele>2227.02</ele>
        <time>2016-03-20T12:55:38Z</time>
      </trkpt>
      <trkpt lat="45.49811" lon="6.6919">
        <ele>2222.74</ele>
        <time>2016-03-20T12:55:42Z</time>
      </trkpt>
      <trkpt lat="45.4983" lon="6.69177">
        <ele>2221.54</ele>
        <time>2016-03-20T12:55:45Z</time>
      </trkpt>
      <trkpt lat="45.49848" lon="6.69166">
        <ele>2217.82</ele>
        <time>2016-03-20T12:55:48Z</time>
      </trkpt>
      <trkpt lat="45.49865" lon="6.69155">
        <ele>2216.73</ele>
        <time>2016-03-20T12:55:51Z</time>
      </trkpt>
      <trkpt lat="45.49883" lon="6.69137">
        <ele>2213.74</ele>
        <time>2016-03-20T12:55:55Z</time>
      </trkpt>
      <trkpt lat="45.49899" lon="6.69119">
        <ele>2210.58</ele>
        <time>2016-03-20T12:55:59Z</time>
      </trkpt>
      <trkpt lat="45.49913" lon="6.69103">
        <ele>2209.54</ele>
        <time>2016-03-20T12:56:02Z</time>
      </trkpt>
      <trkpt lat="45.49933" lon="6.69089">
        <ele>2207.93</ele>
        <time>2016-03-20T12:56:05Z</time>
      </trkpt>
      <trkpt lat="45.49952" lon="6.69072">
        <ele>2205.58</ele>
        <time>2016-03-20T12:56:08Z</time>
      </trkpt>
      <trkpt lat="45.4997" lon="6.69062">
        <ele>2209.75</ele>
        <time>2016-03-20T12:56:12Z</time>
      </trkpt>
      <trkpt lat="45.49993" lon="6.69067">
        <ele>2205.78</ele>
        <time>2016-03-20T12:56:16Z</time>
      </trkpt>
      <trkpt lat="45.50018" lon="6.69073">
        <ele>2202.78</ele>
        <time>2016-03-20T12:56:19Z</time>
      </trkpt>
      <trkpt lat="45.50041" lon="6.69082">
        <ele>2200.78</ele>
        <time>2016-03-20T12:56:21Z</time>
      </trkpt>
      <trkpt lat="45.50065" lon="6.69081">
        <ele>2198.78</ele>
        <time>2016-03-20T12:56:23Z</time>
      </trkpt>
      <trkpt lat="45.50084" lon="6.69078">
        <ele>2196.94</ele>
        <time>2016-03-20T12:56:25Z</time>
      </trkpt>
      <trkpt lat="45.501" lon="6.69065">
        <ele>2193.83</ele>
        <time>2016-03-20T12:56:27Z</time>
      </trkpt>
      <trkpt lat="45.50112" lon="6.69046">
        <ele>2184.42</ele>
        <time>2016-03-20T12:56:29Z</time>
      </trkpt>
      <trkpt lat="45.5013" lon="6.69024">
        <ele>2177.17</ele>
        <time>2016-03-20T12:56:31Z</time>
      </trkpt>
      <trkpt lat="45.50153" lon="6.69">
        <ele>2173.78</ele>
        <time>2016-03-20T12:56:34Z</time>
      </trkpt>
      <trkpt lat="45.50166" lon="6.6898">
        <ele>2170.82</ele>
        <time>2016-03-20T12:56:36Z</time>
      </trkpt>
      <trkpt lat="45.50181" lon="6.68959">
        <ele>2170.54</ele>
        <time>2016-03-20T12:56:38Z</time>
      </trkpt>
      <trkpt lat="45.50186" lon="6.68933">
        <ele>2170.37</ele>
        <time>2016-03-20T12:56:40Z</time>
      </trkpt>
      <trkpt lat="45.50201" lon="6.68916">
        <ele>2165.08</ele>
        <time>2016-03-20T12:56:42Z</time>
      </trkpt>
      <trkpt lat="45.50216" lon="6.68887">
        <ele>2159.19</ele>
        <time>2016-03-20T12:56:45Z</time>
      </trkpt>
      <trkpt lat="45.50225" lon="6.68864">
        <ele>2157.76</ele>
        <time>2016-03-20T12:56:47Z</time>
      </trkpt>
      <trkpt lat="45.50234" lon="6.68842">
        <ele>2154.82</ele>
        <time>2016-03-20T12:56:49Z</time>
      </trkpt>
      <trkpt lat="45.50246" lon="6.68822">
        <ele>2153.74</ele>
        <time>2016-03-20T12:56:51Z</time>
      </trkpt>
      <trkpt lat="45.50253" lon="6.68795">
        <ele>2151.77</ele>
        <time>2016-03-20T12:56:54Z</time>
      </trkpt>
      <trkpt lat="45.50273" lon="6.68773">
        <ele>2148.62</ele>
        <time>2016-03-20T12:56:58Z</time>
      </trkpt>
      <trkpt lat="45.50289" lon="6.68755">
        <ele>2145.81</ele>
        <time>2016-03-20T12:57:00Z</time>
      </trkpt>
      <trkpt lat="45.50299" lon="6.6873">
        <ele>2143.94</ele>
        <time>2016-03-20T12:57:02Z</time>
      </trkpt>
      <trkpt lat="45.50315" lon="6.68707">
        <ele>2139.23</ele>
        <time>2016-03-20T12:57:04Z</time>
      </trkpt>
      <trkpt lat="45.50328" lon="6.6868">
        <ele>2136.8</ele>
        <time>2016-03-20T12:57:06Z</time>
      </trkpt>
      <trkpt lat="45.50344" lon="6.68658">
        <ele>2133.82</ele>
        <time>2016-03-20T12:57:08Z</time>
      </trkpt>
      <trkpt lat="45.50358" lon="6.68638">
        <ele>2129.79</ele>
        <time>2016-03-20T12:57:11Z</time>
      </trkpt>
      <trkpt lat="45.50364" lon="6.68611">
        <ele>2130.53</ele>
        <time>2016-03-20T12:57:14Z</time>
      </trkpt>
      <trkpt lat="45.5037" lon="6.68584">
        <ele>2123.03</ele>
        <time>2016-03-20T12:57:18Z</time>
      </trkpt>
      <trkpt lat="45.50377" lon="6.68558">
        <ele>2119.33</ele>
        <time>2016-03-20T12:57:21Z</time>
      </trkpt>
      <trkpt lat="45.50391" lon="6.6854">
        <ele>2113.28</ele>
        <time>2016-03-20T12:57:23Z</time>
      </trkpt>
      <trkpt lat="45.504" lon="6.68504">
        <ele>2108.82</ele>
        <time>2016-03-20T12:57:26Z</time>
      </trkpt>
      <trkpt lat="45.50407" lon="6.68474">
        <ele>2107.73</ele>
        <time>2016-03-20T12:57:29Z</time>
      </trkpt>
      <trkpt lat="45.50414" lon="6.68447">
        <ele>2106.54</ele>
        <time>2016-03-20T12:57:32Z</time>
      </trkpt>
      <trkpt lat="45.50418" lon="6.6842">
        <ele>2104.74</ele>
        <time>2016-03-20T12:57:35Z</time>
      </trkpt>
      <trkpt lat="45.50415" lon="6.68391">
        <ele>2106.13</ele>
        <time>2016-03-20T12:57:38Z</time>
      </trkpt>
      <trkpt lat="45.50405" lon="6.68366">
        <ele>2103.68</ele>
        <time>2016-03-20T12:57:41Z</time>
      </trkpt>
      <trkpt lat="45.50386" lon="6.6835">
        <ele>2100.46</ele>
        <time>2016-03-20T12:57:44Z</time>
      </trkpt>
      <trkpt lat="45.50375" lon="6.68322">
        <ele>2097.62</ele>
        <time>2016-03-20T12:57:47Z</time>
      </trkpt>
      <trkpt lat="45.50369" lon="6.68294">
        <ele>2095.45</ele>
        <time>2016-03-20T12:57:49Z</time>
      </trkpt>
      <trkpt lat="45.50365" lon="6.68265">
        <ele>2093.77</ele>
        <time>2016-03-20T12:57:51Z</time>
      </trkpt>
      <trkpt lat="45.5036" lon="6.68235">
        <ele>2093.38</ele>
        <time>2016-03-20T12:57:53Z</time>
      </trkpt>
      <trkpt lat="45.5035" lon="6.68209">
        <ele>2090.17</ele>
        <time>2016-03-20T12:57:55Z</time>
      </trkpt>
      <trkpt lat="45.50348" lon="6.68179">
        <ele>2086.2</ele>
        <time>2016-03-20T12:57:57Z</time>
      </trkpt>
      <trkpt lat="45.50342" lon="6.6815">
        <ele>2080.92</ele>
        <time>2016-03-20T12:57:59Z</time>
      </trkpt>
      <trkpt lat="45.50334" lon="6.68125">
        <ele>2075.91</ele>
        <time>2016-03-20T12:58:01Z</time>
      </trkpt>
      <trkpt lat="45.50336" lon="6.68097">
        <ele>2073.95</ele>
        <time>2016-03-20T12:58:03Z</time>
      </trkpt>
      <trkpt lat="45.50343" lon="6.68067">
        <ele>2070.83</ele>
        <time>2016-03-20T12:58:05Z</time>
      </trkpt>
      <trkpt lat="45.50349" lon="6.68033">
        <ele>2064.9</ele>
        <time>2016-03-20T12:58:08Z</time>
      </trkpt>
      <trkpt lat="45.50357" lon="6.68003">
        <ele>2061.59</ele>
        <time>2016-03-20T12:58:11Z</time>
      </trkpt>
      <trkpt lat="45.50363" lon="6.67976">
        <ele>2057.82</ele>
        <time>2016-03-20T12:58:14Z</time>
      </trkpt>
      <trkpt lat="45.50375" lon="6.67955">
        <ele>2047.09</ele>
        <time>2016-03-20T12:58:18Z</time>
      </trkpt>
      <trkpt lat="45.50372" lon="6.67925">
        <ele>2031.79</ele>
        <time>2016-03-20T12:58:30Z</time>
      </trkpt>
      <trkpt lat="45.50377" lon="6.6789">
        <ele>2029.58</ele>
        <time>2016-03-20T12:58:33Z</time>
      </trkpt>
      <trkpt lat="45.50386" lon="6.67868">
        <ele>2026.97</ele>
        <time>2016-03-20T12:58:35Z</time>
      </trkpt>
      <trkpt lat="45.50391" lon="6.67833">
        <ele>2021.99</ele>
        <time>2016-03-20T12:58:38Z</time>
      </trkpt>
      <trkpt lat="45.50403" lon="6.67803">
        <ele>2019.74</ele>
        <time>2016-03-20T12:58:41Z</time>
      </trkpt>
      <trkpt lat="45.50408" lon="6.67775">
        <ele>2015.79</ele>
        <time>2016-03-20T12:58:44Z</time>
      </trkpt>
      <trkpt lat="45.50412" lon="6.67749">
        <ele>2004.73</ele>
        <time>2016-03-20T12:58:49Z</time>
      </trkpt>
      <trkpt lat="45.50418" lon="6.67724">
        <ele>1996.56</ele>
        <time>2016-03-20T12:59:02Z</time>
      </trkpt>
      <trkpt lat="45.50432" lon="6.67742">
        <ele>1989.5</ele>
        <time>2016-03-20T13:01:52Z</time>
      </trkpt>
      <trkpt lat="45.50445" lon="6.6776">
        <ele>1987.78</ele>
        <time>2016-03-20T13:02:01Z</time>
      </trkpt>
      <trkpt lat="45.50459" lon="6.67778">
        <ele>1983.61</ele>
        <time>2016-03-20T13:02:07Z</time>
      </trkpt>
      <trkpt lat="45.50474" lon="6.67802">
        <ele>1983.33</ele>
        <time>2016-03-20T13:02:12Z</time>
      </trkpt>
      <trkpt lat="45.50492" lon="6.67812">
        <ele>1982.41</ele>
        <time>2016-03-20T13:02:15Z</time>
      </trkpt>
      <trkpt lat="45.50511" lon="6.67825">
        <ele>1980.77</ele>
        <time>2016-03-20T13:02:18Z</time>
      </trkpt>
      <trkpt lat="45.5053" lon="6.67845">
        <ele>1979.73</ele>
        <time>2016-03-20T13:02:21Z</time>
      </trkpt>
      <trkpt lat="45.50549" lon="6.67867">
        <ele>1979.53</ele>
        <time>2016-03-20T13:02:24Z</time>
      </trkpt>
      <trkpt lat="45.50574" lon="6.67877">
        <ele>1977.77</ele>
        <time>2016-03-20T13:02:27Z</time>
      </trkpt>
      <trkpt lat="45.50594" lon="6.67887">
        <ele>1977.53</ele>
        <time>2016-03-20T13:02:30Z</time>
      </trkpt>
      <trkpt lat="45.50614" lon="6.67899">
        <ele>1975.74</ele>
        <time>2016-03-20T13:02:33Z</time>
      </trkpt>
      <trkpt lat="45.50633" lon="6.67902">
        <ele>1972.97</ele>
        <time>2016-03-20T13:02:36Z</time>
      </trkpt>
      <trkpt lat="45.50654" lon="6.67914">
        <ele>1970.77</ele>
        <time>2016-03-20T13:02:39Z</time>
      </trkpt>
      <trkpt lat="45.50674" lon="6.67926">
        <ele>1966.98</ele>
        <time>2016-03-20T13:02:42Z</time>
      </trkpt>
      <trkpt lat="45.5069" lon="6.67938">
        <ele>1966.73</ele>
        <time>2016-03-20T13:02:45Z</time>
      </trkpt>
      <trkpt lat="45.5071" lon="6.67958">
        <ele>1964.58</ele>
        <time>2016-03-20T13:02:49Z</time>
      </trkpt>
      <trkpt lat="45.50729" lon="6.67979">
        <ele>1960.82</ele>
        <time>2016-03-20T13:02:52Z</time>
      </trkpt>
      <trkpt lat="45.5075" lon="6.67992">
        <ele>1951.8</ele>
        <time>2016-03-20T13:02:56Z</time>
      </trkpt>
      <trkpt lat="45.50767" lon="6.68005">
        <ele>1951.53</ele>
        <time>2016-03-20T13:02:59Z</time>
      </trkpt>
      <trkpt lat="45.50784" lon="6.68028">
        <ele>1949.58</ele>
        <time>2016-03-20T13:03:03Z</time>
      </trkpt>
      <trkpt lat="45.50803" lon="6.68031">
        <ele>1946.01</ele>
        <time>2016-03-20T13:03:06Z</time>
      </trkpt>
      <trkpt lat="45.50826" lon="6.68035">
        <ele>1940.86</ele>
        <time>2016-03-20T13:03:10Z</time>
      </trkpt>
      <trkpt lat="45.50842" lon="6.68021">
        <ele>1931.69</ele>
        <time>2016-03-20T13:03:16Z</time>
      </trkpt>
      <trkpt lat="45.50855" lon="6.68003">
        <ele>1930.33</ele>
        <time>2016-03-20T13:03:22Z</time>
      </trkpt>
      <trkpt lat="45.50874" lon="6.67991">
        <ele>1927.85</ele>
        <time>2016-03-20T13:03:30Z</time>
      </trkpt>
      <trkpt lat="45.50892" lon="6.68">
        <ele>1924.78</ele>
        <time>2016-03-20T13:03:33Z</time>
      </trkpt>
      <trkpt lat="45.5091" lon="6.68011">
        <ele>1925.21</ele>
        <time>2016-03-20T13:03:37Z</time>
      </trkpt>
      <trkpt lat="45.5093" lon="6.68004">
        <ele>1922.45</ele>
        <time>2016-03-20T13:03:41Z</time>
      </trkpt>
      <trkpt lat="45.50942" lon="6.67983">
        <ele>1924.48</ele>
        <time>2016-03-20T13:03:44Z</time>
      </trkpt>
      <trkpt lat="45.50937" lon="6.67952">
        <ele>1925.53</ele>
        <time>2016-03-20T13:03:49Z</time>
      </trkpt>
      <trkpt lat="45.50929" lon="6.67921">
        <ele>1923.73</ele>
        <time>2016-03-20T13:03:53Z</time>
      </trkpt>
      <trkpt lat="45.50928" lon="6.67887">
        <ele>1920.94</ele>
        <time>2016-03-20T13:03:56Z</time>
      </trkpt>
      <trkpt lat="45.50926" lon="6.67861">
        <ele>1898.78</ele>
        <time>2016-03-20T13:04:45Z</time>
      </trkpt>
      <trkpt lat="45.50921" lon="6.67832">
        <ele>1894.85</ele>
        <time>2016-03-20T13:04:48Z</time>
      </trkpt>
      <trkpt lat="45.50916" lon="6.67802">
        <ele>1887.81</ele>
        <time>2016-03-20T13:04:51Z</time>
      </trkpt>
      <trkpt lat="45.50936" lon="6.6778">
        <ele>1883.65</ele>
        <time>2016-03-20T13:04:55Z</time>
      </trkpt>
      <trkpt lat="45.50955" lon="6.67774">
        <ele>1883.38</ele>
        <time>2016-03-20T13:04:57Z</time>
      </trkpt>
      <trkpt lat="45.50979" lon="6.67769">
        <ele>1877.26</ele>
        <time>2016-03-20T13:05:00Z</time>
      </trkpt>
      <trkpt lat="45.50989" lon="6.67742">
        <ele>1872.02</ele>
        <time>2016-03-20T13:05:03Z</time>
      </trkpt>
      <trkpt lat="45.51007" lon="6.67729">
        <ele>1868.99</ele>
        <time>2016-03-20T13:05:05Z</time>
      </trkpt>
      <trkpt lat="45.51029" lon="6.67714">
        <ele>1864.07</ele>
        <time>2016-03-20T13:05:07Z</time>
      </trkpt>
      <trkpt lat="45.51054" lon="6.67693">
        <ele>1862.75</ele>
        <time>2016-03-20T13:05:09Z</time>
      </trkpt>
      <trkpt lat="45.51069" lon="6.67674">
        <ele>1865.58</ele>
        <time>2016-03-20T13:05:11Z</time>
      </trkpt>
      <trkpt lat="45.51083" lon="6.67646">
        <ele>1861.63</ele>
        <time>2016-03-20T13:05:14Z</time>
      </trkpt>
      <trkpt lat="45.51106" lon="6.67638">
        <ele>1856.19</ele>
        <time>2016-03-20T13:05:17Z</time>
      </trkpt>
      <trkpt lat="45.51131" lon="6.67632">
        <ele>1851.79</ele>
        <time>2016-03-20T13:05:20Z</time>
      </trkpt>
      <trkpt lat="45.5115" lon="6.67631">
        <ele>1846.83</ele>
        <time>2016-03-20T13:05:23Z</time>
      </trkpt>
      <trkpt lat="45.51169" lon="6.67632">
        <ele>1839.19</ele>
        <time>2016-03-20T13:05:27Z</time>
      </trkpt>
      <trkpt lat="45.51191" lon="6.67634">
        <ele>1831.99</ele>
        <time>2016-03-20T13:05:32Z</time>
      </trkpt>
      <trkpt lat="45.51214" lon="6.67637">
        <ele>1823.18</ele>
        <time>2016-03-20T13:05:37Z</time>
      </trkpt>
      <trkpt lat="45.51234" lon="6.67637">
        <ele>1814.75</ele>
        <time>2016-03-20T13:05:42Z</time>
      </trkpt>
      <trkpt lat="45.51253" lon="6.67631">
        <ele>1810.81</ele>
        <time>2016-03-20T13:05:47Z</time>
      </trkpt>
      <trkpt lat="45.51272" lon="6.67624">
        <ele>1806.58</ele>
        <time>2016-03-20T13:05:52Z</time>
      </trkpt>
      <trkpt lat="45.51289" lon="6.67616">
        <ele>1803.57</ele>
        <time>2016-03-20T13:06:00Z</time>
      </trkpt>
      <trkpt lat="45.51308" lon="6.6761">
        <ele>1801.57</ele>
        <time>2016-03-20T13:06:08Z</time>
      </trkpt>
      <trkpt lat="45.51316" lon="6.67585">
        <ele>1807.49</ele>
        <time>2016-03-20T13:07:41Z</time>
      </trkpt>
      <trkpt lat="45.51317" lon="6.67559">
        <ele>1815.33</ele>
        <time>2016-03-20T13:07:55Z</time>
      </trkpt>
      <trkpt lat="45.51319" lon="6.67531">
        <ele>1826.88</ele>
        <time>2016-03-20T13:08:05Z</time>
      </trkpt>
      <trkpt lat="45.5132" lon="6.67505">
        <ele>1833.71</ele>
        <time>2016-03-20T13:08:17Z</time>
      </trkpt>
      <trkpt lat="45.51322" lon="6.67479">
        <ele>1835.33</ele>
        <time>2016-03-20T13:08:30Z</time>
      </trkpt>
      <trkpt lat="45.51323" lon="6.67453">
        <ele>1843.49</ele>
        <time>2016-03-20T13:08:41Z</time>
      </trkpt>
      <trkpt lat="45.51321" lon="6.67423">
        <ele>1846.33</ele>
        <time>2016-03-20T13:08:54Z</time>
      </trkpt>
      <trkpt lat="45.51323" lon="6.67397">
        <ele>1852.25</ele>
        <time>2016-03-20T13:09:04Z</time>
      </trkpt>
      <trkpt lat="45.51327" lon="6.67369">
        <ele>1865.16</ele>
        <time>2016-03-20T13:09:15Z</time>
      </trkpt>
      <trkpt lat="45.51328" lon="6.67343">
        <ele>1877.29</ele>
        <time>2016-03-20T13:09:30Z</time>
      </trkpt>
      <trkpt lat="45.5133" lon="6.67316">
        <ele>1889.41</ele>
        <time>2016-03-20T13:09:45Z</time>
      </trkpt>
      <trkpt lat="45.51329" lon="6.67289">
        <ele>1900.28</ele>
        <time>2016-03-20T13:09:57Z</time>
      </trkpt>
      <trkpt lat="45.51327" lon="6.67263">
        <ele>1910.32</ele>
        <time>2016-03-20T13:10:10Z</time>
      </trkpt>
      <trkpt lat="45.51332" lon="6.67238">
        <ele>1923.44</ele>
        <time>2016-03-20T13:10:22Z</time>
      </trkpt>
      <trkpt lat="45.51334" lon="6.67212">
        <ele>1932.31</ele>
        <time>2016-03-20T13:10:34Z</time>
      </trkpt>
      <trkpt lat="45.51335" lon="6.67185">
        <ele>1939.49</ele>
        <time>2016-03-20T13:10:48Z</time>
      </trkpt>
      <trkpt lat="45.51334" lon="6.67159">
        <ele>1944.33</ele>
        <time>2016-03-20T13:10:59Z</time>
      </trkpt>
      <trkpt lat="45.51339" lon="6.67134">
        <ele>1954.32</ele>
        <time>2016-03-20T13:11:10Z</time>
      </trkpt>
      <trkpt lat="45.51339" lon="6.67108">
        <ele>1965.19</ele>
        <time>2016-03-20T13:11:23Z</time>
      </trkpt>
      <trkpt lat="45.51339" lon="6.67081">
        <ele>1976.48</ele>
        <time>2016-03-20T13:11:39Z</time>
      </trkpt>
      <trkpt lat="45.51338" lon="6.67051">
        <ele>1983.93</ele>
        <time>2016-03-20T13:11:52Z</time>
      </trkpt>
      <trkpt lat="45.51339" lon="6.67025">
        <ele>1990.48</ele>
        <time>2016-03-20T13:12:06Z</time>
      </trkpt>
      <trkpt lat="45.51342" lon="6.66997">
        <ele>1996.92</ele>
        <time>2016-03-20T13:12:17Z</time>
      </trkpt>
      <trkpt lat="45.51343" lon="6.66969">
        <ele>2002.29</ele>
        <time>2016-03-20T13:12:28Z</time>
      </trkpt>
      <trkpt lat="45.51345" lon="6.66941">
        <ele>2007.33</ele>
        <time>2016-03-20T13:12:38Z</time>
      </trkpt>
      <trkpt lat="45.51347" lon="6.66913">
        <ele>2012.29</ele>
        <time>2016-03-20T13:12:49Z</time>
      </trkpt>
      <trkpt lat="45.51345" lon="6.66887">
        <ele>2013.7</ele>
        <time>2016-03-20T13:13:08Z</time>
      </trkpt>
      <trkpt lat="45.51348" lon="6.66861">
        <ele>2012.78</ele>
        <time>2016-03-20T13:13:20Z</time>
      </trkpt>
      <trkpt lat="45.51367" lon="6.66858">
        <ele>2009.85</ele>
        <time>2016-03-20T13:14:46Z</time>
      </trkpt>
      <trkpt lat="45.5139" lon="6.66857">
        <ele>2006.7</ele>
        <time>2016-03-20T13:14:51Z</time>
      </trkpt>
      <trkpt lat="45.51412" lon="6.66857">
        <ele>2003.58</ele>
        <time>2016-03-20T13:14:55Z</time>
      </trkpt>
      <trkpt lat="45.5143" lon="6.66848">
        <ele>1999.82</ele>
        <time>2016-03-20T13:14:58Z</time>
      </trkpt>
      <trkpt lat="45.51449" lon="6.66841">
        <ele>1997.77</ele>
        <time>2016-03-20T13:15:01Z</time>
      </trkpt>
      <trkpt lat="45.5147" lon="6.6684">
        <ele>1994.01</ele>
        <time>2016-03-20T13:15:04Z</time>
      </trkpt>
      <trkpt lat="45.51493" lon="6.66834">
        <ele>1990.59</ele>
        <time>2016-03-20T13:15:07Z</time>
      </trkpt>
      <trkpt lat="45.51517" lon="6.66843">
        <ele>1988.58</ele>
        <time>2016-03-20T13:15:10Z</time>
      </trkpt>
      <trkpt lat="45.51536" lon="6.66839">
        <ele>1984.76</ele>
        <time>2016-03-20T13:15:13Z</time>
      </trkpt>
      <trkpt lat="45.51558" lon="6.66831">
        <ele>1972.02</ele>
        <time>2016-03-20T13:15:31Z</time>
      </trkpt>
      <trkpt lat="45.51574" lon="6.66811">
        <ele>1966.96</ele>
        <time>2016-03-20T13:15:34Z</time>
      </trkpt>
      <trkpt lat="45.51582" lon="6.66788">
        <ele>1963.01</ele>
        <time>2016-03-20T13:15:37Z</time>
      </trkpt>
      <trkpt lat="45.51604" lon="6.66768">
        <ele>1956.84</ele>
        <time>2016-03-20T13:15:40Z</time>
      </trkpt>
      <trkpt lat="45.51619" lon="6.66741">
        <ele>1953.98</ele>
        <time>2016-03-20T13:15:42Z</time>
      </trkpt>
      <trkpt lat="45.51638" lon="6.66711">
        <ele>1952.59</ele>
        <time>2016-03-20T13:15:44Z</time>
      </trkpt>
      <trkpt lat="45.51653" lon="6.66688">
        <ele>1949.65</ele>
        <time>2016-03-20T13:15:46Z</time>
      </trkpt>
      <trkpt lat="45.51654" lon="6.66656">
        <ele>1943.8</ele>
        <time>2016-03-20T13:15:49Z</time>
      </trkpt>
      <trkpt lat="45.51651" lon="6.66625">
        <ele>1937.78</ele>
        <time>2016-03-20T13:15:54Z</time>
      </trkpt>
      <trkpt lat="45.51648" lon="6.66599">
        <ele>1927.9</ele>
        <time>2016-03-20T13:15:59Z</time>
      </trkpt>
      <trkpt lat="45.51671" lon="6.66601">
        <ele>1912.02</ele>
        <time>2016-03-20T13:16:20Z</time>
      </trkpt>
      <trkpt lat="45.5169" lon="6.66594">
        <ele>1907.98</ele>
        <time>2016-03-20T13:16:23Z</time>
      </trkpt>
      <trkpt lat="45.51708" lon="6.66589">
        <ele>1903.82</ele>
        <time>2016-03-20T13:16:26Z</time>
      </trkpt>
      <trkpt lat="45.51728" lon="6.66587">
        <ele>1899.79</ele>
        <time>2016-03-20T13:16:29Z</time>
      </trkpt>
      <trkpt lat="45.51748" lon="6.66596">
        <ele>1892.27</ele>
        <time>2016-03-20T13:16:32Z</time>
      </trkpt>
      <trkpt lat="45.5177" lon="6.66615">
        <ele>1888.04</ele>
        <time>2016-03-20T13:16:34Z</time>
      </trkpt>
      <trkpt lat="45.51786" lon="6.66628">
        <ele>1885.23</ele>
        <time>2016-03-20T13:16:35Z</time>
      </trkpt>
      <trkpt lat="45.51801" lon="6.66643">
        <ele>1883.07</ele>
        <time>2016-03-20T13:16:36Z</time>
      </trkpt>
      <trkpt lat="45.51825" lon="6.66642">
        <ele>1877.27</ele>
        <time>2016-03-20T13:16:38Z</time>
      </trkpt>
      <trkpt lat="45.51845" lon="6.66647">
        <ele>1871.12</ele>
        <time>2016-03-20T13:16:40Z</time>
      </trkpt>
      <trkpt lat="45.5187" lon="6.66667">
        <ele>1863.08</ele>
        <time>2016-03-20T13:16:43Z</time>
      </trkpt>
      <trkpt lat="45.51891" lon="6.66683">
        <ele>1857.43</ele>
        <time>2016-03-20T13:16:45Z</time>
      </trkpt>
      <trkpt lat="45.51916" lon="6.6669">
        <ele>1851.77</ele>
        <time>2016-03-20T13:16:47Z</time>
      </trkpt>
      <trkpt lat="45.51942" lon="6.66702">
        <ele>1847.86</ele>
        <time>2016-03-20T13:16:49Z</time>
      </trkpt>
      <trkpt lat="45.51973" lon="6.66708">
        <ele>1844.66</ele>
        <time>2016-03-20T13:16:51Z</time>
      </trkpt>
      <trkpt lat="45.51986" lon="6.66726">
        <ele>1841.36</ele>
        <time>2016-03-20T13:16:52Z</time>
      </trkpt>
      <trkpt lat="45.52002" lon="6.66738">
        <ele>1830.48</ele>
        <time>2016-03-20T13:16:54Z</time>
      </trkpt>
      <trkpt lat="45.52024" lon="6.66744">
        <ele>1816.45</ele>
        <time>2016-03-20T13:16:56Z</time>
      </trkpt>
      <trkpt lat="45.52042" lon="6.66764">
        <ele>1811.09</ele>
        <time>2016-03-20T13:16:58Z</time>
      </trkpt>
      <trkpt lat="45.52067" lon="6.6679">
        <ele>1807.03</ele>
        <time>2016-03-20T13:17:00Z</time>
      </trkpt>
      <trkpt lat="45.52076" lon="6.66816">
        <ele>1797.75</ele>
        <time>2016-03-20T13:17:02Z</time>
      </trkpt>
      <trkpt lat="45.5208" lon="6.66856">
        <ele>1790.91</ele>
        <time>2016-03-20T13:17:05Z</time>
      </trkpt>
      <trkpt lat="45.52082" lon="6.66896">
        <ele>1782.87</ele>
        <time>2016-03-20T13:17:07Z</time>
      </trkpt>
      <trkpt lat="45.52079" lon="6.66929">
        <ele>1778.22</ele>
        <time>2016-03-20T13:17:09Z</time>
      </trkpt>
      <trkpt lat="45.52087" lon="6.66954">
        <ele>1773.24</ele>
        <time>2016-03-20T13:17:11Z</time>
      </trkpt>
      <trkpt lat="45.52098" lon="6.66986">
        <ele>1758.08</ele>
        <time>2016-03-20T13:17:15Z</time>
      </trkpt>
      <trkpt lat="45.52107" lon="6.67016">
        <ele>1752.83</ele>
        <time>2016-03-20T13:17:18Z</time>
      </trkpt>
      <trkpt lat="45.52116" lon="6.67046">
        <ele>1746.14</ele>
        <time>2016-03-20T13:17:20Z</time>
      </trkpt>
      <trkpt lat="45.52126" lon="6.6707">
        <ele>1741.08</ele>
        <time>2016-03-20T13:17:22Z</time>
      </trkpt>
      <trkpt lat="45.52136" lon="6.67102">
        <ele>1734.42</ele>
        <time>2016-03-20T13:17:25Z</time>
      </trkpt>
      <trkpt lat="45.52145" lon="6.67125">
        <ele>1729.09</ele>
        <time>2016-03-20T13:17:27Z</time>
      </trkpt>
      <trkpt lat="45.52171" lon="6.67123">
        <ele>1718.46</ele>
        <time>2016-03-20T13:17:30Z</time>
      </trkpt>
      <trkpt lat="45.52191" lon="6.67132">
        <ele>1710.69</ele>
        <time>2016-03-20T13:17:32Z</time>
      </trkpt>
      <trkpt lat="45.52213" lon="6.67144">
        <ele>1703.08</ele>
        <time>2016-03-20T13:17:35Z</time>
      </trkpt>
      <trkpt lat="45.5223" lon="6.67171">
        <ele>1694.9</ele>
        <time>2016-03-20T13:17:40Z</time>
      </trkpt>
      <trkpt lat="45.52229" lon="6.67204">
        <ele>1679.32</ele>
        <time>2016-03-20T13:17:45Z</time>
      </trkpt>
      <trkpt lat="45.52234" lon="6.67235">
        <ele>1668.34</ele>
        <time>2016-03-20T13:17:49Z</time>
      </trkpt>
      <trkpt lat="45.5225" lon="6.6725">
        <ele>1659.68</ele>
        <time>2016-03-20T13:17:53Z</time>
      </trkpt>
      <trkpt lat="45.52276" lon="6.67261">
        <ele>1654.99</ele>
        <time>2016-03-20T13:17:56Z</time>
      </trkpt>
      <trkpt lat="45.52304" lon="6.67271">
        <ele>1648.07</ele>
        <time>2016-03-20T13:17:59Z</time>
      </trkpt>
      <trkpt lat="45.52323" lon="6.67273">
        <ele>1642.22</ele>
        <time>2016-03-20T13:18:02Z</time>
      </trkpt>
      <trkpt lat="45.52345" lon="6.67261">
        <ele>1636</ele>
        <time>2016-03-20T13:18:05Z</time>
      </trkpt>
      <trkpt lat="45.52367" lon="6.67263">
        <ele>1630.99</ele>
        <time>2016-03-20T13:18:08Z</time>
      </trkpt>
      <trkpt lat="45.52385" lon="6.67282">
        <ele>1624.31</ele>
        <time>2016-03-20T13:18:10Z</time>
      </trkpt>
      <trkpt lat="45.52412" lon="6.67298">
        <ele>1615.28</ele>
        <time>2016-03-20T13:18:13Z</time>
      </trkpt>
      <trkpt lat="45.52431" lon="6.67305">
        <ele>1609.12</ele>
        <time>2016-03-20T13:18:15Z</time>
      </trkpt>
      <trkpt lat="45.52446" lon="6.6729">
        <ele>1601.19</ele>
        <time>2016-03-20T13:18:17Z</time>
      </trkpt>
      <trkpt lat="45.52466" lon="6.67292">
        <ele>1598.8</ele>
        <time>2016-03-20T13:18:19Z</time>
      </trkpt>
      <trkpt lat="45.5248" lon="6.67317">
        <ele>1591.33</ele>
        <time>2016-03-20T13:18:22Z</time>
      </trkpt>
      <trkpt lat="45.52502" lon="6.67325">
        <ele>1585.28</ele>
        <time>2016-03-20T13:18:24Z</time>
      </trkpt>
      <trkpt lat="45.52522" lon="6.67318">
        <ele>1553.23</ele>
        <time>2016-03-20T13:18:35Z</time>
      </trkpt>
      <trkpt lat="45.52542" lon="6.67316">
        <ele>1545.05</ele>
        <time>2016-03-20T13:18:38Z</time>
      </trkpt>
      <trkpt lat="45.52561" lon="6.67324">
        <ele>1536.44</ele>
        <time>2016-03-20T13:18:41Z</time>
      </trkpt>
      <trkpt lat="45.52567" lon="6.67299">
        <ele>1519.45</ele>
        <time>2016-03-20T13:20:19Z</time>
      </trkpt>
      <trkpt lat="45.52548" lon="6.67287">
        <ele>1512.77</ele>
        <time>2016-03-20T13:20:54Z</time>
      </trkpt>
      <trkpt lat="45.5253" lon="6.67278">
        <ele>1519.63</ele>
        <time>2016-03-20T13:20:58Z</time>
      </trkpt>
      <trkpt lat="45.52513" lon="6.67267">
        <ele>1530.21</ele>
        <time>2016-03-20T13:21:02Z</time>
      </trkpt>
      <trkpt lat="45.52493" lon="6.67255">
        <ele>1540.22</ele>
        <time>2016-03-20T13:21:07Z</time>
      </trkpt>
      <trkpt lat="45.52473" lon="6.67246">
        <ele>1550.02</ele>
        <time>2016-03-20T13:21:11Z</time>
      </trkpt>
      <trkpt lat="45.52454" lon="6.67235">
        <ele>1557.24</ele>
        <time>2016-03-20T13:21:15Z</time>
      </trkpt>
      <trkpt lat="45.52437" lon="6.6722">
        <ele>1565.28</ele>
        <time>2016-03-20T13:21:20Z</time>
      </trkpt>
      <trkpt lat="45.52421" lon="6.67207">
        <ele>1575.08</ele>
        <time>2016-03-20T13:21:25Z</time>
      </trkpt>
      <trkpt lat="45.52399" lon="6.67195">
        <ele>1581.28</ele>
        <time>2016-03-20T13:21:30Z</time>
      </trkpt>
      <trkpt lat="45.52382" lon="6.67183">
        <ele>1591.83</ele>
        <time>2016-03-20T13:21:35Z</time>
      </trkpt>
      <trkpt lat="45.52365" lon="6.67172">
        <ele>1599.32</ele>
        <time>2016-03-20T13:21:40Z</time>
      </trkpt>
      <trkpt lat="45.52346" lon="6.67162">
        <ele>1606.8</ele>
        <time>2016-03-20T13:21:44Z</time>
      </trkpt>
      <trkpt lat="45.52327" lon="6.67149">
        <ele>1622.82</ele>
        <time>2016-03-20T13:21:50Z</time>
      </trkpt>
      <trkpt lat="45.52308" lon="6.67138">
        <ele>1638.98</ele>
        <time>2016-03-20T13:21:56Z</time>
      </trkpt>
      <trkpt lat="45.52291" lon="6.67126">
        <ele>1652.22</ele>
        <time>2016-03-20T13:22:01Z</time>
      </trkpt>
      <trkpt lat="45.52271" lon="6.67115">
        <ele>1665.79</ele>
        <time>2016-03-20T13:22:06Z</time>
      </trkpt>
      <trkpt lat="45.52251" lon="6.67104">
        <ele>1676.18</ele>
        <time>2016-03-20T13:22:11Z</time>
      </trkpt>
      <trkpt lat="45.52231" lon="6.67092">
        <ele>1685.87</ele>
        <time>2016-03-20T13:22:16Z</time>
      </trkpt>
      <trkpt lat="45.52212" lon="6.67081">
        <ele>1697.99</ele>
        <time>2016-03-20T13:22:21Z</time>
      </trkpt>
      <trkpt lat="45.52194" lon="6.6707">
        <ele>1708.99</ele>
        <time>2016-03-20T13:22:26Z</time>
      </trkpt>
      <trkpt lat="45.52174" lon="6.67056">
        <ele>1715.07</ele>
        <time>2016-03-20T13:22:31Z</time>
      </trkpt>
      <trkpt lat="45.52154" lon="6.67044">
        <ele>1721.24</ele>
        <time>2016-03-20T13:22:36Z</time>
      </trkpt>
      <trkpt lat="45.52134" lon="6.67032">
        <ele>1729.08</ele>
        <time>2016-03-20T13:22:41Z</time>
      </trkpt>
      <trkpt lat="45.52114" lon="6.67021">
        <ele>1736.07</ele>
        <time>2016-03-20T13:22:46Z</time>
      </trkpt>
      <trkpt lat="45.52095" lon="6.67008">
        <ele>1745.03</ele>
        <time>2016-03-20T13:22:51Z</time>
      </trkpt>
      <trkpt lat="45.52074" lon="6.66996">
        <ele>1754</ele>
        <time>2016-03-20T13:22:56Z</time>
      </trkpt>
      <trkpt lat="45.52056" lon="6.66984">
        <ele>1763.27</ele>
        <time>2016-03-20T13:23:01Z</time>
      </trkpt>
      <trkpt lat="45.52035" lon="6.66974">
        <ele>1768.27</ele>
        <time>2016-03-20T13:23:06Z</time>
      </trkpt>
      <trkpt lat="45.52019" lon="6.66963">
        <ele>1773.24</ele>
        <time>2016-03-20T13:23:10Z</time>
      </trkpt>
      <trkpt lat="45.52002" lon="6.66953">
        <ele>1778.27</ele>
        <time>2016-03-20T13:23:14Z</time>
      </trkpt>
      <trkpt lat="45.51982" lon="6.66942">
        <ele>1782.28</ele>
        <time>2016-03-20T13:23:19Z</time>
      </trkpt>
      <trkpt lat="45.51963" lon="6.66929">
        <ele>1788.12</ele>
        <time>2016-03-20T13:23:24Z</time>
      </trkpt>
      <trkpt lat="45.51945" lon="6.66916">
        <ele>1794.47</ele>
        <time>2016-03-20T13:23:29Z</time>
      </trkpt>
      <trkpt lat="45.51927" lon="6.66907">
        <ele>1802.04</ele>
        <time>2016-03-20T13:23:33Z</time>
      </trkpt>
      <trkpt lat="45.51908" lon="6.66894">
        <ele>1807.52</ele>
        <time>2016-03-20T13:23:38Z</time>
      </trkpt>
      <trkpt lat="45.51891" lon="6.6688">
        <ele>1811.48</ele>
        <time>2016-03-20T13:23:43Z</time>
      </trkpt>
      <trkpt lat="45.51873" lon="6.66869">
        <ele>1818.26</ele>
        <time>2016-03-20T13:23:47Z</time>
      </trkpt>
      <trkpt lat="45.51854" lon="6.66856">
        <ele>1828.23</ele>
        <time>2016-03-20T13:23:52Z</time>
      </trkpt>
      <trkpt lat="45.51835" lon="6.66843">
        <ele>1835.84</ele>
        <time>2016-03-20T13:23:57Z</time>
      </trkpt>
      <trkpt lat="45.51817" lon="6.66833">
        <ele>1842.11</ele>
        <time>2016-03-20T13:24:02Z</time>
      </trkpt>
      <trkpt lat="45.51797" lon="6.66822">
        <ele>1851.43</ele>
        <time>2016-03-20T13:24:07Z</time>
      </trkpt>
      <trkpt lat="45.51777" lon="6.66813">
        <ele>1861.23</ele>
        <time>2016-03-20T13:24:12Z</time>
      </trkpt>
      <trkpt lat="45.51759" lon="6.66802">
        <ele>1871.2</ele>
        <time>2016-03-20T13:24:17Z</time>
      </trkpt>
      <trkpt lat="45.51742" lon="6.66792">
        <ele>1879.04</ele>
        <time>2016-03-20T13:24:21Z</time>
      </trkpt>
      <trkpt lat="45.51722" lon="6.6678">
        <ele>1889</ele>
        <time>2016-03-20T13:24:26Z</time>
      </trkpt>
      <trkpt lat="45.51703" lon="6.66768">
        <ele>1901.21</ele>
        <time>2016-03-20T13:24:31Z</time>
      </trkpt>
      <trkpt lat="45.51685" lon="6.66756">
        <ele>1915.99</ele>
        <time>2016-03-20T13:24:37Z</time>
      </trkpt>
      <trkpt lat="45.51666" lon="6.66745">
        <ele>1921.28</ele>
        <time>2016-03-20T13:24:43Z</time>
      </trkpt>
      <trkpt lat="45.51646" lon="6.66734">
        <ele>1930.22</ele>
        <time>2016-03-20T13:24:48Z</time>
      </trkpt>
      <trkpt lat="45.51625" lon="6.66723">
        <ele>1939.23</ele>
        <time>2016-03-20T13:24:53Z</time>
      </trkpt>
      <trkpt lat="45.51607" lon="6.66714">
        <ele>1947.87</ele>
        <time>2016-03-20T13:24:57Z</time>
      </trkpt>
      <trkpt lat="45.51588" lon="6.66703">
        <ele>1953.28</ele>
        <time>2016-03-20T13:25:02Z</time>
      </trkpt>
      <trkpt lat="45.51569" lon="6.6669">
        <ele>1963.04</ele>
        <time>2016-03-20T13:25:07Z</time>
      </trkpt>
      <trkpt lat="45.5155" lon="6.66678">
        <ele>1973.23</ele>
        <time>2016-03-20T13:25:12Z</time>
      </trkpt>
      <trkpt lat="45.51531" lon="6.6667">
        <ele>1979.53</ele>
        <time>2016-03-20T13:25:17Z</time>
      </trkpt>
      <trkpt lat="45.51515" lon="6.66659">
        <ele>1988.07</ele>
        <time>2016-03-20T13:25:21Z</time>
      </trkpt>
      <trkpt lat="45.51495" lon="6.66646">
        <ele>1997.06</ele>
        <time>2016-03-20T13:25:26Z</time>
      </trkpt>
      <trkpt lat="45.51475" lon="6.66635">
        <ele>2004.07</ele>
        <time>2016-03-20T13:25:31Z</time>
      </trkpt>
      <trkpt lat="45.51455" lon="6.66623">
        <ele>2013.86</ele>
        <time>2016-03-20T13:25:36Z</time>
      </trkpt>
      <trkpt lat="45.51436" lon="6.66611">
        <ele>2021.2</ele>
        <time>2016-03-20T13:25:41Z</time>
      </trkpt>
      <trkpt lat="45.51416" lon="6.66599">
        <ele>2033.02</ele>
        <time>2016-03-20T13:25:46Z</time>
      </trkpt>
      <trkpt lat="45.51398" lon="6.66587">
        <ele>2043.84</ele>
        <time>2016-03-20T13:25:51Z</time>
      </trkpt>
      <trkpt lat="45.51377" lon="6.66575">
        <ele>2049.25</ele>
        <time>2016-03-20T13:25:56Z</time>
      </trkpt>
      <trkpt lat="45.51357" lon="6.66563">
        <ele>2055.47</ele>
        <time>2016-03-20T13:26:01Z</time>
      </trkpt>
      <trkpt lat="45.51337" lon="6.66551">
        <ele>2062.08</ele>
        <time>2016-03-20T13:26:06Z</time>
      </trkpt>
      <trkpt lat="45.51318" lon="6.66539">
        <ele>2072.03</ele>
        <time>2016-03-20T13:26:11Z</time>
      </trkpt>
      <trkpt lat="45.51298" lon="6.66526">
        <ele>2078.08</ele>
        <time>2016-03-20T13:26:16Z</time>
      </trkpt>
      <trkpt lat="45.51278" lon="6.66516">
        <ele>2083.28</ele>
        <time>2016-03-20T13:26:21Z</time>
      </trkpt>
      <trkpt lat="45.51258" lon="6.66503">
        <ele>2087.32</ele>
        <time>2016-03-20T13:26:26Z</time>
      </trkpt>
      <trkpt lat="45.51238" lon="6.66491">
        <ele>2092.31</ele>
        <time>2016-03-20T13:26:31Z</time>
      </trkpt>
      <trkpt lat="45.5122" lon="6.66481">
        <ele>2096.24</ele>
        <time>2016-03-20T13:26:35Z</time>
      </trkpt>
      <trkpt lat="45.51204" lon="6.66471">
        <ele>2100.09</ele>
        <time>2016-03-20T13:26:39Z</time>
      </trkpt>
      <trkpt lat="45.51186" lon="6.66461">
        <ele>2102.32</ele>
        <time>2016-03-20T13:26:43Z</time>
      </trkpt>
      <trkpt lat="45.51166" lon="6.66449">
        <ele>2108.08</ele>
        <time>2016-03-20T13:26:48Z</time>
      </trkpt>
      <trkpt lat="45.5115" lon="6.66439">
        <ele>2113.28</ele>
        <time>2016-03-20T13:26:52Z</time>
      </trkpt>
      <trkpt lat="45.51131" lon="6.66428">
        <ele>2118.29</ele>
        <time>2016-03-20T13:26:57Z</time>
      </trkpt>
      <trkpt lat="45.51113" lon="6.66418">
        <ele>2121.36</ele>
        <time>2016-03-20T13:27:01Z</time>
      </trkpt>
      <trkpt lat="45.51096" lon="6.66405">
        <ele>2120.45</ele>
        <time>2016-03-20T13:27:10Z</time>
      </trkpt>
      <trkpt lat="45.51078" lon="6.66406">
        <ele>2117.53</ele>
        <time>2016-03-20T13:28:08Z</time>
      </trkpt>
      <trkpt lat="45.51081" lon="6.66433">
        <ele>2113.5</ele>
        <time>2016-03-20T13:28:24Z</time>
      </trkpt>
      <trkpt lat="45.51099" lon="6.66445">
        <ele>2109.61</ele>
        <time>2016-03-20T13:28:29Z</time>
      </trkpt>
      <trkpt lat="45.5112" lon="6.66451">
        <ele>2105.97</ele>
        <time>2016-03-20T13:28:33Z</time>
      </trkpt>
      <trkpt lat="45.5114" lon="6.66467">
        <ele>2101.98</ele>
        <time>2016-03-20T13:28:36Z</time>
      </trkpt>
      <trkpt lat="45.51163" lon="6.6648">
        <ele>2098.14</ele>
        <time>2016-03-20T13:28:39Z</time>
      </trkpt>
      <trkpt lat="45.5118" lon="6.66492">
        <ele>2093.08</ele>
        <time>2016-03-20T13:28:41Z</time>
      </trkpt>
      <trkpt lat="45.51198" lon="6.66505">
        <ele>2089.03</ele>
        <time>2016-03-20T13:28:43Z</time>
      </trkpt>
      <trkpt lat="45.51216" lon="6.66509">
        <ele>2086.79</ele>
        <time>2016-03-20T13:28:45Z</time>
      </trkpt>
      <trkpt lat="45.51234" lon="6.66534">
        <ele>2084.58</ele>
        <time>2016-03-20T13:28:48Z</time>
      </trkpt>
      <trkpt lat="45.51255" lon="6.66553">
        <ele>2080.82</ele>
        <time>2016-03-20T13:28:51Z</time>
      </trkpt>
      <trkpt lat="45.51271" lon="6.66568">
        <ele>2078.62</ele>
        <time>2016-03-20T13:28:53Z</time>
      </trkpt>
      <trkpt lat="45.51295" lon="6.66568">
        <ele>2076.93</ele>
        <time>2016-03-20T13:28:55Z</time>
      </trkpt>
      <trkpt lat="45.51317" lon="6.66577">
        <ele>2074.95</ele>
        <time>2016-03-20T13:28:57Z</time>
      </trkpt>
      <trkpt lat="45.51338" lon="6.66594">
        <ele>2072.63</ele>
        <time>2016-03-20T13:28:59Z</time>
      </trkpt>
      <trkpt lat="45.51354" lon="6.66621">
        <ele>2069.01</ele>
        <time>2016-03-20T13:29:01Z</time>
      </trkpt>
      <trkpt lat="45.51371" lon="6.66636">
        <ele>2064.07</ele>
        <time>2016-03-20T13:29:03Z</time>
      </trkpt>
      <trkpt lat="45.51385" lon="6.66662">
        <ele>2060.03</ele>
        <time>2016-03-20T13:29:05Z</time>
      </trkpt>
      <trkpt lat="45.51401" lon="6.66681">
        <ele>2053.47</ele>
        <time>2016-03-20T13:29:07Z</time>
      </trkpt>
      <trkpt lat="45.51412" lon="6.66708">
        <ele>2049.85</ele>
        <time>2016-03-20T13:29:09Z</time>
      </trkpt>
      <trkpt lat="45.51425" lon="6.66739">
        <ele>2045.22</ele>
        <time>2016-03-20T13:29:11Z</time>
      </trkpt>
      <trkpt lat="45.5144" lon="6.66769">
        <ele>2042.8</ele>
        <time>2016-03-20T13:29:13Z</time>
      </trkpt>
      <trkpt lat="45.51459" lon="6.66796">
        <ele>2041.58</ele>
        <time>2016-03-20T13:29:15Z</time>
      </trkpt>
      <trkpt lat="45.51472" lon="6.66823">
        <ele>2039.77</ele>
        <time>2016-03-20T13:29:17Z</time>
      </trkpt>
      <trkpt lat="45.51492" lon="6.66839">
        <ele>2035.86</ele>
        <time>2016-03-20T13:29:19Z</time>
      </trkpt>
      <trkpt lat="45.51509" lon="6.66852">
        <ele>2025.3</ele>
        <time>2016-03-20T13:29:21Z</time>
      </trkpt>
      <trkpt lat="45.51526" lon="6.66833">
        <ele>2007.6</ele>
        <time>2016-03-20T13:29:23Z</time>
      </trkpt>
      <trkpt lat="45.51546" lon="6.66838">
        <ele>1998.31</ele>
        <time>2016-03-20T13:29:27Z</time>
      </trkpt>
      <trkpt lat="45.51567" lon="6.66819">
        <ele>1992.8</ele>
        <time>2016-03-20T13:29:30Z</time>
      </trkpt>
      <trkpt lat="45.51583" lon="6.66803">
        <ele>1989.82</ele>
        <time>2016-03-20T13:29:32Z</time>
      </trkpt>
      <trkpt lat="45.51599" lon="6.6677">
        <ele>1983.9</ele>
        <time>2016-03-20T13:29:35Z</time>
      </trkpt>
      <trkpt lat="45.51613" lon="6.66748">
        <ele>1980.83</ele>
        <time>2016-03-20T13:29:37Z</time>
      </trkpt>
      <trkpt lat="45.51632" lon="6.66718">
        <ele>1977.98</ele>
        <time>2016-03-20T13:29:39Z</time>
      </trkpt>
      <trkpt lat="45.5165" lon="6.66685">
        <ele>1974.99</ele>
        <time>2016-03-20T13:29:41Z</time>
      </trkpt>
      <trkpt lat="45.51654" lon="6.66655">
        <ele>1971.03</ele>
        <time>2016-03-20T13:29:43Z</time>
      </trkpt>
      <trkpt lat="45.51657" lon="6.66624">
        <ele>1968.79</ele>
        <time>2016-03-20T13:29:45Z</time>
      </trkpt>
      <trkpt lat="45.51662" lon="6.66591">
        <ele>1965.82</ele>
        <time>2016-03-20T13:29:47Z</time>
      </trkpt>
      <trkpt lat="45.51667" lon="6.66558">
        <ele>1962.82</ele>
        <time>2016-03-20T13:29:49Z</time>
      </trkpt>
      <trkpt lat="45.51669" lon="6.66528">
        <ele>1958.22</ele>
        <time>2016-03-20T13:29:51Z</time>
      </trkpt>
      <trkpt lat="45.51669" lon="6.66498">
        <ele>1955.8</ele>
        <time>2016-03-20T13:29:53Z</time>
      </trkpt>
      <trkpt lat="45.51672" lon="6.66469">
        <ele>1952.82</ele>
        <time>2016-03-20T13:29:55Z</time>
      </trkpt>
      <trkpt lat="45.51676" lon="6.66439">
        <ele>1949.02</ele>
        <time>2016-03-20T13:29:57Z</time>
      </trkpt>
      <trkpt lat="45.51679" lon="6.66408">
        <ele>1945.03</ele>
        <time>2016-03-20T13:29:59Z</time>
      </trkpt>
      <trkpt lat="45.51672" lon="6.6638">
        <ele>1940.23</ele>
        <time>2016-03-20T13:30:01Z</time>
      </trkpt>
      <trkpt lat="45.51669" lon="6.66345">
        <ele>1938.8</ele>
        <time>2016-03-20T13:30:04Z</time>
      </trkpt>
      <trkpt lat="45.5167" lon="6.66318">
        <ele>1935.02</ele>
        <time>2016-03-20T13:30:06Z</time>
      </trkpt>
      <trkpt lat="45.51667" lon="6.66291">
        <ele>1931.83</ele>
        <time>2016-03-20T13:30:08Z</time>
      </trkpt>
      <trkpt lat="45.51663" lon="6.66266">
        <ele>1929.78</ele>
        <time>2016-03-20T13:30:10Z</time>
      </trkpt>
      <trkpt lat="45.51659" lon="6.66241">
        <ele>1929.54</ele>
        <time>2016-03-20T13:30:12Z</time>
      </trkpt>
      <trkpt lat="45.51652" lon="6.66217">
        <ele>1926.81</ele>
        <time>2016-03-20T13:30:14Z</time>
      </trkpt>
      <trkpt lat="45.51638" lon="6.66199">
        <ele>1922.38</ele>
        <time>2016-03-20T13:30:16Z</time>
      </trkpt>
      <trkpt lat="45.51627" lon="6.66178">
        <ele>1919.01</ele>
        <time>2016-03-20T13:30:18Z</time>
      </trkpt>
      <trkpt lat="45.51614" lon="6.66152">
        <ele>1914.02</ele>
        <time>2016-03-20T13:30:21Z</time>
      </trkpt>
      <trkpt lat="45.51585" lon="6.66147">
        <ele>1897.02</ele>
        <time>2016-03-20T13:30:24Z</time>
      </trkpt>
      <trkpt lat="45.51564" lon="6.6615">
        <ele>1880.23</ele>
        <time>2016-03-20T13:30:26Z</time>
      </trkpt>
      <trkpt lat="45.51548" lon="6.66134">
        <ele>1872.05</ele>
        <time>2016-03-20T13:30:29Z</time>
      </trkpt>
      <trkpt lat="45.51533" lon="6.66112">
        <ele>1867.78</ele>
        <time>2016-03-20T13:30:33Z</time>
      </trkpt>
      <trkpt lat="45.51516" lon="6.66091">
        <ele>1864.97</ele>
        <time>2016-03-20T13:30:36Z</time>
      </trkpt>
      <trkpt lat="45.51499" lon="6.6607">
        <ele>1860.98</ele>
        <time>2016-03-20T13:30:39Z</time>
      </trkpt>
      <trkpt lat="45.51495" lon="6.66038">
        <ele>1856.82</ele>
        <time>2016-03-20T13:30:42Z</time>
      </trkpt>
      <trkpt lat="45.51522" lon="6.66023">
        <ele>1852.98</ele>
        <time>2016-03-20T13:30:45Z</time>
      </trkpt>
      <trkpt lat="45.51542" lon="6.66011">
        <ele>1849.03</ele>
        <time>2016-03-20T13:30:47Z</time>
      </trkpt>
      <trkpt lat="45.51564" lon="6.66">
        <ele>1846.63</ele>
        <time>2016-03-20T13:30:49Z</time>
      </trkpt>
      <trkpt lat="45.51586" lon="6.65989">
        <ele>1844.78</ele>
        <time>2016-03-20T13:30:51Z</time>
      </trkpt>
      <trkpt lat="45.51605" lon="6.65982">
        <ele>1842.14</ele>
        <time>2016-03-20T13:30:53Z</time>
      </trkpt>
      <trkpt lat="45.51633" lon="6.65971">
        <ele>1832.38</ele>
        <time>2016-03-20T13:30:56Z</time>
      </trkpt>
      <trkpt lat="45.51655" lon="6.65968">
        <ele>1829.81</ele>
        <time>2016-03-20T13:30:58Z</time>
      </trkpt>
      <trkpt lat="45.51677" lon="6.65971">
        <ele>1826.02</ele>
        <time>2016-03-20T13:31:00Z</time>
      </trkpt>
      <trkpt lat="45.51696" lon="6.65981">
        <ele>1822.99</ele>
        <time>2016-03-20T13:31:02Z</time>
      </trkpt>
      <trkpt lat="45.51712" lon="6.66005">
        <ele>1819.99</ele>
        <time>2016-03-20T13:31:04Z</time>
      </trkpt>
      <trkpt lat="45.5173" lon="6.66019">
        <ele>1816.03</ele>
        <time>2016-03-20T13:31:06Z</time>
      </trkpt>
      <trkpt lat="45.51747" lon="6.66009">
        <ele>1810.7</ele>
        <time>2016-03-20T13:31:09Z</time>
      </trkpt>
      <trkpt lat="45.51741" lon="6.65984">
        <ele>1787.72</ele>
        <time>2016-03-20T13:31:51Z</time>
      </trkpt>
      <trkpt lat="45.51736" lon="6.65958">
        <ele>1794.48</ele>
        <time>2016-03-20T13:32:06Z</time>
      </trkpt>
      <trkpt lat="45.51733" lon="6.65932">
        <ele>1804.28</ele>
        <time>2016-03-20T13:32:17Z</time>
      </trkpt>
      <trkpt lat="45.51733" lon="6.65905">
        <ele>1816.27</ele>
        <time>2016-03-20T13:32:29Z</time>
      </trkpt>
      <trkpt lat="45.51733" lon="6.65879">
        <ele>1823.29</ele>
        <time>2016-03-20T13:32:42Z</time>
      </trkpt>
      <trkpt lat="45.51733" lon="6.65852">
        <ele>1831.29</ele>
        <time>2016-03-20T13:32:58Z</time>
      </trkpt>
      <trkpt lat="45.51733" lon="6.65825">
        <ele>1839.29</ele>
        <time>2016-03-20T13:33:10Z</time>
      </trkpt>
      <trkpt lat="45.51733" lon="6.65798">
        <ele>1849.29</ele>
        <time>2016-03-20T13:33:22Z</time>
      </trkpt>
      <trkpt lat="45.51732" lon="6.65771">
        <ele>1858.29</ele>
        <time>2016-03-20T13:33:34Z</time>
      </trkpt>
      <trkpt lat="45.51731" lon="6.65744">
        <ele>1866.3</ele>
        <time>2016-03-20T13:33:46Z</time>
      </trkpt>
      <trkpt lat="45.5173" lon="6.65718">
        <ele>1875.25</ele>
        <time>2016-03-20T13:33:58Z</time>
      </trkpt>
      <trkpt lat="45.5173" lon="6.65689">
        <ele>1886.32</ele>
        <time>2016-03-20T13:34:11Z</time>
      </trkpt>
      <trkpt lat="45.5173" lon="6.65662">
        <ele>1895.28</ele>
        <time>2016-03-20T13:34:23Z</time>
      </trkpt>
      <trkpt lat="45.51726" lon="6.65635">
        <ele>1902.29</ele>
        <time>2016-03-20T13:34:35Z</time>
      </trkpt>
      <trkpt lat="45.51725" lon="6.65608">
        <ele>1912.44</ele>
        <time>2016-03-20T13:34:48Z</time>
      </trkpt>
      <trkpt lat="45.51723" lon="6.65581">
        <ele>1924.29</ele>
        <time>2016-03-20T13:35:00Z</time>
      </trkpt>
      <trkpt lat="45.51723" lon="6.65553">
        <ele>1931.29</ele>
        <time>2016-03-20T13:35:12Z</time>
      </trkpt>
      <trkpt lat="45.51724" lon="6.65525">
        <ele>1939.29</ele>
        <time>2016-03-20T13:35:23Z</time>
      </trkpt>
      <trkpt lat="45.51723" lon="6.65499">
        <ele>1945.52</ele>
        <time>2016-03-20T13:35:35Z</time>
      </trkpt>
      <trkpt lat="45.51722" lon="6.6547">
        <ele>1946.53</ele>
        <time>2016-03-20T13:35:47Z</time>
      </trkpt>
      <trkpt lat="45.51721" lon="6.65443">
        <ele>1951.49</ele>
        <time>2016-03-20T13:35:58Z</time>
      </trkpt>
      <trkpt lat="45.51721" lon="6.65417">
        <ele>1956.32</ele>
        <time>2016-03-20T13:36:09Z</time>
      </trkpt>
      <trkpt lat="45.51721" lon="6.65391">
        <ele>1961.52</ele>
        <time>2016-03-20T13:36:20Z</time>
      </trkpt>
      <trkpt lat="45.5172" lon="6.65363">
        <ele>1965.33</ele>
        <time>2016-03-20T13:36:32Z</time>
      </trkpt>
      <trkpt lat="45.51719" lon="6.65335">
        <ele>1967.52</ele>
        <time>2016-03-20T13:36:43Z</time>
      </trkpt>
      <trkpt lat="45.51719" lon="6.65309">
        <ele>1971.32</ele>
        <time>2016-03-20T13:36:54Z</time>
      </trkpt>
      <trkpt lat="45.5172" lon="6.65283">
        <ele>1975.32</ele>
        <time>2016-03-20T13:37:05Z</time>
      </trkpt>
      <trkpt lat="45.51719" lon="6.65257">
        <ele>1979.49</ele>
        <time>2016-03-20T13:37:16Z</time>
      </trkpt>
      <trkpt lat="45.51719" lon="6.65229">
        <ele>1981.53</ele>
        <time>2016-03-20T13:37:27Z</time>
      </trkpt>
      <trkpt lat="45.51717" lon="6.65202">
        <ele>1981.53</ele>
        <time>2016-03-20T13:37:40Z</time>
      </trkpt>
      <trkpt lat="45.51716" lon="6.65176">
        <ele>1981.56</ele>
        <time>2016-03-20T13:37:51Z</time>
      </trkpt>
      <trkpt lat="45.51714" lon="6.6515">
        <ele>1981.49</ele>
        <time>2016-03-20T13:38:02Z</time>
      </trkpt>
      <trkpt lat="45.51713" lon="6.65123">
        <ele>1982.49</ele>
        <time>2016-03-20T13:38:13Z</time>
      </trkpt>
      <trkpt lat="45.51709" lon="6.65094">
        <ele>1980.77</ele>
        <time>2016-03-20T13:38:22Z</time>
      </trkpt>
      <trkpt lat="45.51708" lon="6.65068">
        <ele>1980.45</ele>
        <time>2016-03-20T13:38:28Z</time>
      </trkpt>
      <trkpt lat="45.51715" lon="6.65044">
        <ele>1975.58</ele>
        <time>2016-03-20T13:39:12Z</time>
      </trkpt>
      <trkpt lat="45.51739" lon="6.65034">
        <ele>1971.58</ele>
        <time>2016-03-20T13:39:16Z</time>
      </trkpt>
      <trkpt lat="45.51751" lon="6.65003">
        <ele>1970.54</ele>
        <time>2016-03-20T13:39:19Z</time>
      </trkpt>
      <trkpt lat="45.51759" lon="6.64978">
        <ele>1969.57</ele>
        <time>2016-03-20T13:39:21Z</time>
      </trkpt>
      <trkpt lat="45.51765" lon="6.64944">
        <ele>1965.79</ele>
        <time>2016-03-20T13:39:24Z</time>
      </trkpt>
      <trkpt lat="45.51767" lon="6.64913">
        <ele>1964.19</ele>
        <time>2016-03-20T13:39:27Z</time>
      </trkpt>
      <trkpt lat="45.51773" lon="6.64884">
        <ele>1962.8</ele>
        <time>2016-03-20T13:39:30Z</time>
      </trkpt>
      <trkpt lat="45.51779" lon="6.64853">
        <ele>1958.78</ele>
        <time>2016-03-20T13:39:34Z</time>
      </trkpt>
      <trkpt lat="45.51784" lon="6.64828">
        <ele>1955.78</ele>
        <time>2016-03-20T13:39:37Z</time>
      </trkpt>
      <trkpt lat="45.51791" lon="6.64803">
        <ele>1954.73</ele>
        <time>2016-03-20T13:39:40Z</time>
      </trkpt>
      <trkpt lat="45.51806" lon="6.64781">
        <ele>1950.82</ele>
        <time>2016-03-20T13:39:43Z</time>
      </trkpt>
      <trkpt lat="45.51824" lon="6.64753">
        <ele>1947.62</ele>
        <time>2016-03-20T13:39:46Z</time>
      </trkpt>
      <trkpt lat="45.51837" lon="6.64724">
        <ele>1942.19</ele>
        <time>2016-03-20T13:39:49Z</time>
      </trkpt>
      <trkpt lat="45.51845" lon="6.64694">
        <ele>1939.58</ele>
        <time>2016-03-20T13:39:52Z</time>
      </trkpt>
      <trkpt lat="45.51849" lon="6.64662">
        <ele>1938.89</ele>
        <time>2016-03-20T13:39:55Z</time>
      </trkpt>
      <trkpt lat="45.51851" lon="6.64636">
        <ele>1937.75</ele>
        <time>2016-03-20T13:39:57Z</time>
      </trkpt>
      <trkpt lat="45.51858" lon="6.64603">
        <ele>1936.38</ele>
        <time>2016-03-20T13:40:00Z</time>
      </trkpt>
      <trkpt lat="45.51869" lon="6.64575">
        <ele>1936.69</ele>
        <time>2016-03-20T13:40:03Z</time>
      </trkpt>
      <trkpt lat="45.51887" lon="6.64555">
        <ele>1932.79</ele>
        <time>2016-03-20T13:40:06Z</time>
      </trkpt>
      <trkpt lat="45.51906" lon="6.64541">
        <ele>1932.73</ele>
        <time>2016-03-20T13:40:09Z</time>
      </trkpt>
      <trkpt lat="45.5193" lon="6.64538">
        <ele>1932.72</ele>
        <time>2016-03-20T13:40:12Z</time>
      </trkpt>
      <trkpt lat="45.51949" lon="6.64534">
        <ele>1930.78</ele>
        <time>2016-03-20T13:40:14Z</time>
      </trkpt>
      <trkpt lat="45.51969" lon="6.64525">
        <ele>1928.78</ele>
        <time>2016-03-20T13:40:16Z</time>
      </trkpt>
      <trkpt lat="45.51987" lon="6.64516">
        <ele>1926.94</ele>
        <time>2016-03-20T13:40:18Z</time>
      </trkpt>
      <trkpt lat="45.52007" lon="6.64509">
        <ele>1925.75</ele>
        <time>2016-03-20T13:40:20Z</time>
      </trkpt>
      <trkpt lat="45.52032" lon="6.64507">
        <ele>1921.18</ele>
        <time>2016-03-20T13:40:23Z</time>
      </trkpt>
      <trkpt lat="45.52034" lon="6.6448">
        <ele>1912.89</ele>
        <time>2016-03-20T13:40:26Z</time>
      </trkpt>
      <trkpt lat="45.52051" lon="6.64457">
        <ele>1900.38</ele>
        <time>2016-03-20T13:40:37Z</time>
      </trkpt>
      <trkpt lat="45.5207" lon="6.64434">
        <ele>1892.02</ele>
        <time>2016-03-20T13:40:40Z</time>
      </trkpt>
      <trkpt lat="45.52087" lon="6.64409">
        <ele>1888.99</ele>
        <time>2016-03-20T13:40:42Z</time>
      </trkpt>
      <trkpt lat="45.52104" lon="6.64396">
        <ele>1879.27</ele>
        <time>2016-03-20T13:40:44Z</time>
      </trkpt>
      <trkpt lat="45.52126" lon="6.64374">
        <ele>1876</ele>
        <time>2016-03-20T13:40:46Z</time>
      </trkpt>
      <trkpt lat="45.5215" lon="6.64352">
        <ele>1873.63</ele>
        <time>2016-03-20T13:40:48Z</time>
      </trkpt>
      <trkpt lat="45.52175" lon="6.64323">
        <ele>1869.38</ele>
        <time>2016-03-20T13:40:50Z</time>
      </trkpt>
      <trkpt lat="45.52191" lon="6.64311">
        <ele>1867.1</ele>
        <time>2016-03-20T13:40:51Z</time>
      </trkpt>
      <trkpt lat="45.52213" lon="6.64284">
        <ele>1862.39</ele>
        <time>2016-03-20T13:40:53Z</time>
      </trkpt>
      <trkpt lat="45.52236" lon="6.64261">
        <ele>1857.89</ele>
        <time>2016-03-20T13:40:55Z</time>
      </trkpt>
      <trkpt lat="45.52261" lon="6.64247">
        <ele>1854.83</ele>
        <time>2016-03-20T13:40:57Z</time>
      </trkpt>
      <trkpt lat="45.52275" lon="6.64231">
        <ele>1851.18</ele>
        <time>2016-03-20T13:40:59Z</time>
      </trkpt>
      <trkpt lat="45.52292" lon="6.64217">
        <ele>1846.08</ele>
        <time>2016-03-20T13:41:01Z</time>
      </trkpt>
      <trkpt lat="45.5231" lon="6.64191">
        <ele>1841.66</ele>
        <time>2016-03-20T13:41:04Z</time>
      </trkpt>
      <trkpt lat="45.52324" lon="6.64159">
        <ele>1837.02</ele>
        <time>2016-03-20T13:41:07Z</time>
      </trkpt>
      <trkpt lat="45.52339" lon="6.6414">
        <ele>1834.79</ele>
        <time>2016-03-20T13:41:09Z</time>
      </trkpt>
      <trkpt lat="45.52358" lon="6.64124">
        <ele>1831.82</ele>
        <time>2016-03-20T13:41:11Z</time>
      </trkpt>
      <trkpt lat="45.52372" lon="6.64101">
        <ele>1828.02</ele>
        <time>2016-03-20T13:41:13Z</time>
      </trkpt>
      <trkpt lat="45.52389" lon="6.64072">
        <ele>1819.92</ele>
        <time>2016-03-20T13:41:16Z</time>
      </trkpt>
      <trkpt lat="45.52406" lon="6.64051">
        <ele>1812.85</ele>
        <time>2016-03-20T13:41:19Z</time>
      </trkpt>
      <trkpt lat="45.52419" lon="6.64032">
        <ele>1810.78</ele>
        <time>2016-03-20T13:41:21Z</time>
      </trkpt>
      <trkpt lat="45.52433" lon="6.64009">
        <ele>1803.63</ele>
        <time>2016-03-20T13:41:25Z</time>
      </trkpt>
      <trkpt lat="45.52453" lon="6.64004">
        <ele>1782.51</ele>
        <time>2016-03-20T13:41:32Z</time>
      </trkpt>
      <trkpt lat="45.52467" lon="6.63986">
        <ele>1776.23</ele>
        <time>2016-03-20T13:41:35Z</time>
      </trkpt>
      <trkpt lat="45.52485" lon="6.63975">
        <ele>1770.67</ele>
        <time>2016-03-20T13:41:38Z</time>
      </trkpt>
      <trkpt lat="45.52503" lon="6.63957">
        <ele>1766.95</ele>
        <time>2016-03-20T13:41:41Z</time>
      </trkpt>
      <trkpt lat="45.52511" lon="6.6393">
        <ele>1761.8</ele>
        <time>2016-03-20T13:41:44Z</time>
      </trkpt>
      <trkpt lat="45.52522" lon="6.63906">
        <ele>1755.55</ele>
        <time>2016-03-20T13:41:47Z</time>
      </trkpt>
      <trkpt lat="45.52533" lon="6.63876">
        <ele>1748.04</ele>
        <time>2016-03-20T13:41:50Z</time>
      </trkpt>
      <trkpt lat="45.52546" lon="6.63854">
        <ele>1744.94</ele>
        <time>2016-03-20T13:41:53Z</time>
      </trkpt>
      <trkpt lat="45.52569" lon="6.63853">
        <ele>1718.79</ele>
        <time>2016-03-20T13:42:43Z</time>
      </trkpt>
      <trkpt lat="45.52581" lon="6.6382">
        <ele>1715.75</ele>
        <time>2016-03-20T13:42:46Z</time>
      </trkpt>
      <trkpt lat="45.52585" lon="6.63785">
        <ele>1712.59</ele>
        <time>2016-03-20T13:42:49Z</time>
      </trkpt>
      <trkpt lat="45.52594" lon="6.63761">
        <ele>1709.62</ele>
        <time>2016-03-20T13:42:52Z</time>
      </trkpt>
      <trkpt lat="45.52608" lon="6.63733">
        <ele>1701.04</ele>
        <time>2016-03-20T13:42:56Z</time>
      </trkpt>
      <trkpt lat="45.52615" lon="6.63704">
        <ele>1695.03</ele>
        <time>2016-03-20T13:42:59Z</time>
      </trkpt>
      <trkpt lat="45.52622" lon="6.63678">
        <ele>1691.03</ele>
        <time>2016-03-20T13:43:01Z</time>
      </trkpt>
      <trkpt lat="45.52629" lon="6.63648">
        <ele>1690.71</ele>
        <time>2016-03-20T13:43:03Z</time>
      </trkpt>
      <trkpt lat="45.52643" lon="6.63629">
        <ele>1686.22</ele>
        <time>2016-03-20T13:43:05Z</time>
      </trkpt>
      <trkpt lat="45.52651" lon="6.636">
        <ele>1679.04</ele>
        <time>2016-03-20T13:43:08Z</time>
      </trkpt>
      <trkpt lat="45.52678" lon="6.63593">
        <ele>1677.54</ele>
        <time>2016-03-20T13:43:11Z</time>
      </trkpt>
      <trkpt lat="45.52697" lon="6.63606">
        <ele>1670.83</ele>
        <time>2016-03-20T13:43:15Z</time>
      </trkpt>
      <trkpt lat="45.5271" lon="6.63633">
        <ele>1655.86</ele>
        <time>2016-03-20T13:43:19Z</time>
      </trkpt>
      <trkpt lat="45.52722" lon="6.63657">
        <ele>1639.87</ele>
        <time>2016-03-20T13:43:25Z</time>
      </trkpt>
      <trkpt lat="45.52741" lon="6.63671">
        <ele>1633.86</ele>
        <time>2016-03-20T13:43:29Z</time>
      </trkpt>
      <trkpt lat="45.52759" lon="6.63691">
        <ele>1628.91</ele>
        <time>2016-03-20T13:43:33Z</time>
      </trkpt>
      <trkpt lat="45.52777" lon="6.63682">
        <ele>1621.88</ele>
        <time>2016-03-20T13:43:36Z</time>
      </trkpt>
      <trkpt lat="45.52795" lon="6.63693">
        <ele>1616.83</ele>
        <time>2016-03-20T13:43:39Z</time>
      </trkpt>
      <trkpt lat="45.52815" lon="6.63705">
        <ele>1614.74</ele>
        <time>2016-03-20T13:43:42Z</time>
      </trkpt>
      <trkpt lat="45.52836" lon="6.63712">
        <ele>1606.85</ele>
        <time>2016-03-20T13:43:45Z</time>
      </trkpt>
      <trkpt lat="45.52856" lon="6.63719">
        <ele>1602.79</ele>
        <time>2016-03-20T13:43:48Z</time>
      </trkpt>
      <trkpt lat="45.52878" lon="6.63721">
        <ele>1596.04</ele>
        <time>2016-03-20T13:43:51Z</time>
      </trkpt>
      <trkpt lat="45.529" lon="6.63722">
        <ele>1592.82</ele>
        <time>2016-03-20T13:43:54Z</time>
      </trkpt>
      <trkpt lat="45.52927" lon="6.6373">
        <ele>1586.97</ele>
        <time>2016-03-20T13:43:57Z</time>
      </trkpt>
      <trkpt lat="45.52946" lon="6.63732">
        <ele>1584.95</ele>
        <time>2016-03-20T13:43:59Z</time>
      </trkpt>
      <trkpt lat="45.52963" lon="6.6374">
        <ele>1581.67</ele>
        <time>2016-03-20T13:44:01Z</time>
      </trkpt>
      <trkpt lat="45.52986" lon="6.63743">
        <ele>1578.98</ele>
        <time>2016-03-20T13:44:03Z</time>
      </trkpt>
      <trkpt lat="45.53011" lon="6.63738">
        <ele>1573.11</ele>
        <time>2016-03-20T13:44:05Z</time>
      </trkpt>
      <trkpt lat="45.5303" lon="6.63721">
        <ele>1569.83</ele>
        <time>2016-03-20T13:44:07Z</time>
      </trkpt>
      <trkpt lat="45.53052" lon="6.6371">
        <ele>1526.02</ele>
        <time>2016-03-20T13:45:11Z</time>
      </trkpt>
      <trkpt lat="45.5307" lon="6.63711">
        <ele>1522.83</ele>
        <time>2016-03-20T13:45:13Z</time>
      </trkpt>
      <trkpt lat="45.53093" lon="6.63707">
        <ele>1516.77</ele>
        <time>2016-03-20T13:45:16Z</time>
      </trkpt>
      <trkpt lat="45.53115" lon="6.63699">
        <ele>1511.19</ele>
        <time>2016-03-20T13:45:19Z</time>
      </trkpt>
      <trkpt lat="45.53137" lon="6.63701">
        <ele>1508</ele>
        <time>2016-03-20T13:45:21Z</time>
      </trkpt>
      <trkpt lat="45.53156" lon="6.63707">
        <ele>1501.26</ele>
        <time>2016-03-20T13:45:24Z</time>
      </trkpt>
      <trkpt lat="45.53176" lon="6.63719">
        <ele>1492.06</ele>
        <time>2016-03-20T13:45:27Z</time>
      </trkpt>
      <trkpt lat="45.53198" lon="6.63712">
        <ele>1481.9</ele>
        <time>2016-03-20T13:45:30Z</time>
      </trkpt>
      <trkpt lat="45.53221" lon="6.63706">
        <ele>1463.6</ele>
        <time>2016-03-20T13:45:36Z</time>
      </trkpt>
      <trkpt lat="45.53241" lon="6.63708">
        <ele>1457.42</ele>
        <time>2016-03-20T13:45:39Z</time>
      </trkpt>
      <trkpt lat="45.53262" lon="6.63696">
        <ele>1447.03</ele>
        <time>2016-03-20T13:45:42Z</time>
      </trkpt>
      <trkpt lat="45.53279" lon="6.63684">
        <ele>1442.07</ele>
        <time>2016-03-20T13:45:44Z</time>
      </trkpt>
      <trkpt lat="45.53298" lon="6.63679">
        <ele>1438.03</ele>
        <time>2016-03-20T13:45:46Z</time>
      </trkpt>
      <trkpt lat="45.53317" lon="6.63666">
        <ele>1434.99</ele>
        <time>2016-03-20T13:45:48Z</time>
      </trkpt>
      <trkpt lat="45.53338" lon="6.63662">
        <ele>1429.43</ele>
        <time>2016-03-20T13:45:50Z</time>
      </trkpt>
      <trkpt lat="45.53361" lon="6.63659">
        <ele>1421.4</ele>
        <time>2016-03-20T13:45:53Z</time>
      </trkpt>
      <trkpt lat="45.53382" lon="6.63658">
        <ele>1414.84</ele>
        <time>2016-03-20T13:45:56Z</time>
      </trkpt>
      <trkpt lat="45.53406" lon="6.6365">
        <ele>1409.06</ele>
        <time>2016-03-20T13:45:59Z</time>
      </trkpt>
      <trkpt lat="45.53425" lon="6.63659">
        <ele>1398.14</ele>
        <time>2016-03-20T13:46:02Z</time>
      </trkpt>
      <trkpt lat="45.53444" lon="6.63663">
        <ele>1394.04</ele>
        <time>2016-03-20T13:46:04Z</time>
      </trkpt>
      <trkpt lat="45.53465" lon="6.63681">
        <ele>1382.49</ele>
        <time>2016-03-20T13:46:07Z</time>
      </trkpt>
      <trkpt lat="45.53461" lon="6.63706">
        <ele>1360.57</ele>
        <time>2016-03-20T13:46:56Z</time>
      </trkpt>
      <trkpt lat="45.5345" lon="6.63727">
        <ele>1345.38</ele>
        <time>2016-03-20T13:48:48Z</time>
      </trkpt>
      <trkpt lat="45.5343" lon="6.63739">
        <ele>1344.36</ele>
        <time>2016-03-20T13:48:53Z</time>
      </trkpt>
      <trkpt lat="45.53411" lon="6.6375">
        <ele>1353.83</ele>
        <time>2016-03-20T13:48:58Z</time>
      </trkpt>
      <trkpt lat="45.53392" lon="6.63762">
        <ele>1366.07</ele>
        <time>2016-03-20T13:49:03Z</time>
      </trkpt>
      <trkpt lat="45.53374" lon="6.63774">
        <ele>1377.82</ele>
        <time>2016-03-20T13:49:08Z</time>
      </trkpt>
      <trkpt lat="45.53355" lon="6.63788">
        <ele>1388.03</ele>
        <time>2016-03-20T13:49:13Z</time>
      </trkpt>
      <trkpt lat="45.53337" lon="6.63801">
        <ele>1396.26</ele>
        <time>2016-03-20T13:49:18Z</time>
      </trkpt>
      <trkpt lat="45.53319" lon="6.63815">
        <ele>1401.31</ele>
        <time>2016-03-20T13:49:23Z</time>
      </trkpt>
      <trkpt lat="45.53299" lon="6.63829">
        <ele>1406.28</ele>
        <time>2016-03-20T13:49:28Z</time>
      </trkpt>
      <trkpt lat="45.5328" lon="6.63842">
        <ele>1410.48</ele>
        <time>2016-03-20T13:49:33Z</time>
      </trkpt>
      <trkpt lat="45.53261" lon="6.63855">
        <ele>1418.04</ele>
        <time>2016-03-20T13:49:38Z</time>
      </trkpt>
      <trkpt lat="45.53242" lon="6.6387">
        <ele>1423.44</ele>
        <time>2016-03-20T13:49:43Z</time>
      </trkpt>
      <trkpt lat="45.53222" lon="6.63883">
        <ele>1432.04</ele>
        <time>2016-03-20T13:49:48Z</time>
      </trkpt>
      <trkpt lat="45.53206" lon="6.63895">
        <ele>1436.28</ele>
        <time>2016-03-20T13:49:52Z</time>
      </trkpt>
      <trkpt lat="45.53186" lon="6.63908">
        <ele>1439.33</ele>
        <time>2016-03-20T13:49:57Z</time>
      </trkpt>
      <trkpt lat="45.53166" lon="6.63922">
        <ele>1443.28</ele>
        <time>2016-03-20T13:50:02Z</time>
      </trkpt>
      <trkpt lat="45.53148" lon="6.63937">
        <ele>1449.11</ele>
        <time>2016-03-20T13:50:07Z</time>
      </trkpt>
      <trkpt lat="45.53131" lon="6.63947">
        <ele>1453.5</ele>
        <time>2016-03-20T13:50:11Z</time>
      </trkpt>
      <trkpt lat="45.53111" lon="6.6396">
        <ele>1458.68</ele>
        <time>2016-03-20T13:50:16Z</time>
      </trkpt>
      <trkpt lat="45.53092" lon="6.63972">
        <ele>1471.97</ele>
        <time>2016-03-20T13:50:21Z</time>
      </trkpt>
      <trkpt lat="45.53074" lon="6.63986">
        <ele>1477.47</ele>
        <time>2016-03-20T13:50:26Z</time>
      </trkpt>
      <trkpt lat="45.53056" lon="6.64">
        <ele>1480.53</ele>
        <time>2016-03-20T13:50:31Z</time>
      </trkpt>
      <trkpt lat="45.53034" lon="6.64015">
        <ele>1485.91</ele>
        <time>2016-03-20T13:50:36Z</time>
      </trkpt>
      <trkpt lat="45.53014" lon="6.64027">
        <ele>1497.44</ele>
        <time>2016-03-20T13:50:41Z</time>
      </trkpt>
      <trkpt lat="45.52997" lon="6.64039">
        <ele>1510.83</ele>
        <time>2016-03-20T13:50:46Z</time>
      </trkpt>
      <trkpt lat="45.5298" lon="6.6405">
        <ele>1515.92</ele>
        <time>2016-03-20T13:50:50Z</time>
      </trkpt>
      <trkpt lat="45.52962" lon="6.64063">
        <ele>1524.62</ele>
        <time>2016-03-20T13:50:55Z</time>
      </trkpt>
      <trkpt lat="45.52943" lon="6.64076">
        <ele>1534.23</ele>
        <time>2016-03-20T13:51:00Z</time>
      </trkpt>
      <trkpt lat="45.52924" lon="6.64089">
        <ele>1540.89</ele>
        <time>2016-03-20T13:51:05Z</time>
      </trkpt>
      <trkpt lat="45.52908" lon="6.64103">
        <ele>1554.66</ele>
        <time>2016-03-20T13:51:10Z</time>
      </trkpt>
      <trkpt lat="45.5289" lon="6.64114">
        <ele>1564.59</ele>
        <time>2016-03-20T13:51:15Z</time>
      </trkpt>
      <trkpt lat="45.52871" lon="6.64128">
        <ele>1575.23</ele>
        <time>2016-03-20T13:51:20Z</time>
      </trkpt>
      <trkpt lat="45.52853" lon="6.64142">
        <ele>1582.04</ele>
        <time>2016-03-20T13:51:25Z</time>
      </trkpt>
      <trkpt lat="45.52836" lon="6.64155">
        <ele>1591.8</ele>
        <time>2016-03-20T13:51:30Z</time>
      </trkpt>
      <trkpt lat="45.52818" lon="6.64166">
        <ele>1597.09</ele>
        <time>2016-03-20T13:51:35Z</time>
      </trkpt>
      <trkpt lat="45.52799" lon="6.6418">
        <ele>1611.68</ele>
        <time>2016-03-20T13:51:40Z</time>
      </trkpt>
      <trkpt lat="45.52783" lon="6.64191">
        <ele>1614.32</ele>
        <time>2016-03-20T13:51:44Z</time>
      </trkpt>
      <trkpt lat="45.52764" lon="6.64205">
        <ele>1621.28</ele>
        <time>2016-03-20T13:51:49Z</time>
      </trkpt>
      <trkpt lat="45.52745" lon="6.64221">
        <ele>1623.36</ele>
        <time>2016-03-20T13:51:54Z</time>
      </trkpt>
      <trkpt lat="45.52728" lon="6.64231">
        <ele>1626.31</ele>
        <time>2016-03-20T13:51:58Z</time>
      </trkpt>
      <trkpt lat="45.52712" lon="6.64242">
        <ele>1628.48</ele>
        <time>2016-03-20T13:52:02Z</time>
      </trkpt>
      <trkpt lat="45.52691" lon="6.64256">
        <ele>1635.12</ele>
        <time>2016-03-20T13:52:07Z</time>
      </trkpt>
      <trkpt lat="45.52673" lon="6.64271">
        <ele>1637.5</ele>
        <time>2016-03-20T13:52:12Z</time>
      </trkpt>
      <trkpt lat="45.52653" lon="6.64282">
        <ele>1652.94</ele>
        <time>2016-03-20T13:52:17Z</time>
      </trkpt>
      <trkpt lat="45.52633" lon="6.64296">
        <ele>1663.03</ele>
        <time>2016-03-20T13:52:22Z</time>
      </trkpt>
      <trkpt lat="45.52614" lon="6.64309">
        <ele>1670.28</ele>
        <time>2016-03-20T13:52:27Z</time>
      </trkpt>
      <trkpt lat="45.52595" lon="6.64324">
        <ele>1677.26</ele>
        <time>2016-03-20T13:52:32Z</time>
      </trkpt>
      <trkpt lat="45.52576" lon="6.64337">
        <ele>1688.43</ele>
        <time>2016-03-20T13:52:37Z</time>
      </trkpt>
      <trkpt lat="45.52559" lon="6.64348">
        <ele>1694.84</ele>
        <time>2016-03-20T13:52:41Z</time>
      </trkpt>
      <trkpt lat="45.52539" lon="6.64359">
        <ele>1706</ele>
        <time>2016-03-20T13:52:46Z</time>
      </trkpt>
      <trkpt lat="45.5252" lon="6.64374">
        <ele>1713.31</ele>
        <time>2016-03-20T13:52:51Z</time>
      </trkpt>
      <trkpt lat="45.525" lon="6.64386">
        <ele>1720.43</ele>
        <time>2016-03-20T13:52:56Z</time>
      </trkpt>
      <trkpt lat="45.52482" lon="6.64402">
        <ele>1724.08</ele>
        <time>2016-03-20T13:53:01Z</time>
      </trkpt>
      <trkpt lat="45.52465" lon="6.64413">
        <ele>1730.28</ele>
        <time>2016-03-20T13:53:06Z</time>
      </trkpt>
      <trkpt lat="45.52448" lon="6.64424">
        <ele>1734.31</ele>
        <time>2016-03-20T13:53:10Z</time>
      </trkpt>
      <trkpt lat="45.52432" lon="6.64437">
        <ele>1734.53</ele>
        <time>2016-03-20T13:53:14Z</time>
      </trkpt>
      <trkpt lat="45.52413" lon="6.6445">
        <ele>1738.08</ele>
        <time>2016-03-20T13:53:19Z</time>
      </trkpt>
      <trkpt lat="45.52396" lon="6.64461">
        <ele>1742.08</ele>
        <time>2016-03-20T13:53:23Z</time>
      </trkpt>
      <trkpt lat="45.5238" lon="6.64472">
        <ele>1743.33</ele>
        <time>2016-03-20T13:53:27Z</time>
      </trkpt>
      <trkpt lat="45.52361" lon="6.64487">
        <ele>1750.1</ele>
        <time>2016-03-20T13:53:32Z</time>
      </trkpt>
      <trkpt lat="45.52342" lon="6.64501">
        <ele>1756.08</ele>
        <time>2016-03-20T13:53:37Z</time>
      </trkpt>
      <trkpt lat="45.52325" lon="6.64511">
        <ele>1764.04</ele>
        <time>2016-03-20T13:53:41Z</time>
      </trkpt>
      <trkpt lat="45.52305" lon="6.64524">
        <ele>1770.28</ele>
        <time>2016-03-20T13:53:46Z</time>
      </trkpt>
      <trkpt lat="45.52285" lon="6.64538">
        <ele>1777.25</ele>
        <time>2016-03-20T13:53:51Z</time>
      </trkpt>
      <trkpt lat="45.52266" lon="6.64554">
        <ele>1783.28</ele>
        <time>2016-03-20T13:53:56Z</time>
      </trkpt>
      <trkpt lat="45.52247" lon="6.64568">
        <ele>1789.08</ele>
        <time>2016-03-20T13:54:01Z</time>
      </trkpt>
      <trkpt lat="45.52228" lon="6.64582">
        <ele>1796.07</ele>
        <time>2016-03-20T13:54:06Z</time>
      </trkpt>
      <trkpt lat="45.52208" lon="6.64595">
        <ele>1804.23</ele>
        <time>2016-03-20T13:54:11Z</time>
      </trkpt>
      <trkpt lat="45.5219" lon="6.64607">
        <ele>1813.86</ele>
        <time>2016-03-20T13:54:16Z</time>
      </trkpt>
      <trkpt lat="45.52171" lon="6.64621">
        <ele>1823.2</ele>
        <time>2016-03-20T13:54:21Z</time>
      </trkpt>
      <trkpt lat="45.52152" lon="6.64633">
        <ele>1832.06</ele>
        <time>2016-03-20T13:54:26Z</time>
      </trkpt>
      <trkpt lat="45.52134" lon="6.64647">
        <ele>1841.68</ele>
        <time>2016-03-20T13:54:31Z</time>
      </trkpt>
      <trkpt lat="45.52116" lon="6.64659">
        <ele>1851.08</ele>
        <time>2016-03-20T13:54:36Z</time>
      </trkpt>
      <trkpt lat="45.52097" lon="6.64671">
        <ele>1866.98</ele>
        <time>2016-03-20T13:54:41Z</time>
      </trkpt>
      <trkpt lat="45.52081" lon="6.64684">
        <ele>1879.03</ele>
        <time>2016-03-20T13:54:46Z</time>
      </trkpt>
      <trkpt lat="45.52063" lon="6.64696">
        <ele>1891.62</ele>
        <time>2016-03-20T13:54:51Z</time>
      </trkpt>
      <trkpt lat="45.52044" lon="6.64707">
        <ele>1902.03</ele>
        <time>2016-03-20T13:54:56Z</time>
      </trkpt>
      <trkpt lat="45.52027" lon="6.6472">
        <ele>1915.65</ele>
        <time>2016-03-20T13:55:01Z</time>
      </trkpt>
      <trkpt lat="45.5201" lon="6.64733">
        <ele>1927.79</ele>
        <time>2016-03-20T13:55:06Z</time>
      </trkpt>
      <trkpt lat="45.51993" lon="6.64744">
        <ele>1945.54</ele>
        <time>2016-03-20T13:55:11Z</time>
      </trkpt>
      <trkpt lat="45.51975" lon="6.64761">
        <ele>1951.31</ele>
        <time>2016-03-20T13:55:16Z</time>
      </trkpt>
      <trkpt lat="45.51956" lon="6.64774">
        <ele>1958.08</ele>
        <time>2016-03-20T13:55:21Z</time>
      </trkpt>
      <trkpt lat="45.51936" lon="6.64787">
        <ele>1961.29</ele>
        <time>2016-03-20T13:55:26Z</time>
      </trkpt>
      <trkpt lat="45.51916" lon="6.64802">
        <ele>1963.52</ele>
        <time>2016-03-20T13:55:31Z</time>
      </trkpt>
      <trkpt lat="45.51896" lon="6.64815">
        <ele>1963.57</ele>
        <time>2016-03-20T13:55:36Z</time>
      </trkpt>
      <trkpt lat="45.5188" lon="6.64828">
        <ele>1961.74</ele>
        <time>2016-03-20T13:55:40Z</time>
      </trkpt>
      <trkpt lat="45.51864" lon="6.64839">
        <ele>1961.5</ele>
        <time>2016-03-20T13:55:44Z</time>
      </trkpt>
      <trkpt lat="45.51848" lon="6.64852">
        <ele>1961.53</ele>
        <time>2016-03-20T13:55:48Z</time>
      </trkpt>
      <trkpt lat="45.51828" lon="6.64865">
        <ele>1961.34</ele>
        <time>2016-03-20T13:55:53Z</time>
      </trkpt>
      <trkpt lat="45.51812" lon="6.64879">
        <ele>1961.53</ele>
        <time>2016-03-20T13:55:57Z</time>
      </trkpt>
      <trkpt lat="45.51796" lon="6.6489">
        <ele>1962.53</ele>
        <time>2016-03-20T13:56:01Z</time>
      </trkpt>
      <trkpt lat="45.51776" lon="6.64905">
        <ele>1964.62</ele>
        <time>2016-03-20T13:56:06Z</time>
      </trkpt>
      <trkpt lat="45.5176" lon="6.64915">
        <ele>1965.52</ele>
        <time>2016-03-20T13:56:10Z</time>
      </trkpt>
      <trkpt lat="45.51743" lon="6.64928">
        <ele>1966.49</ele>
        <time>2016-03-20T13:56:14Z</time>
      </trkpt>
      <trkpt lat="45.51727" lon="6.6494">
        <ele>1967.53</ele>
        <time>2016-03-20T13:56:18Z</time>
      </trkpt>
      <trkpt lat="45.51707" lon="6.64954">
        <ele>1969.49</ele>
        <time>2016-03-20T13:56:23Z</time>
      </trkpt>
      <trkpt lat="45.51691" lon="6.64965">
        <ele>1970.53</ele>
        <time>2016-03-20T13:56:27Z</time>
      </trkpt>
      <trkpt lat="45.51675" lon="6.64978">
        <ele>1967.54</ele>
        <time>2016-03-20T13:56:34Z</time>
      </trkpt>
      <trkpt lat="45.51683" lon="6.65002">
        <ele>1960.73</ele>
        <time>2016-03-20T13:58:01Z</time>
      </trkpt>
      <trkpt lat="45.51704" lon="6.65009">
        <ele>1957.81</ele>
        <time>2016-03-20T13:58:13Z</time>
      </trkpt>
      <trkpt lat="45.51722" lon="6.65006">
        <ele>1955.74</ele>
        <time>2016-03-20T13:58:16Z</time>
      </trkpt>
      <trkpt lat="45.51738" lon="6.64994">
        <ele>1957.14</ele>
        <time>2016-03-20T13:58:18Z</time>
      </trkpt>
      <trkpt lat="45.5175" lon="6.64969">
        <ele>1959.51</ele>
        <time>2016-03-20T13:58:21Z</time>
      </trkpt>
      <trkpt lat="45.51753" lon="6.64937">
        <ele>1956.81</ele>
        <time>2016-03-20T13:58:23Z</time>
      </trkpt>
      <trkpt lat="45.51758" lon="6.64912">
        <ele>1956.7</ele>
        <time>2016-03-20T13:58:25Z</time>
      </trkpt>
      <trkpt lat="45.51768" lon="6.64884">
        <ele>1958.32</ele>
        <time>2016-03-20T13:58:28Z</time>
      </trkpt>
      <trkpt lat="45.51775" lon="6.6486">
        <ele>1955.75</ele>
        <time>2016-03-20T13:58:31Z</time>
      </trkpt>
      <trkpt lat="45.51783" lon="6.6483">
        <ele>1954.53</ele>
        <time>2016-03-20T13:58:35Z</time>
      </trkpt>
      <trkpt lat="45.51793" lon="6.64808">
        <ele>1955.33</ele>
        <time>2016-03-20T13:58:38Z</time>
      </trkpt>
      <trkpt lat="45.51808" lon="6.64786">
        <ele>1956.17</ele>
        <time>2016-03-20T13:58:41Z</time>
      </trkpt>
      <trkpt lat="45.51821" lon="6.64767">
        <ele>1955.56</ele>
        <time>2016-03-20T13:58:43Z</time>
      </trkpt>
      <trkpt lat="45.51836" lon="6.64738">
        <ele>1954.57</ele>
        <time>2016-03-20T13:58:46Z</time>
      </trkpt>
      <trkpt lat="45.51843" lon="6.64707">
        <ele>1950.69</ele>
        <time>2016-03-20T13:58:49Z</time>
      </trkpt>
      <trkpt lat="45.51844" lon="6.64675">
        <ele>1941.26</ele>
        <time>2016-03-20T13:58:53Z</time>
      </trkpt>
      <trkpt lat="45.51848" lon="6.64643">
        <ele>1939.7</ele>
        <time>2016-03-20T13:58:56Z</time>
      </trkpt>
      <trkpt lat="45.51857" lon="6.64612">
        <ele>1938.54</ele>
        <time>2016-03-20T13:58:59Z</time>
      </trkpt>
      <trkpt lat="45.51866" lon="6.64583">
        <ele>1937.54</ele>
        <time>2016-03-20T13:59:02Z</time>
      </trkpt>
      <trkpt lat="45.51881" lon="6.64563">
        <ele>1933.05</ele>
        <time>2016-03-20T13:59:05Z</time>
      </trkpt>
      <trkpt lat="45.51896" lon="6.64547">
        <ele>1933.53</ele>
        <time>2016-03-20T13:59:09Z</time>
      </trkpt>
      <trkpt lat="45.51921" lon="6.6454">
        <ele>1930.59</ele>
        <time>2016-03-20T13:59:12Z</time>
      </trkpt>
      <trkpt lat="45.51943" lon="6.64533">
        <ele>1927.65</ele>
        <time>2016-03-20T13:59:14Z</time>
      </trkpt>
      <trkpt lat="45.51968" lon="6.64528">
        <ele>1922.57</ele>
        <time>2016-03-20T13:59:17Z</time>
      </trkpt>
      <trkpt lat="45.51986" lon="6.64521">
        <ele>1919.81</ele>
        <time>2016-03-20T13:59:19Z</time>
      </trkpt>
      <trkpt lat="45.52005" lon="6.6452">
        <ele>1917.78</ele>
        <time>2016-03-20T13:59:21Z</time>
      </trkpt>
      <trkpt lat="45.52031" lon="6.64511">
        <ele>1915.61</ele>
        <time>2016-03-20T13:59:24Z</time>
      </trkpt>
      <trkpt lat="45.52042" lon="6.64486">
        <ele>1914.73</ele>
        <time>2016-03-20T13:59:27Z</time>
      </trkpt>
      <trkpt lat="45.52059" lon="6.64468">
        <ele>1908.03</ele>
        <time>2016-03-20T13:59:32Z</time>
      </trkpt>
      <trkpt lat="45.52077" lon="6.64445">
        <ele>1902.83</ele>
        <time>2016-03-20T13:59:35Z</time>
      </trkpt>
      <trkpt lat="45.52098" lon="6.64422">
        <ele>1899.75</ele>
        <time>2016-03-20T13:59:38Z</time>
      </trkpt>
      <trkpt lat="45.52117" lon="6.64409">
        <ele>1896.98</ele>
        <time>2016-03-20T13:59:40Z</time>
      </trkpt>
      <trkpt lat="45.52135" lon="6.64387">
        <ele>1892.71</ele>
        <time>2016-03-20T13:59:42Z</time>
      </trkpt>
      <trkpt lat="45.5215" lon="6.6436">
        <ele>1889.98</ele>
        <time>2016-03-20T13:59:44Z</time>
      </trkpt>
      <trkpt lat="45.52172" lon="6.64342">
        <ele>1886.83</ele>
        <time>2016-03-20T13:59:46Z</time>
      </trkpt>
      <trkpt lat="45.52185" lon="6.64321">
        <ele>1880.62</ele>
        <time>2016-03-20T13:59:48Z</time>
      </trkpt>
      <trkpt lat="45.52205" lon="6.64298">
        <ele>1877.81</ele>
        <time>2016-03-20T13:59:50Z</time>
      </trkpt>
      <trkpt lat="45.52227" lon="6.64286">
        <ele>1876.74</ele>
        <time>2016-03-20T13:59:52Z</time>
      </trkpt>
      <trkpt lat="45.52251" lon="6.64271">
        <ele>1875.58</ele>
        <time>2016-03-20T13:59:54Z</time>
      </trkpt>
      <trkpt lat="45.52276" lon="6.64282">
        <ele>1871.53</ele>
        <time>2016-03-20T13:59:56Z</time>
      </trkpt>
      <trkpt lat="45.52293" lon="6.64275">
        <ele>1864.33</ele>
        <time>2016-03-20T13:59:58Z</time>
      </trkpt>
      <trkpt lat="45.52312" lon="6.64266">
        <ele>1857.48</ele>
        <time>2016-03-20T14:00:00Z</time>
      </trkpt>
      <trkpt lat="45.52338" lon="6.64253">
        <ele>1850.23</ele>
        <time>2016-03-20T14:00:03Z</time>
      </trkpt>
      <trkpt lat="45.52356" lon="6.64238">
        <ele>1845.24</ele>
        <time>2016-03-20T14:00:05Z</time>
      </trkpt>
      <trkpt lat="45.52375" lon="6.64215">
        <ele>1840.24</ele>
        <time>2016-03-20T14:00:07Z</time>
      </trkpt>
      <trkpt lat="45.52386" lon="6.64184">
        <ele>1834.42</ele>
        <time>2016-03-20T14:00:10Z</time>
      </trkpt>
      <trkpt lat="45.52406" lon="6.64185">
        <ele>1821.13</ele>
        <time>2016-03-20T14:00:14Z</time>
      </trkpt>
      <trkpt lat="45.52416" lon="6.64208">
        <ele>1813.94</ele>
        <time>2016-03-20T14:00:19Z</time>
      </trkpt>
      <trkpt lat="45.52435" lon="6.6421">
        <ele>1811.79</ele>
        <time>2016-03-20T14:00:21Z</time>
      </trkpt>
      <trkpt lat="45.52456" lon="6.6423">
        <ele>1806.7</ele>
        <time>2016-03-20T14:00:24Z</time>
      </trkpt>
      <trkpt lat="45.52475" lon="6.64248">
        <ele>1803.78</ele>
        <time>2016-03-20T14:00:27Z</time>
      </trkpt>
      <trkpt lat="45.52487" lon="6.64276">
        <ele>1796.34</ele>
        <time>2016-03-20T14:00:29Z</time>
      </trkpt>
      <trkpt lat="45.52496" lon="6.643">
        <ele>1792.36</ele>
        <time>2016-03-20T14:00:31Z</time>
      </trkpt>
      <trkpt lat="45.52503" lon="6.64332">
        <ele>1787.4</ele>
        <time>2016-03-20T14:00:33Z</time>
      </trkpt>
      <trkpt lat="45.5251" lon="6.6436">
        <ele>1783.05</ele>
        <time>2016-03-20T14:00:35Z</time>
      </trkpt>
      <trkpt lat="45.52517" lon="6.64383">
        <ele>1777.11</ele>
        <time>2016-03-20T14:00:37Z</time>
      </trkpt>
      <trkpt lat="45.52525" lon="6.64413">
        <ele>1773.19</ele>
        <time>2016-03-20T14:00:39Z</time>
      </trkpt>
      <trkpt lat="45.52524" lon="6.64444">
        <ele>1769.84</ele>
        <time>2016-03-20T14:00:41Z</time>
      </trkpt>
      <trkpt lat="45.5254" lon="6.6447">
        <ele>1760.38</ele>
        <time>2016-03-20T14:00:44Z</time>
      </trkpt>
      <trkpt lat="45.5255" lon="6.64496">
        <ele>1755.08</ele>
        <time>2016-03-20T14:00:46Z</time>
      </trkpt>
      <trkpt lat="45.52554" lon="6.64522">
        <ele>1749.43</ele>
        <time>2016-03-20T14:00:48Z</time>
      </trkpt>
      <trkpt lat="45.52564" lon="6.64546">
        <ele>1746.17</ele>
        <time>2016-03-20T14:00:50Z</time>
      </trkpt>
      <trkpt lat="45.52584" lon="6.64536">
        <ele>1741.24</ele>
        <time>2016-03-20T14:00:52Z</time>
      </trkpt>
      <trkpt lat="45.5261" lon="6.64524">
        <ele>1732.86</ele>
        <time>2016-03-20T14:00:55Z</time>
      </trkpt>
      <trkpt lat="45.5263" lon="6.64521">
        <ele>1710.12</ele>
        <time>2016-03-20T14:01:02Z</time>
      </trkpt>
      <trkpt lat="45.52656" lon="6.64519">
        <ele>1705.82</ele>
        <time>2016-03-20T14:01:05Z</time>
      </trkpt>
      <trkpt lat="45.52676" lon="6.64501">
        <ele>1698.3</ele>
        <time>2016-03-20T14:01:08Z</time>
      </trkpt>
      <trkpt lat="45.52689" lon="6.64519">
        <ele>1684.92</ele>
        <time>2016-03-20T14:01:13Z</time>
      </trkpt>
      <trkpt lat="45.52698" lon="6.64544">
        <ele>1676.66</ele>
        <time>2016-03-20T14:01:16Z</time>
      </trkpt>
      <trkpt lat="45.52695" lon="6.64573">
        <ele>1670.68</ele>
        <time>2016-03-20T14:01:19Z</time>
      </trkpt>
      <trkpt lat="45.52704" lon="6.64603">
        <ele>1661.89</ele>
        <time>2016-03-20T14:01:22Z</time>
      </trkpt>
      <trkpt lat="45.52725" lon="6.64611">
        <ele>1650.91</ele>
        <time>2016-03-20T14:01:25Z</time>
      </trkpt>
      <trkpt lat="45.52739" lon="6.64642">
        <ele>1637.35</ele>
        <time>2016-03-20T14:01:28Z</time>
      </trkpt>
      <trkpt lat="45.52758" lon="6.64672">
        <ele>1624.24</ele>
        <time>2016-03-20T14:01:30Z</time>
      </trkpt>
      <trkpt lat="45.52759" lon="6.64707">
        <ele>1614.32</ele>
        <time>2016-03-20T14:01:33Z</time>
      </trkpt>
      <trkpt lat="45.52763" lon="6.64738">
        <ele>1603.52</ele>
        <time>2016-03-20T14:01:36Z</time>
      </trkpt>
      <trkpt lat="45.52785" lon="6.6475">
        <ele>1592.09</ele>
        <time>2016-03-20T14:01:40Z</time>
      </trkpt>
      <trkpt lat="45.52806" lon="6.64741">
        <ele>1587.07</ele>
        <time>2016-03-20T14:01:42Z</time>
      </trkpt>
      <trkpt lat="45.52828" lon="6.64752">
        <ele>1582.02</ele>
        <time>2016-03-20T14:01:45Z</time>
      </trkpt>
      <trkpt lat="45.52847" lon="6.64773">
        <ele>1574.45</ele>
        <time>2016-03-20T14:01:49Z</time>
      </trkpt>
      <trkpt lat="45.52861" lon="6.64803">
        <ele>1559.78</ele>
        <time>2016-03-20T14:01:52Z</time>
      </trkpt>
      <trkpt lat="45.52882" lon="6.64815">
        <ele>1552.04</ele>
        <time>2016-03-20T14:01:55Z</time>
      </trkpt>
      <trkpt lat="45.52899" lon="6.64824">
        <ele>1547.39</ele>
        <time>2016-03-20T14:01:57Z</time>
      </trkpt>
      <trkpt lat="45.52914" lon="6.64838">
        <ele>1542.89</ele>
        <time>2016-03-20T14:01:59Z</time>
      </trkpt>
      <trkpt lat="45.52932" lon="6.64848">
        <ele>1537.27</ele>
        <time>2016-03-20T14:02:01Z</time>
      </trkpt>
      <trkpt lat="45.52952" lon="6.64837">
        <ele>1535.6</ele>
        <time>2016-03-20T14:02:03Z</time>
      </trkpt>
      <trkpt lat="45.5297" lon="6.64811">
        <ele>1532.01</ele>
        <time>2016-03-20T14:02:05Z</time>
      </trkpt>
      <trkpt lat="45.52981" lon="6.64787">
        <ele>1525.63</ele>
        <time>2016-03-20T14:02:07Z</time>
      </trkpt>
      <trkpt lat="45.53001" lon="6.64769">
        <ele>1519.29</ele>
        <time>2016-03-20T14:02:09Z</time>
      </trkpt>
      <trkpt lat="45.53019" lon="6.64746">
        <ele>1516.96</ele>
        <time>2016-03-20T14:02:11Z</time>
      </trkpt>
      <trkpt lat="45.53031" lon="6.64724">
        <ele>1515.43</ele>
        <time>2016-03-20T14:02:13Z</time>
      </trkpt>
      <trkpt lat="45.53035" lon="6.64697">
        <ele>1502.86</ele>
        <time>2016-03-20T14:02:16Z</time>
      </trkpt>
      <trkpt lat="45.53049" lon="6.64672">
        <ele>1494.25</ele>
        <time>2016-03-20T14:02:19Z</time>
      </trkpt>
      <trkpt lat="45.53067" lon="6.64644">
        <ele>1490.78</ele>
        <time>2016-03-20T14:02:22Z</time>
      </trkpt>
      <trkpt lat="45.53073" lon="6.64616">
        <ele>1487.02</ele>
        <time>2016-03-20T14:02:24Z</time>
      </trkpt>
      <trkpt lat="45.53082" lon="6.64592">
        <ele>1483.99</ele>
        <time>2016-03-20T14:02:26Z</time>
      </trkpt>
      <trkpt lat="45.53097" lon="6.64574">
        <ele>1482.59</ele>
        <time>2016-03-20T14:02:28Z</time>
      </trkpt>
      <trkpt lat="45.53117" lon="6.64552">
        <ele>1478.66</ele>
        <time>2016-03-20T14:02:31Z</time>
      </trkpt>
      <trkpt lat="45.53119" lon="6.64524">
        <ele>1468.48</ele>
        <time>2016-03-20T14:02:35Z</time>
      </trkpt>
      <trkpt lat="45.53137" lon="6.64505">
        <ele>1464.01</ele>
        <time>2016-03-20T14:02:39Z</time>
      </trkpt>
      <trkpt lat="45.53155" lon="6.64487">
        <ele>1459.79</ele>
        <time>2016-03-20T14:02:43Z</time>
      </trkpt>
      <trkpt lat="45.53171" lon="6.64473">
        <ele>1456.59</ele>
        <time>2016-03-20T14:02:46Z</time>
      </trkpt>
      <trkpt lat="45.53187" lon="6.6445">
        <ele>1452.23</ele>
        <time>2016-03-20T14:02:50Z</time>
      </trkpt>
      <trkpt lat="45.53198" lon="6.64427">
        <ele>1449.78</ele>
        <time>2016-03-20T14:02:53Z</time>
      </trkpt>
      <trkpt lat="45.53207" lon="6.64404">
        <ele>1448.73</ele>
        <time>2016-03-20T14:02:57Z</time>
      </trkpt>
      <trkpt lat="45.53213" lon="6.64377">
        <ele>1441.05</ele>
        <time>2016-03-20T14:03:02Z</time>
      </trkpt>
      <trkpt lat="45.53219" lon="6.64349">
        <ele>1433.35</ele>
        <time>2016-03-20T14:03:10Z</time>
      </trkpt>
      <trkpt lat="45.53231" lon="6.64328">
        <ele>1432.38</ele>
        <time>2016-03-20T14:03:23Z</time>
      </trkpt>
      <trkpt lat="45.5325" lon="6.64309">
        <ele>1431.36</ele>
        <time>2016-03-20T14:03:28Z</time>
      </trkpt>
      <trkpt lat="45.53263" lon="6.64292">
        <ele>1429.77</ele>
        <time>2016-03-20T14:03:31Z</time>
      </trkpt>
      <trkpt lat="45.53275" lon="6.64264">
        <ele>1426.77</ele>
        <time>2016-03-20T14:03:35Z</time>
      </trkpt>
      <trkpt lat="45.53273" lon="6.64237">
        <ele>1418.74</ele>
        <time>2016-03-20T14:03:42Z</time>
      </trkpt>
      <trkpt lat="45.53271" lon="6.64212">
        <ele>1418.72</ele>
        <time>2016-03-20T14:03:56Z</time>
      </trkpt>
      <trkpt lat="45.53273" lon="6.64185">
        <ele>1413.54</ele>
        <time>2016-03-20T14:04:16Z</time>
      </trkpt>
      <trkpt lat="45.53284" lon="6.64162">
        <ele>1416.71</ele>
        <time>2016-03-20T14:04:26Z</time>
      </trkpt>
      <trkpt lat="45.53289" lon="6.64135">
        <ele>1416.34</ele>
        <time>2016-03-20T14:04:34Z</time>
      </trkpt>
      <trkpt lat="45.53291" lon="6.64109">
        <ele>1415.57</ele>
        <time>2016-03-20T14:04:40Z</time>
      </trkpt>
      <trkpt lat="45.53293" lon="6.64082">
        <ele>1414.57</ele>
        <time>2016-03-20T14:04:47Z</time>
      </trkpt>
      <trkpt lat="45.53291" lon="6.64055">
        <ele>1414.33</ele>
        <time>2016-03-20T14:04:55Z</time>
      </trkpt>
      <trkpt lat="45.53296" lon="6.64029">
        <ele>1410.77</ele>
        <time>2016-03-20T14:05:04Z</time>
      </trkpt>
      <trkpt lat="45.53307" lon="6.64007">
        <ele>1408.58</ele>
        <time>2016-03-20T14:05:12Z</time>
      </trkpt>
      <trkpt lat="45.53317" lon="6.63982">
        <ele>1404.55</ele>
        <time>2016-03-20T14:05:18Z</time>
      </trkpt>
      <trkpt lat="45.53324" lon="6.63958">
        <ele>1400.74</ele>
        <time>2016-03-20T14:05:24Z</time>
      </trkpt>
      <trkpt lat="45.53334" lon="6.63932">
        <ele>1396.78</ele>
        <time>2016-03-20T14:05:30Z</time>
      </trkpt>
      <trkpt lat="45.53344" lon="6.63907">
        <ele>1395.37</ele>
        <time>2016-03-20T14:05:35Z</time>
      </trkpt>
      <trkpt lat="45.53355" lon="6.63885">
        <ele>1395.57</ele>
        <time>2016-03-20T14:05:39Z</time>
      </trkpt>
      <trkpt lat="45.53365" lon="6.63857">
        <ele>1395.73</ele>
        <time>2016-03-20T14:05:43Z</time>
      </trkpt>
      <trkpt lat="45.5338" lon="6.63833">
        <ele>1391.54</ele>
        <time>2016-03-20T14:05:47Z</time>
      </trkpt>
      <trkpt lat="45.53397" lon="6.63814">
        <ele>1388.75</ele>
        <time>2016-03-20T14:05:50Z</time>
      </trkpt>
      <trkpt lat="45.53416" lon="6.63796">
        <ele>1383.03</ele>
        <time>2016-03-20T14:05:53Z</time>
      </trkpt>
      <trkpt lat="45.53438" lon="6.63775">
        <ele>1379.59</ele>
        <time>2016-03-20T14:05:56Z</time>
      </trkpt>
      <trkpt lat="45.53456" lon="6.63761">
        <ele>1378.73</ele>
        <time>2016-03-20T14:05:58Z</time>
      </trkpt>
      <trkpt lat="45.53477" lon="6.63748">
        <ele>1376.94</ele>
        <time>2016-03-20T14:06:00Z</time>
      </trkpt>
      <trkpt lat="45.53488" lon="6.63728">
        <ele>1372.07</ele>
        <time>2016-03-20T14:06:02Z</time>
      </trkpt>
      <trkpt lat="45.53472" lon="6.63712">
        <ele>1363.58</ele>
        <time>2016-03-20T14:06:06Z</time>
      </trkpt>
      <trkpt lat="45.53455" lon="6.63722">
        <ele>1346.57</ele>
        <time>2016-03-20T14:07:54Z</time>
      </trkpt>
      <trkpt lat="45.53436" lon="6.63727">
        <ele>1344.56</ele>
        <time>2016-03-20T14:08:03Z</time>
      </trkpt>
      <trkpt lat="45.53417" lon="6.63738">
        <ele>1349.08</ele>
        <time>2016-03-20T14:08:08Z</time>
      </trkpt>
      <trkpt lat="45.53398" lon="6.63752">
        <ele>1360.86</ele>
        <time>2016-03-20T14:08:13Z</time>
      </trkpt>
      <trkpt lat="45.53379" lon="6.63766">
        <ele>1370.87</ele>
        <time>2016-03-20T14:08:18Z</time>
      </trkpt>
      <trkpt lat="45.53361" lon="6.63778">
        <ele>1380.04</ele>
        <time>2016-03-20T14:08:23Z</time>
      </trkpt>
      <trkpt lat="45.53342" lon="6.63791">
        <ele>1389.23</ele>
        <time>2016-03-20T14:08:28Z</time>
      </trkpt>
      <trkpt lat="45.53325" lon="6.63803">
        <ele>1395.07</ele>
        <time>2016-03-20T14:08:32Z</time>
      </trkpt>
      <trkpt lat="45.53305" lon="6.63815">
        <ele>1400.27</ele>
        <time>2016-03-20T14:08:37Z</time>
      </trkpt>
      <trkpt lat="45.53285" lon="6.6383">
        <ele>1407.08</ele>
        <time>2016-03-20T14:08:42Z</time>
      </trkpt>
      <trkpt lat="45.53269" lon="6.63841">
        <ele>1412.27</ele>
        <time>2016-03-20T14:08:46Z</time>
      </trkpt>
      <trkpt lat="45.5325" lon="6.63854">
        <ele>1420.08</ele>
        <time>2016-03-20T14:08:51Z</time>
      </trkpt>
      <trkpt lat="45.5323" lon="6.63868">
        <ele>1428.07</ele>
        <time>2016-03-20T14:08:56Z</time>
      </trkpt>
      <trkpt lat="45.5321" lon="6.63882">
        <ele>1434.47</ele>
        <time>2016-03-20T14:09:01Z</time>
      </trkpt>
      <trkpt lat="45.53195" lon="6.63895">
        <ele>1436.33</ele>
        <time>2016-03-20T14:09:05Z</time>
      </trkpt>
      <trkpt lat="45.53176" lon="6.6391">
        <ele>1444.25</ele>
        <time>2016-03-20T14:09:10Z</time>
      </trkpt>
      <trkpt lat="45.53156" lon="6.63923">
        <ele>1452.23</ele>
        <time>2016-03-20T14:09:15Z</time>
      </trkpt>
      <trkpt lat="45.53137" lon="6.63937">
        <ele>1458.27</ele>
        <time>2016-03-20T14:09:20Z</time>
      </trkpt>
      <trkpt lat="45.53118" lon="6.63951">
        <ele>1464.08</ele>
        <time>2016-03-20T14:09:25Z</time>
      </trkpt>
      <trkpt lat="45.53099" lon="6.63963">
        <ele>1471.08</ele>
        <time>2016-03-20T14:09:30Z</time>
      </trkpt>
      <trkpt lat="45.53081" lon="6.63978">
        <ele>1478.24</ele>
        <time>2016-03-20T14:09:35Z</time>
      </trkpt>
      <trkpt lat="45.53061" lon="6.63991">
        <ele>1486.24</ele>
        <time>2016-03-20T14:09:40Z</time>
      </trkpt>
      <trkpt lat="45.53042" lon="6.64003">
        <ele>1495</ele>
        <time>2016-03-20T14:09:45Z</time>
      </trkpt>
      <trkpt lat="45.53024" lon="6.64016">
        <ele>1502.08</ele>
        <time>2016-03-20T14:09:50Z</time>
      </trkpt>
      <trkpt lat="45.53005" lon="6.6403">
        <ele>1513.99</ele>
        <time>2016-03-20T14:09:55Z</time>
      </trkpt>
      <trkpt lat="45.52985" lon="6.64043">
        <ele>1525.03</ele>
        <time>2016-03-20T14:10:00Z</time>
      </trkpt>
      <trkpt lat="45.52967" lon="6.64056">
        <ele>1535.83</ele>
        <time>2016-03-20T14:10:05Z</time>
      </trkpt>
      <trkpt lat="45.52948" lon="6.64069">
        <ele>1547.83</ele>
        <time>2016-03-20T14:10:10Z</time>
      </trkpt>
      <trkpt lat="45.5293" lon="6.64082">
        <ele>1557.07</ele>
        <time>2016-03-20T14:10:15Z</time>
      </trkpt>
      <trkpt lat="45.52912" lon="6.64095">
        <ele>1567.06</ele>
        <time>2016-03-20T14:10:20Z</time>
      </trkpt>
      <trkpt lat="45.52894" lon="6.64108">
        <ele>1578.8</ele>
        <time>2016-03-20T14:10:25Z</time>
      </trkpt>
      <trkpt lat="45.52875" lon="6.64119">
        <ele>1589.03</ele>
        <time>2016-03-20T14:10:30Z</time>
      </trkpt>
      <trkpt lat="45.52856" lon="6.64133">
        <ele>1600.03</ele>
        <time>2016-03-20T14:10:35Z</time>
      </trkpt>
      <trkpt lat="45.52837" lon="6.64146">
        <ele>1609.23</ele>
        <time>2016-03-20T14:10:40Z</time>
      </trkpt>
      <trkpt lat="45.5282" lon="6.64161">
        <ele>1618.04</ele>
        <time>2016-03-20T14:10:45Z</time>
      </trkpt>
      <trkpt lat="45.52802" lon="6.64174">
        <ele>1628.23</ele>
        <time>2016-03-20T14:10:50Z</time>
      </trkpt>
      <trkpt lat="45.52782" lon="6.64188">
        <ele>1631.48</ele>
        <time>2016-03-20T14:10:55Z</time>
      </trkpt>
      <trkpt lat="45.52762" lon="6.64202">
        <ele>1635.31</ele>
        <time>2016-03-20T14:11:00Z</time>
      </trkpt>
      <trkpt lat="45.52746" lon="6.64213">
        <ele>1639.27</ele>
        <time>2016-03-20T14:11:04Z</time>
      </trkpt>
      <trkpt lat="45.52726" lon="6.64226">
        <ele>1644.27</ele>
        <time>2016-03-20T14:11:09Z</time>
      </trkpt>
      <trkpt lat="45.52706" lon="6.6424">
        <ele>1650.07</ele>
        <time>2016-03-20T14:11:14Z</time>
      </trkpt>
      <trkpt lat="45.52686" lon="6.64253">
        <ele>1657.08</ele>
        <time>2016-03-20T14:11:19Z</time>
      </trkpt>
      <trkpt lat="45.52667" lon="6.64267">
        <ele>1663.27</ele>
        <time>2016-03-20T14:11:24Z</time>
      </trkpt>
      <trkpt lat="45.52649" lon="6.64281">
        <ele>1667.32</ele>
        <time>2016-03-20T14:11:29Z</time>
      </trkpt>
      <trkpt lat="45.52633" lon="6.64292">
        <ele>1672.28</ele>
        <time>2016-03-20T14:11:33Z</time>
      </trkpt>
      <trkpt lat="45.52613" lon="6.64306">
        <ele>1680.07</ele>
        <time>2016-03-20T14:11:38Z</time>
      </trkpt>
      <trkpt lat="45.52594" lon="6.6432">
        <ele>1688.87</ele>
        <time>2016-03-20T14:11:43Z</time>
      </trkpt>
      <trkpt lat="45.52575" lon="6.64333">
        <ele>1697.04</ele>
        <time>2016-03-20T14:11:48Z</time>
      </trkpt>
      <trkpt lat="45.52558" lon="6.64345">
        <ele>1704.23</ele>
        <time>2016-03-20T14:11:53Z</time>
      </trkpt>
      <trkpt lat="45.5254" lon="6.64357">
        <ele>1711.27</ele>
        <time>2016-03-20T14:11:58Z</time>
      </trkpt>
      <trkpt lat="45.52522" lon="6.64367">
        <ele>1718.3</ele>
        <time>2016-03-20T14:12:02Z</time>
      </trkpt>
      <trkpt lat="45.52506" lon="6.64379">
        <ele>1721.29</ele>
        <time>2016-03-20T14:12:06Z</time>
      </trkpt>
      <trkpt lat="45.52487" lon="6.64395">
        <ele>1727.28</ele>
        <time>2016-03-20T14:12:11Z</time>
      </trkpt>
      <trkpt lat="45.52467" lon="6.64407">
        <ele>1731.29</ele>
        <time>2016-03-20T14:12:16Z</time>
      </trkpt>
      <trkpt lat="45.52449" lon="6.64421">
        <ele>1737.08</ele>
        <time>2016-03-20T14:12:21Z</time>
      </trkpt>
      <trkpt lat="45.5243" lon="6.64436">
        <ele>1740.48</ele>
        <time>2016-03-20T14:12:26Z</time>
      </trkpt>
      <trkpt lat="45.52413" lon="6.64449">
        <ele>1741.52</ele>
        <time>2016-03-20T14:12:30Z</time>
      </trkpt>
      <trkpt lat="45.52396" lon="6.64462">
        <ele>1744.52</ele>
        <time>2016-03-20T14:12:34Z</time>
      </trkpt>
      <trkpt lat="45.52376" lon="6.64476">
        <ele>1749.32</ele>
        <time>2016-03-20T14:12:39Z</time>
      </trkpt>
      <trkpt lat="45.52359" lon="6.64488">
        <ele>1752.32</ele>
        <time>2016-03-20T14:12:43Z</time>
      </trkpt>
      <trkpt lat="45.52339" lon="6.64501">
        <ele>1757.47</ele>
        <time>2016-03-20T14:12:48Z</time>
      </trkpt>
      <trkpt lat="45.5232" lon="6.64515">
        <ele>1763.27</ele>
        <time>2016-03-20T14:12:53Z</time>
      </trkpt>
      <trkpt lat="45.523" lon="6.64529">
        <ele>1770.27</ele>
        <time>2016-03-20T14:12:58Z</time>
      </trkpt>
      <trkpt lat="45.52281" lon="6.64544">
        <ele>1777.04</ele>
        <time>2016-03-20T14:13:03Z</time>
      </trkpt>
      <trkpt lat="45.52262" lon="6.64559">
        <ele>1784.08</ele>
        <time>2016-03-20T14:13:08Z</time>
      </trkpt>
      <trkpt lat="45.52243" lon="6.64572">
        <ele>1789.44</ele>
        <time>2016-03-20T14:13:13Z</time>
      </trkpt>
      <trkpt lat="45.52224" lon="6.64586">
        <ele>1798.27</ele>
        <time>2016-03-20T14:13:18Z</time>
      </trkpt>
      <trkpt lat="45.52204" lon="6.646">
        <ele>1807.04</ele>
        <time>2016-03-20T14:13:23Z</time>
      </trkpt>
      <trkpt lat="45.52186" lon="6.64614">
        <ele>1817.03</ele>
        <time>2016-03-20T14:13:28Z</time>
      </trkpt>
      <trkpt lat="45.52167" lon="6.64626">
        <ele>1827.19</ele>
        <time>2016-03-20T14:13:33Z</time>
      </trkpt>
      <trkpt lat="45.5215" lon="6.64639">
        <ele>1838.84</ele>
        <time>2016-03-20T14:13:38Z</time>
      </trkpt>
      <trkpt lat="45.52132" lon="6.64652">
        <ele>1850.83</ele>
        <time>2016-03-20T14:13:43Z</time>
      </trkpt>
      <trkpt lat="45.52114" lon="6.64664">
        <ele>1861.03</ele>
        <time>2016-03-20T14:13:48Z</time>
      </trkpt>
      <trkpt lat="45.52096" lon="6.64676">
        <ele>1873.02</ele>
        <time>2016-03-20T14:13:53Z</time>
      </trkpt>
      <trkpt lat="45.5208" lon="6.64689">
        <ele>1886.1</ele>
        <time>2016-03-20T14:13:58Z</time>
      </trkpt>
      <trkpt lat="45.52061" lon="6.64702">
        <ele>1898.98</ele>
        <time>2016-03-20T14:14:03Z</time>
      </trkpt>
      <trkpt lat="45.52043" lon="6.64714">
        <ele>1909.83</ele>
        <time>2016-03-20T14:14:08Z</time>
      </trkpt>
      <trkpt lat="45.52026" lon="6.64725">
        <ele>1925.77</ele>
        <time>2016-03-20T14:14:13Z</time>
      </trkpt>
      <trkpt lat="45.52008" lon="6.64737">
        <ele>1936.99</ele>
        <time>2016-03-20T14:14:18Z</time>
      </trkpt>
      <trkpt lat="45.51991" lon="6.64748">
        <ele>1943.47</ele>
        <time>2016-03-20T14:14:23Z</time>
      </trkpt>
      <trkpt lat="45.51971" lon="6.6476">
        <ele>1948.32</ele>
        <time>2016-03-20T14:14:28Z</time>
      </trkpt>
      <trkpt lat="45.51953" lon="6.64774">
        <ele>1950.32</ele>
        <time>2016-03-20T14:14:33Z</time>
      </trkpt>
      <trkpt lat="45.51935" lon="6.64786">
        <ele>1953.32</ele>
        <time>2016-03-20T14:14:37Z</time>
      </trkpt>
      <trkpt lat="45.51919" lon="6.64801">
        <ele>1958.63</ele>
        <time>2016-03-20T14:14:42Z</time>
      </trkpt>
      <trkpt lat="45.51901" lon="6.64813">
        <ele>1958.53</ele>
        <time>2016-03-20T14:14:46Z</time>
      </trkpt>
      <trkpt lat="45.51884" lon="6.64824">
        <ele>1959.49</ele>
        <time>2016-03-20T14:14:50Z</time>
      </trkpt>
      <trkpt lat="45.51865" lon="6.64838">
        <ele>1961.49</ele>
        <time>2016-03-20T14:14:55Z</time>
      </trkpt>
      <trkpt lat="45.51846" lon="6.64854">
        <ele>1961.53</ele>
        <time>2016-03-20T14:15:00Z</time>
      </trkpt>
      <trkpt lat="45.5183" lon="6.64865">
        <ele>1962.49</ele>
        <time>2016-03-20T14:15:04Z</time>
      </trkpt>
      <trkpt lat="45.5181" lon="6.6488">
        <ele>1962.53</ele>
        <time>2016-03-20T14:15:09Z</time>
      </trkpt>
      <trkpt lat="45.51793" lon="6.64892">
        <ele>1963.53</ele>
        <time>2016-03-20T14:15:13Z</time>
      </trkpt>
      <trkpt lat="45.51777" lon="6.64903">
        <ele>1965.32</ele>
        <time>2016-03-20T14:15:17Z</time>
      </trkpt>
      <trkpt lat="45.5176" lon="6.64914">
        <ele>1966.49</ele>
        <time>2016-03-20T14:15:21Z</time>
      </trkpt>
      <trkpt lat="45.51741" lon="6.64929">
        <ele>1968.32</ele>
        <time>2016-03-20T14:15:26Z</time>
      </trkpt>
      <trkpt lat="45.51722" lon="6.64945">
        <ele>1969.69</ele>
        <time>2016-03-20T14:15:31Z</time>
      </trkpt>
      <trkpt lat="45.51705" lon="6.64956">
        <ele>1970.52</ele>
        <time>2016-03-20T14:15:35Z</time>
      </trkpt>
      <trkpt lat="45.51685" lon="6.64969">
        <ele>1972.73</ele>
        <time>2016-03-20T14:15:40Z</time>
      </trkpt>
      <trkpt lat="45.51669" lon="6.64985">
        <ele>1970.53</ele>
        <time>2016-03-20T14:16:01Z</time>
      </trkpt>
      <trkpt lat="45.51682" lon="6.65003">
        <ele>1968.54</ele>
        <time>2016-03-20T14:17:11Z</time>
      </trkpt>
      <trkpt lat="45.51703" lon="6.65005">
        <ele>1970.33</ele>
        <time>2016-03-20T14:17:27Z</time>
      </trkpt>
      <trkpt lat="45.51724" lon="6.64987">
        <ele>1969.33</ele>
        <time>2016-03-20T14:17:31Z</time>
      </trkpt>
      <trkpt lat="45.51742" lon="6.64968">
        <ele>1967.76</ele>
        <time>2016-03-20T14:17:33Z</time>
      </trkpt>
      <trkpt lat="45.51749" lon="6.64926">
        <ele>1965.77</ele>
        <time>2016-03-20T14:17:36Z</time>
      </trkpt>
      <trkpt lat="45.51762" lon="6.64899">
        <ele>1965.38</ele>
        <time>2016-03-20T14:17:38Z</time>
      </trkpt>
      <trkpt lat="45.51771" lon="6.64872">
        <ele>1965.53</ele>
        <time>2016-03-20T14:17:40Z</time>
      </trkpt>
      <trkpt lat="45.51781" lon="6.64841">
        <ele>1963.8</ele>
        <time>2016-03-20T14:17:43Z</time>
      </trkpt>
      <trkpt lat="45.51792" lon="6.6481">
        <ele>1958.99</ele>
        <time>2016-03-20T14:17:46Z</time>
      </trkpt>
      <trkpt lat="45.51805" lon="6.64782">
        <ele>1955.75</ele>
        <time>2016-03-20T14:17:49Z</time>
      </trkpt>
      <trkpt lat="45.51823" lon="6.64755">
        <ele>1956.52</ele>
        <time>2016-03-20T14:17:52Z</time>
      </trkpt>
      <trkpt lat="45.51838" lon="6.64728">
        <ele>1952.59</ele>
        <time>2016-03-20T14:17:55Z</time>
      </trkpt>
      <trkpt lat="45.51844" lon="6.64698">
        <ele>1949.97</ele>
        <time>2016-03-20T14:17:58Z</time>
      </trkpt>
      <trkpt lat="45.51848" lon="6.64666">
        <ele>1945.78</ele>
        <time>2016-03-20T14:18:02Z</time>
      </trkpt>
      <trkpt lat="45.51854" lon="6.64633">
        <ele>1937.88</ele>
        <time>2016-03-20T14:18:06Z</time>
      </trkpt>
      <trkpt lat="45.51862" lon="6.64605">
        <ele>1934.81</ele>
        <time>2016-03-20T14:18:09Z</time>
      </trkpt>
      <trkpt lat="45.5187" lon="6.64576">
        <ele>1931.81</ele>
        <time>2016-03-20T14:18:12Z</time>
      </trkpt>
      <trkpt lat="45.51886" lon="6.64555">
        <ele>1928.39</ele>
        <time>2016-03-20T14:18:16Z</time>
      </trkpt>
      <trkpt lat="45.51907" lon="6.64544">
        <ele>1928.53</ele>
        <time>2016-03-20T14:18:20Z</time>
      </trkpt>
      <trkpt lat="45.51928" lon="6.64535">
        <ele>1923.83</ele>
        <time>2016-03-20T14:18:23Z</time>
      </trkpt>
      <trkpt lat="45.51947" lon="6.64525">
        <ele>1919.94</ele>
        <time>2016-03-20T14:18:27Z</time>
      </trkpt>
      <trkpt lat="45.51967" lon="6.64517">
        <ele>1915.63</ele>
        <time>2016-03-20T14:18:30Z</time>
      </trkpt>
      <trkpt lat="45.51989" lon="6.64509">
        <ele>1913.61</ele>
        <time>2016-03-20T14:18:32Z</time>
      </trkpt>
      <trkpt lat="45.52014" lon="6.64506">
        <ele>1911.74</ele>
        <time>2016-03-20T14:18:35Z</time>
      </trkpt>
      <trkpt lat="45.52026" lon="6.64479">
        <ele>1906.03</ele>
        <time>2016-03-20T14:18:39Z</time>
      </trkpt>
      <trkpt lat="45.52034" lon="6.64453">
        <ele>1902.75</ele>
        <time>2016-03-20T14:18:42Z</time>
      </trkpt>
      <trkpt lat="45.52056" lon="6.64442">
        <ele>1901.96</ele>
        <time>2016-03-20T14:18:45Z</time>
      </trkpt>
      <trkpt lat="45.52073" lon="6.64424">
        <ele>1898.19</ele>
        <time>2016-03-20T14:18:47Z</time>
      </trkpt>
      <trkpt lat="45.52089" lon="6.64402">
        <ele>1894.84</ele>
        <time>2016-03-20T14:18:49Z</time>
      </trkpt>
      <trkpt lat="45.52111" lon="6.64383">
        <ele>1893.42</ele>
        <time>2016-03-20T14:18:51Z</time>
      </trkpt>
      <trkpt lat="45.52139" lon="6.64363">
        <ele>1889.85</ele>
        <time>2016-03-20T14:18:53Z</time>
      </trkpt>
      <trkpt lat="45.52164" lon="6.64336">
        <ele>1884.26</ele>
        <time>2016-03-20T14:18:55Z</time>
      </trkpt>
      <trkpt lat="45.52192" lon="6.64312">
        <ele>1883.56</ele>
        <time>2016-03-20T14:18:57Z</time>
      </trkpt>
      <trkpt lat="45.52216" lon="6.64286">
        <ele>1876.33</ele>
        <time>2016-03-20T14:18:59Z</time>
      </trkpt>
      <trkpt lat="45.52235" lon="6.64266">
        <ele>1867.72</ele>
        <time>2016-03-20T14:19:01Z</time>
      </trkpt>
      <trkpt lat="45.52255" lon="6.64248">
        <ele>1862.9</ele>
        <time>2016-03-20T14:19:03Z</time>
      </trkpt>
      <trkpt lat="45.52275" lon="6.64235">
        <ele>1858.87</ele>
        <time>2016-03-20T14:19:05Z</time>
      </trkpt>
      <trkpt lat="45.52294" lon="6.6421">
        <ele>1853.86</ele>
        <time>2016-03-20T14:19:08Z</time>
      </trkpt>
      <trkpt lat="45.52308" lon="6.64181">
        <ele>1848.03</ele>
        <time>2016-03-20T14:19:11Z</time>
      </trkpt>
      <trkpt lat="45.52324" lon="6.64161">
        <ele>1847.23</ele>
        <time>2016-03-20T14:19:13Z</time>
      </trkpt>
      <trkpt lat="45.52336" lon="6.64138">
        <ele>1839.27</ele>
        <time>2016-03-20T14:19:16Z</time>
      </trkpt>
      <trkpt lat="45.52352" lon="6.64118">
        <ele>1832.39</ele>
        <time>2016-03-20T14:19:19Z</time>
      </trkpt>
      <trkpt lat="45.52361" lon="6.64092">
        <ele>1826.03</ele>
        <time>2016-03-20T14:19:22Z</time>
      </trkpt>
      <trkpt lat="45.52378" lon="6.64067">
        <ele>1821.82</ele>
        <time>2016-03-20T14:19:25Z</time>
      </trkpt>
      <trkpt lat="45.52398" lon="6.64049">
        <ele>1814.24</ele>
        <time>2016-03-20T14:19:28Z</time>
      </trkpt>
      <trkpt lat="45.52414" lon="6.64037">
        <ele>1806.04</ele>
        <time>2016-03-20T14:19:32Z</time>
      </trkpt>
      <trkpt lat="45.52431" lon="6.64021">
        <ele>1798.16</ele>
        <time>2016-03-20T14:19:36Z</time>
      </trkpt>
      <trkpt lat="45.52454" lon="6.64006">
        <ele>1793.95</ele>
        <time>2016-03-20T14:19:40Z</time>
      </trkpt>
      <trkpt lat="45.52474" lon="6.63985">
        <ele>1784.85</ele>
        <time>2016-03-20T14:19:44Z</time>
      </trkpt>
      <trkpt lat="45.5249" lon="6.6396">
        <ele>1777.22</ele>
        <time>2016-03-20T14:19:48Z</time>
      </trkpt>
      <trkpt lat="45.52506" lon="6.63942">
        <ele>1771.03</ele>
        <time>2016-03-20T14:19:51Z</time>
      </trkpt>
      <trkpt lat="45.52525" lon="6.63921">
        <ele>1762.99</ele>
        <time>2016-03-20T14:19:55Z</time>
      </trkpt>
      <trkpt lat="45.52542" lon="6.63902">
        <ele>1757.03</ele>
        <time>2016-03-20T14:19:58Z</time>
      </trkpt>
      <trkpt lat="45.52547" lon="6.63874">
        <ele>1745.61</ele>
        <time>2016-03-20T14:20:32Z</time>
      </trkpt>
      <trkpt lat="45.52557" lon="6.63847">
        <ele>1738</ele>
        <time>2016-03-20T14:20:36Z</time>
      </trkpt>
      <trkpt lat="45.52579" lon="6.63825">
        <ele>1730.05</ele>
        <time>2016-03-20T14:20:39Z</time>
      </trkpt>
      <trkpt lat="45.52591" lon="6.6379">
        <ele>1725.82</ele>
        <time>2016-03-20T14:20:42Z</time>
      </trkpt>
      <trkpt lat="45.52591" lon="6.63761">
        <ele>1712.17</ele>
        <time>2016-03-20T14:20:46Z</time>
      </trkpt>
      <trkpt lat="45.52598" lon="6.63731">
        <ele>1708.82</ele>
        <time>2016-03-20T14:20:49Z</time>
      </trkpt>
      <trkpt lat="45.52604" lon="6.63705">
        <ele>1706.74</ele>
        <time>2016-03-20T14:20:52Z</time>
      </trkpt>
      <trkpt lat="45.52604" lon="6.63673">
        <ele>1704.96</ele>
        <time>2016-03-20T14:20:55Z</time>
      </trkpt>
      <trkpt lat="45.52615" lon="6.63638">
        <ele>1698.07</ele>
        <time>2016-03-20T14:20:58Z</time>
      </trkpt>
      <trkpt lat="45.52626" lon="6.63615">
        <ele>1694.03</ele>
        <time>2016-03-20T14:21:00Z</time>
      </trkpt>
      <trkpt lat="45.52638" lon="6.63593">
        <ele>1686.59</ele>
        <time>2016-03-20T14:21:03Z</time>
      </trkpt>
      <trkpt lat="45.52656" lon="6.63595">
        <ele>1678.24</ele>
        <time>2016-03-20T14:21:06Z</time>
      </trkpt>
      <trkpt lat="45.52681" lon="6.63606">
        <ele>1672.03</ele>
        <time>2016-03-20T14:21:09Z</time>
      </trkpt>
      <trkpt lat="45.52698" lon="6.63629">
        <ele>1665.03</ele>
        <time>2016-03-20T14:21:13Z</time>
      </trkpt>
      <trkpt lat="45.52706" lon="6.63659">
        <ele>1652.31</ele>
        <time>2016-03-20T14:21:17Z</time>
      </trkpt>
      <trkpt lat="45.52727" lon="6.63662">
        <ele>1642.23</ele>
        <time>2016-03-20T14:21:22Z</time>
      </trkpt>
      <trkpt lat="45.52748" lon="6.63657">
        <ele>1633.72</ele>
        <time>2016-03-20T14:21:26Z</time>
      </trkpt>
      <trkpt lat="45.52768" lon="6.6367">
        <ele>1610.95</ele>
        <time>2016-03-20T14:23:10Z</time>
      </trkpt>
      <trkpt lat="45.52783" lon="6.63684">
        <ele>1608.79</ele>
        <time>2016-03-20T14:23:12Z</time>
      </trkpt>
      <trkpt lat="45.52799" lon="6.63702">
        <ele>1607.74</ele>
        <time>2016-03-20T14:23:14Z</time>
      </trkpt>
      <trkpt lat="45.52817" lon="6.63707">
        <ele>1606.58</ele>
        <time>2016-03-20T14:23:16Z</time>
      </trkpt>
      <trkpt lat="45.52835" lon="6.63714">
        <ele>1605.57</ele>
        <time>2016-03-20T14:23:18Z</time>
      </trkpt>
      <trkpt lat="45.5286" lon="6.63736">
        <ele>1601.76</ele>
        <time>2016-03-20T14:23:21Z</time>
      </trkpt>
      <trkpt lat="45.5288" lon="6.63749">
        <ele>1602.02</ele>
        <time>2016-03-20T14:23:23Z</time>
      </trkpt>
      <trkpt lat="45.52903" lon="6.6375">
        <ele>1600.59</ele>
        <time>2016-03-20T14:23:25Z</time>
      </trkpt>
      <trkpt lat="45.52925" lon="6.63758">
        <ele>1594.2</ele>
        <time>2016-03-20T14:23:28Z</time>
      </trkpt>
      <trkpt lat="45.52947" lon="6.63764">
        <ele>1586.27</ele>
        <time>2016-03-20T14:23:31Z</time>
      </trkpt>
      <trkpt lat="45.52969" lon="6.63766">
        <ele>1583.16</ele>
        <time>2016-03-20T14:23:33Z</time>
      </trkpt>
      <trkpt lat="45.52994" lon="6.63754">
        <ele>1579.04</ele>
        <time>2016-03-20T14:23:35Z</time>
      </trkpt>
      <trkpt lat="45.53007" lon="6.63735">
        <ele>1573.43</ele>
        <time>2016-03-20T14:23:37Z</time>
      </trkpt>
      <trkpt lat="45.53027" lon="6.63719">
        <ele>1569.75</ele>
        <time>2016-03-20T14:23:40Z</time>
      </trkpt>
      <trkpt lat="45.53046" lon="6.63714">
        <ele>1565.86</ele>
        <time>2016-03-20T14:23:42Z</time>
      </trkpt>
      <trkpt lat="45.53065" lon="6.63717">
        <ele>1551.71</ele>
        <time>2016-03-20T14:23:46Z</time>
      </trkpt>
      <trkpt lat="45.53085" lon="6.63719">
        <ele>1541.13</ele>
        <time>2016-03-20T14:23:49Z</time>
      </trkpt>
      <trkpt lat="45.53105" lon="6.63712">
        <ele>1538.25</ele>
        <time>2016-03-20T14:23:50Z</time>
      </trkpt>
      <trkpt lat="45.53128" lon="6.6371">
        <ele>1529.72</ele>
        <time>2016-03-20T14:23:52Z</time>
      </trkpt>
      <trkpt lat="45.53155" lon="6.6371">
        <ele>1523.14</ele>
        <time>2016-03-20T14:23:54Z</time>
      </trkpt>
      <trkpt lat="45.5318" lon="6.63713">
        <ele>1516.48</ele>
        <time>2016-03-20T14:23:56Z</time>
      </trkpt>
      <trkpt lat="45.53202" lon="6.63697">
        <ele>1503.6</ele>
        <time>2016-03-20T14:23:59Z</time>
      </trkpt>
      <trkpt lat="45.53202" lon="6.63727">
        <ele>1495.04</ele>
        <time>2016-03-20T14:24:03Z</time>
      </trkpt>
      <trkpt lat="45.53208" lon="6.63791">
        <ele>1487.19</ele>
        <time>2016-03-20T14:24:09Z</time>
      </trkpt>
      <trkpt lat="45.53225" lon="6.63806">
        <ele>1474.25</ele>
        <time>2016-03-20T14:24:13Z</time>
      </trkpt>
      <trkpt lat="45.5324" lon="6.63822">
        <ele>1463.52</ele>
        <time>2016-03-20T14:24:16Z</time>
      </trkpt>
      <trkpt lat="45.53267" lon="6.63839">
        <ele>1453.1</ele>
        <time>2016-03-20T14:24:19Z</time>
      </trkpt>
      <trkpt lat="45.53286" lon="6.63843">
        <ele>1448.07</ele>
        <time>2016-03-20T14:24:21Z</time>
      </trkpt>
      <trkpt lat="45.53304" lon="6.63849">
        <ele>1440.35</ele>
        <time>2016-03-20T14:24:23Z</time>
      </trkpt>
      <trkpt lat="45.53323" lon="6.63839">
        <ele>1436.84</ele>
        <time>2016-03-20T14:24:25Z</time>
      </trkpt>
      <trkpt lat="45.53346" lon="6.63833">
        <ele>1429.82</ele>
        <time>2016-03-20T14:24:27Z</time>
      </trkpt>
      <trkpt lat="45.5337" lon="6.63821">
        <ele>1426.82</ele>
        <time>2016-03-20T14:24:29Z</time>
      </trkpt>
      <trkpt lat="45.5339" lon="6.63817">
        <ele>1419.66</ele>
        <time>2016-03-20T14:24:31Z</time>
      </trkpt>
      <trkpt lat="45.5341" lon="6.63797">
        <ele>1412.18</ele>
        <time>2016-03-20T14:24:33Z</time>
      </trkpt>
      <trkpt lat="45.53432" lon="6.63785">
        <ele>1407.4</ele>
        <time>2016-03-20T14:24:35Z</time>
      </trkpt>
      <trkpt lat="45.53455" lon="6.63768">
        <ele>1402.09</ele>
        <time>2016-03-20T14:24:37Z</time>
      </trkpt>
      <trkpt lat="45.53474" lon="6.63751">
        <ele>1398.19</ele>
        <time>2016-03-20T14:24:39Z</time>
      </trkpt>
      <trkpt lat="45.53485" lon="6.63729">
        <ele>1393.88</ele>
        <time>2016-03-20T14:24:41Z</time>
      </trkpt>
      <trkpt lat="45.53474" lon="6.63703">
        <ele>1389.82</ele>
        <time>2016-03-20T14:24:44Z</time>
      </trkpt>
      <trkpt lat="45.53459" lon="6.63718">
        <ele>1353.16</ele>
        <time>2016-03-20T14:25:54Z</time>
      </trkpt>
      <trkpt lat="45.53439" lon="6.63724">
        <ele>1348.52</ele>
        <time>2016-03-20T14:26:38Z</time>
      </trkpt>
      <trkpt lat="45.53421" lon="6.63736">
        <ele>1347.72</ele>
        <time>2016-03-20T14:26:45Z</time>
      </trkpt>
      <trkpt lat="45.53402" lon="6.63748">
        <ele>1355.08</ele>
        <time>2016-03-20T14:26:53Z</time>
      </trkpt>
      <trkpt lat="45.53387" lon="6.63761">
        <ele>1367.23</ele>
        <time>2016-03-20T14:27:00Z</time>
      </trkpt>
      <trkpt lat="45.53369" lon="6.63775">
        <ele>1377.08</ele>
        <time>2016-03-20T14:27:09Z</time>
      </trkpt>
      <trkpt lat="45.53352" lon="6.63784">
        <ele>1386.24</ele>
        <time>2016-03-20T14:27:15Z</time>
      </trkpt>
      <trkpt lat="45.53335" lon="6.63796">
        <ele>1393.08</ele>
        <time>2016-03-20T14:27:20Z</time>
      </trkpt>
      <trkpt lat="45.53316" lon="6.63811">
        <ele>1398.29</ele>
        <time>2016-03-20T14:27:25Z</time>
      </trkpt>
      <trkpt lat="45.533" lon="6.63824">
        <ele>1402.28</ele>
        <time>2016-03-20T14:27:29Z</time>
      </trkpt>
      <trkpt lat="45.53282" lon="6.63834">
        <ele>1408.04</ele>
        <time>2016-03-20T14:27:33Z</time>
      </trkpt>
      <trkpt lat="45.53266" lon="6.63845">
        <ele>1415.24</ele>
        <time>2016-03-20T14:27:37Z</time>
      </trkpt>
      <trkpt lat="45.53248" lon="6.63859">
        <ele>1421.28</ele>
        <time>2016-03-20T14:27:42Z</time>
      </trkpt>
      <trkpt lat="45.53229" lon="6.63873">
        <ele>1427.23</ele>
        <time>2016-03-20T14:27:47Z</time>
      </trkpt>
      <trkpt lat="45.53207" lon="6.63885">
        <ele>1431.29</ele>
        <time>2016-03-20T14:27:52Z</time>
      </trkpt>
      <trkpt lat="45.53188" lon="6.63898">
        <ele>1436.28</ele>
        <time>2016-03-20T14:27:57Z</time>
      </trkpt>
      <trkpt lat="45.5317" lon="6.63913">
        <ele>1438.68</ele>
        <time>2016-03-20T14:28:02Z</time>
      </trkpt>
      <trkpt lat="45.53151" lon="6.63925">
        <ele>1440.45</ele>
        <time>2016-03-20T14:28:06Z</time>
      </trkpt>
      <trkpt lat="45.53131" lon="6.6394">
        <ele>1449.21</ele>
        <time>2016-03-20T14:28:12Z</time>
      </trkpt>
      <trkpt lat="45.5311" lon="6.63952">
        <ele>1452.47</ele>
        <time>2016-03-20T14:28:17Z</time>
      </trkpt>
      <trkpt lat="45.53093" lon="6.63964">
        <ele>1460.07</ele>
        <time>2016-03-20T14:28:21Z</time>
      </trkpt>
      <trkpt lat="45.53074" lon="6.63978">
        <ele>1466.47</ele>
        <time>2016-03-20T14:28:26Z</time>
      </trkpt>
      <trkpt lat="45.53058" lon="6.63989">
        <ele>1473.27</ele>
        <time>2016-03-20T14:28:30Z</time>
      </trkpt>
      <trkpt lat="45.53039" lon="6.64004">
        <ele>1482.22</ele>
        <time>2016-03-20T14:28:35Z</time>
      </trkpt>
      <trkpt lat="45.53019" lon="6.64016">
        <ele>1490.25</ele>
        <time>2016-03-20T14:28:40Z</time>
      </trkpt>
      <trkpt lat="45.53003" lon="6.64028">
        <ele>1502.27</ele>
        <time>2016-03-20T14:28:45Z</time>
      </trkpt>
      <trkpt lat="45.52986" lon="6.64044">
        <ele>1507.23</ele>
        <time>2016-03-20T14:28:50Z</time>
      </trkpt>
      <trkpt lat="45.52968" lon="6.64055">
        <ele>1517.04</ele>
        <time>2016-03-20T14:28:55Z</time>
      </trkpt>
      <trkpt lat="45.5295" lon="6.64069">
        <ele>1527.87</ele>
        <time>2016-03-20T14:29:00Z</time>
      </trkpt>
      <trkpt lat="45.52932" lon="6.64082">
        <ele>1537.26</ele>
        <time>2016-03-20T14:29:05Z</time>
      </trkpt>
      <trkpt lat="45.52913" lon="6.64097">
        <ele>1553.05</ele>
        <time>2016-03-20T14:29:10Z</time>
      </trkpt>
      <trkpt lat="45.52896" lon="6.64111">
        <ele>1561.08</ele>
        <time>2016-03-20T14:29:15Z</time>
      </trkpt>
      <trkpt lat="45.52877" lon="6.64124">
        <ele>1573.19</ele>
        <time>2016-03-20T14:29:20Z</time>
      </trkpt>
      <trkpt lat="45.52858" lon="6.64136">
        <ele>1577.55</ele>
        <time>2016-03-20T14:29:25Z</time>
      </trkpt>
      <trkpt lat="45.52841" lon="6.6415">
        <ele>1587.13</ele>
        <time>2016-03-20T14:29:30Z</time>
      </trkpt>
      <trkpt lat="45.5282" lon="6.64162">
        <ele>1591.49</ele>
        <time>2016-03-20T14:29:35Z</time>
      </trkpt>
      <trkpt lat="45.52799" lon="6.64173">
        <ele>1597.68</ele>
        <time>2016-03-20T14:29:40Z</time>
      </trkpt>
      <trkpt lat="45.52781" lon="6.64187">
        <ele>1605.87</ele>
        <time>2016-03-20T14:29:45Z</time>
      </trkpt>
      <trkpt lat="45.52761" lon="6.642">
        <ele>1614.1</ele>
        <time>2016-03-20T14:29:50Z</time>
      </trkpt>
      <trkpt lat="45.52744" lon="6.64212">
        <ele>1616.33</ele>
        <time>2016-03-20T14:29:54Z</time>
      </trkpt>
      <trkpt lat="45.52726" lon="6.64227">
        <ele>1622.24</ele>
        <time>2016-03-20T14:29:59Z</time>
      </trkpt>
      <trkpt lat="45.52707" lon="6.64241">
        <ele>1629.24</ele>
        <time>2016-03-20T14:30:04Z</time>
      </trkpt>
      <trkpt lat="45.52689" lon="6.64254">
        <ele>1635.24</ele>
        <time>2016-03-20T14:30:09Z</time>
      </trkpt>
      <trkpt lat="45.52669" lon="6.64268">
        <ele>1643.07</ele>
        <time>2016-03-20T14:30:14Z</time>
      </trkpt>
      <trkpt lat="45.52653" lon="6.6428">
        <ele>1652.18</ele>
        <time>2016-03-20T14:30:18Z</time>
      </trkpt>
      <trkpt lat="45.52634" lon="6.64293">
        <ele>1656.5</ele>
        <time>2016-03-20T14:30:23Z</time>
      </trkpt>
      <trkpt lat="45.52615" lon="6.64305">
        <ele>1663.48</ele>
        <time>2016-03-20T14:30:28Z</time>
      </trkpt>
      <trkpt lat="45.52596" lon="6.64319">
        <ele>1671.07</ele>
        <time>2016-03-20T14:30:33Z</time>
      </trkpt>
      <trkpt lat="45.52576" lon="6.64333">
        <ele>1679.07</ele>
        <time>2016-03-20T14:30:38Z</time>
      </trkpt>
      <trkpt lat="45.52558" lon="6.64346">
        <ele>1686.08</ele>
        <time>2016-03-20T14:30:43Z</time>
      </trkpt>
      <trkpt lat="45.5254" lon="6.64358">
        <ele>1694.8</ele>
        <time>2016-03-20T14:30:48Z</time>
      </trkpt>
      <trkpt lat="45.52522" lon="6.64372">
        <ele>1704.22</ele>
        <time>2016-03-20T14:30:53Z</time>
      </trkpt>
      <trkpt lat="45.52504" lon="6.64386">
        <ele>1711.2</ele>
        <time>2016-03-20T14:30:57Z</time>
      </trkpt>
      <trkpt lat="45.52485" lon="6.644">
        <ele>1717.43</ele>
        <time>2016-03-20T14:31:02Z</time>
      </trkpt>
      <trkpt lat="45.52468" lon="6.64415">
        <ele>1721.09</ele>
        <time>2016-03-20T14:31:07Z</time>
      </trkpt>
      <trkpt lat="45.52451" lon="6.64426">
        <ele>1724.13</ele>
        <time>2016-03-20T14:31:11Z</time>
      </trkpt>
      <trkpt lat="45.52433" lon="6.64437">
        <ele>1727.28</ele>
        <time>2016-03-20T14:31:15Z</time>
      </trkpt>
      <trkpt lat="45.52417" lon="6.64447">
        <ele>1731.28</ele>
        <time>2016-03-20T14:31:19Z</time>
      </trkpt>
      <trkpt lat="45.52397" lon="6.64462">
        <ele>1733.69</ele>
        <time>2016-03-20T14:31:24Z</time>
      </trkpt>
      <trkpt lat="45.52378" lon="6.64475">
        <ele>1738.28</ele>
        <time>2016-03-20T14:31:29Z</time>
      </trkpt>
      <trkpt lat="45.52361" lon="6.64486">
        <ele>1741.68</ele>
        <time>2016-03-20T14:31:33Z</time>
      </trkpt>
      <trkpt lat="45.52341" lon="6.64501">
        <ele>1743.34</ele>
        <time>2016-03-20T14:31:38Z</time>
      </trkpt>
      <trkpt lat="45.52322" lon="6.64515">
        <ele>1752.06</ele>
        <time>2016-03-20T14:31:43Z</time>
      </trkpt>
      <trkpt lat="45.52302" lon="6.6453">
        <ele>1759.24</ele>
        <time>2016-03-20T14:31:48Z</time>
      </trkpt>
      <trkpt lat="45.52282" lon="6.64543">
        <ele>1766.08</ele>
        <time>2016-03-20T14:31:53Z</time>
      </trkpt>
      <trkpt lat="45.52262" lon="6.64557">
        <ele>1775.07</ele>
        <time>2016-03-20T14:31:58Z</time>
      </trkpt>
      <trkpt lat="45.52245" lon="6.64568">
        <ele>1779.29</ele>
        <time>2016-03-20T14:32:02Z</time>
      </trkpt>
      <trkpt lat="45.52225" lon="6.64579">
        <ele>1785.88</ele>
        <time>2016-03-20T14:32:07Z</time>
      </trkpt>
      <trkpt lat="45.52207" lon="6.64592">
        <ele>1794.27</ele>
        <time>2016-03-20T14:32:12Z</time>
      </trkpt>
      <trkpt lat="45.52189" lon="6.64606">
        <ele>1801.24</ele>
        <time>2016-03-20T14:32:17Z</time>
      </trkpt>
      <trkpt lat="45.52169" lon="6.6462">
        <ele>1810.08</ele>
        <time>2016-03-20T14:32:22Z</time>
      </trkpt>
      <trkpt lat="45.5215" lon="6.64635">
        <ele>1819.83</ele>
        <time>2016-03-20T14:32:27Z</time>
      </trkpt>
      <trkpt lat="45.52131" lon="6.64648">
        <ele>1829.79</ele>
        <time>2016-03-20T14:32:32Z</time>
      </trkpt>
      <trkpt lat="45.52114" lon="6.64662">
        <ele>1844.83</ele>
        <time>2016-03-20T14:32:37Z</time>
      </trkpt>
      <trkpt lat="45.52095" lon="6.64675">
        <ele>1853.86</ele>
        <time>2016-03-20T14:32:42Z</time>
      </trkpt>
      <trkpt lat="45.52077" lon="6.64687">
        <ele>1863.06</ele>
        <time>2016-03-20T14:32:47Z</time>
      </trkpt>
      <trkpt lat="45.52058" lon="6.64699">
        <ele>1872.97</ele>
        <time>2016-03-20T14:32:52Z</time>
      </trkpt>
      <trkpt lat="45.52041" lon="6.64711">
        <ele>1885.82</ele>
        <time>2016-03-20T14:32:57Z</time>
      </trkpt>
      <trkpt lat="45.52022" lon="6.64722">
        <ele>1897.11</ele>
        <time>2016-03-20T14:33:02Z</time>
      </trkpt>
      <trkpt lat="45.52005" lon="6.64734">
        <ele>1906.23</ele>
        <time>2016-03-20T14:33:07Z</time>
      </trkpt>
      <trkpt lat="45.51988" lon="6.64747">
        <ele>1917.89</ele>
        <time>2016-03-20T14:33:12Z</time>
      </trkpt>
      <trkpt lat="45.51973" lon="6.64761">
        <ele>1927.36</ele>
        <time>2016-03-20T14:33:17Z</time>
      </trkpt>
      <trkpt lat="45.51957" lon="6.64773">
        <ele>1935.18</ele>
        <time>2016-03-20T14:33:21Z</time>
      </trkpt>
      <trkpt lat="45.51939" lon="6.64788">
        <ele>1941.08</ele>
        <time>2016-03-20T14:33:26Z</time>
      </trkpt>
      <trkpt lat="45.51922" lon="6.648">
        <ele>1945.41</ele>
        <time>2016-03-20T14:33:30Z</time>
      </trkpt>
      <trkpt lat="45.51904" lon="6.64813">
        <ele>1949.52</ele>
        <time>2016-03-20T14:33:35Z</time>
      </trkpt>
      <trkpt lat="45.51884" lon="6.64826">
        <ele>1949.52</ele>
        <time>2016-03-20T14:33:40Z</time>
      </trkpt>
      <trkpt lat="45.51865" lon="6.64841">
        <ele>1947.57</ele>
        <time>2016-03-20T14:33:45Z</time>
      </trkpt>
      <trkpt lat="45.51846" lon="6.64856">
        <ele>1950.32</ele>
        <time>2016-03-20T14:33:50Z</time>
      </trkpt>
      <trkpt lat="45.51826" lon="6.64869">
        <ele>1951.33</ele>
        <time>2016-03-20T14:33:55Z</time>
      </trkpt>
      <trkpt lat="45.51809" lon="6.6488">
        <ele>1953.48</ele>
        <time>2016-03-20T14:33:59Z</time>
      </trkpt>
      <trkpt lat="45.51792" lon="6.64889">
        <ele>1954.33</ele>
        <time>2016-03-20T14:34:03Z</time>
      </trkpt>
      <trkpt lat="45.51775" lon="6.64901">
        <ele>1955.33</ele>
        <time>2016-03-20T14:34:07Z</time>
      </trkpt>
      <trkpt lat="45.51756" lon="6.64916">
        <ele>1955.69</ele>
        <time>2016-03-20T14:34:12Z</time>
      </trkpt>
      <trkpt lat="45.5174" lon="6.64928">
        <ele>1957.29</ele>
        <time>2016-03-20T14:34:16Z</time>
      </trkpt>
      <trkpt lat="45.5172" lon="6.64942">
        <ele>1959.49</ele>
        <time>2016-03-20T14:34:21Z</time>
      </trkpt>
      <trkpt lat="45.51703" lon="6.64954">
        <ele>1962.32</ele>
        <time>2016-03-20T14:34:25Z</time>
      </trkpt>
      <trkpt lat="45.51685" lon="6.64968">
        <ele>1963.56</ele>
        <time>2016-03-20T14:34:30Z</time>
      </trkpt>
      <trkpt lat="45.51672" lon="6.64986">
        <ele>1972.33</ele>
        <time>2016-03-20T14:35:04Z</time>
      </trkpt>
      <trkpt lat="45.51688" lon="6.64997">
        <ele>1977.53</ele>
        <time>2016-03-20T14:35:50Z</time>
      </trkpt>
      <trkpt lat="45.51709" lon="6.65005">
        <ele>1974.97</ele>
        <time>2016-03-20T14:35:59Z</time>
      </trkpt>
      <trkpt lat="45.51728" lon="6.6502">
        <ele>1969.03</ele>
        <time>2016-03-20T14:36:02Z</time>
      </trkpt>
      <trkpt lat="45.51747" lon="6.65025">
        <ele>1965.99</ele>
        <time>2016-03-20T14:36:04Z</time>
      </trkpt>
      <trkpt lat="45.51767" lon="6.65026">
        <ele>1962.99</ele>
        <time>2016-03-20T14:36:06Z</time>
      </trkpt>
      <trkpt lat="45.51784" lon="6.65039">
        <ele>1960.79</ele>
        <time>2016-03-20T14:36:08Z</time>
      </trkpt>
      <trkpt lat="45.51798" lon="6.65055">
        <ele>1958.62</ele>
        <time>2016-03-20T14:36:10Z</time>
      </trkpt>
      <trkpt lat="45.51813" lon="6.65078">
        <ele>1957.54</ele>
        <time>2016-03-20T14:36:13Z</time>
      </trkpt>
      <trkpt lat="45.51816" lon="6.6511">
        <ele>1954.81</ele>
        <time>2016-03-20T14:36:15Z</time>
      </trkpt>
      <trkpt lat="45.5182" lon="6.65135">
        <ele>1952.78</ele>
        <time>2016-03-20T14:36:17Z</time>
      </trkpt>
      <trkpt lat="45.51828" lon="6.65161">
        <ele>1950.78</ele>
        <time>2016-03-20T14:36:19Z</time>
      </trkpt>
      <trkpt lat="45.5184" lon="6.65184">
        <ele>1947.82</ele>
        <time>2016-03-20T14:36:21Z</time>
      </trkpt>
      <trkpt lat="45.51862" lon="6.65212">
        <ele>1944.81</ele>
        <time>2016-03-20T14:36:24Z</time>
      </trkpt>
      <trkpt lat="45.51878" lon="6.65235">
        <ele>1940.86</ele>
        <time>2016-03-20T14:36:26Z</time>
      </trkpt>
      <trkpt lat="45.51888" lon="6.6526">
        <ele>1939.74</ele>
        <time>2016-03-20T14:36:28Z</time>
      </trkpt>
      <trkpt lat="45.51893" lon="6.65292">
        <ele>1937.62</ele>
        <time>2016-03-20T14:36:30Z</time>
      </trkpt>
      <trkpt lat="45.51897" lon="6.65323">
        <ele>1937.53</ele>
        <time>2016-03-20T14:36:32Z</time>
      </trkpt>
      <trkpt lat="45.51901" lon="6.65352">
        <ele>1940.41</ele>
        <time>2016-03-20T14:36:34Z</time>
      </trkpt>
      <trkpt lat="45.51903" lon="6.65383">
        <ele>1936.82</ele>
        <time>2016-03-20T14:36:37Z</time>
      </trkpt>
      <trkpt lat="45.51903" lon="6.65415">
        <ele>1935.58</ele>
        <time>2016-03-20T14:36:41Z</time>
      </trkpt>
      <trkpt lat="45.51904" lon="6.65445">
        <ele>1933.58</ele>
        <time>2016-03-20T14:36:45Z</time>
      </trkpt>
      <trkpt lat="45.51903" lon="6.65475">
        <ele>1930.73</ele>
        <time>2016-03-20T14:36:49Z</time>
      </trkpt>
      <trkpt lat="45.51898" lon="6.65501">
        <ele>1930.37</ele>
        <time>2016-03-20T14:36:52Z</time>
      </trkpt>
      <trkpt lat="45.51893" lon="6.65531">
        <ele>1926.75</ele>
        <time>2016-03-20T14:36:56Z</time>
      </trkpt>
      <trkpt lat="45.51893" lon="6.65563">
        <ele>1928.49</ele>
        <time>2016-03-20T14:37:00Z</time>
      </trkpt>
      <trkpt lat="45.51894" lon="6.65589">
        <ele>1926.58</ele>
        <time>2016-03-20T14:37:03Z</time>
      </trkpt>
      <trkpt lat="45.51898" lon="6.65618">
        <ele>1929.16</ele>
        <time>2016-03-20T14:37:06Z</time>
      </trkpt>
      <trkpt lat="45.51908" lon="6.65649">
        <ele>1926.74</ele>
        <time>2016-03-20T14:37:09Z</time>
      </trkpt>
      <trkpt lat="45.51918" lon="6.65676">
        <ele>1922.24</ele>
        <time>2016-03-20T14:37:12Z</time>
      </trkpt>
      <trkpt lat="45.5192" lon="6.65704">
        <ele>1917.7</ele>
        <time>2016-03-20T14:37:15Z</time>
      </trkpt>
      <trkpt lat="45.51911" lon="6.65731">
        <ele>1912.75</ele>
        <time>2016-03-20T14:37:19Z</time>
      </trkpt>
      <trkpt lat="45.51892" lon="6.65745">
        <ele>1897.17</ele>
        <time>2016-03-20T14:37:36Z</time>
      </trkpt>
      <trkpt lat="45.51886" lon="6.65769">
        <ele>1890.2</ele>
        <time>2016-03-20T14:37:39Z</time>
      </trkpt>
      <trkpt lat="45.51865" lon="6.65781">
        <ele>1885.98</ele>
        <time>2016-03-20T14:37:43Z</time>
      </trkpt>
      <trkpt lat="45.51862" lon="6.65807">
        <ele>1868.67</ele>
        <time>2016-03-20T14:38:27Z</time>
      </trkpt>
      <trkpt lat="45.51852" lon="6.65838">
        <ele>1866.39</ele>
        <time>2016-03-20T14:38:31Z</time>
      </trkpt>
      <trkpt lat="45.51835" lon="6.65851">
        <ele>1863.78</ele>
        <time>2016-03-20T14:38:34Z</time>
      </trkpt>
      <trkpt lat="45.51822" lon="6.65876">
        <ele>1859.01</ele>
        <time>2016-03-20T14:38:38Z</time>
      </trkpt>
      <trkpt lat="45.51798" lon="6.65884">
        <ele>1856.63</ele>
        <time>2016-03-20T14:38:40Z</time>
      </trkpt>
      <trkpt lat="45.51788" lon="6.65906">
        <ele>1856.53</ele>
        <time>2016-03-20T14:38:42Z</time>
      </trkpt>
      <trkpt lat="45.51766" lon="6.65919">
        <ele>1845.71</ele>
        <time>2016-03-20T14:38:46Z</time>
      </trkpt>
      <trkpt lat="45.51765" lon="6.65948">
        <ele>1837.63</ele>
        <time>2016-03-20T14:38:49Z</time>
      </trkpt>
      <trkpt lat="45.5175" lon="6.65971">
        <ele>1825.47</ele>
        <time>2016-03-20T14:38:52Z</time>
      </trkpt>
      <trkpt lat="45.51743" lon="6.66008">
        <ele>1820.09</ele>
        <time>2016-03-20T14:38:54Z</time>
      </trkpt>
      <trkpt lat="45.51732" lon="6.66044">
        <ele>1811.73</ele>
        <time>2016-03-20T14:38:57Z</time>
      </trkpt>
      <trkpt lat="45.51736" lon="6.6607">
        <ele>1809.14</ele>
        <time>2016-03-20T14:38:59Z</time>
      </trkpt>
      <trkpt lat="45.51747" lon="6.661">
        <ele>1806.64</ele>
        <time>2016-03-20T14:39:01Z</time>
      </trkpt>
      <trkpt lat="45.5177" lon="6.66119">
        <ele>1802.86</ele>
        <time>2016-03-20T14:39:03Z</time>
      </trkpt>
      <trkpt lat="45.51788" lon="6.66131">
        <ele>1799.98</ele>
        <time>2016-03-20T14:39:05Z</time>
      </trkpt>
      <trkpt lat="45.51807" lon="6.66157">
        <ele>1798.75</ele>
        <time>2016-03-20T14:39:07Z</time>
      </trkpt>
      <trkpt lat="45.51828" lon="6.66178">
        <ele>1795.02</ele>
        <time>2016-03-20T14:39:09Z</time>
      </trkpt>
      <trkpt lat="45.51844" lon="6.66212">
        <ele>1792.79</ele>
        <time>2016-03-20T14:39:11Z</time>
      </trkpt>
      <trkpt lat="45.5186" lon="6.66225">
        <ele>1788.22</ele>
        <time>2016-03-20T14:39:13Z</time>
      </trkpt>
      <trkpt lat="45.51874" lon="6.66244">
        <ele>1784.84</ele>
        <time>2016-03-20T14:39:15Z</time>
      </trkpt>
      <trkpt lat="45.51888" lon="6.66268">
        <ele>1780.47</ele>
        <time>2016-03-20T14:39:18Z</time>
      </trkpt>
      <trkpt lat="45.51899" lon="6.66292">
        <ele>1778.77</ele>
        <time>2016-03-20T14:39:20Z</time>
      </trkpt>
      <trkpt lat="45.51909" lon="6.66323">
        <ele>1777.58</ele>
        <time>2016-03-20T14:39:22Z</time>
      </trkpt>
      <trkpt lat="45.51926" lon="6.66351">
        <ele>1776.57</ele>
        <time>2016-03-20T14:39:24Z</time>
      </trkpt>
      <trkpt lat="45.51951" lon="6.66358">
        <ele>1777.62</ele>
        <time>2016-03-20T14:39:27Z</time>
      </trkpt>
      <trkpt lat="45.51973" lon="6.66344">
        <ele>1775.61</ele>
        <time>2016-03-20T14:39:29Z</time>
      </trkpt>
      <trkpt lat="45.52" lon="6.66353">
        <ele>1772.97</ele>
        <time>2016-03-20T14:39:32Z</time>
      </trkpt>
      <trkpt lat="45.52019" lon="6.66364">
        <ele>1771.59</ele>
        <time>2016-03-20T14:39:34Z</time>
      </trkpt>
      <trkpt lat="45.5204" lon="6.66398">
        <ele>1769.61</ele>
        <time>2016-03-20T14:39:36Z</time>
      </trkpt>
      <trkpt lat="45.52066" lon="6.6641">
        <ele>1765.53</ele>
        <time>2016-03-20T14:39:38Z</time>
      </trkpt>
      <trkpt lat="45.52084" lon="6.66402">
        <ele>1760.73</ele>
        <time>2016-03-20T14:39:39Z</time>
      </trkpt>
      <trkpt lat="45.5211" lon="6.66402">
        <ele>1756.06</ele>
        <time>2016-03-20T14:39:41Z</time>
      </trkpt>
      <trkpt lat="45.52139" lon="6.66397">
        <ele>1747.71</ele>
        <time>2016-03-20T14:39:43Z</time>
      </trkpt>
      <trkpt lat="45.52158" lon="6.66407">
        <ele>1739.7</ele>
        <time>2016-03-20T14:39:45Z</time>
      </trkpt>
      <trkpt lat="45.52175" lon="6.66417">
        <ele>1733.8</ele>
        <time>2016-03-20T14:39:48Z</time>
      </trkpt>
      <trkpt lat="45.52182" lon="6.6646">
        <ele>1731.78</ele>
        <time>2016-03-20T14:39:50Z</time>
      </trkpt>
      <trkpt lat="45.52194" lon="6.66489">
        <ele>1730.74</ele>
        <time>2016-03-20T14:39:52Z</time>
      </trkpt>
      <trkpt lat="45.52214" lon="6.66507">
        <ele>1726.95</ele>
        <time>2016-03-20T14:39:55Z</time>
      </trkpt>
      <trkpt lat="45.52232" lon="6.66519">
        <ele>1721.43</ele>
        <time>2016-03-20T14:39:59Z</time>
      </trkpt>
      <trkpt lat="45.52248" lon="6.66537">
        <ele>1712.14</ele>
        <time>2016-03-20T14:40:03Z</time>
      </trkpt>
      <trkpt lat="45.52262" lon="6.66555">
        <ele>1706.19</ele>
        <time>2016-03-20T14:40:06Z</time>
      </trkpt>
      <trkpt lat="45.52268" lon="6.66584">
        <ele>1701.58</ele>
        <time>2016-03-20T14:40:10Z</time>
      </trkpt>
      <trkpt lat="45.5229" lon="6.66589">
        <ele>1688.58</ele>
        <time>2016-03-20T14:40:41Z</time>
      </trkpt>
      <trkpt lat="45.52309" lon="6.66602">
        <ele>1683.83</ele>
        <time>2016-03-20T14:40:44Z</time>
      </trkpt>
      <trkpt lat="45.5233" lon="6.66627">
        <ele>1677.03</ele>
        <time>2016-03-20T14:40:48Z</time>
      </trkpt>
      <trkpt lat="45.52351" lon="6.6665">
        <ele>1671.86</ele>
        <time>2016-03-20T14:40:51Z</time>
      </trkpt>
      <trkpt lat="45.5237" lon="6.66652">
        <ele>1668.82</ele>
        <time>2016-03-20T14:40:53Z</time>
      </trkpt>
      <trkpt lat="45.52385" lon="6.6667">
        <ele>1664.22</ele>
        <time>2016-03-20T14:40:55Z</time>
      </trkpt>
      <trkpt lat="45.52404" lon="6.66682">
        <ele>1660.04</ele>
        <time>2016-03-20T14:40:57Z</time>
      </trkpt>
      <trkpt lat="45.52422" lon="6.66674">
        <ele>1652.83</ele>
        <time>2016-03-20T14:40:59Z</time>
      </trkpt>
      <trkpt lat="45.52442" lon="6.66694">
        <ele>1647.99</ele>
        <time>2016-03-20T14:41:02Z</time>
      </trkpt>
      <trkpt lat="45.52466" lon="6.66696">
        <ele>1637.4</ele>
        <time>2016-03-20T14:41:06Z</time>
      </trkpt>
      <trkpt lat="45.52481" lon="6.66683">
        <ele>1630.23</ele>
        <time>2016-03-20T14:41:09Z</time>
      </trkpt>
      <trkpt lat="45.52493" lon="6.66705">
        <ele>1622.77</ele>
        <time>2016-03-20T14:41:17Z</time>
      </trkpt>
      <trkpt lat="45.52497" lon="6.66738">
        <ele>1615.84</ele>
        <time>2016-03-20T14:41:22Z</time>
      </trkpt>
      <trkpt lat="45.52493" lon="6.66765">
        <ele>1609.84</ele>
        <time>2016-03-20T14:41:25Z</time>
      </trkpt>
      <trkpt lat="45.52495" lon="6.66797">
        <ele>1602.24</ele>
        <time>2016-03-20T14:41:28Z</time>
      </trkpt>
      <trkpt lat="45.52502" lon="6.66831">
        <ele>1596.86</ele>
        <time>2016-03-20T14:41:31Z</time>
      </trkpt>
      <trkpt lat="45.52501" lon="6.66859">
        <ele>1593.98</ele>
        <time>2016-03-20T14:41:33Z</time>
      </trkpt>
      <trkpt lat="45.52504" lon="6.66886">
        <ele>1591.79</ele>
        <time>2016-03-20T14:41:35Z</time>
      </trkpt>
      <trkpt lat="45.52507" lon="6.66921">
        <ele>1589.74</ele>
        <time>2016-03-20T14:41:38Z</time>
      </trkpt>
      <trkpt lat="45.52507" lon="6.66959">
        <ele>1586.75</ele>
        <time>2016-03-20T14:41:41Z</time>
      </trkpt>
      <trkpt lat="45.52508" lon="6.66988">
        <ele>1583.82</ele>
        <time>2016-03-20T14:41:43Z</time>
      </trkpt>
      <trkpt lat="45.52498" lon="6.67026">
        <ele>1583.47</ele>
        <time>2016-03-20T14:41:46Z</time>
      </trkpt>
      <trkpt lat="45.52489" lon="6.67055">
        <ele>1583.53</ele>
        <time>2016-03-20T14:41:48Z</time>
      </trkpt>
      <trkpt lat="45.52481" lon="6.67087">
        <ele>1582.57</ele>
        <time>2016-03-20T14:41:50Z</time>
      </trkpt>
      <trkpt lat="45.52471" lon="6.67123">
        <ele>1581.38</ele>
        <time>2016-03-20T14:41:53Z</time>
      </trkpt>
      <trkpt lat="45.52487" lon="6.67137">
        <ele>1576.09</ele>
        <time>2016-03-20T14:41:56Z</time>
      </trkpt>
      <trkpt lat="45.52502" lon="6.67163">
        <ele>1567.88</ele>
        <time>2016-03-20T14:42:00Z</time>
      </trkpt>
      <trkpt lat="45.52509" lon="6.67187">
        <ele>1563.79</ele>
        <time>2016-03-20T14:42:03Z</time>
      </trkpt>
      <trkpt lat="45.52516" lon="6.67215">
        <ele>1560.59</ele>
        <time>2016-03-20T14:42:06Z</time>
      </trkpt>
      <trkpt lat="45.52522" lon="6.67239">
        <ele>1557.78</ele>
        <time>2016-03-20T14:42:09Z</time>
      </trkpt>
      <trkpt lat="45.5252" lon="6.67265">
        <ele>1555.58</ele>
        <time>2016-03-20T14:42:12Z</time>
      </trkpt>
      <trkpt lat="45.52533" lon="6.67287">
        <ele>1551.97</ele>
        <time>2016-03-20T14:42:16Z</time>
      </trkpt>
      <trkpt lat="45.52551" lon="6.67309">
        <ele>1549.35</ele>
        <time>2016-03-20T14:42:20Z</time>
      </trkpt>
      <trkpt lat="45.52571" lon="6.67311">
        <ele>1541.85</ele>
        <time>2016-03-20T14:42:24Z</time>
      </trkpt>
      <trkpt lat="45.52558" lon="6.67291">
        <ele>1515.3</ele>
        <time>2016-03-20T14:43:22Z</time>
      </trkpt>
      <trkpt lat="45.52537" lon="6.67285">
        <ele>1518.31</ele>
        <time>2016-03-20T14:43:26Z</time>
      </trkpt>
      <trkpt lat="45.52518" lon="6.67276">
        <ele>1525.27</ele>
        <time>2016-03-20T14:43:30Z</time>
      </trkpt>
      <trkpt lat="45.52498" lon="6.67264">
        <ele>1533.87</ele>
        <time>2016-03-20T14:43:34Z</time>
      </trkpt>
      <trkpt lat="45.52481" lon="6.67253">
        <ele>1541.68</ele>
        <time>2016-03-20T14:43:38Z</time>
      </trkpt>
      <trkpt lat="45.5246" lon="6.67243">
        <ele>1549.08</ele>
        <time>2016-03-20T14:43:43Z</time>
      </trkpt>
      <trkpt lat="45.52443" lon="6.67232">
        <ele>1559.98</ele>
        <time>2016-03-20T14:43:48Z</time>
      </trkpt>
      <trkpt lat="45.52424" lon="6.67218">
        <ele>1574.98</ele>
        <time>2016-03-20T14:43:53Z</time>
      </trkpt>
      <trkpt lat="45.52404" lon="6.67204">
        <ele>1584.43</ele>
        <time>2016-03-20T14:43:58Z</time>
      </trkpt>
      <trkpt lat="45.52385" lon="6.67193">
        <ele>1592.05</ele>
        <time>2016-03-20T14:44:03Z</time>
      </trkpt>
      <trkpt lat="45.52365" lon="6.67181">
        <ele>1602.8</ele>
        <time>2016-03-20T14:44:08Z</time>
      </trkpt>
      <trkpt lat="45.52345" lon="6.67171">
        <ele>1609.08</ele>
        <time>2016-03-20T14:44:13Z</time>
      </trkpt>
      <trkpt lat="45.52328" lon="6.67161">
        <ele>1615</ele>
        <time>2016-03-20T14:44:17Z</time>
      </trkpt>
      <trkpt lat="45.52309" lon="6.6715">
        <ele>1627.8</ele>
        <time>2016-03-20T14:44:22Z</time>
      </trkpt>
      <trkpt lat="45.52292" lon="6.67142">
        <ele>1639.39</ele>
        <time>2016-03-20T14:44:27Z</time>
      </trkpt>
      <trkpt lat="45.52272" lon="6.67128">
        <ele>1650.83</ele>
        <time>2016-03-20T14:44:32Z</time>
      </trkpt>
      <trkpt lat="45.52253" lon="6.67113">
        <ele>1664.03</ele>
        <time>2016-03-20T14:44:37Z</time>
      </trkpt>
      <trkpt lat="45.52234" lon="6.67102">
        <ele>1674.03</ele>
        <time>2016-03-20T14:44:42Z</time>
      </trkpt>
      <trkpt lat="45.52216" lon="6.67091">
        <ele>1684</ele>
        <time>2016-03-20T14:44:47Z</time>
      </trkpt>
      <trkpt lat="45.52197" lon="6.67079">
        <ele>1693.39</ele>
        <time>2016-03-20T14:44:52Z</time>
      </trkpt>
      <trkpt lat="45.52181" lon="6.67067">
        <ele>1699.04</ele>
        <time>2016-03-20T14:44:56Z</time>
      </trkpt>
      <trkpt lat="45.52161" lon="6.67055">
        <ele>1707.24</ele>
        <time>2016-03-20T14:45:01Z</time>
      </trkpt>
      <trkpt lat="45.52143" lon="6.67042">
        <ele>1715.07</ele>
        <time>2016-03-20T14:45:06Z</time>
      </trkpt>
      <trkpt lat="45.52123" lon="6.6703">
        <ele>1722.23</ele>
        <time>2016-03-20T14:45:11Z</time>
      </trkpt>
      <trkpt lat="45.52103" lon="6.67017">
        <ele>1731.04</ele>
        <time>2016-03-20T14:45:16Z</time>
      </trkpt>
      <trkpt lat="45.52084" lon="6.67005">
        <ele>1740.04</ele>
        <time>2016-03-20T14:45:21Z</time>
      </trkpt>
      <trkpt lat="45.52064" lon="6.66994">
        <ele>1750</ele>
        <time>2016-03-20T14:45:26Z</time>
      </trkpt>
      <trkpt lat="45.52044" lon="6.66981">
        <ele>1756.28</ele>
        <time>2016-03-20T14:45:31Z</time>
      </trkpt>
      <trkpt lat="45.52026" lon="6.6697">
        <ele>1761.48</ele>
        <time>2016-03-20T14:45:39Z</time>
      </trkpt>
      <trkpt lat="45.52007" lon="6.66959">
        <ele>1768.29</ele>
        <time>2016-03-20T14:45:48Z</time>
      </trkpt>
      <trkpt lat="45.51988" lon="6.66946">
        <ele>1773.32</ele>
        <time>2016-03-20T14:45:56Z</time>
      </trkpt>
      <trkpt lat="45.51969" lon="6.66935">
        <ele>1780.28</ele>
        <time>2016-03-20T14:46:02Z</time>
      </trkpt>
      <trkpt lat="45.51949" lon="6.66923">
        <ele>1786.28</ele>
        <time>2016-03-20T14:46:07Z</time>
      </trkpt>
      <trkpt lat="45.51931" lon="6.66912">
        <ele>1792.47</ele>
        <time>2016-03-20T14:46:12Z</time>
      </trkpt>
      <trkpt lat="45.51911" lon="6.66899">
        <ele>1799.2</ele>
        <time>2016-03-20T14:46:17Z</time>
      </trkpt>
      <trkpt lat="45.51891" lon="6.66889">
        <ele>1802.29</ele>
        <time>2016-03-20T14:46:22Z</time>
      </trkpt>
      <trkpt lat="45.51872" lon="6.66879">
        <ele>1810.07</ele>
        <time>2016-03-20T14:46:27Z</time>
      </trkpt>
      <trkpt lat="45.51852" lon="6.66868">
        <ele>1815.48</ele>
        <time>2016-03-20T14:46:32Z</time>
      </trkpt>
      <trkpt lat="45.51832" lon="6.66855">
        <ele>1819.48</ele>
        <time>2016-03-20T14:46:37Z</time>
      </trkpt>
      <trkpt lat="45.51812" lon="6.66846">
        <ele>1827.26</ele>
        <time>2016-03-20T14:46:42Z</time>
      </trkpt>
      <trkpt lat="45.51792" lon="6.66833">
        <ele>1838.83</ele>
        <time>2016-03-20T14:46:47Z</time>
      </trkpt>
      <trkpt lat="45.51773" lon="6.6682">
        <ele>1849.82</ele>
        <time>2016-03-20T14:46:52Z</time>
      </trkpt>
      <trkpt lat="45.51752" lon="6.66809">
        <ele>1863.02</ele>
        <time>2016-03-20T14:46:58Z</time>
      </trkpt>
      <trkpt lat="45.51733" lon="6.66798">
        <ele>1875.82</ele>
        <time>2016-03-20T14:47:03Z</time>
      </trkpt>
      <trkpt lat="45.51714" lon="6.66786">
        <ele>1888.79</ele>
        <time>2016-03-20T14:47:08Z</time>
      </trkpt>
      <trkpt lat="45.51696" lon="6.66774">
        <ele>1899.83</ele>
        <time>2016-03-20T14:47:13Z</time>
      </trkpt>
      <trkpt lat="45.51676" lon="6.66761">
        <ele>1914.03</ele>
        <time>2016-03-20T14:47:19Z</time>
      </trkpt>
      <trkpt lat="45.51656" lon="6.66748">
        <ele>1923.03</ele>
        <time>2016-03-20T14:47:24Z</time>
      </trkpt>
      <trkpt lat="45.51635" lon="6.66735">
        <ele>1932.03</ele>
        <time>2016-03-20T14:47:29Z</time>
      </trkpt>
      <trkpt lat="45.51619" lon="6.66725">
        <ele>1938.27</ele>
        <time>2016-03-20T14:47:33Z</time>
      </trkpt>
      <trkpt lat="45.51599" lon="6.66714">
        <ele>1946.07</ele>
        <time>2016-03-20T14:47:38Z</time>
      </trkpt>
      <trkpt lat="45.51579" lon="6.66702">
        <ele>1955.07</ele>
        <time>2016-03-20T14:47:43Z</time>
      </trkpt>
      <trkpt lat="45.5156" lon="6.6669">
        <ele>1963.23</ele>
        <time>2016-03-20T14:47:48Z</time>
      </trkpt>
      <trkpt lat="45.51541" lon="6.66679">
        <ele>1973.03</ele>
        <time>2016-03-20T14:47:53Z</time>
      </trkpt>
      <trkpt lat="45.51522" lon="6.66668">
        <ele>1982.03</ele>
        <time>2016-03-20T14:47:58Z</time>
      </trkpt>
      <trkpt lat="45.51502" lon="6.66655">
        <ele>1989.24</ele>
        <time>2016-03-20T14:48:03Z</time>
      </trkpt>
      <trkpt lat="45.51483" lon="6.66642">
        <ele>1998.07</ele>
        <time>2016-03-20T14:48:08Z</time>
      </trkpt>
      <trkpt lat="45.51463" lon="6.6663">
        <ele>2007.06</ele>
        <time>2016-03-20T14:48:13Z</time>
      </trkpt>
      <trkpt lat="45.51443" lon="6.66618">
        <ele>2017.03</ele>
        <time>2016-03-20T14:48:18Z</time>
      </trkpt>
      <trkpt lat="45.51425" lon="6.66608">
        <ele>2026.03</ele>
        <time>2016-03-20T14:48:23Z</time>
      </trkpt>
      <trkpt lat="45.51406" lon="6.66595">
        <ele>2036.02</ele>
        <time>2016-03-20T14:48:28Z</time>
      </trkpt>
      <trkpt lat="45.51387" lon="6.66582">
        <ele>2043.25</ele>
        <time>2016-03-20T14:48:33Z</time>
      </trkpt>
      <trkpt lat="45.51367" lon="6.6657">
        <ele>2048.28</ele>
        <time>2016-03-20T14:48:38Z</time>
      </trkpt>
      <trkpt lat="45.51348" lon="6.6656">
        <ele>2055.25</ele>
        <time>2016-03-20T14:48:43Z</time>
      </trkpt>
      <trkpt lat="45.51328" lon="6.66547">
        <ele>2062.27</ele>
        <time>2016-03-20T14:48:48Z</time>
      </trkpt>
      <trkpt lat="45.51308" lon="6.66533">
        <ele>2070.07</ele>
        <time>2016-03-20T14:48:53Z</time>
      </trkpt>
      <trkpt lat="45.51289" lon="6.66521">
        <ele>2077.23</ele>
        <time>2016-03-20T14:48:58Z</time>
      </trkpt>
      <trkpt lat="45.51268" lon="6.6651">
        <ele>2085.23</ele>
        <time>2016-03-20T14:49:03Z</time>
      </trkpt>
      <trkpt lat="45.51251" lon="6.66498">
        <ele>2087.32</ele>
        <time>2016-03-20T14:49:07Z</time>
      </trkpt>
      <trkpt lat="45.51232" lon="6.66486">
        <ele>2089.48</ele>
        <time>2016-03-20T14:49:12Z</time>
      </trkpt>
      <trkpt lat="45.51215" lon="6.66477">
        <ele>2092.48</ele>
        <time>2016-03-20T14:49:16Z</time>
      </trkpt>
      <trkpt lat="45.51198" lon="6.66466">
        <ele>2094.52</ele>
        <time>2016-03-20T14:49:20Z</time>
      </trkpt>
      <trkpt lat="45.51181" lon="6.66456">
        <ele>2098.28</ele>
        <time>2016-03-20T14:49:24Z</time>
      </trkpt>
      <trkpt lat="45.51164" lon="6.66447">
        <ele>2102.28</ele>
        <time>2016-03-20T14:49:28Z</time>
      </trkpt>
      <trkpt lat="45.51145" lon="6.66436">
        <ele>2107.28</ele>
        <time>2016-03-20T14:49:33Z</time>
      </trkpt>
      <trkpt lat="45.51124" lon="6.66423">
        <ele>2110.52</ele>
        <time>2016-03-20T14:49:38Z</time>
      </trkpt>
      <trkpt lat="45.51107" lon="6.66413">
        <ele>2111.49</ele>
        <time>2016-03-20T14:49:42Z</time>
      </trkpt>
      <trkpt lat="45.51088" lon="6.66408">
        <ele>2112.5</ele>
        <time>2016-03-20T14:49:51Z</time>
      </trkpt>
      <trkpt lat="45.51077" lon="6.6643">
        <ele>2115.33</ele>
        <time>2016-03-20T14:50:40Z</time>
      </trkpt>
      <trkpt lat="45.51064" lon="6.66451">
        <ele>2115.53</ele>
        <time>2016-03-20T14:50:51Z</time>
      </trkpt>
      <trkpt lat="45.51048" lon="6.66468">
        <ele>2113.53</ele>
        <time>2016-03-20T14:50:56Z</time>
      </trkpt>
      <trkpt lat="45.51033" lon="6.66484">
        <ele>2110.73</ele>
        <time>2016-03-20T14:51:06Z</time>
      </trkpt>
      <trkpt lat="45.51022" lon="6.66505">
        <ele>2104.55</ele>
        <time>2016-03-20T14:51:22Z</time>
      </trkpt>
      <trkpt lat="45.51012" lon="6.66527">
        <ele>2104.53</ele>
        <time>2016-03-20T14:51:36Z</time>
      </trkpt>
      <trkpt lat="45.51003" lon="6.6655">
        <ele>2103.5</ele>
        <time>2016-03-20T14:51:45Z</time>
      </trkpt>
      <trkpt lat="45.50989" lon="6.66569">
        <ele>2100.54</ele>
        <time>2016-03-20T14:51:51Z</time>
      </trkpt>
      <trkpt lat="45.50975" lon="6.66587">
        <ele>2098.58</ele>
        <time>2016-03-20T14:51:55Z</time>
      </trkpt>
      <trkpt lat="45.50956" lon="6.66609">
        <ele>2096.73</ele>
        <time>2016-03-20T14:51:59Z</time>
      </trkpt>
      <trkpt lat="45.50943" lon="6.66634">
        <ele>2095.57</ele>
        <time>2016-03-20T14:52:02Z</time>
      </trkpt>
      <trkpt lat="45.50928" lon="6.66662">
        <ele>2094.57</ele>
        <time>2016-03-20T14:52:05Z</time>
      </trkpt>
      <trkpt lat="45.50914" lon="6.66688">
        <ele>2094.53</ele>
        <time>2016-03-20T14:52:08Z</time>
      </trkpt>
      <trkpt lat="45.509" lon="6.66715">
        <ele>2093.76</ele>
        <time>2016-03-20T14:52:11Z</time>
      </trkpt>
      <trkpt lat="45.50883" lon="6.66739">
        <ele>2088.03</ele>
        <time>2016-03-20T14:52:14Z</time>
      </trkpt>
      <trkpt lat="45.50876" lon="6.66772">
        <ele>2085.77</ele>
        <time>2016-03-20T14:52:17Z</time>
      </trkpt>
      <trkpt lat="45.50873" lon="6.66798">
        <ele>2084.12</ele>
        <time>2016-03-20T14:52:20Z</time>
      </trkpt>
      <trkpt lat="45.50857" lon="6.66817">
        <ele>2080.66</ele>
        <time>2016-03-20T14:52:24Z</time>
      </trkpt>
      <trkpt lat="45.50839" lon="6.6683">
        <ele>2073.78</ele>
        <time>2016-03-20T14:52:42Z</time>
      </trkpt>
      <trkpt lat="45.50821" lon="6.66847">
        <ele>2068.79</ele>
        <time>2016-03-20T14:52:46Z</time>
      </trkpt>
      <trkpt lat="45.50806" lon="6.66865">
        <ele>2067.7</ele>
        <time>2016-03-20T14:52:49Z</time>
      </trkpt>
      <trkpt lat="45.5079" lon="6.66884">
        <ele>2065.74</ele>
        <time>2016-03-20T14:52:52Z</time>
      </trkpt>
      <trkpt lat="45.50775" lon="6.66909">
        <ele>2062.97</ele>
        <time>2016-03-20T14:52:55Z</time>
      </trkpt>
      <trkpt lat="45.50758" lon="6.66936">
        <ele>2058.98</ele>
        <time>2016-03-20T14:52:58Z</time>
      </trkpt>
      <trkpt lat="45.50737" lon="6.66955">
        <ele>2054.82</ele>
        <time>2016-03-20T14:53:01Z</time>
      </trkpt>
      <trkpt lat="45.5071" lon="6.66963">
        <ele>2051.78</ele>
        <time>2016-03-20T14:53:04Z</time>
      </trkpt>
      <trkpt lat="45.50684" lon="6.66962">
        <ele>2049.77</ele>
        <time>2016-03-20T14:53:07Z</time>
      </trkpt>
      <trkpt lat="45.50664" lon="6.66965">
        <ele>2049.7</ele>
        <time>2016-03-20T14:53:09Z</time>
      </trkpt>
      <trkpt lat="45.50647" lon="6.66975">
        <ele>2048.58</ele>
        <time>2016-03-20T14:53:11Z</time>
      </trkpt>
      <trkpt lat="45.50624" lon="6.66992">
        <ele>2047.76</ele>
        <time>2016-03-20T14:53:14Z</time>
      </trkpt>
      <trkpt lat="45.50603" lon="6.66998">
        <ele>2043.79</ele>
        <time>2016-03-20T14:53:17Z</time>
      </trkpt>
      <trkpt lat="45.50583" lon="6.67019">
        <ele>2039.98</ele>
        <time>2016-03-20T14:53:20Z</time>
      </trkpt>
      <trkpt lat="45.50575" lon="6.67045">
        <ele>2038.59</ele>
        <time>2016-03-20T14:53:22Z</time>
      </trkpt>
      <trkpt lat="45.50564" lon="6.67067">
        <ele>2037.57</ele>
        <time>2016-03-20T14:53:24Z</time>
      </trkpt>
      <trkpt lat="45.50554" lon="6.67096">
        <ele>2036.57</ele>
        <time>2016-03-20T14:53:26Z</time>
      </trkpt>
      <trkpt lat="45.50552" lon="6.67127">
        <ele>2033.81</ele>
        <time>2016-03-20T14:53:28Z</time>
      </trkpt>
      <trkpt lat="45.5054" lon="6.6715">
        <ele>2032.58</ele>
        <time>2016-03-20T14:53:30Z</time>
      </trkpt>
      <trkpt lat="45.50531" lon="6.67176">
        <ele>2030.77</ele>
        <time>2016-03-20T14:53:32Z</time>
      </trkpt>
      <trkpt lat="45.50519" lon="6.672">
        <ele>2028.78</ele>
        <time>2016-03-20T14:53:34Z</time>
      </trkpt>
      <trkpt lat="45.5051" lon="6.67232">
        <ele>2015.19</ele>
        <time>2016-03-20T14:53:37Z</time>
      </trkpt>
      <trkpt lat="45.50503" lon="6.67272">
        <ele>2010.66</ele>
        <time>2016-03-20T14:53:40Z</time>
      </trkpt>
      <trkpt lat="45.50496" lon="6.67305">
        <ele>2009.58</ele>
        <time>2016-03-20T14:53:42Z</time>
      </trkpt>
      <trkpt lat="45.50491" lon="6.67335">
        <ele>2004.25</ele>
        <time>2016-03-20T14:53:44Z</time>
      </trkpt>
      <trkpt lat="45.50485" lon="6.67362">
        <ele>2001.64</ele>
        <time>2016-03-20T14:53:46Z</time>
      </trkpt>
      <trkpt lat="45.50479" lon="6.67396">
        <ele>1998.14</ele>
        <time>2016-03-20T14:53:49Z</time>
      </trkpt>
      <trkpt lat="45.50473" lon="6.67425">
        <ele>1997.7</ele>
        <time>2016-03-20T14:53:52Z</time>
      </trkpt>
      <trkpt lat="45.50467" lon="6.67455">
        <ele>1994.82</ele>
        <time>2016-03-20T14:53:56Z</time>
      </trkpt>
      <trkpt lat="45.50454" lon="6.67437">
        <ele>1981.74</ele>
        <time>2016-03-20T14:56:33Z</time>
      </trkpt>
      <trkpt lat="45.50447" lon="6.67409">
        <ele>1978.37</ele>
        <time>2016-03-20T14:56:47Z</time>
      </trkpt>
      <trkpt lat="45.50439" lon="6.67379">
        <ele>1981.36</ele>
        <time>2016-03-20T14:56:52Z</time>
      </trkpt>
      <trkpt lat="45.50431" lon="6.67349">
        <ele>1987.28</ele>
        <time>2016-03-20T14:56:57Z</time>
      </trkpt>
      <trkpt lat="45.50426" lon="6.67323">
        <ele>1990.12</ele>
        <time>2016-03-20T14:57:01Z</time>
      </trkpt>
      <trkpt lat="45.5042" lon="6.67299">
        <ele>1992.36</ele>
        <time>2016-03-20T14:57:05Z</time>
      </trkpt>
      <trkpt lat="45.50413" lon="6.6727">
        <ele>1997.29</ele>
        <time>2016-03-20T14:57:10Z</time>
      </trkpt>
      <trkpt lat="45.50406" lon="6.67242">
        <ele>2001.48</ele>
        <time>2016-03-20T14:57:15Z</time>
      </trkpt>
      <trkpt lat="45.504" lon="6.67214">
        <ele>2007.08</ele>
        <time>2016-03-20T14:57:20Z</time>
      </trkpt>
      <trkpt lat="45.50393" lon="6.67186">
        <ele>2015.27</ele>
        <time>2016-03-20T14:57:25Z</time>
      </trkpt>
      <trkpt lat="45.50388" lon="6.67157">
        <ele>2025.82</ele>
        <time>2016-03-20T14:57:30Z</time>
      </trkpt>
      <trkpt lat="45.50383" lon="6.67131">
        <ele>2041.01</ele>
        <time>2016-03-20T14:57:35Z</time>
      </trkpt>
      <trkpt lat="45.50378" lon="6.67105">
        <ele>2052.42</ele>
        <time>2016-03-20T14:57:40Z</time>
      </trkpt>
      <trkpt lat="45.50371" lon="6.67075">
        <ele>2060.24</ele>
        <time>2016-03-20T14:57:45Z</time>
      </trkpt>
      <trkpt lat="45.50366" lon="6.67046">
        <ele>2068.03</ele>
        <time>2016-03-20T14:57:50Z</time>
      </trkpt>
      <trkpt lat="45.50362" lon="6.6702">
        <ele>2076.84</ele>
        <time>2016-03-20T14:57:54Z</time>
      </trkpt>
      <trkpt lat="45.50357" lon="6.66995">
        <ele>2084.87</ele>
        <time>2016-03-20T14:57:58Z</time>
      </trkpt>
      <trkpt lat="45.50352" lon="6.66965">
        <ele>2097.02</ele>
        <time>2016-03-20T14:58:03Z</time>
      </trkpt>
      <trkpt lat="45.50346" lon="6.66937">
        <ele>2106.03</ele>
        <time>2016-03-20T14:58:08Z</time>
      </trkpt>
      <trkpt lat="45.5034" lon="6.66908">
        <ele>2116.23</ele>
        <time>2016-03-20T14:58:13Z</time>
      </trkpt>
      <trkpt lat="45.50333" lon="6.66879">
        <ele>2121.44</ele>
        <time>2016-03-20T14:58:18Z</time>
      </trkpt>
      <trkpt lat="45.50328" lon="6.66854">
        <ele>2127.88</ele>
        <time>2016-03-20T14:58:22Z</time>
      </trkpt>
      <trkpt lat="45.50322" lon="6.66824">
        <ele>2134.28</ele>
        <time>2016-03-20T14:58:27Z</time>
      </trkpt>
      <trkpt lat="45.50316" lon="6.66796">
        <ele>2142.23</ele>
        <time>2016-03-20T14:58:32Z</time>
      </trkpt>
      <trkpt lat="45.5031" lon="6.66768">
        <ele>2147.47</ele>
        <time>2016-03-20T14:58:37Z</time>
      </trkpt>
      <trkpt lat="45.50303" lon="6.66741">
        <ele>2155.27</ele>
        <time>2016-03-20T14:58:42Z</time>
      </trkpt>
      <trkpt lat="45.50297" lon="6.66711">
        <ele>2161.08</ele>
        <time>2016-03-20T14:58:47Z</time>
      </trkpt>
      <trkpt lat="45.5029" lon="6.66681">
        <ele>2166.48</ele>
        <time>2016-03-20T14:58:52Z</time>
      </trkpt>
      <trkpt lat="45.50283" lon="6.66651">
        <ele>2170.48</ele>
        <time>2016-03-20T14:58:57Z</time>
      </trkpt>
      <trkpt lat="45.50278" lon="6.66626">
        <ele>2175.28</ele>
        <time>2016-03-20T14:59:01Z</time>
      </trkpt>
      <trkpt lat="45.50272" lon="6.66596">
        <ele>2182.11</ele>
        <time>2016-03-20T14:59:06Z</time>
      </trkpt>
      <trkpt lat="45.50265" lon="6.66568">
        <ele>2187.09</ele>
        <time>2016-03-20T14:59:11Z</time>
      </trkpt>
      <trkpt lat="45.50259" lon="6.66538">
        <ele>2193.04</ele>
        <time>2016-03-20T14:59:16Z</time>
      </trkpt>
      <trkpt lat="45.50253" lon="6.66509">
        <ele>2202.23</ele>
        <time>2016-03-20T14:59:21Z</time>
      </trkpt>
      <trkpt lat="45.50247" lon="6.66481">
        <ele>2210.48</ele>
        <time>2016-03-20T14:59:26Z</time>
      </trkpt>
      <trkpt lat="45.5024" lon="6.66454">
        <ele>2215.21</ele>
        <time>2016-03-20T14:59:31Z</time>
      </trkpt>
      <trkpt lat="45.50232" lon="6.66426">
        <ele>2217.33</ele>
        <time>2016-03-20T14:59:36Z</time>
      </trkpt>
      <trkpt lat="45.50226" lon="6.66398">
        <ele>2229.02</ele>
        <time>2016-03-20T14:59:41Z</time>
      </trkpt>
      <trkpt lat="45.50219" lon="6.66369">
        <ele>2237.3</ele>
        <time>2016-03-20T14:59:46Z</time>
      </trkpt>
      <trkpt lat="45.50214" lon="6.66342">
        <ele>2248.06</ele>
        <time>2016-03-20T14:59:51Z</time>
      </trkpt>
      <trkpt lat="45.50206" lon="6.66316">
        <ele>2253.28</ele>
        <time>2016-03-20T14:59:56Z</time>
      </trkpt>
      <trkpt lat="45.50201" lon="6.66288">
        <ele>2266.62</ele>
        <time>2016-03-20T15:00:01Z</time>
      </trkpt>
      <trkpt lat="45.50197" lon="6.6626">
        <ele>2284.73</ele>
        <time>2016-03-20T15:00:06Z</time>
      </trkpt>
      <trkpt lat="45.5019" lon="6.66233">
        <ele>2297.82</ele>
        <time>2016-03-20T15:00:11Z</time>
      </trkpt>
      <trkpt lat="45.50184" lon="6.66208">
        <ele>2307.2</ele>
        <time>2016-03-20T15:00:16Z</time>
      </trkpt>
      <trkpt lat="45.50179" lon="6.6618">
        <ele>2312.49</ele>
        <time>2016-03-20T15:00:21Z</time>
      </trkpt>
      <trkpt lat="45.50178" lon="6.66151">
        <ele>2324.29</ele>
        <time>2016-03-20T15:00:30Z</time>
      </trkpt>
      <trkpt lat="45.5016" lon="6.66147">
        <ele>2338.69</ele>
        <time>2016-03-20T15:02:01Z</time>
      </trkpt>
      <trkpt lat="45.50143" lon="6.6616">
        <ele>2332.82</ele>
        <time>2016-03-20T15:02:09Z</time>
      </trkpt>
      <trkpt lat="45.50138" lon="6.66191">
        <ele>2323.95</ele>
        <time>2016-03-20T15:02:17Z</time>
      </trkpt>
      <trkpt lat="45.50121" lon="6.66206">
        <ele>2314.62</ele>
        <time>2016-03-20T15:02:23Z</time>
      </trkpt>
      <trkpt lat="45.50123" lon="6.66247">
        <ele>2311.53</ele>
        <time>2016-03-20T15:02:30Z</time>
      </trkpt>
      <trkpt lat="45.50124" lon="6.66278">
        <ele>2306.03</ele>
        <time>2016-03-20T15:02:33Z</time>
      </trkpt>
      <trkpt lat="45.5013" lon="6.66306">
        <ele>2302.99</ele>
        <time>2016-03-20T15:02:35Z</time>
      </trkpt>
      <trkpt lat="45.50126" lon="6.66333">
        <ele>2300.63</ele>
        <time>2016-03-20T15:02:37Z</time>
      </trkpt>
      <trkpt lat="45.5012" lon="6.66375">
        <ele>2297.81</ele>
        <time>2016-03-20T15:02:39Z</time>
      </trkpt>
      <trkpt lat="45.50112" lon="6.66399">
        <ele>2296.79</ele>
        <time>2016-03-20T15:02:40Z</time>
      </trkpt>
      <trkpt lat="45.50103" lon="6.66424">
        <ele>2295.78</ele>
        <time>2016-03-20T15:02:41Z</time>
      </trkpt>
      <trkpt lat="45.50098" lon="6.66463">
        <ele>2292.82</ele>
        <time>2016-03-20T15:02:43Z</time>
      </trkpt>
      <trkpt lat="45.501" lon="6.66493">
        <ele>2291.74</ele>
        <time>2016-03-20T15:02:45Z</time>
      </trkpt>
      <trkpt lat="45.50111" lon="6.66471">
        <ele>2273.78</ele>
        <time>2016-03-20T15:02:47Z</time>
      </trkpt>
      <trkpt lat="45.50108" lon="6.66504">
        <ele>2245.74</ele>
        <time>2016-03-20T15:03:24Z</time>
      </trkpt>
      <trkpt lat="45.50108" lon="6.66539">
        <ele>2242.78</ele>
        <time>2016-03-20T15:03:27Z</time>
      </trkpt>
      <trkpt lat="45.50122" lon="6.66557">
        <ele>2238.56</ele>
        <time>2016-03-20T15:03:31Z</time>
      </trkpt>
      <trkpt lat="45.5013" lon="6.66585">
        <ele>2232.82</ele>
        <time>2016-03-20T15:03:36Z</time>
      </trkpt>
      <trkpt lat="45.50148" lon="6.66593">
        <ele>2221.92</ele>
        <time>2016-03-20T15:03:42Z</time>
      </trkpt>
      <trkpt lat="45.50165" lon="6.66585">
        <ele>2216.78</ele>
        <time>2016-03-20T15:03:48Z</time>
      </trkpt>
      <trkpt lat="45.50162" lon="6.66614">
        <ele>2201.78</ele>
        <time>2016-03-20T15:04:20Z</time>
      </trkpt>
      <trkpt lat="45.50151" lon="6.66634">
        <ele>2197.57</ele>
        <time>2016-03-20T15:04:26Z</time>
      </trkpt>
      <trkpt lat="45.50162" lon="6.66655">
        <ele>2184.21</ele>
        <time>2016-03-20T15:04:37Z</time>
      </trkpt>
      <trkpt lat="45.50181" lon="6.66649">
        <ele>2178.94</ele>
        <time>2016-03-20T15:04:41Z</time>
      </trkpt>
      <trkpt lat="45.50186" lon="6.66682">
        <ele>2174.59</ele>
        <time>2016-03-20T15:04:48Z</time>
      </trkpt>
      <trkpt lat="45.50179" lon="6.66709">
        <ele>2171.01</ele>
        <time>2016-03-20T15:04:50Z</time>
      </trkpt>
      <trkpt lat="45.50183" lon="6.66736">
        <ele>2168.63</ele>
        <time>2016-03-20T15:04:52Z</time>
      </trkpt>
      <trkpt lat="45.502" lon="6.66752">
        <ele>2165.59</ele>
        <time>2016-03-20T15:04:55Z</time>
      </trkpt>
      <trkpt lat="45.50216" lon="6.66769">
        <ele>2161.53</ele>
        <time>2016-03-20T15:05:02Z</time>
      </trkpt>
      <trkpt lat="45.50202" lon="6.66792">
        <ele>2150.75</ele>
        <time>2016-03-20T15:05:36Z</time>
      </trkpt>
      <trkpt lat="45.50196" lon="6.6682">
        <ele>2135.41</ele>
        <time>2016-03-20T15:05:48Z</time>
      </trkpt>
      <trkpt lat="45.50205" lon="6.66844">
        <ele>2131.98</ele>
        <time>2016-03-20T15:05:52Z</time>
      </trkpt>
      <trkpt lat="45.50203" lon="6.6687">
        <ele>2130.54</ele>
        <time>2016-03-20T15:05:55Z</time>
      </trkpt>
      <trkpt lat="45.50206" lon="6.669">
        <ele>2127.77</ele>
        <time>2016-03-20T15:05:59Z</time>
      </trkpt>
      <trkpt lat="45.50221" lon="6.66914">
        <ele>2119.53</ele>
        <time>2016-03-20T15:06:19Z</time>
      </trkpt>
      <trkpt lat="45.5024" lon="6.66918">
        <ele>2120.73</ele>
        <time>2016-03-20T15:06:24Z</time>
      </trkpt>
      <trkpt lat="45.50247" lon="6.66943">
        <ele>2112.63</ele>
        <time>2016-03-20T15:06:29Z</time>
      </trkpt>
      <trkpt lat="45.50255" lon="6.66977">
        <ele>2106.03</ele>
        <time>2016-03-20T15:06:33Z</time>
      </trkpt>
      <trkpt lat="45.50254" lon="6.67007">
        <ele>2102.78</ele>
        <time>2016-03-20T15:06:36Z</time>
      </trkpt>
      <trkpt lat="45.50258" lon="6.67033">
        <ele>2100.74</ele>
        <time>2016-03-20T15:06:39Z</time>
      </trkpt>
      <trkpt lat="45.50249" lon="6.67058">
        <ele>2094.78</ele>
        <time>2016-03-20T15:06:43Z</time>
      </trkpt>
      <trkpt lat="45.50253" lon="6.67088">
        <ele>2083.28</ele>
        <time>2016-03-20T15:06:49Z</time>
      </trkpt>
      <trkpt lat="45.50263" lon="6.67114">
        <ele>2076.78</ele>
        <time>2016-03-20T15:06:58Z</time>
      </trkpt>
      <trkpt lat="45.50282" lon="6.67128">
        <ele>2070.04</ele>
        <time>2016-03-20T15:07:01Z</time>
      </trkpt>
      <trkpt lat="45.50303" lon="6.67147">
        <ele>2065.63</ele>
        <time>2016-03-20T15:07:04Z</time>
      </trkpt>
      <trkpt lat="45.50316" lon="6.67165">
        <ele>2062.18</ele>
        <time>2016-03-20T15:07:06Z</time>
      </trkpt>
      <trkpt lat="45.50334" lon="6.67195">
        <ele>2053.18</ele>
        <time>2016-03-20T15:07:09Z</time>
      </trkpt>
      <trkpt lat="45.50347" lon="6.67217">
        <ele>2048.72</ele>
        <time>2016-03-20T15:07:11Z</time>
      </trkpt>
      <trkpt lat="45.50366" lon="6.67235">
        <ele>2046.78</ele>
        <time>2016-03-20T15:07:13Z</time>
      </trkpt>
      <trkpt lat="45.50383" lon="6.67246">
        <ele>2044.62</ele>
        <time>2016-03-20T15:07:15Z</time>
      </trkpt>
      <trkpt lat="45.50396" lon="6.6727">
        <ele>2042.77</ele>
        <time>2016-03-20T15:07:17Z</time>
      </trkpt>
      <trkpt lat="45.50411" lon="6.67296">
        <ele>2038.82</ele>
        <time>2016-03-20T15:07:20Z</time>
      </trkpt>
      <trkpt lat="45.50427" lon="6.67318">
        <ele>2028.13</ele>
        <time>2016-03-20T15:07:23Z</time>
      </trkpt>
      <trkpt lat="45.50443" lon="6.6734">
        <ele>2024.2</ele>
        <time>2016-03-20T15:07:25Z</time>
      </trkpt>
      <trkpt lat="45.50458" lon="6.67356">
        <ele>2015.56</ele>
        <time>2016-03-20T15:07:27Z</time>
      </trkpt>
      <trkpt lat="45.50469" lon="6.67388">
        <ele>2009.68</ele>
        <time>2016-03-20T15:07:30Z</time>
      </trkpt>
      <trkpt lat="45.50476" lon="6.67423">
        <ele>2005.18</ele>
        <time>2016-03-20T15:07:33Z</time>
      </trkpt>
      <trkpt lat="45.50475" lon="6.6745">
        <ele>2003.58</ele>
        <time>2016-03-20T15:07:36Z</time>
      </trkpt>
      <trkpt lat="45.50458" lon="6.67442">
        <ele>1989.74</ele>
        <time>2016-03-20T15:08:50Z</time>
      </trkpt>
      <trkpt lat="45.50449" lon="6.67419">
        <ele>1983.54</ele>
        <time>2016-03-20T15:09:06Z</time>
      </trkpt>
      <trkpt lat="45.50443" lon="6.67392">
        <ele>1985.49</ele>
        <time>2016-03-20T15:09:11Z</time>
      </trkpt>
      <trkpt lat="45.50438" lon="6.67366">
        <ele>1989.12</ele>
        <time>2016-03-20T15:09:15Z</time>
      </trkpt>
      <trkpt lat="45.50433" lon="6.67341">
        <ele>1995.68</ele>
        <time>2016-03-20T15:09:19Z</time>
      </trkpt>
      <trkpt lat="45.50426" lon="6.67311">
        <ele>1998.53</ele>
        <time>2016-03-20T15:09:24Z</time>
      </trkpt>
      <trkpt lat="45.50418" lon="6.67282">
        <ele>1998.49</ele>
        <time>2016-03-20T15:09:29Z</time>
      </trkpt>
      <trkpt lat="45.5041" lon="6.67254">
        <ele>2003.91</ele>
        <time>2016-03-20T15:09:34Z</time>
      </trkpt>
      <trkpt lat="45.50404" lon="6.67225">
        <ele>2012.65</ele>
        <time>2016-03-20T15:09:39Z</time>
      </trkpt>
      <trkpt lat="45.50399" lon="6.67199">
        <ele>2019.04</ele>
        <time>2016-03-20T15:09:43Z</time>
      </trkpt>
      <trkpt lat="45.50392" lon="6.67171">
        <ele>2025.08</ele>
        <time>2016-03-20T15:09:48Z</time>
      </trkpt>
      <trkpt lat="45.50384" lon="6.67144">
        <ele>2033.32</ele>
        <time>2016-03-20T15:09:54Z</time>
      </trkpt>
      <trkpt lat="45.50373" lon="6.67119">
        <ele>2037.3</ele>
        <time>2016-03-20T15:10:01Z</time>
      </trkpt>
      <trkpt lat="45.50373" lon="6.67093">
        <ele>2042.64</ele>
        <time>2016-03-20T15:10:03Z</time>
      </trkpt>
      <trkpt lat="45.50368" lon="6.67062">
        <ele>2050.27</ele>
        <time>2016-03-20T15:10:08Z</time>
      </trkpt>
      <trkpt lat="45.50364" lon="6.67036">
        <ele>2055.69</ele>
        <time>2016-03-20T15:10:12Z</time>
      </trkpt>
      <trkpt lat="45.50358" lon="6.67011">
        <ele>2063.04</ele>
        <time>2016-03-20T15:10:16Z</time>
      </trkpt>
      <trkpt lat="45.50351" lon="6.66981">
        <ele>2075.18</ele>
        <time>2016-03-20T15:10:21Z</time>
      </trkpt>
      <trkpt lat="45.50345" lon="6.66953">
        <ele>2081.72</ele>
        <time>2016-03-20T15:10:26Z</time>
      </trkpt>
      <trkpt lat="45.50341" lon="6.66922">
        <ele>2106.14</ele>
        <time>2016-03-20T15:10:31Z</time>
      </trkpt>
      <trkpt lat="45.50338" lon="6.66894">
        <ele>2121.04</ele>
        <time>2016-03-20T15:10:36Z</time>
      </trkpt>
      <trkpt lat="45.50332" lon="6.66866">
        <ele>2127.28</ele>
        <time>2016-03-20T15:10:41Z</time>
      </trkpt>
      <trkpt lat="45.50326" lon="6.66838">
        <ele>2135.07</ele>
        <time>2016-03-20T15:10:46Z</time>
      </trkpt>
      <trkpt lat="45.5032" lon="6.6681">
        <ele>2140.43</ele>
        <time>2016-03-20T15:10:51Z</time>
      </trkpt>
      <trkpt lat="45.50315" lon="6.6678">
        <ele>2149.9</ele>
        <time>2016-03-20T15:10:56Z</time>
      </trkpt>
      <trkpt lat="45.50309" lon="6.66751">
        <ele>2158.23</ele>
        <time>2016-03-20T15:11:01Z</time>
      </trkpt>
      <trkpt lat="45.50303" lon="6.66726">
        <ele>2160.52</ele>
        <time>2016-03-20T15:11:05Z</time>
      </trkpt>
      <trkpt lat="45.50298" lon="6.66702">
        <ele>2165.27</ele>
        <time>2016-03-20T15:11:09Z</time>
      </trkpt>
      <trkpt lat="45.50291" lon="6.66673">
        <ele>2168.89</ele>
        <time>2016-03-20T15:11:14Z</time>
      </trkpt>
      <trkpt lat="45.50285" lon="6.66643">
        <ele>2176.25</ele>
        <time>2016-03-20T15:11:19Z</time>
      </trkpt>
      <trkpt lat="45.50279" lon="6.66613">
        <ele>2182.28</ele>
        <time>2016-03-20T15:11:24Z</time>
      </trkpt>
      <trkpt lat="45.50272" lon="6.66584">
        <ele>2191.04</ele>
        <time>2016-03-20T15:11:29Z</time>
      </trkpt>
      <trkpt lat="45.50266" lon="6.66555">
        <ele>2198.2</ele>
        <time>2016-03-20T15:11:34Z</time>
      </trkpt>
      <trkpt lat="45.5026" lon="6.66526">
        <ele>2204.04</ele>
        <time>2016-03-20T15:11:39Z</time>
      </trkpt>
      <trkpt lat="45.50254" lon="6.66496">
        <ele>2213.23</ele>
        <time>2016-03-20T15:11:44Z</time>
      </trkpt>
      <trkpt lat="45.50248" lon="6.66466">
        <ele>2223.99</ele>
        <time>2016-03-20T15:11:49Z</time>
      </trkpt>
      <trkpt lat="45.50242" lon="6.66435">
        <ele>2235.03</ele>
        <time>2016-03-20T15:11:54Z</time>
      </trkpt>
      <trkpt lat="45.50236" lon="6.66406">
        <ele>2246.83</ele>
        <time>2016-03-20T15:11:59Z</time>
      </trkpt>
      <trkpt lat="45.5023" lon="6.66379">
        <ele>2256.87</ele>
        <time>2016-03-20T15:12:04Z</time>
      </trkpt>
      <trkpt lat="45.50224" lon="6.66351">
        <ele>2265.87</ele>
        <time>2016-03-20T15:12:09Z</time>
      </trkpt>
      <trkpt lat="45.50219" lon="6.66325">
        <ele>2277.03</ele>
        <time>2016-03-20T15:12:14Z</time>
      </trkpt>
      <trkpt lat="45.50214" lon="6.66298">
        <ele>2289.02</ele>
        <time>2016-03-20T15:12:19Z</time>
      </trkpt>
      <trkpt lat="45.50206" lon="6.66272">
        <ele>2297.07</ele>
        <time>2016-03-20T15:12:24Z</time>
      </trkpt>
      <trkpt lat="45.50201" lon="6.66244">
        <ele>2310.74</ele>
        <time>2016-03-20T15:12:29Z</time>
      </trkpt>
      <trkpt lat="45.50195" lon="6.66216">
        <ele>2324.78</ele>
        <time>2016-03-20T15:12:34Z</time>
      </trkpt>
      <trkpt lat="45.50188" lon="6.66188">
        <ele>2331.08</ele>
        <time>2016-03-20T15:12:39Z</time>
      </trkpt>
      <trkpt lat="45.50183" lon="6.66163">
        <ele>2332.53</ele>
        <time>2016-03-20T15:12:43Z</time>
      </trkpt>
      <trkpt lat="45.50189" lon="6.66135">
        <ele>2337.88</ele>
        <time>2016-03-20T15:12:52Z</time>
      </trkpt>
      <trkpt lat="45.50208" lon="6.66126">
        <ele>2338.61</ele>
        <time>2016-03-20T15:13:00Z</time>
      </trkpt>
      <trkpt lat="45.50228" lon="6.66125">
        <ele>2338.54</ele>
        <time>2016-03-20T15:13:05Z</time>
      </trkpt>
      <trkpt lat="45.50251" lon="6.66122">
        <ele>2336.57</ele>
        <time>2016-03-20T15:13:10Z</time>
      </trkpt>
      <trkpt lat="45.50268" lon="6.66115">
        <ele>2335.57</ele>
        <time>2016-03-20T15:13:13Z</time>
      </trkpt>
      <trkpt lat="45.50287" lon="6.66111">
        <ele>2336.52</ele>
        <time>2016-03-20T15:13:16Z</time>
      </trkpt>
      <trkpt lat="45.50307" lon="6.66106">
        <ele>2336.72</ele>
        <time>2016-03-20T15:13:19Z</time>
      </trkpt>
      <trkpt lat="45.50328" lon="6.661">
        <ele>2336.53</ele>
        <time>2016-03-20T15:13:22Z</time>
      </trkpt>
      <trkpt lat="45.5035" lon="6.66095">
        <ele>2334.58</ele>
        <time>2016-03-20T15:13:25Z</time>
      </trkpt>
      <trkpt lat="45.50371" lon="6.66094">
        <ele>2332.13</ele>
        <time>2016-03-20T15:13:28Z</time>
      </trkpt>
      <trkpt lat="45.50371" lon="6.66121">
        <ele>2322.64</ele>
        <time>2016-03-20T15:13:34Z</time>
      </trkpt>
      <trkpt lat="45.50374" lon="6.66163">
        <ele>2315.79</ele>
        <time>2016-03-20T15:13:38Z</time>
      </trkpt>
      <trkpt lat="45.50372" lon="6.66196">
        <ele>2314.58</ele>
        <time>2016-03-20T15:13:40Z</time>
      </trkpt>
      <trkpt lat="45.50368" lon="6.66224">
        <ele>2311.01</ele>
        <time>2016-03-20T15:13:42Z</time>
      </trkpt>
      <trkpt lat="45.50356" lon="6.66259">
        <ele>2307.83</ele>
        <time>2016-03-20T15:13:44Z</time>
      </trkpt>
      <trkpt lat="45.50362" lon="6.66289">
        <ele>2298.22</ele>
        <time>2016-03-20T15:13:47Z</time>
      </trkpt>
      <trkpt lat="45.50352" lon="6.66329">
        <ele>2291.84</ele>
        <time>2016-03-20T15:13:50Z</time>
      </trkpt>
      <trkpt lat="45.50346" lon="6.66353">
        <ele>2285.62</ele>
        <time>2016-03-20T15:13:52Z</time>
      </trkpt>
      <trkpt lat="45.5034" lon="6.66385">
        <ele>2281.79</ele>
        <time>2016-03-20T15:13:55Z</time>
      </trkpt>
      <trkpt lat="45.50337" lon="6.66411">
        <ele>2278.98</ele>
        <time>2016-03-20T15:13:57Z</time>
      </trkpt>
      <trkpt lat="45.50323" lon="6.66433">
        <ele>2275.99</ele>
        <time>2016-03-20T15:13:59Z</time>
      </trkpt>
      <trkpt lat="45.50317" lon="6.66472">
        <ele>2248.24</ele>
        <time>2016-03-20T15:14:05Z</time>
      </trkpt>
      <trkpt lat="45.5032" lon="6.66497">
        <ele>2241.32</ele>
        <time>2016-03-20T15:14:07Z</time>
      </trkpt>
      <trkpt lat="45.50336" lon="6.66518">
        <ele>2229.5</ele>
        <time>2016-03-20T15:14:10Z</time>
      </trkpt>
      <trkpt lat="45.5034" lon="6.66561">
        <ele>2222.87</ele>
        <time>2016-03-20T15:14:13Z</time>
      </trkpt>
      <trkpt lat="45.50356" lon="6.66576">
        <ele>2218.22</ele>
        <time>2016-03-20T15:14:15Z</time>
      </trkpt>
      <trkpt lat="45.50359" lon="6.66606">
        <ele>2212.44</ele>
        <time>2016-03-20T15:14:17Z</time>
      </trkpt>
      <trkpt lat="45.5037" lon="6.66626">
        <ele>2208.21</ele>
        <time>2016-03-20T15:14:19Z</time>
      </trkpt>
      <trkpt lat="45.50395" lon="6.66611">
        <ele>2205.96</ele>
        <time>2016-03-20T15:14:21Z</time>
      </trkpt>
      <trkpt lat="45.50413" lon="6.6662">
        <ele>2202.03</ele>
        <time>2016-03-20T15:14:23Z</time>
      </trkpt>
      <trkpt lat="45.50434" lon="6.66633">
        <ele>2199.14</ele>
        <time>2016-03-20T15:14:26Z</time>
      </trkpt>
      <trkpt lat="45.5044" lon="6.66658">
        <ele>2182.08</ele>
        <time>2016-03-20T15:14:30Z</time>
      </trkpt>
      <trkpt lat="45.5045" lon="6.66686">
        <ele>2177.97</ele>
        <time>2016-03-20T15:14:34Z</time>
      </trkpt>
      <trkpt lat="45.50466" lon="6.66713">
        <ele>2166.8</ele>
        <time>2016-03-20T15:14:41Z</time>
      </trkpt>
      <trkpt lat="45.50487" lon="6.66721">
        <ele>2158.85</ele>
        <time>2016-03-20T15:14:44Z</time>
      </trkpt>
      <trkpt lat="45.50508" lon="6.66717">
        <ele>2154.7</ele>
        <time>2016-03-20T15:14:46Z</time>
      </trkpt>
      <trkpt lat="45.50533" lon="6.66734">
        <ele>2144.96</ele>
        <time>2016-03-20T15:14:50Z</time>
      </trkpt>
      <trkpt lat="45.50546" lon="6.66761">
        <ele>2139.83</ele>
        <time>2016-03-20T15:14:53Z</time>
      </trkpt>
      <trkpt lat="45.50559" lon="6.66783">
        <ele>2132.18</ele>
        <time>2016-03-20T15:14:55Z</time>
      </trkpt>
      <trkpt lat="45.50567" lon="6.6681">
        <ele>2128.2</ele>
        <time>2016-03-20T15:14:57Z</time>
      </trkpt>
      <trkpt lat="45.5057" lon="6.66836">
        <ele>2124.04</ele>
        <time>2016-03-20T15:14:59Z</time>
      </trkpt>
      <trkpt lat="45.50565" lon="6.66867">
        <ele>2120.99</ele>
        <time>2016-03-20T15:15:01Z</time>
      </trkpt>
      <trkpt lat="45.50563" lon="6.66899">
        <ele>2116.23</ele>
        <time>2016-03-20T15:15:03Z</time>
      </trkpt>
      <trkpt lat="45.50568" lon="6.6694">
        <ele>2111.24</ele>
        <time>2016-03-20T15:15:05Z</time>
      </trkpt>
      <trkpt lat="45.5057" lon="6.66971">
        <ele>2105.26</ele>
        <time>2016-03-20T15:15:08Z</time>
      </trkpt>
      <trkpt lat="45.5058" lon="6.67">
        <ele>2099.92</ele>
        <time>2016-03-20T15:15:10Z</time>
      </trkpt>
      <trkpt lat="45.50581" lon="6.67029">
        <ele>2093.31</ele>
        <time>2016-03-20T15:15:12Z</time>
      </trkpt>
      <trkpt lat="45.50562" lon="6.67061">
        <ele>2089.04</ele>
        <time>2016-03-20T15:15:14Z</time>
      </trkpt>
      <trkpt lat="45.5055" lon="6.67101">
        <ele>2086.79</ele>
        <time>2016-03-20T15:15:16Z</time>
      </trkpt>
      <trkpt lat="45.50544" lon="6.67126">
        <ele>2085.78</ele>
        <time>2016-03-20T15:15:17Z</time>
      </trkpt>
      <trkpt lat="45.50534" lon="6.67155">
        <ele>2081.22</ele>
        <time>2016-03-20T15:15:19Z</time>
      </trkpt>
      <trkpt lat="45.50527" lon="6.67188">
        <ele>2078.8</ele>
        <time>2016-03-20T15:15:21Z</time>
      </trkpt>
      <trkpt lat="45.50514" lon="6.67215">
        <ele>2067.88</ele>
        <time>2016-03-20T15:15:24Z</time>
      </trkpt>
      <trkpt lat="45.50508" lon="6.67247">
        <ele>2064.98</ele>
        <time>2016-03-20T15:15:26Z</time>
      </trkpt>
      <trkpt lat="45.50504" lon="6.67273">
        <ele>2061.67</ele>
        <time>2016-03-20T15:15:28Z</time>
      </trkpt>
      <trkpt lat="45.50499" lon="6.67304">
        <ele>2058.98</ele>
        <time>2016-03-20T15:15:30Z</time>
      </trkpt>
      <trkpt lat="45.50492" lon="6.67338">
        <ele>2055.99</ele>
        <time>2016-03-20T15:15:32Z</time>
      </trkpt>
      <trkpt lat="45.50488" lon="6.67365">
        <ele>2048.21</ele>
        <time>2016-03-20T15:15:35Z</time>
      </trkpt>
      <trkpt lat="45.50481" lon="6.67395">
        <ele>2046.6</ele>
        <time>2016-03-20T15:15:37Z</time>
      </trkpt>
      <trkpt lat="45.50475" lon="6.67422">
        <ele>2042.21</ele>
        <time>2016-03-20T15:15:39Z</time>
      </trkpt>
      <trkpt lat="45.50473" lon="6.67452">
        <ele>2037.18</ele>
        <time>2016-03-20T15:15:42Z</time>
      </trkpt>
      <trkpt lat="45.50474" lon="6.67484">
        <ele>2029.8</ele>
        <time>2016-03-20T15:15:47Z</time>
      </trkpt>
      <trkpt lat="45.50465" lon="6.67461">
        <ele>1998.57</ele>
        <time>2016-03-20T15:16:29Z</time>
      </trkpt>
      <trkpt lat="45.5046" lon="6.67436">
        <ele>1992.74</ele>
        <time>2016-03-20T15:16:54Z</time>
      </trkpt>
      <trkpt lat="45.50451" lon="6.67407">
        <ele>1989.77</ele>
        <time>2016-03-20T15:17:09Z</time>
      </trkpt>
      <trkpt lat="45.50444" lon="6.67376">
        <ele>1990.29</ele>
        <time>2016-03-20T15:17:14Z</time>
      </trkpt>
      <trkpt lat="45.50436" lon="6.6735">
        <ele>1991.29</ele>
        <time>2016-03-20T15:17:19Z</time>
      </trkpt>
      <trkpt lat="45.50429" lon="6.67321">
        <ele>1993.53</ele>
        <time>2016-03-20T15:17:24Z</time>
      </trkpt>
      <trkpt lat="45.50422" lon="6.67295">
        <ele>1993.72</ele>
        <time>2016-03-20T15:17:29Z</time>
      </trkpt>
      <trkpt lat="45.50417" lon="6.67269">
        <ele>2001.99</ele>
        <time>2016-03-20T15:17:33Z</time>
      </trkpt>
      <trkpt lat="45.50411" lon="6.67244">
        <ele>2007.43</ele>
        <time>2016-03-20T15:17:37Z</time>
      </trkpt>
      <trkpt lat="45.50404" lon="6.67215">
        <ele>2013.27</ele>
        <time>2016-03-20T15:17:42Z</time>
      </trkpt>
      <trkpt lat="45.50396" lon="6.67186">
        <ele>2015.52</ele>
        <time>2016-03-20T15:17:47Z</time>
      </trkpt>
      <trkpt lat="45.50392" lon="6.67161">
        <ele>2026.37</ele>
        <time>2016-03-20T15:17:52Z</time>
      </trkpt>
      <trkpt lat="45.50386" lon="6.67132">
        <ele>2040.39</ele>
        <time>2016-03-20T15:17:57Z</time>
      </trkpt>
      <trkpt lat="45.50381" lon="6.67106">
        <ele>2054.77</ele>
        <time>2016-03-20T15:18:01Z</time>
      </trkpt>
      <trkpt lat="45.50376" lon="6.67079">
        <ele>2061.21</ele>
        <time>2016-03-20T15:18:05Z</time>
      </trkpt>
      <trkpt lat="45.50369" lon="6.67055">
        <ele>2064.51</ele>
        <time>2016-03-20T15:18:09Z</time>
      </trkpt>
      <trkpt lat="45.50366" lon="6.67029">
        <ele>2069.13</ele>
        <time>2016-03-20T15:18:14Z</time>
      </trkpt>
      <trkpt lat="45.50362" lon="6.67004">
        <ele>2079.84</ele>
        <time>2016-03-20T15:18:18Z</time>
      </trkpt>
      <trkpt lat="45.50356" lon="6.66976">
        <ele>2090.22</ele>
        <time>2016-03-20T15:18:23Z</time>
      </trkpt>
      <trkpt lat="45.5035" lon="6.66945">
        <ele>2103.02</ele>
        <time>2016-03-20T15:18:28Z</time>
      </trkpt>
      <trkpt lat="45.50344" lon="6.66917">
        <ele>2111.27</ele>
        <time>2016-03-20T15:18:33Z</time>
      </trkpt>
      <trkpt lat="45.50339" lon="6.66889">
        <ele>2121.11</ele>
        <time>2016-03-20T15:18:38Z</time>
      </trkpt>
      <trkpt lat="45.50332" lon="6.66858">
        <ele>2130.03</ele>
        <time>2016-03-20T15:18:43Z</time>
      </trkpt>
      <trkpt lat="45.50326" lon="6.66831">
        <ele>2136.29</ele>
        <time>2016-03-20T15:18:48Z</time>
      </trkpt>
      <trkpt lat="45.5032" lon="6.66801">
        <ele>2144.07</ele>
        <time>2016-03-20T15:18:53Z</time>
      </trkpt>
      <trkpt lat="45.50314" lon="6.66774">
        <ele>2152.04</ele>
        <time>2016-03-20T15:18:58Z</time>
      </trkpt>
      <trkpt lat="45.50307" lon="6.66745">
        <ele>2158.85</ele>
        <time>2016-03-20T15:19:03Z</time>
      </trkpt>
      <trkpt lat="45.50301" lon="6.66716">
        <ele>2165.25</ele>
        <time>2016-03-20T15:19:08Z</time>
      </trkpt>
      <trkpt lat="45.50295" lon="6.66686">
        <ele>2167.49</ele>
        <time>2016-03-20T15:19:13Z</time>
      </trkpt>
      <trkpt lat="45.50289" lon="6.66656">
        <ele>2171.32</ele>
        <time>2016-03-20T15:19:18Z</time>
      </trkpt>
      <trkpt lat="45.50282" lon="6.66626">
        <ele>2174.33</ele>
        <time>2016-03-20T15:19:23Z</time>
      </trkpt>
      <trkpt lat="45.50275" lon="6.66595">
        <ele>2180.69</ele>
        <time>2016-03-20T15:19:28Z</time>
      </trkpt>
      <trkpt lat="45.50268" lon="6.66567">
        <ele>2188.23</ele>
        <time>2016-03-20T15:19:33Z</time>
      </trkpt>
      <trkpt lat="45.50262" lon="6.66538">
        <ele>2191.33</ele>
        <time>2016-03-20T15:19:38Z</time>
      </trkpt>
      <trkpt lat="45.50254" lon="6.66507">
        <ele>2195.12</ele>
        <time>2016-03-20T15:19:43Z</time>
      </trkpt>
      <trkpt lat="45.50247" lon="6.66481">
        <ele>2204.87</ele>
        <time>2016-03-20T15:19:48Z</time>
      </trkpt>
      <trkpt lat="45.50241" lon="6.66455">
        <ele>2210.69</ele>
        <time>2016-03-20T15:19:53Z</time>
      </trkpt>
      <trkpt lat="45.50234" lon="6.66425">
        <ele>2217.91</ele>
        <time>2016-03-20T15:19:58Z</time>
      </trkpt>
      <trkpt lat="45.50227" lon="6.66398">
        <ele>2224.28</ele>
        <time>2016-03-20T15:20:03Z</time>
      </trkpt>
      <trkpt lat="45.50222" lon="6.66371">
        <ele>2234.68</ele>
        <time>2016-03-20T15:20:08Z</time>
      </trkpt>
      <trkpt lat="45.50214" lon="6.66344">
        <ele>2240.47</ele>
        <time>2016-03-20T15:20:13Z</time>
      </trkpt>
      <trkpt lat="45.50207" lon="6.66319">
        <ele>2245.48</ele>
        <time>2016-03-20T15:20:18Z</time>
      </trkpt>
      <trkpt lat="45.502" lon="6.66293">
        <ele>2252.83</ele>
        <time>2016-03-20T15:20:23Z</time>
      </trkpt>
      <trkpt lat="45.50194" lon="6.66263">
        <ele>2262.27</ele>
        <time>2016-03-20T15:20:28Z</time>
      </trkpt>
      <trkpt lat="45.50192" lon="6.66234">
        <ele>2297.83</ele>
        <time>2016-03-20T15:20:33Z</time>
      </trkpt>
      <trkpt lat="45.50188" lon="6.66207">
        <ele>2313.94</ele>
        <time>2016-03-20T15:20:38Z</time>
      </trkpt>
      <trkpt lat="45.50183" lon="6.6618">
        <ele>2323.14</ele>
        <time>2016-03-20T15:20:42Z</time>
      </trkpt>
      <trkpt lat="45.5018" lon="6.66154">
        <ele>2327.33</ele>
        <time>2016-03-20T15:20:48Z</time>
      </trkpt>
      <trkpt lat="45.50189" lon="6.6613">
        <ele>2334.09</ele>
        <time>2016-03-20T15:20:56Z</time>
      </trkpt>
      <trkpt lat="45.50208" lon="6.66124">
        <ele>2337.52</ele>
        <time>2016-03-20T15:21:26Z</time>
      </trkpt>
      <trkpt lat="45.50228" lon="6.66123">
        <ele>2335.73</ele>
        <time>2016-03-20T15:21:34Z</time>
      </trkpt>
      <trkpt lat="45.50247" lon="6.66118">
        <ele>2334.57</ele>
        <time>2016-03-20T15:21:38Z</time>
      </trkpt>
      <trkpt lat="45.50269" lon="6.66112">
        <ele>2332.73</ele>
        <time>2016-03-20T15:21:42Z</time>
      </trkpt>
      <trkpt lat="45.50292" lon="6.66104">
        <ele>2331.57</ele>
        <time>2016-03-20T15:21:46Z</time>
      </trkpt>
      <trkpt lat="45.50311" lon="6.661">
        <ele>2327.95</ele>
        <time>2016-03-20T15:21:49Z</time>
      </trkpt>
      <trkpt lat="45.50332" lon="6.66095">
        <ele>2325.74</ele>
        <time>2016-03-20T15:21:52Z</time>
      </trkpt>
      <trkpt lat="45.50355" lon="6.66097">
        <ele>2323.74</ele>
        <time>2016-03-20T15:21:55Z</time>
      </trkpt>
      <trkpt lat="45.50364" lon="6.66121">
        <ele>2319.82</ele>
        <time>2016-03-20T15:21:59Z</time>
      </trkpt>
      <trkpt lat="45.50366" lon="6.66151">
        <ele>2317.77</ele>
        <time>2016-03-20T15:22:02Z</time>
      </trkpt>
      <trkpt lat="45.50358" lon="6.66185">
        <ele>2312.86</ele>
        <time>2016-03-20T15:22:05Z</time>
      </trkpt>
      <trkpt lat="45.5035" lon="6.6622">
        <ele>2307.99</ele>
        <time>2016-03-20T15:22:08Z</time>
      </trkpt>
      <trkpt lat="45.5036" lon="6.66243">
        <ele>2304.83</ele>
        <time>2016-03-20T15:22:10Z</time>
      </trkpt>
      <trkpt lat="45.50365" lon="6.66271">
        <ele>2301.34</ele>
        <time>2016-03-20T15:22:12Z</time>
      </trkpt>
      <trkpt lat="45.50353" lon="6.66298">
        <ele>2295.77</ele>
        <time>2016-03-20T15:22:15Z</time>
      </trkpt>
      <trkpt lat="45.50352" lon="6.66331">
        <ele>2290.19</ele>
        <time>2016-03-20T15:22:18Z</time>
      </trkpt>
      <trkpt lat="45.50351" lon="6.66364">
        <ele>2286.4</ele>
        <time>2016-03-20T15:22:21Z</time>
      </trkpt>
      <trkpt lat="45.50333" lon="6.66386">
        <ele>2279.07</ele>
        <time>2016-03-20T15:22:25Z</time>
      </trkpt>
      <trkpt lat="45.50331" lon="6.66421">
        <ele>2270.11</ele>
        <time>2016-03-20T15:22:29Z</time>
      </trkpt>
      <trkpt lat="45.50335" lon="6.66452">
        <ele>2265.71</ele>
        <time>2016-03-20T15:22:31Z</time>
      </trkpt>
      <trkpt lat="45.50332" lon="6.66481">
        <ele>2255.44</ele>
        <time>2016-03-20T15:22:35Z</time>
      </trkpt>
      <trkpt lat="45.50338" lon="6.66512">
        <ele>2242.73</ele>
        <time>2016-03-20T15:22:38Z</time>
      </trkpt>
      <trkpt lat="45.50348" lon="6.66556">
        <ele>2230.56</ele>
        <time>2016-03-20T15:22:41Z</time>
      </trkpt>
      <trkpt lat="45.5036" lon="6.66581">
        <ele>2225.25</ele>
        <time>2016-03-20T15:22:43Z</time>
      </trkpt>
      <trkpt lat="45.50364" lon="6.66617">
        <ele>2221.04</ele>
        <time>2016-03-20T15:22:45Z</time>
      </trkpt>
      <trkpt lat="45.50381" lon="6.66641">
        <ele>2213.03</ele>
        <time>2016-03-20T15:22:47Z</time>
      </trkpt>
      <trkpt lat="45.50395" lon="6.66673">
        <ele>2207.11</ele>
        <time>2016-03-20T15:22:49Z</time>
      </trkpt>
      <trkpt lat="45.50414" lon="6.66672">
        <ele>2197.59</ele>
        <time>2016-03-20T15:22:51Z</time>
      </trkpt>
      <trkpt lat="45.50435" lon="6.66665">
        <ele>2186.3</ele>
        <time>2016-03-20T15:22:54Z</time>
      </trkpt>
      <trkpt lat="45.50455" lon="6.66665">
        <ele>2178.36</ele>
        <time>2016-03-20T15:22:56Z</time>
      </trkpt>
      <trkpt lat="45.50471" lon="6.66683">
        <ele>2171.48</ele>
        <time>2016-03-20T15:22:58Z</time>
      </trkpt>
      <trkpt lat="45.50491" lon="6.66688">
        <ele>2167.05</ele>
        <time>2016-03-20T15:23:00Z</time>
      </trkpt>
      <trkpt lat="45.50504" lon="6.66707">
        <ele>2162.23</ele>
        <time>2016-03-20T15:23:02Z</time>
      </trkpt>
      <trkpt lat="45.50514" lon="6.66735">
        <ele>2158.04</ele>
        <time>2016-03-20T15:23:04Z</time>
      </trkpt>
      <trkpt lat="45.50524" lon="6.66765">
        <ele>2152.27</ele>
        <time>2016-03-20T15:23:06Z</time>
      </trkpt>
      <trkpt lat="45.50548" lon="6.66758">
        <ele>2141.8</ele>
        <time>2016-03-20T15:23:08Z</time>
      </trkpt>
      <trkpt lat="45.50559" lon="6.66794">
        <ele>2133.22</ele>
        <time>2016-03-20T15:23:12Z</time>
      </trkpt>
      <trkpt lat="45.50562" lon="6.66829">
        <ele>2129.04</ele>
        <time>2016-03-20T15:23:14Z</time>
      </trkpt>
      <trkpt lat="45.50571" lon="6.66856">
        <ele>2124.07</ele>
        <time>2016-03-20T15:23:16Z</time>
      </trkpt>
      <trkpt lat="45.50568" lon="6.66896">
        <ele>2117.39</ele>
        <time>2016-03-20T15:23:19Z</time>
      </trkpt>
      <trkpt lat="45.50566" lon="6.6693">
        <ele>2111.99</ele>
        <time>2016-03-20T15:23:22Z</time>
      </trkpt>
      <trkpt lat="45.5057" lon="6.66956">
        <ele>2103.5</ele>
        <time>2016-03-20T15:23:25Z</time>
      </trkpt>
      <trkpt lat="45.50562" lon="6.66987">
        <ele>2096.33</ele>
        <time>2016-03-20T15:23:27Z</time>
      </trkpt>
      <trkpt lat="45.50565" lon="6.6702">
        <ele>2092.04</ele>
        <time>2016-03-20T15:23:29Z</time>
      </trkpt>
      <trkpt lat="45.50563" lon="6.67052">
        <ele>2085.31</ele>
        <time>2016-03-20T15:23:31Z</time>
      </trkpt>
      <trkpt lat="45.50552" lon="6.67093">
        <ele>2081.2</ele>
        <time>2016-03-20T15:23:33Z</time>
      </trkpt>
      <trkpt lat="45.50546" lon="6.67125">
        <ele>2079.76</ele>
        <time>2016-03-20T15:23:35Z</time>
      </trkpt>
      <trkpt lat="45.50535" lon="6.67169">
        <ele>2071.4</ele>
        <time>2016-03-20T15:23:38Z</time>
      </trkpt>
      <trkpt lat="45.50522" lon="6.67201">
        <ele>2059.66</ele>
        <time>2016-03-20T15:23:41Z</time>
      </trkpt>
      <trkpt lat="45.50514" lon="6.67233">
        <ele>2057.78</ele>
        <time>2016-03-20T15:23:43Z</time>
      </trkpt>
      <trkpt lat="45.50511" lon="6.6726">
        <ele>2055.78</ele>
        <time>2016-03-20T15:23:45Z</time>
      </trkpt>
      <trkpt lat="45.50504" lon="6.67302">
        <ele>2053.14</ele>
        <time>2016-03-20T15:23:47Z</time>
      </trkpt>
      <trkpt lat="45.50496" lon="6.67336">
        <ele>2048.65</ele>
        <time>2016-03-20T15:23:48Z</time>
      </trkpt>
      <trkpt lat="45.50493" lon="6.67369">
        <ele>2044.06</ele>
        <time>2016-03-20T15:23:50Z</time>
      </trkpt>
      <trkpt lat="45.50484" lon="6.67406">
        <ele>2039.79</ele>
        <time>2016-03-20T15:23:53Z</time>
      </trkpt>
      <trkpt lat="45.50485" lon="6.67439">
        <ele>2029.07</ele>
        <time>2016-03-20T15:23:56Z</time>
      </trkpt>
      <trkpt lat="45.50487" lon="6.67471">
        <ele>2027.58</ele>
        <time>2016-03-20T15:23:59Z</time>
      </trkpt>
      <trkpt lat="45.50491" lon="6.67498">
        <ele>2024.78</ele>
        <time>2016-03-20T15:24:02Z</time>
      </trkpt>
      <trkpt lat="45.50492" lon="6.67526">
        <ele>2022.74</ele>
        <time>2016-03-20T15:24:05Z</time>
      </trkpt>
      <trkpt lat="45.50491" lon="6.67556">
        <ele>2017.78</ele>
        <time>2016-03-20T15:24:09Z</time>
      </trkpt>
      <trkpt lat="45.50496" lon="6.67581">
        <ele>2010.27</ele>
        <time>2016-03-20T15:24:17Z</time>
      </trkpt>
      <trkpt lat="45.50501" lon="6.67606">
        <ele>1997.57</ele>
        <time>2016-03-20T15:24:33Z</time>
      </trkpt>
      <trkpt lat="45.50505" lon="6.67633">
        <ele>1994.73</ele>
        <time>2016-03-20T15:24:48Z</time>
      </trkpt>
      <trkpt lat="45.50501" lon="6.67658">
        <ele>1994.72</ele>
        <time>2016-03-20T15:25:15Z</time>
      </trkpt>
      <trkpt lat="45.50482" lon="6.67665">
        <ele>1986.32</ele>
        <time>2016-03-20T15:25:41Z</time>
      </trkpt>
      <trkpt lat="45.50462" lon="6.67672">
        <ele>1987.52</ele>
        <time>2016-03-20T15:25:48Z</time>
      </trkpt>
      <trkpt lat="45.50444" lon="6.67678">
        <ele>1990.72</ele>
        <time>2016-03-20T15:25:55Z</time>
      </trkpt>
      <trkpt lat="45.50424" lon="6.67683">
        <ele>1988.93</ele>
        <time>2016-03-20T15:26:01Z</time>
      </trkpt>
      <trkpt lat="45.50405" lon="6.67689">
        <ele>1995.15</ele>
        <time>2016-03-20T15:26:07Z</time>
      </trkpt>
      <trkpt lat="45.50386" lon="6.6769">
        <ele>2005.88</ele>
        <time>2016-03-20T15:26:13Z</time>
      </trkpt>
      <trkpt lat="45.50367" lon="6.67693">
        <ele>2011.28</ele>
        <time>2016-03-20T15:26:19Z</time>
      </trkpt>
      <trkpt lat="45.50347" lon="6.67694">
        <ele>2014.33</ele>
        <time>2016-03-20T15:26:26Z</time>
      </trkpt>
      <trkpt lat="45.50328" lon="6.67703">
        <ele>2019.45</ele>
        <time>2016-03-20T15:26:32Z</time>
      </trkpt>
      <trkpt lat="45.50307" lon="6.67707">
        <ele>2023.28</ele>
        <time>2016-03-20T15:26:39Z</time>
      </trkpt>
      <trkpt lat="45.50288" lon="6.67713">
        <ele>2023.53</ele>
        <time>2016-03-20T15:26:45Z</time>
      </trkpt>
      <trkpt lat="45.5027" lon="6.67718">
        <ele>2026.32</ele>
        <time>2016-03-20T15:26:51Z</time>
      </trkpt>
      <trkpt lat="45.50249" lon="6.6772">
        <ele>2030.68</ele>
        <time>2016-03-20T15:26:58Z</time>
      </trkpt>
      <trkpt lat="45.50229" lon="6.67725">
        <ele>2033.33</ele>
        <time>2016-03-20T15:27:05Z</time>
      </trkpt>
      <trkpt lat="45.50211" lon="6.6773">
        <ele>2037.28</ele>
        <time>2016-03-20T15:27:12Z</time>
      </trkpt>
      <trkpt lat="45.50193" lon="6.67735">
        <ele>2040.32</ele>
        <time>2016-03-20T15:27:18Z</time>
      </trkpt>
      <trkpt lat="45.50171" lon="6.6774">
        <ele>2044.25</ele>
        <time>2016-03-20T15:27:25Z</time>
      </trkpt>
      <trkpt lat="45.50154" lon="6.67746">
        <ele>2048.28</ele>
        <time>2016-03-20T15:27:31Z</time>
      </trkpt>
      <trkpt lat="45.50134" lon="6.67752">
        <ele>2053.47</ele>
        <time>2016-03-20T15:27:37Z</time>
      </trkpt>
      <trkpt lat="45.50116" lon="6.67757">
        <ele>2058.48</ele>
        <time>2016-03-20T15:27:43Z</time>
      </trkpt>
      <trkpt lat="45.50097" lon="6.67762">
        <ele>2066.04</ele>
        <time>2016-03-20T15:27:49Z</time>
      </trkpt>
      <trkpt lat="45.50077" lon="6.67769">
        <ele>2072.52</ele>
        <time>2016-03-20T15:27:56Z</time>
      </trkpt>
      <trkpt lat="45.50058" lon="6.67774">
        <ele>2075.68</ele>
        <time>2016-03-20T15:28:02Z</time>
      </trkpt>
      <trkpt lat="45.5004" lon="6.67776">
        <ele>2076.49</ele>
        <time>2016-03-20T15:28:08Z</time>
      </trkpt>
      <trkpt lat="45.50022" lon="6.67782">
        <ele>2081.52</ele>
        <time>2016-03-20T15:28:14Z</time>
      </trkpt>
      <trkpt lat="45.50003" lon="6.67788">
        <ele>2085.28</ele>
        <time>2016-03-20T15:28:20Z</time>
      </trkpt>
      <trkpt lat="45.49983" lon="6.67791">
        <ele>2091.48</ele>
        <time>2016-03-20T15:28:27Z</time>
      </trkpt>
      <trkpt lat="45.49964" lon="6.67792">
        <ele>2100.08</ele>
        <time>2016-03-20T15:28:34Z</time>
      </trkpt>
      <trkpt lat="45.49944" lon="6.67794">
        <ele>2107.08</ele>
        <time>2016-03-20T15:28:41Z</time>
      </trkpt>
      <trkpt lat="45.49926" lon="6.67792">
        <ele>2110.49</ele>
        <time>2016-03-20T15:28:49Z</time>
      </trkpt>
      <trkpt lat="45.49908" lon="6.67798">
        <ele>2117.39</ele>
        <time>2016-03-20T15:28:55Z</time>
      </trkpt>
      <trkpt lat="45.49888" lon="6.67798">
        <ele>2121.32</ele>
        <time>2016-03-20T15:29:03Z</time>
      </trkpt>
      <trkpt lat="45.49867" lon="6.678">
        <ele>2123.52</ele>
        <time>2016-03-20T15:29:10Z</time>
      </trkpt>
      <trkpt lat="45.49848" lon="6.67803">
        <ele>2127.33</ele>
        <time>2016-03-20T15:29:17Z</time>
      </trkpt>
      <trkpt lat="45.49829" lon="6.67813">
        <ele>2132.28</ele>
        <time>2016-03-20T15:29:23Z</time>
      </trkpt>
      <trkpt lat="45.4981" lon="6.67812">
        <ele>2141.27</ele>
        <time>2016-03-20T15:29:30Z</time>
      </trkpt>
      <trkpt lat="45.49792" lon="6.6781">
        <ele>2145.32</ele>
        <time>2016-03-20T15:29:37Z</time>
      </trkpt>
      <trkpt lat="45.49777" lon="6.67824">
        <ele>2153.75</ele>
        <time>2016-03-20T15:29:40Z</time>
      </trkpt>
      <trkpt lat="45.49758" lon="6.67828">
        <ele>2167.31</ele>
        <time>2016-03-20T15:29:46Z</time>
      </trkpt>
      <trkpt lat="45.4974" lon="6.67828">
        <ele>2168.37</ele>
        <time>2016-03-20T15:29:53Z</time>
      </trkpt>
      <trkpt lat="45.49722" lon="6.67833">
        <ele>2173.32</ele>
        <time>2016-03-20T15:29:59Z</time>
      </trkpt>
      <trkpt lat="45.49704" lon="6.67838">
        <ele>2176.68</ele>
        <time>2016-03-20T15:30:05Z</time>
      </trkpt>
      <trkpt lat="45.49684" lon="6.6784">
        <ele>2178.53</ele>
        <time>2016-03-20T15:30:12Z</time>
      </trkpt>
      <trkpt lat="45.49667" lon="6.67851">
        <ele>2181.33</ele>
        <time>2016-03-20T15:30:17Z</time>
      </trkpt>
      <trkpt lat="45.49648" lon="6.67857">
        <ele>2185.52</ele>
        <time>2016-03-20T15:30:23Z</time>
      </trkpt>
      <trkpt lat="45.49631" lon="6.67867">
        <ele>2188.49</ele>
        <time>2016-03-20T15:30:28Z</time>
      </trkpt>
      <trkpt lat="45.49613" lon="6.67861">
        <ele>2193.28</ele>
        <time>2016-03-20T15:30:36Z</time>
      </trkpt>
      <trkpt lat="45.4959" lon="6.6787">
        <ele>2197.48</ele>
        <time>2016-03-20T15:30:43Z</time>
      </trkpt>
      <trkpt lat="45.49571" lon="6.67876">
        <ele>2201.29</ele>
        <time>2016-03-20T15:30:49Z</time>
      </trkpt>
      <trkpt lat="45.4955" lon="6.6788">
        <ele>2206.45</ele>
        <time>2016-03-20T15:30:56Z</time>
      </trkpt>
      <trkpt lat="45.4953" lon="6.67889">
        <ele>2209.48</ele>
        <time>2016-03-20T15:31:02Z</time>
      </trkpt>
      <trkpt lat="45.49512" lon="6.67893">
        <ele>2213.48</ele>
        <time>2016-03-20T15:31:08Z</time>
      </trkpt>
      <trkpt lat="45.49493" lon="6.67897">
        <ele>2219.25</ele>
        <time>2016-03-20T15:31:15Z</time>
      </trkpt>
      <trkpt lat="45.49474" lon="6.67904">
        <ele>2224.08</ele>
        <time>2016-03-20T15:31:21Z</time>
      </trkpt>
      <trkpt lat="45.49454" lon="6.67906">
        <ele>2233.39</ele>
        <time>2016-03-20T15:31:28Z</time>
      </trkpt>
      <trkpt lat="45.49433" lon="6.6791">
        <ele>2239.51</ele>
        <time>2016-03-20T15:31:35Z</time>
      </trkpt>
      <trkpt lat="45.49413" lon="6.67911">
        <ele>2248.28</ele>
        <time>2016-03-20T15:31:42Z</time>
      </trkpt>
      <trkpt lat="45.49397" lon="6.67936">
        <ele>2255.72</ele>
        <time>2016-03-20T15:31:44Z</time>
      </trkpt>
      <trkpt lat="45.49377" lon="6.67939">
        <ele>2273.52</ele>
        <time>2016-03-20T15:31:50Z</time>
      </trkpt>
      <trkpt lat="45.49359" lon="6.67943">
        <ele>2283.12</ele>
        <time>2016-03-20T15:31:56Z</time>
      </trkpt>
      <trkpt lat="45.49348" lon="6.67921">
        <ele>2291.89</ele>
        <time>2016-03-20T15:32:05Z</time>
      </trkpt>
      <trkpt lat="45.49353" lon="6.67895">
        <ele>2294.72</ele>
        <time>2016-03-20T15:32:33Z</time>
      </trkpt>
      <trkpt lat="45.49358" lon="6.67867">
        <ele>2292.74</ele>
        <time>2016-03-20T15:32:39Z</time>
      </trkpt>
      <trkpt lat="45.49372" lon="6.6785">
        <ele>2288.98</ele>
        <time>2016-03-20T15:32:42Z</time>
      </trkpt>
      <trkpt lat="45.49384" lon="6.6783">
        <ele>2286.77</ele>
        <time>2016-03-20T15:32:45Z</time>
      </trkpt>
      <trkpt lat="45.49387" lon="6.678">
        <ele>2282.93</ele>
        <time>2016-03-20T15:32:50Z</time>
      </trkpt>
      <trkpt lat="45.49393" lon="6.67774">
        <ele>2279.62</ele>
        <time>2016-03-20T15:32:53Z</time>
      </trkpt>
      <trkpt lat="45.49414" lon="6.67771">
        <ele>2283.52</ele>
        <time>2016-03-20T15:33:14Z</time>
      </trkpt>
      <trkpt lat="45.49431" lon="6.67761">
        <ele>2284.33</ele>
        <time>2016-03-20T15:33:17Z</time>
      </trkpt>
      <trkpt lat="45.4945" lon="6.67749">
        <ele>2281.81</ele>
        <time>2016-03-20T15:33:20Z</time>
      </trkpt>
      <trkpt lat="45.49468" lon="6.67738">
        <ele>2273.85</ele>
        <time>2016-03-20T15:33:23Z</time>
      </trkpt>
      <trkpt lat="45.49488" lon="6.67719">
        <ele>2265.02</ele>
        <time>2016-03-20T15:33:26Z</time>
      </trkpt>
      <trkpt lat="45.49512" lon="6.67708">
        <ele>2255.09</ele>
        <time>2016-03-20T15:33:29Z</time>
      </trkpt>
      <trkpt lat="45.49536" lon="6.67714">
        <ele>2248.07</ele>
        <time>2016-03-20T15:33:32Z</time>
      </trkpt>
      <trkpt lat="45.49563" lon="6.67717">
        <ele>2244.83</ele>
        <time>2016-03-20T15:33:34Z</time>
      </trkpt>
      <trkpt lat="45.49592" lon="6.6771">
        <ele>2243.74</ele>
        <time>2016-03-20T15:33:36Z</time>
      </trkpt>
      <trkpt lat="45.49614" lon="6.67707">
        <ele>2242.74</ele>
        <time>2016-03-20T15:33:38Z</time>
      </trkpt>
      <trkpt lat="45.49632" lon="6.67704">
        <ele>2242.54</ele>
        <time>2016-03-20T15:33:40Z</time>
      </trkpt>
      <trkpt lat="45.4965" lon="6.67697">
        <ele>2240.93</ele>
        <time>2016-03-20T15:33:42Z</time>
      </trkpt>
      <trkpt lat="45.49667" lon="6.67682">
        <ele>2229.14</ele>
        <time>2016-03-20T15:33:45Z</time>
      </trkpt>
      <trkpt lat="45.49683" lon="6.67671">
        <ele>2227.6</ele>
        <time>2016-03-20T15:33:47Z</time>
      </trkpt>
      <trkpt lat="45.49699" lon="6.6764">
        <ele>2225.77</ele>
        <time>2016-03-20T15:33:50Z</time>
      </trkpt>
      <trkpt lat="45.4972" lon="6.67619">
        <ele>2217.08</ele>
        <time>2016-03-20T15:33:53Z</time>
      </trkpt>
      <trkpt lat="45.49733" lon="6.676">
        <ele>2212.87</ele>
        <time>2016-03-20T15:33:55Z</time>
      </trkpt>
      <trkpt lat="45.49749" lon="6.67586">
        <ele>2210.62</ele>
        <time>2016-03-20T15:33:57Z</time>
      </trkpt>
      <trkpt lat="45.49775" lon="6.67586">
        <ele>2209.57</ele>
        <time>2016-03-20T15:33:59Z</time>
      </trkpt>
      <trkpt lat="45.49792" lon="6.67577">
        <ele>2204.73</ele>
        <time>2016-03-20T15:34:01Z</time>
      </trkpt>
      <trkpt lat="45.49814" lon="6.67579">
        <ele>2199.8</ele>
        <time>2016-03-20T15:34:04Z</time>
      </trkpt>
      <trkpt lat="45.49828" lon="6.67596">
        <ele>2171.82</ele>
        <time>2016-03-20T15:34:47Z</time>
      </trkpt>
      <trkpt lat="45.49852" lon="6.67588">
        <ele>2165.8</ele>
        <time>2016-03-20T15:34:51Z</time>
      </trkpt>
      <trkpt lat="45.49871" lon="6.67584">
        <ele>2154.82</ele>
        <time>2016-03-20T15:34:56Z</time>
      </trkpt>
      <trkpt lat="45.4989" lon="6.67568">
        <ele>2146.75</ele>
        <time>2016-03-20T15:35:01Z</time>
      </trkpt>
      <trkpt lat="45.49909" lon="6.67577">
        <ele>2143.94</ele>
        <time>2016-03-20T15:35:04Z</time>
      </trkpt>
      <trkpt lat="45.49933" lon="6.67586">
        <ele>2143.53</ele>
        <time>2016-03-20T15:35:07Z</time>
      </trkpt>
      <trkpt lat="45.49952" lon="6.67605">
        <ele>2138.67</ele>
        <time>2016-03-20T15:35:10Z</time>
      </trkpt>
      <trkpt lat="45.49959" lon="6.67635">
        <ele>2131.84</ele>
        <time>2016-03-20T15:35:13Z</time>
      </trkpt>
      <trkpt lat="45.4998" lon="6.67655">
        <ele>2124.27</ele>
        <time>2016-03-20T15:35:16Z</time>
      </trkpt>
      <trkpt lat="45.49996" lon="6.67671">
        <ele>2119.28</ele>
        <time>2016-03-20T15:35:19Z</time>
      </trkpt>
      <trkpt lat="45.50018" lon="6.6769">
        <ele>2117.16</ele>
        <time>2016-03-20T15:35:22Z</time>
      </trkpt>
      <trkpt lat="45.50044" lon="6.67697">
        <ele>2109.3</ele>
        <time>2016-03-20T15:35:25Z</time>
      </trkpt>
      <trkpt lat="45.50061" lon="6.67708">
        <ele>2106.96</ele>
        <time>2016-03-20T15:35:27Z</time>
      </trkpt>
      <trkpt lat="45.50083" lon="6.67721">
        <ele>2103.97</ele>
        <time>2016-03-20T15:35:30Z</time>
      </trkpt>
      <trkpt lat="45.50109" lon="6.6773">
        <ele>2095.85</ele>
        <time>2016-03-20T15:35:33Z</time>
      </trkpt>
      <trkpt lat="45.50131" lon="6.67728">
        <ele>2092.98</ele>
        <time>2016-03-20T15:35:35Z</time>
      </trkpt>
      <trkpt lat="45.50155" lon="6.67728">
        <ele>2091.75</ele>
        <time>2016-03-20T15:35:37Z</time>
      </trkpt>
      <trkpt lat="45.50181" lon="6.67736">
        <ele>2091.54</ele>
        <time>2016-03-20T15:35:39Z</time>
      </trkpt>
      <trkpt lat="45.50202" lon="6.67726">
        <ele>2091.53</ele>
        <time>2016-03-20T15:35:41Z</time>
      </trkpt>
      <trkpt lat="45.5022" lon="6.67716">
        <ele>2074.41</ele>
        <time>2016-03-20T15:35:44Z</time>
      </trkpt>
      <trkpt lat="45.5024" lon="6.67709">
        <ele>2070.21</ele>
        <time>2016-03-20T15:35:46Z</time>
      </trkpt>
      <trkpt lat="45.50266" lon="6.67711">
        <ele>2068.76</ele>
        <time>2016-03-20T15:35:48Z</time>
      </trkpt>
      <trkpt lat="45.50289" lon="6.67708">
        <ele>2066.14</ele>
        <time>2016-03-20T15:35:50Z</time>
      </trkpt>
      <trkpt lat="45.50316" lon="6.6772">
        <ele>2056.61</ele>
        <time>2016-03-20T15:35:53Z</time>
      </trkpt>
      <trkpt lat="45.50334" lon="6.67734">
        <ele>2051.73</ele>
        <time>2016-03-20T15:35:55Z</time>
      </trkpt>
      <trkpt lat="45.50354" lon="6.67745">
        <ele>2050.74</ele>
        <time>2016-03-20T15:35:57Z</time>
      </trkpt>
      <trkpt lat="45.50371" lon="6.67757">
        <ele>2048.78</ele>
        <time>2016-03-20T15:35:59Z</time>
      </trkpt>
      <trkpt lat="45.50389" lon="6.67751">
        <ele>2045.97</ele>
        <time>2016-03-20T15:36:02Z</time>
      </trkpt>
      <trkpt lat="45.50405" lon="6.67733">
        <ele>2039.26</ele>
        <time>2016-03-20T15:36:05Z</time>
      </trkpt>
      <trkpt lat="45.50415" lon="6.67707">
        <ele>2034.15</ele>
        <time>2016-03-20T15:36:08Z</time>
      </trkpt>
      <trkpt lat="45.50426" lon="6.67676">
        <ele>2028.83</ele>
        <time>2016-03-20T15:36:11Z</time>
      </trkpt>
      <trkpt lat="45.5044" lon="6.67646">
        <ele>2025.75</ele>
        <time>2016-03-20T15:36:14Z</time>
      </trkpt>
      <trkpt lat="45.50453" lon="6.67613">
        <ele>2019.84</ele>
        <time>2016-03-20T15:36:17Z</time>
      </trkpt>
      <trkpt lat="45.50465" lon="6.67581">
        <ele>2018.54</ele>
        <time>2016-03-20T15:36:20Z</time>
      </trkpt>
      <trkpt lat="45.50472" lon="6.67551">
        <ele>2017.57</ele>
        <time>2016-03-20T15:36:23Z</time>
      </trkpt>
      <trkpt lat="45.50476" lon="6.67525">
        <ele>2015.64</ele>
        <time>2016-03-20T15:36:26Z</time>
      </trkpt>
      <trkpt lat="45.50478" lon="6.67496">
        <ele>2013.37</ele>
        <time>2016-03-20T15:36:32Z</time>
      </trkpt>
      <trkpt lat="45.50468" lon="6.67473">
        <ele>2003.52</ele>
        <time>2016-03-20T15:36:46Z</time>
      </trkpt>
      <trkpt lat="45.5046" lon="6.67446">
        <ele>1990.74</ele>
        <time>2016-03-20T15:37:18Z</time>
      </trkpt>
      <trkpt lat="45.50455" lon="6.67419">
        <ele>1985.54</ele>
        <time>2016-03-20T15:37:50Z</time>
      </trkpt>
      <trkpt lat="45.50449" lon="6.67391">
        <ele>1989.24</ele>
        <time>2016-03-20T15:37:55Z</time>
      </trkpt>
      <trkpt lat="45.50442" lon="6.67362">
        <ele>1991.53</ele>
        <time>2016-03-20T15:38:00Z</time>
      </trkpt>
      <trkpt lat="45.50433" lon="6.67337">
        <ele>1992.6</ele>
        <time>2016-03-20T15:38:04Z</time>
      </trkpt>
      <trkpt lat="45.50428" lon="6.67311">
        <ele>1997.25</ele>
        <time>2016-03-20T15:38:08Z</time>
      </trkpt>
      <trkpt lat="45.50422" lon="6.67286">
        <ele>2000.32</ele>
        <time>2016-03-20T15:38:12Z</time>
      </trkpt>
      <trkpt lat="45.50416" lon="6.67261">
        <ele>2001.49</ele>
        <time>2016-03-20T15:38:16Z</time>
      </trkpt>
      <trkpt lat="45.5041" lon="6.67235">
        <ele>2003.36</ele>
        <time>2016-03-20T15:38:20Z</time>
      </trkpt>
      <trkpt lat="45.50405" lon="6.67209">
        <ele>2006.28</ele>
        <time>2016-03-20T15:38:24Z</time>
      </trkpt>
      <trkpt lat="45.50398" lon="6.67183">
        <ele>2012.11</ele>
        <time>2016-03-20T15:38:29Z</time>
      </trkpt>
      <trkpt lat="45.50392" lon="6.67155">
        <ele>2021.27</ele>
        <time>2016-03-20T15:38:34Z</time>
      </trkpt>
      <trkpt lat="45.50386" lon="6.67126">
        <ele>2028.28</ele>
        <time>2016-03-20T15:38:39Z</time>
      </trkpt>
      <trkpt lat="45.50381" lon="6.671">
        <ele>2038.24</ele>
        <time>2016-03-20T15:38:44Z</time>
      </trkpt>
      <trkpt lat="45.50375" lon="6.67074">
        <ele>2044.04</ele>
        <time>2016-03-20T15:38:48Z</time>
      </trkpt>
      <trkpt lat="45.5037" lon="6.67046">
        <ele>2054.83</ele>
        <time>2016-03-20T15:38:53Z</time>
      </trkpt>
      <trkpt lat="45.50363" lon="6.67018">
        <ele>2063.27</ele>
        <time>2016-03-20T15:38:58Z</time>
      </trkpt>
      <trkpt lat="45.50357" lon="6.6699">
        <ele>2072.87</ele>
        <time>2016-03-20T15:39:03Z</time>
      </trkpt>
      <trkpt lat="45.50351" lon="6.66962">
        <ele>2084.02</ele>
        <time>2016-03-20T15:39:08Z</time>
      </trkpt>
      <trkpt lat="45.50345" lon="6.66934">
        <ele>2092.97</ele>
        <time>2016-03-20T15:39:13Z</time>
      </trkpt>
      <trkpt lat="45.50339" lon="6.66906">
        <ele>2102.27</ele>
        <time>2016-03-20T15:39:18Z</time>
      </trkpt>
      <trkpt lat="45.50335" lon="6.6688">
        <ele>2109.04</ele>
        <time>2016-03-20T15:39:22Z</time>
      </trkpt>
      <trkpt lat="45.50329" lon="6.66851">
        <ele>2119.99</ele>
        <time>2016-03-20T15:39:27Z</time>
      </trkpt>
      <trkpt lat="45.50323" lon="6.66822">
        <ele>2130.02</ele>
        <time>2016-03-20T15:39:32Z</time>
      </trkpt>
      <trkpt lat="45.50316" lon="6.66794">
        <ele>2138.07</ele>
        <time>2016-03-20T15:39:37Z</time>
      </trkpt>
      <trkpt lat="45.5031" lon="6.66764">
        <ele>2147.22</ele>
        <time>2016-03-20T15:39:42Z</time>
      </trkpt>
      <trkpt lat="45.50305" lon="6.66737">
        <ele>2154.27</ele>
        <time>2016-03-20T15:39:47Z</time>
      </trkpt>
      <trkpt lat="45.503" lon="6.66712">
        <ele>2157.32</ele>
        <time>2016-03-20T15:39:51Z</time>
      </trkpt>
      <trkpt lat="45.50294" lon="6.66684">
        <ele>2164.97</ele>
        <time>2016-03-20T15:39:56Z</time>
      </trkpt>
      <trkpt lat="45.50287" lon="6.66655">
        <ele>2171.34</ele>
        <time>2016-03-20T15:40:01Z</time>
      </trkpt>
      <trkpt lat="45.5028" lon="6.66626">
        <ele>2175.08</ele>
        <time>2016-03-20T15:40:06Z</time>
      </trkpt>
      <trkpt lat="45.50274" lon="6.66598">
        <ele>2186.36</ele>
        <time>2016-03-20T15:40:11Z</time>
      </trkpt>
      <trkpt lat="45.50269" lon="6.66571">
        <ele>2193.84</ele>
        <time>2016-03-20T15:40:15Z</time>
      </trkpt>
      <trkpt lat="45.50263" lon="6.66541">
        <ele>2198.48</ele>
        <time>2016-03-20T15:40:20Z</time>
      </trkpt>
      <trkpt lat="45.50256" lon="6.66512">
        <ele>2202.32</ele>
        <time>2016-03-20T15:40:25Z</time>
      </trkpt>
      <trkpt lat="45.5025" lon="6.66483">
        <ele>2208.25</ele>
        <time>2016-03-20T15:40:30Z</time>
      </trkpt>
      <trkpt lat="45.50244" lon="6.66455">
        <ele>2215.07</ele>
        <time>2016-03-20T15:40:35Z</time>
      </trkpt>
      <trkpt lat="45.50237" lon="6.66425">
        <ele>2222.08</ele>
        <time>2016-03-20T15:40:40Z</time>
      </trkpt>
      <trkpt lat="45.50231" lon="6.66396">
        <ele>2230.04</ele>
        <time>2016-03-20T15:40:45Z</time>
      </trkpt>
      <trkpt lat="45.50225" lon="6.66367">
        <ele>2238.07</ele>
        <time>2016-03-20T15:40:50Z</time>
      </trkpt>
      <trkpt lat="45.50219" lon="6.6634">
        <ele>2247.07</ele>
        <time>2016-03-20T15:40:55Z</time>
      </trkpt>
      <trkpt lat="45.50214" lon="6.66313">
        <ele>2256.99</ele>
        <time>2016-03-20T15:41:00Z</time>
      </trkpt>
      <trkpt lat="45.50207" lon="6.66285">
        <ele>2266.79</ele>
        <time>2016-03-20T15:41:05Z</time>
      </trkpt>
      <trkpt lat="45.50201" lon="6.66258">
        <ele>2278.03</ele>
        <time>2016-03-20T15:41:10Z</time>
      </trkpt>
      <trkpt lat="45.50195" lon="6.66228">
        <ele>2288</ele>
        <time>2016-03-20T15:41:15Z</time>
      </trkpt>
      <trkpt lat="45.5019" lon="6.66202">
        <ele>2301.45</ele>
        <time>2016-03-20T15:41:20Z</time>
      </trkpt>
      <trkpt lat="45.50186" lon="6.66175">
        <ele>2324.17</ele>
        <time>2016-03-20T15:41:25Z</time>
      </trkpt>
      <trkpt lat="45.50183" lon="6.66146">
        <ele>2325.49</ele>
        <time>2016-03-20T15:41:33Z</time>
      </trkpt>
      <trkpt lat="45.50194" lon="6.66125">
        <ele>2331.48</ele>
        <time>2016-03-20T15:41:40Z</time>
      </trkpt>
      <trkpt lat="45.5021" lon="6.66113">
        <ele>2336.49</ele>
        <time>2016-03-20T15:42:07Z</time>
      </trkpt>
      <trkpt lat="45.5023" lon="6.66118">
        <ele>2333.14</ele>
        <time>2016-03-20T15:42:16Z</time>
      </trkpt>
      <trkpt lat="45.5025" lon="6.66117">
        <ele>2331.53</ele>
        <time>2016-03-20T15:42:22Z</time>
      </trkpt>
      <trkpt lat="45.50269" lon="6.66109">
        <ele>2332.49</ele>
        <time>2016-03-20T15:42:51Z</time>
      </trkpt>
      <trkpt lat="45.50289" lon="6.661">
        <ele>2330.58</ele>
        <time>2016-03-20T15:42:56Z</time>
      </trkpt>
      <trkpt lat="45.50311" lon="6.66095">
        <ele>2329.5</ele>
        <time>2016-03-20T15:43:00Z</time>
      </trkpt>
      <trkpt lat="45.50333" lon="6.66093">
        <ele>2328.73</ele>
        <time>2016-03-20T15:43:03Z</time>
      </trkpt>
      <trkpt lat="45.50357" lon="6.6609">
        <ele>2326.74</ele>
        <time>2016-03-20T15:43:06Z</time>
      </trkpt>
      <trkpt lat="45.50381" lon="6.66087">
        <ele>2324.58</ele>
        <time>2016-03-20T15:43:09Z</time>
      </trkpt>
      <trkpt lat="45.50403" lon="6.6608">
        <ele>2321.94</ele>
        <time>2016-03-20T15:43:12Z</time>
      </trkpt>
      <trkpt lat="45.50422" lon="6.6608">
        <ele>2320.73</ele>
        <time>2016-03-20T15:43:15Z</time>
      </trkpt>
      <trkpt lat="45.5044" lon="6.66082">
        <ele>2319.73</ele>
        <time>2016-03-20T15:43:18Z</time>
      </trkpt>
      <trkpt lat="45.5046" lon="6.66082">
        <ele>2319.53</ele>
        <time>2016-03-20T15:43:22Z</time>
      </trkpt>
      <trkpt lat="45.50482" lon="6.66084">
        <ele>2317.74</ele>
        <time>2016-03-20T15:43:27Z</time>
      </trkpt>
      <trkpt lat="45.50505" lon="6.66088">
        <ele>2315.77</ele>
        <time>2016-03-20T15:43:31Z</time>
      </trkpt>
      <trkpt lat="45.50529" lon="6.66096">
        <ele>2310.99</ele>
        <time>2016-03-20T15:43:34Z</time>
      </trkpt>
      <trkpt lat="45.50548" lon="6.66105">
        <ele>2306.23</ele>
        <time>2016-03-20T15:43:36Z</time>
      </trkpt>
      <trkpt lat="45.50567" lon="6.66112">
        <ele>2303</ele>
        <time>2016-03-20T15:43:38Z</time>
      </trkpt>
      <trkpt lat="45.50586" lon="6.66118">
        <ele>2299.83</ele>
        <time>2016-03-20T15:43:40Z</time>
      </trkpt>
      <trkpt lat="45.50605" lon="6.66123">
        <ele>2296.98</ele>
        <time>2016-03-20T15:43:42Z</time>
      </trkpt>
      <trkpt lat="45.50624" lon="6.66128">
        <ele>2294.79</ele>
        <time>2016-03-20T15:43:44Z</time>
      </trkpt>
      <trkpt lat="45.50649" lon="6.66126">
        <ele>2292.58</ele>
        <time>2016-03-20T15:43:47Z</time>
      </trkpt>
      <trkpt lat="45.50668" lon="6.66118">
        <ele>2290.73</ele>
        <time>2016-03-20T15:43:51Z</time>
      </trkpt>
      <trkpt lat="45.50683" lon="6.66133">
        <ele>2280.57</ele>
        <time>2016-03-20T15:44:09Z</time>
      </trkpt>
      <trkpt lat="45.50692" lon="6.66162">
        <ele>2273.21</ele>
        <time>2016-03-20T15:44:15Z</time>
      </trkpt>
      <trkpt lat="45.50701" lon="6.6619">
        <ele>2269.78</ele>
        <time>2016-03-20T15:44:19Z</time>
      </trkpt>
      <trkpt lat="45.50699" lon="6.66217">
        <ele>2265.79</ele>
        <time>2016-03-20T15:44:22Z</time>
      </trkpt>
      <trkpt lat="45.50708" lon="6.6625">
        <ele>2255.15</ele>
        <time>2016-03-20T15:44:26Z</time>
      </trkpt>
      <trkpt lat="45.50703" lon="6.66279">
        <ele>2251.94</ele>
        <time>2016-03-20T15:44:29Z</time>
      </trkpt>
      <trkpt lat="45.50706" lon="6.66319">
        <ele>2247.02</ele>
        <time>2016-03-20T15:44:32Z</time>
      </trkpt>
      <trkpt lat="45.5071" lon="6.66345">
        <ele>2243.03</ele>
        <time>2016-03-20T15:44:34Z</time>
      </trkpt>
      <trkpt lat="45.50727" lon="6.6635">
        <ele>2235.83</ele>
        <time>2016-03-20T15:44:36Z</time>
      </trkpt>
      <trkpt lat="45.50747" lon="6.66372">
        <ele>2229.04</ele>
        <time>2016-03-20T15:44:39Z</time>
      </trkpt>
      <trkpt lat="45.50767" lon="6.66358">
        <ele>2221.86</ele>
        <time>2016-03-20T15:44:44Z</time>
      </trkpt>
      <trkpt lat="45.50783" lon="6.66343">
        <ele>2218.73</ele>
        <time>2016-03-20T15:44:49Z</time>
      </trkpt>
      <trkpt lat="45.50806" lon="6.66349">
        <ele>2214.38</ele>
        <time>2016-03-20T15:44:51Z</time>
      </trkpt>
      <trkpt lat="45.50832" lon="6.66359">
        <ele>2209.99</ele>
        <time>2016-03-20T15:44:54Z</time>
      </trkpt>
      <trkpt lat="45.50845" lon="6.66384">
        <ele>2206.03</ele>
        <time>2016-03-20T15:44:56Z</time>
      </trkpt>
      <trkpt lat="45.50865" lon="6.66389">
        <ele>2202.03</ele>
        <time>2016-03-20T15:44:58Z</time>
      </trkpt>
      <trkpt lat="45.50878" lon="6.6637">
        <ele>2188.22</ele>
        <time>2016-03-20T15:45:01Z</time>
      </trkpt>
      <trkpt lat="45.50896" lon="6.6637">
        <ele>2181.23</ele>
        <time>2016-03-20T15:45:04Z</time>
      </trkpt>
      <trkpt lat="45.5092" lon="6.66386">
        <ele>2176.02</ele>
        <time>2016-03-20T15:45:07Z</time>
      </trkpt>
      <trkpt lat="45.50953" lon="6.66411">
        <ele>2175.55</ele>
        <time>2016-03-20T15:45:09Z</time>
      </trkpt>
      <trkpt lat="45.50979" lon="6.66396">
        <ele>2173.77</ele>
        <time>2016-03-20T15:45:11Z</time>
      </trkpt>
      <trkpt lat="45.51001" lon="6.66392">
        <ele>2170.18</ele>
        <time>2016-03-20T15:45:13Z</time>
      </trkpt>
      <trkpt lat="45.51015" lon="6.66412">
        <ele>2164.83</ele>
        <time>2016-03-20T15:45:16Z</time>
      </trkpt>
      <trkpt lat="45.51029" lon="6.66435">
        <ele>2155.08</ele>
        <time>2016-03-20T15:45:20Z</time>
      </trkpt>
      <trkpt lat="45.51051" lon="6.66446">
        <ele>2147.27</ele>
        <time>2016-03-20T15:45:23Z</time>
      </trkpt>
      <trkpt lat="45.51074" lon="6.6645">
        <ele>2141.03</ele>
        <time>2016-03-20T15:45:26Z</time>
      </trkpt>
      <trkpt lat="45.51094" lon="6.66465">
        <ele>2138.74</ele>
        <time>2016-03-20T15:45:29Z</time>
      </trkpt>
    </trkseg>
  </trk>
</gpx>